<?xml version="1.0" encoding="UTF-8" standalone="no" ?><gpx xmlns="http://www.topografix.com/GPX/1/1" xmlns:gpxx="http://www.garmin.com/xmlschemas/GpxExtensions/v3" xmlns:wptx1="http://www.garmin.com/xmlschemas/WaypointExtension/v1" xmlns:gpxtpx="http://www.garmin.com/xmlschemas/TrackPointExtension/v1" creator="GuideVTT.com" version="1.1" xmlns:xsi="http://www.w3.org/2001/XMLSchema-instance" xsi:schemaLocation="http://www.topografix.com/GPX/1/1 http://www.topografix.com/GPX/1/1/gpx.xsd http://www.garmin.com/xmlschemas/GpxExtensions/v3 http://www8.garmin.com/xmlschemas/GpxExtensionsv3.xsd http://www.garmin.com/xmlschemas/WaypointExtension/v1 http://www8.garmin.com/xmlschemas/WaypointExtensionv1.xsd http://www.garmin.com/xmlschemas/TrackPointExtension/v1 http://www.garmin.com/xmlschemas/TrackPointExtensionv1.xsd">
<metadata><link href="http://www.garmin.com"><text>Garmin International</text></link><time>2013-06-22T15:13:50Z</time></metadata>
<trk><name>rp2025-32.gpx</name><extensions><gpxx:TrackExtension><gpxx:DisplayColor>Cyan</gpxx:DisplayColor></gpxx:TrackExtension></extensions><trkseg>
<trkpt lat="46.2242" lon="7.28109"><ele>484.6</ele><time>2025-11-04T10:53:22Z</time></trkpt>
<trkpt lat="46.22435" lon="7.28103"><ele>484.8</ele><time>2025-11-04T10:53:25Z</time></trkpt>
<trkpt lat="46.22458" lon="7.28089"><ele>485.2</ele><time>2025-11-04T10:53:31Z</time></trkpt>
<trkpt lat="46.22467" lon="7.28076"><ele>485.8</ele><time>2025-11-04T10:53:35Z</time></trkpt>
<trkpt lat="46.2247" lon="7.28073"><ele>485.8</ele><time>2025-11-04T10:53:36Z</time></trkpt>
<trkpt lat="46.22489" lon="7.28056"><ele>486.6</ele><time>2025-11-04T10:53:43Z</time></trkpt>
<trkpt lat="46.22497" lon="7.28049"><ele>486.8</ele><time>2025-11-04T10:53:46Z</time></trkpt>
<trkpt lat="46.22508" lon="7.28038"><ele>487.2</ele><time>2025-11-04T10:53:51Z</time></trkpt>
<trkpt lat="46.22519" lon="7.28031"><ele>487.8</ele><time>2025-11-04T10:53:56Z</time></trkpt>
<trkpt lat="46.22525" lon="7.28028"><ele>488.4</ele><time>2025-11-04T10:53:59Z</time></trkpt>
<trkpt lat="46.22536" lon="7.28023"><ele>489</ele><time>2025-11-04T10:54:04Z</time></trkpt>
<trkpt lat="46.22541" lon="7.2802"><ele>489.4</ele><time>2025-11-04T10:54:07Z</time></trkpt>
<trkpt lat="46.22546" lon="7.28016"><ele>490</ele><time>2025-11-04T10:54:10Z</time></trkpt>
<trkpt lat="46.22548" lon="7.28014"><ele>490.6</ele><time>2025-11-04T10:54:12Z</time></trkpt>
<trkpt lat="46.22554" lon="7.28021"><ele>491</ele><time>2025-11-04T10:54:16Z</time></trkpt>
<trkpt lat="46.22558" lon="7.28025"><ele>491</ele><time>2025-11-04T10:54:18Z</time></trkpt>
<trkpt lat="46.22562" lon="7.28018"><ele>490.8</ele><time>2025-11-04T10:54:20Z</time></trkpt>
<trkpt lat="46.22562" lon="7.2801"><ele>490.8</ele><time>2025-11-04T10:54:21Z</time></trkpt>
<trkpt lat="46.22562" lon="7.27995"><ele>490.8</ele><time>2025-11-04T10:54:23Z</time></trkpt>
<trkpt lat="46.22562" lon="7.27981"><ele>490.8</ele><time>2025-11-04T10:54:25Z</time></trkpt>
<trkpt lat="46.22566" lon="7.2797"><ele>490.6</ele><time>2025-11-04T10:54:27Z</time></trkpt>
<trkpt lat="46.22573" lon="7.27971"><ele>490.6</ele><time>2025-11-04T10:54:30Z</time></trkpt>
<trkpt lat="46.22576" lon="7.27977"><ele>491.2</ele><time>2025-11-04T10:54:33Z</time></trkpt>
<trkpt lat="46.2258" lon="7.27981"><ele>491.6</ele><time>2025-11-04T10:54:36Z</time></trkpt>
<trkpt lat="46.22581" lon="7.27982"><ele>491.8</ele><time>2025-11-04T10:54:37Z</time></trkpt>
<trkpt lat="46.22586" lon="7.27984"><ele>492.4</ele><time>2025-11-04T10:54:40Z</time></trkpt>
<trkpt lat="46.22593" lon="7.27986"><ele>493.2</ele><time>2025-11-04T10:54:45Z</time></trkpt>
<trkpt lat="46.22596" lon="7.27987"><ele>493.4</ele><time>2025-11-04T10:54:47Z</time></trkpt>
<trkpt lat="46.22605" lon="7.27994"><ele>494.4</ele><time>2025-11-04T10:54:54Z</time></trkpt>
<trkpt lat="46.22606" lon="7.27995"><ele>494.6</ele><time>2025-11-04T10:54:55Z</time></trkpt>
<trkpt lat="46.22614" lon="7.27997"><ele>495.2</ele><time>2025-11-04T10:55:01Z</time></trkpt>
<trkpt lat="46.22615" lon="7.27998"><ele>495.4</ele><time>2025-11-04T10:55:02Z</time></trkpt>
<trkpt lat="46.22618" lon="7.27997"><ele>495.6</ele><time>2025-11-04T10:55:04Z</time></trkpt>
<trkpt lat="46.22621" lon="7.27999"><ele>495.8</ele><time>2025-11-04T10:55:06Z</time></trkpt>
<trkpt lat="46.22629" lon="7.28003"><ele>496.6</ele><time>2025-11-04T10:55:13Z</time></trkpt>
<trkpt lat="46.22632" lon="7.28006"><ele>497</ele><time>2025-11-04T10:55:15Z</time></trkpt>
<trkpt lat="46.22637" lon="7.28008"><ele>497.4</ele><time>2025-11-04T10:55:19Z</time></trkpt>
<trkpt lat="46.2264" lon="7.2801"><ele>497.8</ele><time>2025-11-04T10:55:21Z</time></trkpt>
<trkpt lat="46.22643" lon="7.28012"><ele>498.2</ele><time>2025-11-04T10:55:24Z</time></trkpt>
<trkpt lat="46.22645" lon="7.28013"><ele>498.4</ele><time>2025-11-04T10:55:26Z</time></trkpt>
<trkpt lat="46.22649" lon="7.28015"><ele>498.8</ele><time>2025-11-04T10:55:29Z</time></trkpt>
<trkpt lat="46.22652" lon="7.28016"><ele>499.2</ele><time>2025-11-04T10:55:32Z</time></trkpt>
<trkpt lat="46.22657" lon="7.28021"><ele>499.8</ele><time>2025-11-04T10:55:36Z</time></trkpt>
<trkpt lat="46.22659" lon="7.28023"><ele>500.2</ele><time>2025-11-04T10:55:38Z</time></trkpt>
<trkpt lat="46.22666" lon="7.28025"><ele>500.8</ele><time>2025-11-04T10:55:44Z</time></trkpt>
<trkpt lat="46.22674" lon="7.28028"><ele>501.6</ele><time>2025-11-04T10:55:50Z</time></trkpt>
<trkpt lat="46.22675" lon="7.28028"><ele>501.8</ele><time>2025-11-04T10:55:51Z</time></trkpt>
<trkpt lat="46.22677" lon="7.28029"><ele>501.8</ele><time>2025-11-04T10:55:52Z</time></trkpt>
<trkpt lat="46.22678" lon="7.2803"><ele>502</ele><time>2025-11-04T10:55:53Z</time></trkpt>
<trkpt lat="46.22685" lon="7.28033"><ele>502.8</ele><time>2025-11-04T10:55:59Z</time></trkpt>
<trkpt lat="46.22687" lon="7.28035"><ele>503</ele><time>2025-11-04T10:56:01Z</time></trkpt>
<trkpt lat="46.22695" lon="7.28038"><ele>504</ele><time>2025-11-04T10:56:08Z</time></trkpt>
<trkpt lat="46.22705" lon="7.28044"><ele>505.2</ele><time>2025-11-04T10:56:16Z</time></trkpt>
<trkpt lat="46.22712" lon="7.28049"><ele>506</ele><time>2025-11-04T10:56:22Z</time></trkpt>
<trkpt lat="46.22713" lon="7.28051"><ele>506.2</ele><time>2025-11-04T10:56:23Z</time></trkpt>
<trkpt lat="46.22715" lon="7.28058"><ele>506.6</ele><time>2025-11-04T10:56:26Z</time></trkpt>
<trkpt lat="46.22715" lon="7.28061"><ele>506.8</ele><time>2025-11-04T10:56:28Z</time></trkpt>
<trkpt lat="46.22716" lon="7.28066"><ele>507</ele><time>2025-11-04T10:56:30Z</time></trkpt>
<trkpt lat="46.22716" lon="7.28072"><ele>507</ele><time>2025-11-04T10:56:32Z</time></trkpt>
<trkpt lat="46.22717" lon="7.28079"><ele>507.2</ele><time>2025-11-04T10:56:34Z</time></trkpt>
<trkpt lat="46.22716" lon="7.28088"><ele>507.4</ele><time>2025-11-04T10:56:37Z</time></trkpt>
<trkpt lat="46.22719" lon="7.28102"><ele>507.8</ele><time>2025-11-04T10:56:42Z</time></trkpt>
<trkpt lat="46.22723" lon="7.28123"><ele>508.2</ele><time>2025-11-04T10:56:49Z</time></trkpt>
<trkpt lat="46.22724" lon="7.28127"><ele>508.4</ele><time>2025-11-04T10:56:50Z</time></trkpt>
<trkpt lat="46.22733" lon="7.28149"><ele>509</ele><time>2025-11-04T10:56:58Z</time></trkpt>
<trkpt lat="46.22734" lon="7.28155"><ele>509.4</ele><time>2025-11-04T10:57:00Z</time></trkpt>
<trkpt lat="46.2274" lon="7.28163"><ele>510</ele><time>2025-11-04T10:57:05Z</time></trkpt>
<trkpt lat="46.22743" lon="7.28164"><ele>510.4</ele><time>2025-11-04T10:57:08Z</time></trkpt>
<trkpt lat="46.22745" lon="7.28161"><ele>510.8</ele><time>2025-11-04T10:57:10Z</time></trkpt>
<trkpt lat="46.22745" lon="7.2816"><ele>511</ele><time>2025-11-04T10:57:11Z</time></trkpt>
<trkpt lat="46.22747" lon="7.28154"><ele>511.4</ele><time>2025-11-04T10:57:14Z</time></trkpt>
<trkpt lat="46.22747" lon="7.28152"><ele>511.4</ele><time>2025-11-04T10:57:15Z</time></trkpt>
<trkpt lat="46.22749" lon="7.28139"><ele>512.2</ele><time>2025-11-04T10:57:21Z</time></trkpt>
<trkpt lat="46.22752" lon="7.28126"><ele>512.4</ele><time>2025-11-04T10:57:26Z</time></trkpt>
<trkpt lat="46.22754" lon="7.28118"><ele>512.8</ele><time>2025-11-04T10:57:29Z</time></trkpt>
<trkpt lat="46.2276" lon="7.28102"><ele>513.6</ele><time>2025-11-04T10:57:36Z</time></trkpt>
<trkpt lat="46.2276" lon="7.28099"><ele>513.6</ele><time>2025-11-04T10:57:37Z</time></trkpt>
<trkpt lat="46.22764" lon="7.28082"><ele>514.6</ele><time>2025-11-04T10:57:45Z</time></trkpt>
<trkpt lat="46.22765" lon="7.28078"><ele>514.8</ele><time>2025-11-04T10:57:47Z</time></trkpt>
<trkpt lat="46.22767" lon="7.28065"><ele>515.4</ele><time>2025-11-04T10:57:53Z</time></trkpt>
<trkpt lat="46.22771" lon="7.28054"><ele>516.4</ele><time>2025-11-04T10:58:00Z</time></trkpt>
<trkpt lat="46.22771" lon="7.28053"><ele>516.6</ele><time>2025-11-04T10:58:01Z</time></trkpt>
<trkpt lat="46.22773" lon="7.28043"><ele>517.6</ele><time>2025-11-04T10:58:07Z</time></trkpt>
<trkpt lat="46.22774" lon="7.28042"><ele>517.6</ele><time>2025-11-04T10:58:08Z</time></trkpt>
<trkpt lat="46.22773" lon="7.28032"><ele>518.6</ele><time>2025-11-04T10:58:14Z</time></trkpt>
<trkpt lat="46.22773" lon="7.2803"><ele>518.8</ele><time>2025-11-04T10:58:15Z</time></trkpt>
<trkpt lat="46.22773" lon="7.28025"><ele>519.2</ele><time>2025-11-04T10:58:18Z</time></trkpt>
<trkpt lat="46.22772" lon="7.28018"><ele>519.8</ele><time>2025-11-04T10:58:22Z</time></trkpt>
<trkpt lat="46.22772" lon="7.28013"><ele>520.6</ele><time>2025-11-04T10:58:26Z</time></trkpt>
<trkpt lat="46.2277" lon="7.28002"><ele>521.8</ele><time>2025-11-04T10:58:33Z</time></trkpt>
<trkpt lat="46.22767" lon="7.27994"><ele>522.8</ele><time>2025-11-04T10:58:39Z</time></trkpt>
<trkpt lat="46.22767" lon="7.27992"><ele>523</ele><time>2025-11-04T10:58:40Z</time></trkpt>
<trkpt lat="46.22765" lon="7.27984"><ele>524</ele><time>2025-11-04T10:58:46Z</time></trkpt>
<trkpt lat="46.22764" lon="7.27983"><ele>524.2</ele><time>2025-11-04T10:58:47Z</time></trkpt>
<trkpt lat="46.22763" lon="7.27974"><ele>525</ele><time>2025-11-04T10:58:52Z</time></trkpt>
<trkpt lat="46.22764" lon="7.27969"><ele>525.4</ele><time>2025-11-04T10:58:55Z</time></trkpt>
<trkpt lat="46.22765" lon="7.27964"><ele>526</ele><time>2025-11-04T10:58:59Z</time></trkpt>
<trkpt lat="46.22765" lon="7.27962"><ele>526.2</ele><time>2025-11-04T10:59:00Z</time></trkpt>
<trkpt lat="46.22767" lon="7.27955"><ele>527</ele><time>2025-11-04T10:59:05Z</time></trkpt>
<trkpt lat="46.22768" lon="7.27954"><ele>527.2</ele><time>2025-11-04T10:59:06Z</time></trkpt>
<trkpt lat="46.22768" lon="7.27953"><ele>527.4</ele><time>2025-11-04T10:59:07Z</time></trkpt>
<trkpt lat="46.22771" lon="7.27947"><ele>528.2</ele><time>2025-11-04T10:59:12Z</time></trkpt>
<trkpt lat="46.22771" lon="7.27946"><ele>528.4</ele><time>2025-11-04T10:59:13Z</time></trkpt>
<trkpt lat="46.22771" lon="7.27945"><ele>528.6</ele><time>2025-11-04T10:59:14Z</time></trkpt>
<trkpt lat="46.22773" lon="7.27939"><ele>529.2</ele><time>2025-11-04T10:59:18Z</time></trkpt>
<trkpt lat="46.22774" lon="7.27937"><ele>529.6</ele><time>2025-11-04T10:59:20Z</time></trkpt>
<trkpt lat="46.22778" lon="7.27933"><ele>530.4</ele><time>2025-11-04T10:59:25Z</time></trkpt>
<trkpt lat="46.22778" lon="7.27931"><ele>530.6</ele><time>2025-11-04T10:59:26Z</time></trkpt>
<trkpt lat="46.22779" lon="7.27923"><ele>531.6</ele><time>2025-11-04T10:59:31Z</time></trkpt>
<trkpt lat="46.2278" lon="7.2792"><ele>531.8</ele><time>2025-11-04T10:59:33Z</time></trkpt>
<trkpt lat="46.22782" lon="7.27916"><ele>532.4</ele><time>2025-11-04T10:59:37Z</time></trkpt>
<trkpt lat="46.22783" lon="7.27915"><ele>532.6</ele><time>2025-11-04T10:59:38Z</time></trkpt>
<trkpt lat="46.22785" lon="7.27912"><ele>533.2</ele><time>2025-11-04T10:59:41Z</time></trkpt>
<trkpt lat="46.22786" lon="7.27908"><ele>533.8</ele><time>2025-11-04T10:59:44Z</time></trkpt>
<trkpt lat="46.22787" lon="7.27904"><ele>534.4</ele><time>2025-11-04T10:59:47Z</time></trkpt>
<trkpt lat="46.22788" lon="7.27903"><ele>534.8</ele><time>2025-11-04T10:59:49Z</time></trkpt>
<trkpt lat="46.22788" lon="7.27902"><ele>534.8</ele><time>2025-11-04T10:59:50Z</time></trkpt>
<trkpt lat="46.2279" lon="7.27896"><ele>535.4</ele><time>2025-11-04T10:59:55Z</time></trkpt>
<trkpt lat="46.2279" lon="7.27892"><ele>536</ele><time>2025-11-04T10:59:58Z</time></trkpt>
<trkpt lat="46.22791" lon="7.2789"><ele>536.2</ele><time>2025-11-04T11:00:00Z</time></trkpt>
<trkpt lat="46.22794" lon="7.27886"><ele>537</ele><time>2025-11-04T11:00:04Z</time></trkpt>
<trkpt lat="46.22794" lon="7.27883"><ele>537.4</ele><time>2025-11-04T11:00:06Z</time></trkpt>
<trkpt lat="46.22796" lon="7.27877"><ele>538.2</ele><time>2025-11-04T11:00:11Z</time></trkpt>
<trkpt lat="46.22798" lon="7.27874"><ele>538.4</ele><time>2025-11-04T11:00:13Z</time></trkpt>
<trkpt lat="46.22799" lon="7.27868"><ele>539.2</ele><time>2025-11-04T11:00:18Z</time></trkpt>
<trkpt lat="46.228" lon="7.27866"><ele>539.6</ele><time>2025-11-04T11:00:20Z</time></trkpt>
<trkpt lat="46.22801" lon="7.27863"><ele>540.2</ele><time>2025-11-04T11:00:23Z</time></trkpt>
<trkpt lat="46.22801" lon="7.27862"><ele>540.4</ele><time>2025-11-04T11:00:24Z</time></trkpt>
<trkpt lat="46.22802" lon="7.2786"><ele>540.6</ele><time>2025-11-04T11:00:26Z</time></trkpt>
<trkpt lat="46.22804" lon="7.27855"><ele>541.4</ele><time>2025-11-04T11:00:30Z</time></trkpt>
<trkpt lat="46.22803" lon="7.2785"><ele>542</ele><time>2025-11-04T11:00:33Z</time></trkpt>
<trkpt lat="46.22802" lon="7.27845"><ele>542.6</ele><time>2025-11-04T11:00:37Z</time></trkpt>
<trkpt lat="46.22802" lon="7.27841"><ele>542.8</ele><time>2025-11-04T11:00:39Z</time></trkpt>
<trkpt lat="46.22799" lon="7.27836"><ele>543.8</ele><time>2025-11-04T11:00:44Z</time></trkpt>
<trkpt lat="46.22797" lon="7.27834"><ele>544</ele><time>2025-11-04T11:00:46Z</time></trkpt>
<trkpt lat="46.22795" lon="7.27828"><ele>544.8</ele><time>2025-11-04T11:00:50Z</time></trkpt>
<trkpt lat="46.22793" lon="7.27825"><ele>545.4</ele><time>2025-11-04T11:00:53Z</time></trkpt>
<trkpt lat="46.22792" lon="7.27823"><ele>546</ele><time>2025-11-04T11:00:56Z</time></trkpt>
<trkpt lat="46.22791" lon="7.27821"><ele>546.2</ele><time>2025-11-04T11:00:58Z</time></trkpt>
<trkpt lat="46.22787" lon="7.27816"><ele>547</ele><time>2025-11-04T11:01:04Z</time></trkpt>
<trkpt lat="46.22786" lon="7.27814"><ele>547.2</ele><time>2025-11-04T11:01:05Z</time></trkpt>
<trkpt lat="46.22784" lon="7.27807"><ele>548.2</ele><time>2025-11-04T11:01:11Z</time></trkpt>
<trkpt lat="46.22782" lon="7.27805"><ele>548.6</ele><time>2025-11-04T11:01:13Z</time></trkpt>
<trkpt lat="46.2278" lon="7.27801"><ele>549.2</ele><time>2025-11-04T11:01:17Z</time></trkpt>
<trkpt lat="46.2278" lon="7.27798"><ele>549.6</ele><time>2025-11-04T11:01:19Z</time></trkpt>
<trkpt lat="46.22778" lon="7.27792"><ele>550.2</ele><time>2025-11-04T11:01:24Z</time></trkpt>
<trkpt lat="46.22777" lon="7.27789"><ele>550.6</ele><time>2025-11-04T11:01:26Z</time></trkpt>
<trkpt lat="46.22775" lon="7.27783"><ele>551.2</ele><time>2025-11-04T11:01:31Z</time></trkpt>
<trkpt lat="46.22774" lon="7.27779"><ele>551.4</ele><time>2025-11-04T11:01:33Z</time></trkpt>
<trkpt lat="46.22774" lon="7.27767"><ele>552.4</ele><time>2025-11-04T11:01:40Z</time></trkpt>
<trkpt lat="46.22771" lon="7.27753"><ele>553</ele><time>2025-11-04T11:01:47Z</time></trkpt>
<trkpt lat="46.22768" lon="7.2774"><ele>553.4</ele><time>2025-11-04T11:01:53Z</time></trkpt>
<trkpt lat="46.22761" lon="7.2772"><ele>554</ele><time>2025-11-04T11:02:01Z</time></trkpt>
<trkpt lat="46.22751" lon="7.27701"><ele>554.4</ele><time>2025-11-04T11:02:09Z</time></trkpt>
<trkpt lat="46.22749" lon="7.27699"><ele>554.4</ele><time>2025-11-04T11:02:10Z</time></trkpt>
<trkpt lat="46.22737" lon="7.27681"><ele>554.8</ele><time>2025-11-04T11:02:17Z</time></trkpt>
<trkpt lat="46.22718" lon="7.27652"><ele>554.8</ele><time>2025-11-04T11:02:26Z</time></trkpt>
<trkpt lat="46.22698" lon="7.27623"><ele>554</ele><time>2025-11-04T11:02:32Z</time></trkpt>
<trkpt lat="46.22684" lon="7.27602"><ele>553</ele><time>2025-11-04T11:02:35Z</time></trkpt>
<trkpt lat="46.22674" lon="7.27586"><ele>552</ele><time>2025-11-04T11:02:37Z</time></trkpt>
<trkpt lat="46.2267" lon="7.27576"><ele>551.6</ele><time>2025-11-04T11:02:38Z</time></trkpt>
<trkpt lat="46.22665" lon="7.27552"><ele>550.4</ele><time>2025-11-04T11:02:40Z</time></trkpt>
<trkpt lat="46.22657" lon="7.27528"><ele>549.4</ele><time>2025-11-04T11:02:42Z</time></trkpt>
<trkpt lat="46.22651" lon="7.27518"><ele>548.8</ele><time>2025-11-04T11:02:43Z</time></trkpt>
<trkpt lat="46.22645" lon="7.27509"><ele>548.4</ele><time>2025-11-04T11:02:44Z</time></trkpt>
<trkpt lat="46.22639" lon="7.275"><ele>548</ele><time>2025-11-04T11:02:45Z</time></trkpt>
<trkpt lat="46.22628" lon="7.27481"><ele>547.6</ele><time>2025-11-04T11:02:47Z</time></trkpt>
<trkpt lat="46.22612" lon="7.27451"><ele>546.8</ele><time>2025-11-04T11:02:50Z</time></trkpt>
<trkpt lat="46.22601" lon="7.27432"><ele>546.6</ele><time>2025-11-04T11:02:52Z</time></trkpt>
<trkpt lat="46.22598" lon="7.27422"><ele>546.8</ele><time>2025-11-04T11:02:53Z</time></trkpt>
<trkpt lat="46.22596" lon="7.27412"><ele>546.8</ele><time>2025-11-04T11:02:54Z</time></trkpt>
<trkpt lat="46.22595" lon="7.27395"><ele>547.4</ele><time>2025-11-04T11:02:56Z</time></trkpt>
<trkpt lat="46.22594" lon="7.27388"><ele>547.8</ele><time>2025-11-04T11:02:57Z</time></trkpt>
<trkpt lat="46.22593" lon="7.27383"><ele>548.2</ele><time>2025-11-04T11:02:58Z</time></trkpt>
<trkpt lat="46.22593" lon="7.27374"><ele>549</ele><time>2025-11-04T11:03:00Z</time></trkpt>
<trkpt lat="46.22592" lon="7.27371"><ele>549.2</ele><time>2025-11-04T11:03:01Z</time></trkpt>
<trkpt lat="46.22592" lon="7.27367"><ele>550</ele><time>2025-11-04T11:03:04Z</time></trkpt>
<trkpt lat="46.22592" lon="7.27363"><ele>550.4</ele><time>2025-11-04T11:03:06Z</time></trkpt>
<trkpt lat="46.22589" lon="7.27355"><ele>551.2</ele><time>2025-11-04T11:03:10Z</time></trkpt>
<trkpt lat="46.22588" lon="7.27353"><ele>551.4</ele><time>2025-11-04T11:03:11Z</time></trkpt>
<trkpt lat="46.22584" lon="7.27342"><ele>552.4</ele><time>2025-11-04T11:03:16Z</time></trkpt>
<trkpt lat="46.22583" lon="7.2734"><ele>552.6</ele><time>2025-11-04T11:03:17Z</time></trkpt>
<trkpt lat="46.22577" lon="7.27327"><ele>553.4</ele><time>2025-11-04T11:03:23Z</time></trkpt>
<trkpt lat="46.22576" lon="7.27324"><ele>553.4</ele><time>2025-11-04T11:03:24Z</time></trkpt>
<trkpt lat="46.22576" lon="7.27303"><ele>554.2</ele><time>2025-11-04T11:03:31Z</time></trkpt>
<trkpt lat="46.22576" lon="7.27297"><ele>554.4</ele><time>2025-11-04T11:03:33Z</time></trkpt>
<trkpt lat="46.22576" lon="7.27289"><ele>555</ele><time>2025-11-04T11:03:36Z</time></trkpt>
<trkpt lat="46.22576" lon="7.27284"><ele>555.2</ele><time>2025-11-04T11:03:38Z</time></trkpt>
<trkpt lat="46.22576" lon="7.27278"><ele>555.4</ele><time>2025-11-04T11:03:40Z</time></trkpt>
<trkpt lat="46.22575" lon="7.27264"><ele>556.2</ele><time>2025-11-04T11:03:46Z</time></trkpt>
<trkpt lat="46.22576" lon="7.27258"><ele>556.6</ele><time>2025-11-04T11:03:48Z</time></trkpt>
<trkpt lat="46.22575" lon="7.27242"><ele>557.2</ele><time>2025-11-04T11:03:54Z</time></trkpt>
<trkpt lat="46.22576" lon="7.27212"><ele>557.6</ele><time>2025-11-04T11:04:03Z</time></trkpt>
<trkpt lat="46.22576" lon="7.27208"><ele>557.6</ele><time>2025-11-04T11:04:04Z</time></trkpt>
<trkpt lat="46.22579" lon="7.27179"><ele>557.8</ele><time>2025-11-04T11:04:11Z</time></trkpt>
<trkpt lat="46.22583" lon="7.2717"><ele>558.2</ele><time>2025-11-04T11:04:15Z</time></trkpt>
<trkpt lat="46.22588" lon="7.27169"><ele>558.6</ele><time>2025-11-04T11:04:18Z</time></trkpt>
<trkpt lat="46.22589" lon="7.27169"><ele>558.6</ele><time>2025-11-04T11:04:19Z</time></trkpt>
<trkpt lat="46.2259" lon="7.27169"><ele>558.8</ele><time>2025-11-04T11:04:20Z</time></trkpt>
<trkpt lat="46.22597" lon="7.27175"><ele>559.8</ele><time>2025-11-04T11:04:27Z</time></trkpt>
<trkpt lat="46.22598" lon="7.27175"><ele>559.8</ele><time>2025-11-04T11:04:28Z</time></trkpt>
<trkpt lat="46.22606" lon="7.27181"><ele>560.8</ele><time>2025-11-04T11:04:35Z</time></trkpt>
<trkpt lat="46.22613" lon="7.27186"><ele>561.8</ele><time>2025-11-04T11:04:42Z</time></trkpt>
<trkpt lat="46.22614" lon="7.27186"><ele>562</ele><time>2025-11-04T11:04:43Z</time></trkpt>
<trkpt lat="46.22619" lon="7.27192"><ele>562.8</ele><time>2025-11-04T11:04:49Z</time></trkpt>
<trkpt lat="46.22621" lon="7.27194"><ele>563</ele><time>2025-11-04T11:04:51Z</time></trkpt>
<trkpt lat="46.22625" lon="7.27198"><ele>563.8</ele><time>2025-11-04T11:04:55Z</time></trkpt>
<trkpt lat="46.22626" lon="7.27202"><ele>564.2</ele><time>2025-11-04T11:04:58Z</time></trkpt>
<trkpt lat="46.22629" lon="7.27206"><ele>564.6</ele><time>2025-11-04T11:05:01Z</time></trkpt>
<trkpt lat="46.22632" lon="7.2721"><ele>565.2</ele><time>2025-11-04T11:05:05Z</time></trkpt>
<trkpt lat="46.22635" lon="7.27213"><ele>565.8</ele><time>2025-11-04T11:05:09Z</time></trkpt>
<trkpt lat="46.22637" lon="7.27218"><ele>566.4</ele><time>2025-11-04T11:05:12Z</time></trkpt>
<trkpt lat="46.22637" lon="7.2722"><ele>566.4</ele><time>2025-11-04T11:05:13Z</time></trkpt>
<trkpt lat="46.22642" lon="7.27227"><ele>567.4</ele><time>2025-11-04T11:05:19Z</time></trkpt>
<trkpt lat="46.22643" lon="7.27228"><ele>567.4</ele><time>2025-11-04T11:05:20Z</time></trkpt>
<trkpt lat="46.22648" lon="7.27237"><ele>568.4</ele><time>2025-11-04T11:05:26Z</time></trkpt>
<trkpt lat="46.22649" lon="7.27239"><ele>568.6</ele><time>2025-11-04T11:05:28Z</time></trkpt>
<trkpt lat="46.22653" lon="7.27245"><ele>569.4</ele><time>2025-11-04T11:05:33Z</time></trkpt>
<trkpt lat="46.22655" lon="7.27246"><ele>569.6</ele><time>2025-11-04T11:05:35Z</time></trkpt>
<trkpt lat="46.2266" lon="7.27254"><ele>570.6</ele><time>2025-11-04T11:05:41Z</time></trkpt>
<trkpt lat="46.2266" lon="7.27255"><ele>570.8</ele><time>2025-11-04T11:05:42Z</time></trkpt>
<trkpt lat="46.22666" lon="7.27261"><ele>571.8</ele><time>2025-11-04T11:05:48Z</time></trkpt>
<trkpt lat="46.22668" lon="7.27263"><ele>572.2</ele><time>2025-11-04T11:05:50Z</time></trkpt>
<trkpt lat="46.22673" lon="7.27265"><ele>572.8</ele><time>2025-11-04T11:05:54Z</time></trkpt>
<trkpt lat="46.22677" lon="7.27265"><ele>573.4</ele><time>2025-11-04T11:05:57Z</time></trkpt>
<trkpt lat="46.22678" lon="7.27264"><ele>573.6</ele><time>2025-11-04T11:05:58Z</time></trkpt>
<trkpt lat="46.22679" lon="7.27261"><ele>574</ele><time>2025-11-04T11:06:01Z</time></trkpt>
<trkpt lat="46.22679" lon="7.2726"><ele>574.4</ele><time>2025-11-04T11:06:02Z</time></trkpt>
<trkpt lat="46.22676" lon="7.27249"><ele>575.2</ele><time>2025-11-04T11:06:08Z</time></trkpt>
<trkpt lat="46.22674" lon="7.27242"><ele>575.4</ele><time>2025-11-04T11:06:11Z</time></trkpt>
<trkpt lat="46.2267" lon="7.27229"><ele>575.8</ele><time>2025-11-04T11:06:17Z</time></trkpt>
<trkpt lat="46.22662" lon="7.27212"><ele>576.4</ele><time>2025-11-04T11:06:25Z</time></trkpt>
<trkpt lat="46.22654" lon="7.27195"><ele>577</ele><time>2025-11-04T11:06:33Z</time></trkpt>
<trkpt lat="46.2265" lon="7.27186"><ele>577.4</ele><time>2025-11-04T11:06:37Z</time></trkpt>
<trkpt lat="46.22645" lon="7.27173"><ele>578</ele><time>2025-11-04T11:06:43Z</time></trkpt>
<trkpt lat="46.2264" lon="7.27166"><ele>578.6</ele><time>2025-11-04T11:06:47Z</time></trkpt>
<trkpt lat="46.22638" lon="7.27161"><ele>579</ele><time>2025-11-04T11:06:50Z</time></trkpt>
<trkpt lat="46.22633" lon="7.2715"><ele>579.8</ele><time>2025-11-04T11:06:56Z</time></trkpt>
<trkpt lat="46.22629" lon="7.27146"><ele>580</ele><time>2025-11-04T11:06:59Z</time></trkpt>
<trkpt lat="46.22625" lon="7.27138"><ele>580.8</ele><time>2025-11-04T11:07:04Z</time></trkpt>
<trkpt lat="46.2262" lon="7.27131"><ele>581.2</ele><time>2025-11-04T11:07:08Z</time></trkpt>
<trkpt lat="46.22615" lon="7.27123"><ele>581.8</ele><time>2025-11-04T11:07:13Z</time></trkpt>
<trkpt lat="46.2261" lon="7.27116"><ele>582.4</ele><time>2025-11-04T11:07:17Z</time></trkpt>
<trkpt lat="46.22606" lon="7.27111"><ele>582.8</ele><time>2025-11-04T11:07:21Z</time></trkpt>
<trkpt lat="46.22603" lon="7.27104"><ele>583.4</ele><time>2025-11-04T11:07:25Z</time></trkpt>
<trkpt lat="46.22601" lon="7.27098"><ele>584</ele><time>2025-11-04T11:07:29Z</time></trkpt>
<trkpt lat="46.22599" lon="7.2709"><ele>584.2</ele><time>2025-11-04T11:07:33Z</time></trkpt>
<trkpt lat="46.22598" lon="7.27085"><ele>584.6</ele><time>2025-11-04T11:07:35Z</time></trkpt>
<trkpt lat="46.22597" lon="7.27083"><ele>584.8</ele><time>2025-11-04T11:07:36Z</time></trkpt>
<trkpt lat="46.22597" lon="7.27079"><ele>585</ele><time>2025-11-04T11:07:38Z</time></trkpt>
<trkpt lat="46.22594" lon="7.27072"><ele>585.6</ele><time>2025-11-04T11:07:42Z</time></trkpt>
<trkpt lat="46.22591" lon="7.27062"><ele>586</ele><time>2025-11-04T11:07:47Z</time></trkpt>
<trkpt lat="46.22588" lon="7.27055"><ele>586.6</ele><time>2025-11-04T11:07:51Z</time></trkpt>
<trkpt lat="46.22585" lon="7.27048"><ele>587.2</ele><time>2025-11-04T11:07:55Z</time></trkpt>
<trkpt lat="46.22581" lon="7.27041"><ele>587.8</ele><time>2025-11-04T11:07:59Z</time></trkpt>
<trkpt lat="46.22578" lon="7.27034"><ele>588.2</ele><time>2025-11-04T11:08:03Z</time></trkpt>
<trkpt lat="46.22575" lon="7.27027"><ele>588.8</ele><time>2025-11-04T11:08:07Z</time></trkpt>
<trkpt lat="46.22572" lon="7.27021"><ele>589.2</ele><time>2025-11-04T11:08:10Z</time></trkpt>
<trkpt lat="46.22568" lon="7.27012"><ele>590</ele><time>2025-11-04T11:08:15Z</time></trkpt>
<trkpt lat="46.22565" lon="7.27007"><ele>590.4</ele><time>2025-11-04T11:08:18Z</time></trkpt>
<trkpt lat="46.2256" lon="7.26995"><ele>591.2</ele><time>2025-11-04T11:08:24Z</time></trkpt>
<trkpt lat="46.22559" lon="7.26991"><ele>591.4</ele><time>2025-11-04T11:08:26Z</time></trkpt>
<trkpt lat="46.22554" lon="7.26978"><ele>592.4</ele><time>2025-11-04T11:08:33Z</time></trkpt>
<trkpt lat="46.22549" lon="7.26963"><ele>593.4</ele><time>2025-11-04T11:08:40Z</time></trkpt>
<trkpt lat="46.22544" lon="7.26949"><ele>594.6</ele><time>2025-11-04T11:08:47Z</time></trkpt>
<trkpt lat="46.22541" lon="7.26944"><ele>595</ele><time>2025-11-04T11:08:50Z</time></trkpt>
<trkpt lat="46.22537" lon="7.26935"><ele>595.6</ele><time>2025-11-04T11:08:55Z</time></trkpt>
<trkpt lat="46.2253" lon="7.26923"><ele>596.6</ele><time>2025-11-04T11:09:03Z</time></trkpt>
<trkpt lat="46.22523" lon="7.26908"><ele>597.6</ele><time>2025-11-04T11:09:11Z</time></trkpt>
<trkpt lat="46.22522" lon="7.26906"><ele>597.8</ele><time>2025-11-04T11:09:12Z</time></trkpt>
<trkpt lat="46.2252" lon="7.26895"><ele>598.4</ele><time>2025-11-04T11:09:18Z</time></trkpt>
<trkpt lat="46.22518" lon="7.26889"><ele>598.8</ele><time>2025-11-04T11:09:21Z</time></trkpt>
<trkpt lat="46.22514" lon="7.2688"><ele>599.4</ele><time>2025-11-04T11:09:26Z</time></trkpt>
<trkpt lat="46.22511" lon="7.26872"><ele>599.8</ele><time>2025-11-04T11:09:30Z</time></trkpt>
<trkpt lat="46.22507" lon="7.26863"><ele>600.6</ele><time>2025-11-04T11:09:35Z</time></trkpt>
<trkpt lat="46.22506" lon="7.26859"><ele>600.8</ele><time>2025-11-04T11:09:37Z</time></trkpt>
<trkpt lat="46.22502" lon="7.2685"><ele>601.6</ele><time>2025-11-04T11:09:42Z</time></trkpt>
<trkpt lat="46.225" lon="7.26844"><ele>602</ele><time>2025-11-04T11:09:45Z</time></trkpt>
<trkpt lat="46.22496" lon="7.2683"><ele>602.8</ele><time>2025-11-04T11:09:52Z</time></trkpt>
<trkpt lat="46.22495" lon="7.26828"><ele>603</ele><time>2025-11-04T11:09:53Z</time></trkpt>
<trkpt lat="46.22489" lon="7.26813"><ele>604</ele><time>2025-11-04T11:10:01Z</time></trkpt>
<trkpt lat="46.22489" lon="7.2681"><ele>604.2</ele><time>2025-11-04T11:10:02Z</time></trkpt>
<trkpt lat="46.22484" lon="7.26796"><ele>605</ele><time>2025-11-04T11:10:09Z</time></trkpt>
<trkpt lat="46.22482" lon="7.2679"><ele>605.6</ele><time>2025-11-04T11:10:12Z</time></trkpt>
<trkpt lat="46.22478" lon="7.26781"><ele>606.2</ele><time>2025-11-04T11:10:17Z</time></trkpt>
<trkpt lat="46.22477" lon="7.2678"><ele>606.4</ele><time>2025-11-04T11:10:18Z</time></trkpt>
<trkpt lat="46.22471" lon="7.26767"><ele>607.2</ele><time>2025-11-04T11:10:25Z</time></trkpt>
<trkpt lat="46.22469" lon="7.26764"><ele>607.6</ele><time>2025-11-04T11:10:27Z</time></trkpt>
<trkpt lat="46.22464" lon="7.26753"><ele>608.2</ele><time>2025-11-04T11:10:33Z</time></trkpt>
<trkpt lat="46.22462" lon="7.2675"><ele>608.4</ele><time>2025-11-04T11:10:35Z</time></trkpt>
<trkpt lat="46.22456" lon="7.2674"><ele>609.4</ele><time>2025-11-04T11:10:41Z</time></trkpt>
<trkpt lat="46.22453" lon="7.26736"><ele>609.8</ele><time>2025-11-04T11:10:44Z</time></trkpt>
<trkpt lat="46.22448" lon="7.26729"><ele>610.4</ele><time>2025-11-04T11:10:49Z</time></trkpt>
<trkpt lat="46.22447" lon="7.26728"><ele>610.6</ele><time>2025-11-04T11:10:50Z</time></trkpt>
<trkpt lat="46.22438" lon="7.26719"><ele>611.4</ele><time>2025-11-04T11:10:57Z</time></trkpt>
<trkpt lat="46.22429" lon="7.26707"><ele>612.6</ele><time>2025-11-04T11:11:05Z</time></trkpt>
<trkpt lat="46.22425" lon="7.26698"><ele>613.4</ele><time>2025-11-04T11:11:11Z</time></trkpt>
<trkpt lat="46.22423" lon="7.26695"><ele>613.6</ele><time>2025-11-04T11:11:13Z</time></trkpt>
<trkpt lat="46.22418" lon="7.26683"><ele>614</ele><time>2025-11-04T11:11:19Z</time></trkpt>
<trkpt lat="46.22413" lon="7.26665"><ele>614.6</ele><time>2025-11-04T11:11:27Z</time></trkpt>
<trkpt lat="46.22409" lon="7.26649"><ele>615</ele><time>2025-11-04T11:11:34Z</time></trkpt>
<trkpt lat="46.22413" lon="7.26637"><ele>615.8</ele><time>2025-11-04T11:11:41Z</time></trkpt>
<trkpt lat="46.22414" lon="7.26636"><ele>616</ele><time>2025-11-04T11:11:42Z</time></trkpt>
<trkpt lat="46.22419" lon="7.26636"><ele>617</ele><time>2025-11-04T11:11:46Z</time></trkpt>
<trkpt lat="46.22419" lon="7.26637"><ele>617.2</ele><time>2025-11-04T11:11:47Z</time></trkpt>
<trkpt lat="46.22421" lon="7.26639"><ele>617.8</ele><time>2025-11-04T11:11:52Z</time></trkpt>
<trkpt lat="46.22422" lon="7.2664"><ele>618</ele><time>2025-11-04T11:11:53Z</time></trkpt>
<trkpt lat="46.22424" lon="7.26641"><ele>618.4</ele><time>2025-11-04T11:11:55Z</time></trkpt>
<trkpt lat="46.22426" lon="7.26642"><ele>618.8</ele><time>2025-11-04T11:11:57Z</time></trkpt>
<trkpt lat="46.22427" lon="7.26643"><ele>619.2</ele><time>2025-11-04T11:11:59Z</time></trkpt>
<trkpt lat="46.22429" lon="7.26645"><ele>619.6</ele><time>2025-11-04T11:12:02Z</time></trkpt>
<trkpt lat="46.2243" lon="7.26645"><ele>619.8</ele><time>2025-11-04T11:12:03Z</time></trkpt>
<trkpt lat="46.22432" lon="7.26646"><ele>620.4</ele><time>2025-11-04T11:12:06Z</time></trkpt>
<trkpt lat="46.22436" lon="7.26648"><ele>621.4</ele><time>2025-11-04T11:12:10Z</time></trkpt>
<trkpt lat="46.22437" lon="7.26648"><ele>621.6</ele><time>2025-11-04T11:12:11Z</time></trkpt>
<trkpt lat="46.22444" lon="7.26648"><ele>622.8</ele><time>2025-11-04T11:12:15Z</time></trkpt>
<trkpt lat="46.22448" lon="7.2665"><ele>623.8</ele><time>2025-11-04T11:12:19Z</time></trkpt>
<trkpt lat="46.22451" lon="7.26654"><ele>624.6</ele><time>2025-11-04T11:12:22Z</time></trkpt>
<trkpt lat="46.22453" lon="7.26655"><ele>625</ele><time>2025-11-04T11:12:24Z</time></trkpt>
<trkpt lat="46.22459" lon="7.26656"><ele>626.2</ele><time>2025-11-04T11:12:28Z</time></trkpt>
<trkpt lat="46.22463" lon="7.26657"><ele>627.2</ele><time>2025-11-04T11:12:32Z</time></trkpt>
<trkpt lat="46.22467" lon="7.26659"><ele>628.2</ele><time>2025-11-04T11:12:36Z</time></trkpt>
<trkpt lat="46.22468" lon="7.2666"><ele>628.4</ele><time>2025-11-04T11:12:37Z</time></trkpt>
<trkpt lat="46.2247" lon="7.26664"><ele>629.2</ele><time>2025-11-04T11:12:41Z</time></trkpt>
<trkpt lat="46.22472" lon="7.26667"><ele>629.6</ele><time>2025-11-04T11:12:43Z</time></trkpt>
<trkpt lat="46.22473" lon="7.26671"><ele>630</ele><time>2025-11-04T11:12:47Z</time></trkpt>
<trkpt lat="46.22473" lon="7.2667"><ele>629.8</ele><time>2025-11-04T11:12:54Z</time></trkpt>
<trkpt lat="46.22473" lon="7.2667"><ele>630</ele><time>2025-11-04T11:13:01Z</time></trkpt>
<trkpt lat="46.22474" lon="7.2667"><ele>630</ele><time>2025-11-04T11:13:08Z</time></trkpt>
<trkpt lat="46.22473" lon="7.2667"><ele>630</ele><time>2025-11-04T11:13:17Z</time></trkpt>
<trkpt lat="46.22473" lon="7.2667"><ele>629.8</ele><time>2025-11-04T11:13:26Z</time></trkpt>
<trkpt lat="46.22473" lon="7.2667"><ele>629.8</ele><time>2025-11-04T11:13:28Z</time></trkpt>
<trkpt lat="46.22473" lon="7.2667"><ele>629.8</ele><time>2025-11-04T11:13:31Z</time></trkpt>
<trkpt lat="46.22473" lon="7.2667"><ele>630</ele><time>2025-11-04T11:13:35Z</time></trkpt>
<trkpt lat="46.22473" lon="7.2667"><ele>630</ele><time>2025-11-04T11:13:41Z</time></trkpt>
<trkpt lat="46.22473" lon="7.2667"><ele>630</ele><time>2025-11-04T11:13:43Z</time></trkpt>
<trkpt lat="46.22473" lon="7.2667"><ele>629.8</ele><time>2025-11-04T11:13:51Z</time></trkpt>
<trkpt lat="46.22473" lon="7.2667"><ele>629.8</ele><time>2025-11-04T11:13:59Z</time></trkpt>
<trkpt lat="46.22473" lon="7.2667"><ele>629.8</ele><time>2025-11-04T11:14:06Z</time></trkpt>
<trkpt lat="46.22473" lon="7.2667"><ele>629.8</ele><time>2025-11-04T11:14:09Z</time></trkpt>
<trkpt lat="46.22473" lon="7.2667"><ele>629.8</ele><time>2025-11-04T11:14:11Z</time></trkpt>
<trkpt lat="46.22473" lon="7.2667"><ele>629.8</ele><time>2025-11-04T11:14:14Z</time></trkpt>
<trkpt lat="46.22473" lon="7.2667"><ele>629.8</ele><time>2025-11-04T11:14:16Z</time></trkpt>
<trkpt lat="46.22473" lon="7.2667"><ele>629.8</ele><time>2025-11-04T11:14:21Z</time></trkpt>
<trkpt lat="46.22473" lon="7.2667"><ele>629.8</ele><time>2025-11-04T11:14:29Z</time></trkpt>
<trkpt lat="46.22473" lon="7.2667"><ele>629.8</ele><time>2025-11-04T11:14:36Z</time></trkpt>
<trkpt lat="46.22473" lon="7.2667"><ele>629.8</ele><time>2025-11-04T11:14:38Z</time></trkpt>
<trkpt lat="46.22473" lon="7.2667"><ele>629.8</ele><time>2025-11-04T11:14:40Z</time></trkpt>
<trkpt lat="46.22473" lon="7.2667"><ele>629.8</ele><time>2025-11-04T11:14:43Z</time></trkpt>
<trkpt lat="46.22473" lon="7.2667"><ele>629.8</ele><time>2025-11-04T11:14:45Z</time></trkpt>
<trkpt lat="46.22473" lon="7.2667"><ele>629.8</ele><time>2025-11-04T11:14:51Z</time></trkpt>
<trkpt lat="46.22473" lon="7.2667"><ele>629.8</ele><time>2025-11-04T11:14:52Z</time></trkpt>
<trkpt lat="46.22473" lon="7.2667"><ele>629.8</ele><time>2025-11-04T11:14:58Z</time></trkpt>
<trkpt lat="46.22473" lon="7.2667"><ele>629.8</ele><time>2025-11-04T11:15:05Z</time></trkpt>
<trkpt lat="46.22473" lon="7.2667"><ele>629.8</ele><time>2025-11-04T11:15:09Z</time></trkpt>
<trkpt lat="46.22473" lon="7.2667"><ele>629.8</ele><time>2025-11-04T11:15:12Z</time></trkpt>
<trkpt lat="46.22473" lon="7.2667"><ele>629.8</ele><time>2025-11-04T11:15:18Z</time></trkpt>
<trkpt lat="46.22473" lon="7.2667"><ele>629.8</ele><time>2025-11-04T11:15:27Z</time></trkpt>
<trkpt lat="46.22473" lon="7.2667"><ele>629.8</ele><time>2025-11-04T11:15:37Z</time></trkpt>
<trkpt lat="46.22473" lon="7.2667"><ele>629.8</ele><time>2025-11-04T11:15:45Z</time></trkpt>
<trkpt lat="46.22473" lon="7.2667"><ele>629.8</ele><time>2025-11-04T11:15:54Z</time></trkpt>
<trkpt lat="46.22473" lon="7.2667"><ele>629.8</ele><time>2025-11-04T11:15:57Z</time></trkpt>
<trkpt lat="46.22473" lon="7.2667"><ele>629.8</ele><time>2025-11-04T11:15:59Z</time></trkpt>
<trkpt lat="46.22473" lon="7.2667"><ele>629.8</ele><time>2025-11-04T11:16:03Z</time></trkpt>
<trkpt lat="46.22473" lon="7.2667"><ele>629.8</ele><time>2025-11-04T11:16:10Z</time></trkpt>
<trkpt lat="46.22473" lon="7.2667"><ele>629.8</ele><time>2025-11-04T11:16:13Z</time></trkpt>
<trkpt lat="46.22473" lon="7.2667"><ele>629.8</ele><time>2025-11-04T11:16:22Z</time></trkpt>
<trkpt lat="46.22473" lon="7.2667"><ele>629.8</ele><time>2025-11-04T11:16:29Z</time></trkpt>
<trkpt lat="46.22473" lon="7.2667"><ele>629.8</ele><time>2025-11-04T11:16:33Z</time></trkpt>
<trkpt lat="46.22473" lon="7.26671"><ele>629.8</ele><time>2025-11-04T11:16:36Z</time></trkpt>
<trkpt lat="46.22475" lon="7.26671"><ele>629.8</ele><time>2025-11-04T11:16:39Z</time></trkpt>
<trkpt lat="46.22477" lon="7.2667"><ele>629.8</ele><time>2025-11-04T11:16:41Z</time></trkpt>
<trkpt lat="46.22479" lon="7.26669"><ele>629.4</ele><time>2025-11-04T11:16:43Z</time></trkpt>
<trkpt lat="46.2248" lon="7.26667"><ele>629.8</ele><time>2025-11-04T11:16:45Z</time></trkpt>
<trkpt lat="46.22481" lon="7.26665"><ele>630</ele><time>2025-11-04T11:16:46Z</time></trkpt>
<trkpt lat="46.22482" lon="7.26664"><ele>630.2</ele><time>2025-11-04T11:16:50Z</time></trkpt>
<trkpt lat="46.22482" lon="7.26664"><ele>630.2</ele><time>2025-11-04T11:16:56Z</time></trkpt>
<trkpt lat="46.22482" lon="7.26664"><ele>630.2</ele><time>2025-11-04T11:17:00Z</time></trkpt>
<trkpt lat="46.22482" lon="7.26663"><ele>630.2</ele><time>2025-11-04T11:17:03Z</time></trkpt>
<trkpt lat="46.22482" lon="7.26664"><ele>630.4</ele><time>2025-11-04T11:17:04Z</time></trkpt>
<trkpt lat="46.22482" lon="7.26665"><ele>630.2</ele><time>2025-11-04T11:17:09Z</time></trkpt>
<trkpt lat="46.22482" lon="7.26664"><ele>630.2</ele><time>2025-11-04T11:17:10Z</time></trkpt>
<trkpt lat="46.22482" lon="7.26664"><ele>630.2</ele><time>2025-11-04T11:17:11Z</time></trkpt>
<trkpt lat="46.22482" lon="7.26664"><ele>630.6</ele><time>2025-11-04T11:17:14Z</time></trkpt>
<trkpt lat="46.22482" lon="7.26665"><ele>630.6</ele><time>2025-11-04T11:17:16Z</time></trkpt>
<trkpt lat="46.22482" lon="7.26665"><ele>630.4</ele><time>2025-11-04T11:17:18Z</time></trkpt>
<trkpt lat="46.22482" lon="7.26664"><ele>630.4</ele><time>2025-11-04T11:17:22Z</time></trkpt>
<trkpt lat="46.22482" lon="7.26664"><ele>630.4</ele><time>2025-11-04T11:17:29Z</time></trkpt>
<trkpt lat="46.22482" lon="7.26664"><ele>630</ele><time>2025-11-04T11:17:35Z</time></trkpt>
<trkpt lat="46.22482" lon="7.26664"><ele>630.4</ele><time>2025-11-04T11:17:41Z</time></trkpt>
<trkpt lat="46.22482" lon="7.26664"><ele>630.4</ele><time>2025-11-04T11:17:44Z</time></trkpt>
<trkpt lat="46.22482" lon="7.26664"><ele>630.2</ele><time>2025-11-04T11:17:50Z</time></trkpt>
<trkpt lat="46.22482" lon="7.26664"><ele>630.2</ele><time>2025-11-04T11:17:58Z</time></trkpt>
<trkpt lat="46.22482" lon="7.26664"><ele>630.2</ele><time>2025-11-04T11:18:02Z</time></trkpt>
<trkpt lat="46.22482" lon="7.26664"><ele>630.2</ele><time>2025-11-04T11:18:06Z</time></trkpt>
<trkpt lat="46.22481" lon="7.26663"><ele>630.2</ele><time>2025-11-04T11:18:12Z</time></trkpt>
<trkpt lat="46.22482" lon="7.26664"><ele>630.2</ele><time>2025-11-04T11:18:18Z</time></trkpt>
<trkpt lat="46.22481" lon="7.26663"><ele>630.2</ele><time>2025-11-04T11:18:20Z</time></trkpt>
<trkpt lat="46.22482" lon="7.26658"><ele>630.2</ele><time>2025-11-04T11:18:23Z</time></trkpt>
<trkpt lat="46.22482" lon="7.26656"><ele>630.2</ele><time>2025-11-04T11:18:24Z</time></trkpt>
<trkpt lat="46.22484" lon="7.26649"><ele>630.8</ele><time>2025-11-04T11:18:28Z</time></trkpt>
<trkpt lat="46.22487" lon="7.26638"><ele>631.6</ele><time>2025-11-04T11:18:34Z</time></trkpt>
<trkpt lat="46.22488" lon="7.26637"><ele>631.8</ele><time>2025-11-04T11:18:35Z</time></trkpt>
<trkpt lat="46.22489" lon="7.26628"><ele>632.4</ele><time>2025-11-04T11:18:40Z</time></trkpt>
<trkpt lat="46.22491" lon="7.26623"><ele>632.8</ele><time>2025-11-04T11:18:43Z</time></trkpt>
<trkpt lat="46.22492" lon="7.26616"><ele>633.2</ele><time>2025-11-04T11:18:47Z</time></trkpt>
<trkpt lat="46.22494" lon="7.26613"><ele>633.4</ele><time>2025-11-04T11:18:49Z</time></trkpt>
<trkpt lat="46.22496" lon="7.26609"><ele>634</ele><time>2025-11-04T11:18:52Z</time></trkpt>
<trkpt lat="46.22499" lon="7.26604"><ele>634.6</ele><time>2025-11-04T11:18:56Z</time></trkpt>
<trkpt lat="46.22501" lon="7.26601"><ele>635</ele><time>2025-11-04T11:18:58Z</time></trkpt>
<trkpt lat="46.22503" lon="7.26601"><ele>635.4</ele><time>2025-11-04T11:18:59Z</time></trkpt>
<trkpt lat="46.22504" lon="7.26599"><ele>635.8</ele><time>2025-11-04T11:19:01Z</time></trkpt>
<trkpt lat="46.22505" lon="7.26596"><ele>636.2</ele><time>2025-11-04T11:19:03Z</time></trkpt>
<trkpt lat="46.22506" lon="7.2659"><ele>637.4</ele><time>2025-11-04T11:19:08Z</time></trkpt>
<trkpt lat="46.22506" lon="7.26588"><ele>637.6</ele><time>2025-11-04T11:19:09Z</time></trkpt>
<trkpt lat="46.22505" lon="7.26584"><ele>638.4</ele><time>2025-11-04T11:19:13Z</time></trkpt>
<trkpt lat="46.22505" lon="7.26583"><ele>638.6</ele><time>2025-11-04T11:19:14Z</time></trkpt>
<trkpt lat="46.22503" lon="7.26574"><ele>639.4</ele><time>2025-11-04T11:19:20Z</time></trkpt>
<trkpt lat="46.22502" lon="7.26572"><ele>639.8</ele><time>2025-11-04T11:19:22Z</time></trkpt>
<trkpt lat="46.22499" lon="7.26568"><ele>640.6</ele><time>2025-11-04T11:19:26Z</time></trkpt>
<trkpt lat="46.22498" lon="7.26565"><ele>641.2</ele><time>2025-11-04T11:19:29Z</time></trkpt>
<trkpt lat="46.22497" lon="7.26564"><ele>641.4</ele><time>2025-11-04T11:19:30Z</time></trkpt>
<trkpt lat="46.22496" lon="7.26561"><ele>641.8</ele><time>2025-11-04T11:19:33Z</time></trkpt>
<trkpt lat="46.22493" lon="7.26558"><ele>642.2</ele><time>2025-11-04T11:19:36Z</time></trkpt>
<trkpt lat="46.22493" lon="7.26557"><ele>642.4</ele><time>2025-11-04T11:19:37Z</time></trkpt>
<trkpt lat="46.22491" lon="7.26555"><ele>642.8</ele><time>2025-11-04T11:19:40Z</time></trkpt>
<trkpt lat="46.22486" lon="7.2655"><ele>644</ele><time>2025-11-04T11:19:46Z</time></trkpt>
<trkpt lat="46.22482" lon="7.26543"><ele>645</ele><time>2025-11-04T11:19:53Z</time></trkpt>
<trkpt lat="46.22478" lon="7.26538"><ele>646</ele><time>2025-11-04T11:19:59Z</time></trkpt>
<trkpt lat="46.22477" lon="7.26537"><ele>646.2</ele><time>2025-11-04T11:20:00Z</time></trkpt>
<trkpt lat="46.22474" lon="7.26535"><ele>647</ele><time>2025-11-04T11:20:04Z</time></trkpt>
<trkpt lat="46.22473" lon="7.26534"><ele>647.2</ele><time>2025-11-04T11:20:05Z</time></trkpt>
<trkpt lat="46.22472" lon="7.26533"><ele>647.4</ele><time>2025-11-04T11:20:06Z</time></trkpt>
<trkpt lat="46.22472" lon="7.26531"><ele>647.8</ele><time>2025-11-04T11:20:08Z</time></trkpt>
<trkpt lat="46.22473" lon="7.26527"><ele>648.2</ele><time>2025-11-04T11:20:11Z</time></trkpt>
<trkpt lat="46.22473" lon="7.26525"><ele>648.4</ele><time>2025-11-04T11:20:12Z</time></trkpt>
<trkpt lat="46.22478" lon="7.26522"><ele>649</ele><time>2025-11-04T11:20:17Z</time></trkpt>
<trkpt lat="46.22481" lon="7.26523"><ele>649.4</ele><time>2025-11-04T11:20:20Z</time></trkpt>
<trkpt lat="46.22485" lon="7.26527"><ele>650.2</ele><time>2025-11-04T11:20:25Z</time></trkpt>
<trkpt lat="46.22486" lon="7.26529"><ele>650.4</ele><time>2025-11-04T11:20:27Z</time></trkpt>
<trkpt lat="46.22491" lon="7.26531"><ele>651.2</ele><time>2025-11-04T11:20:32Z</time></trkpt>
<trkpt lat="46.22493" lon="7.26532"><ele>651.6</ele><time>2025-11-04T11:20:34Z</time></trkpt>
<trkpt lat="46.22498" lon="7.26532"><ele>652.4</ele><time>2025-11-04T11:20:40Z</time></trkpt>
<trkpt lat="46.22499" lon="7.26531"><ele>652.6</ele><time>2025-11-04T11:20:41Z</time></trkpt>
<trkpt lat="46.22502" lon="7.26528"><ele>653.4</ele><time>2025-11-04T11:20:45Z</time></trkpt>
<trkpt lat="46.22502" lon="7.26527"><ele>653.6</ele><time>2025-11-04T11:20:46Z</time></trkpt>
<trkpt lat="46.22503" lon="7.26521"><ele>654.6</ele><time>2025-11-04T11:20:51Z</time></trkpt>
<trkpt lat="46.22504" lon="7.2652"><ele>654.8</ele><time>2025-11-04T11:20:52Z</time></trkpt>
<trkpt lat="46.22506" lon="7.26516"><ele>655.8</ele><time>2025-11-04T11:20:56Z</time></trkpt>
<trkpt lat="46.22507" lon="7.26514"><ele>656</ele><time>2025-11-04T11:20:57Z</time></trkpt>
<trkpt lat="46.22508" lon="7.26508"><ele>656.8</ele><time>2025-11-04T11:21:02Z</time></trkpt>
<trkpt lat="46.22508" lon="7.26508"><ele>657</ele><time>2025-11-04T11:21:03Z</time></trkpt>
<trkpt lat="46.22511" lon="7.26502"><ele>658</ele><time>2025-11-04T11:21:08Z</time></trkpt>
<trkpt lat="46.22511" lon="7.26501"><ele>658</ele><time>2025-11-04T11:21:09Z</time></trkpt>
<trkpt lat="46.22514" lon="7.26496"><ele>659</ele><time>2025-11-04T11:21:14Z</time></trkpt>
<trkpt lat="46.22515" lon="7.26495"><ele>659.2</ele><time>2025-11-04T11:21:15Z</time></trkpt>
<trkpt lat="46.22518" lon="7.2649"><ele>660.4</ele><time>2025-11-04T11:21:21Z</time></trkpt>
<trkpt lat="46.22522" lon="7.26483"><ele>661.4</ele><time>2025-11-04T11:21:27Z</time></trkpt>
<trkpt lat="46.22523" lon="7.26481"><ele>661.8</ele><time>2025-11-04T11:21:29Z</time></trkpt>
<trkpt lat="46.22525" lon="7.2648"><ele>662.6</ele><time>2025-11-04T11:21:32Z</time></trkpt>
<trkpt lat="46.22527" lon="7.26478"><ele>663.2</ele><time>2025-11-04T11:21:35Z</time></trkpt>
<trkpt lat="46.22527" lon="7.26476"><ele>663.6</ele><time>2025-11-04T11:21:37Z</time></trkpt>
<trkpt lat="46.22527" lon="7.26474"><ele>663.8</ele><time>2025-11-04T11:21:39Z</time></trkpt>
<trkpt lat="46.22526" lon="7.26471"><ele>664.2</ele><time>2025-11-04T11:21:41Z</time></trkpt>
<trkpt lat="46.22525" lon="7.26468"><ele>664.6</ele><time>2025-11-04T11:21:44Z</time></trkpt>
<trkpt lat="46.22525" lon="7.26463"><ele>665.4</ele><time>2025-11-04T11:21:47Z</time></trkpt>
<trkpt lat="46.22525" lon="7.2646"><ele>665.8</ele><time>2025-11-04T11:21:49Z</time></trkpt>
<trkpt lat="46.22526" lon="7.26455"><ele>666.8</ele><time>2025-11-04T11:21:53Z</time></trkpt>
<trkpt lat="46.22526" lon="7.26454"><ele>667</ele><time>2025-11-04T11:21:54Z</time></trkpt>
<trkpt lat="46.22525" lon="7.26453"><ele>667.2</ele><time>2025-11-04T11:21:55Z</time></trkpt>
<trkpt lat="46.22524" lon="7.2645"><ele>667.8</ele><time>2025-11-04T11:21:57Z</time></trkpt>
<trkpt lat="46.22524" lon="7.26449"><ele>668</ele><time>2025-11-04T11:21:58Z</time></trkpt>
<trkpt lat="46.22525" lon="7.26448"><ele>668.4</ele><time>2025-11-04T11:21:59Z</time></trkpt>
<trkpt lat="46.22526" lon="7.26443"><ele>669</ele><time>2025-11-04T11:22:02Z</time></trkpt>
<trkpt lat="46.22526" lon="7.26441"><ele>669.4</ele><time>2025-11-04T11:22:03Z</time></trkpt>
<trkpt lat="46.2253" lon="7.26439"><ele>670.2</ele><time>2025-11-04T11:22:06Z</time></trkpt>
<trkpt lat="46.22532" lon="7.26439"><ele>670.8</ele><time>2025-11-04T11:22:08Z</time></trkpt>
<trkpt lat="46.22535" lon="7.26441"><ele>671.4</ele><time>2025-11-04T11:22:10Z</time></trkpt>
<trkpt lat="46.22541" lon="7.26446"><ele>672</ele><time>2025-11-04T11:22:15Z</time></trkpt>
<trkpt lat="46.22547" lon="7.26452"><ele>672.4</ele><time>2025-11-04T11:22:19Z</time></trkpt>
<trkpt lat="46.22549" lon="7.26455"><ele>672.6</ele><time>2025-11-04T11:22:21Z</time></trkpt>
<trkpt lat="46.22553" lon="7.26459"><ele>672.8</ele><time>2025-11-04T11:22:24Z</time></trkpt>
<trkpt lat="46.22564" lon="7.26471"><ele>673.6</ele><time>2025-11-04T11:22:32Z</time></trkpt>
<trkpt lat="46.2257" lon="7.26486"><ele>674.6</ele><time>2025-11-04T11:22:39Z</time></trkpt>
<trkpt lat="46.22571" lon="7.26489"><ele>674.6</ele><time>2025-11-04T11:22:40Z</time></trkpt>
<trkpt lat="46.22576" lon="7.26507"><ele>675.8</ele><time>2025-11-04T11:22:48Z</time></trkpt>
<trkpt lat="46.22582" lon="7.26521"><ele>676.8</ele><time>2025-11-04T11:22:55Z</time></trkpt>
<trkpt lat="46.22584" lon="7.26524"><ele>677.2</ele><time>2025-11-04T11:22:57Z</time></trkpt>
<trkpt lat="46.22588" lon="7.26532"><ele>678</ele><time>2025-11-04T11:23:02Z</time></trkpt>
<trkpt lat="46.22592" lon="7.26541"><ele>679</ele><time>2025-11-04T11:23:07Z</time></trkpt>
<trkpt lat="46.22593" lon="7.26542"><ele>679</ele><time>2025-11-04T11:23:08Z</time></trkpt>
<trkpt lat="46.22598" lon="7.26553"><ele>680</ele><time>2025-11-04T11:23:14Z</time></trkpt>
<trkpt lat="46.226" lon="7.26556"><ele>680.4</ele><time>2025-11-04T11:23:16Z</time></trkpt>
<trkpt lat="46.22605" lon="7.26562"><ele>681.2</ele><time>2025-11-04T11:23:20Z</time></trkpt>
<trkpt lat="46.22609" lon="7.26568"><ele>681.6</ele><time>2025-11-04T11:23:24Z</time></trkpt>
<trkpt lat="46.22611" lon="7.26574"><ele>682.2</ele><time>2025-11-04T11:23:27Z</time></trkpt>
<trkpt lat="46.22615" lon="7.26584"><ele>682.8</ele><time>2025-11-04T11:23:32Z</time></trkpt>
<trkpt lat="46.22616" lon="7.26591"><ele>683.2</ele><time>2025-11-04T11:23:35Z</time></trkpt>
<trkpt lat="46.22617" lon="7.26601"><ele>684.2</ele><time>2025-11-04T11:23:40Z</time></trkpt>
<trkpt lat="46.22617" lon="7.26603"><ele>684.2</ele><time>2025-11-04T11:23:41Z</time></trkpt>
<trkpt lat="46.22621" lon="7.26614"><ele>685.4</ele><time>2025-11-04T11:23:47Z</time></trkpt>
<trkpt lat="46.22622" lon="7.26615"><ele>685.6</ele><time>2025-11-04T11:23:48Z</time></trkpt>
<trkpt lat="46.22629" lon="7.26623"><ele>686.4</ele><time>2025-11-04T11:23:54Z</time></trkpt>
<trkpt lat="46.22634" lon="7.26628"><ele>686.8</ele><time>2025-11-04T11:23:58Z</time></trkpt>
<trkpt lat="46.2264" lon="7.26636"><ele>687.6</ele><time>2025-11-04T11:24:03Z</time></trkpt>
<trkpt lat="46.22642" lon="7.26641"><ele>687.6</ele><time>2025-11-04T11:24:05Z</time></trkpt>
<trkpt lat="46.22651" lon="7.26658"><ele>688.4</ele><time>2025-11-04T11:24:13Z</time></trkpt>
<trkpt lat="46.22652" lon="7.2666"><ele>688.6</ele><time>2025-11-04T11:24:14Z</time></trkpt>
<trkpt lat="46.22658" lon="7.26686"><ele>689.4</ele><time>2025-11-04T11:24:24Z</time></trkpt>
<trkpt lat="46.22658" lon="7.26691"><ele>689.6</ele><time>2025-11-04T11:24:26Z</time></trkpt>
<trkpt lat="46.22662" lon="7.26712"><ele>690.4</ele><time>2025-11-04T11:24:34Z</time></trkpt>
<trkpt lat="46.22663" lon="7.26714"><ele>690.6</ele><time>2025-11-04T11:24:35Z</time></trkpt>
<trkpt lat="46.2267" lon="7.26725"><ele>691.2</ele><time>2025-11-04T11:24:41Z</time></trkpt>
<trkpt lat="46.22684" lon="7.2674"><ele>691.6</ele><time>2025-11-04T11:24:49Z</time></trkpt>
<trkpt lat="46.22693" lon="7.2676"><ele>692.6</ele><time>2025-11-04T11:24:57Z</time></trkpt>
<trkpt lat="46.22693" lon="7.26763"><ele>692.8</ele><time>2025-11-04T11:24:58Z</time></trkpt>
<trkpt lat="46.22698" lon="7.26784"><ele>694</ele><time>2025-11-04T11:25:06Z</time></trkpt>
<trkpt lat="46.22705" lon="7.26799"><ele>694.4</ele><time>2025-11-04T11:25:12Z</time></trkpt>
<trkpt lat="46.22708" lon="7.26803"><ele>694.6</ele><time>2025-11-04T11:25:14Z</time></trkpt>
<trkpt lat="46.22712" lon="7.26809"><ele>695</ele><time>2025-11-04T11:25:17Z</time></trkpt>
<trkpt lat="46.2272" lon="7.26825"><ele>695.8</ele><time>2025-11-04T11:25:24Z</time></trkpt>
<trkpt lat="46.22722" lon="7.26829"><ele>696</ele><time>2025-11-04T11:25:26Z</time></trkpt>
<trkpt lat="46.22732" lon="7.26839"><ele>696.8</ele><time>2025-11-04T11:25:32Z</time></trkpt>
<trkpt lat="46.22737" lon="7.26845"><ele>697</ele><time>2025-11-04T11:25:35Z</time></trkpt>
<trkpt lat="46.22747" lon="7.26857"><ele>697.8</ele><time>2025-11-04T11:25:41Z</time></trkpt>
<trkpt lat="46.22751" lon="7.26863"><ele>698.2</ele><time>2025-11-04T11:25:44Z</time></trkpt>
<trkpt lat="46.22757" lon="7.26872"><ele>698.8</ele><time>2025-11-04T11:25:48Z</time></trkpt>
<trkpt lat="46.22761" lon="7.26878"><ele>699.2</ele><time>2025-11-04T11:25:51Z</time></trkpt>
<trkpt lat="46.22768" lon="7.26889"><ele>699.8</ele><time>2025-11-04T11:25:56Z</time></trkpt>
<trkpt lat="46.22772" lon="7.26895"><ele>700.2</ele><time>2025-11-04T11:25:59Z</time></trkpt>
<trkpt lat="46.22776" lon="7.26901"><ele>700.6</ele><time>2025-11-04T11:26:02Z</time></trkpt>
<trkpt lat="46.22782" lon="7.26909"><ele>701.4</ele><time>2025-11-04T11:26:06Z</time></trkpt>
<trkpt lat="46.22791" lon="7.26919"><ele>702.2</ele><time>2025-11-04T11:26:12Z</time></trkpt>
<trkpt lat="46.22792" lon="7.26921"><ele>702.4</ele><time>2025-11-04T11:26:13Z</time></trkpt>
<trkpt lat="46.22803" lon="7.26936"><ele>703.6</ele><time>2025-11-04T11:26:21Z</time></trkpt>
<trkpt lat="46.22814" lon="7.26953"><ele>704.6</ele><time>2025-11-04T11:26:29Z</time></trkpt>
<trkpt lat="46.22822" lon="7.26975"><ele>705.8</ele><time>2025-11-04T11:26:38Z</time></trkpt>
<trkpt lat="46.22824" lon="7.26978"><ele>706</ele><time>2025-11-04T11:26:39Z</time></trkpt>
<trkpt lat="46.22832" lon="7.26993"><ele>706.8</ele><time>2025-11-04T11:26:46Z</time></trkpt>
<trkpt lat="46.22839" lon="7.27004"><ele>707.6</ele><time>2025-11-04T11:26:51Z</time></trkpt>
<trkpt lat="46.22844" lon="7.27008"><ele>708</ele><time>2025-11-04T11:26:54Z</time></trkpt>
<trkpt lat="46.22854" lon="7.27018"><ele>708</ele><time>2025-11-04T11:26:59Z</time></trkpt>
<trkpt lat="46.22875" lon="7.27034"><ele>708.6</ele><time>2025-11-04T11:27:07Z</time></trkpt>
<trkpt lat="46.22885" lon="7.27054"><ele>708.8</ele><time>2025-11-04T11:27:13Z</time></trkpt>
<trkpt lat="46.22893" lon="7.27074"><ele>709</ele><time>2025-11-04T11:27:18Z</time></trkpt>
<trkpt lat="46.22898" lon="7.27087"><ele>709</ele><time>2025-11-04T11:27:21Z</time></trkpt>
<trkpt lat="46.2291" lon="7.2713"><ele>709.2</ele><time>2025-11-04T11:27:30Z</time></trkpt>
<trkpt lat="46.22921" lon="7.27153"><ele>710</ele><time>2025-11-04T11:27:36Z</time></trkpt>
<trkpt lat="46.22933" lon="7.27168"><ele>711</ele><time>2025-11-04T11:27:42Z</time></trkpt>
<trkpt lat="46.22937" lon="7.27172"><ele>711.4</ele><time>2025-11-04T11:27:44Z</time></trkpt>
<trkpt lat="46.22947" lon="7.2718"><ele>712.2</ele><time>2025-11-04T11:27:49Z</time></trkpt>
<trkpt lat="46.22956" lon="7.27185"><ele>712.6</ele><time>2025-11-04T11:27:53Z</time></trkpt>
<trkpt lat="46.22968" lon="7.27191"><ele>713.2</ele><time>2025-11-04T11:27:58Z</time></trkpt>
<trkpt lat="46.2297" lon="7.27192"><ele>713.4</ele><time>2025-11-04T11:27:59Z</time></trkpt>
<trkpt lat="46.22987" lon="7.27198"><ele>714.4</ele><time>2025-11-04T11:28:06Z</time></trkpt>
<trkpt lat="46.22989" lon="7.27199"><ele>714.4</ele><time>2025-11-04T11:28:07Z</time></trkpt>
<trkpt lat="46.23001" lon="7.27208"><ele>715.4</ele><time>2025-11-04T11:28:13Z</time></trkpt>
<trkpt lat="46.23013" lon="7.27223"><ele>716.4</ele><time>2025-11-04T11:28:20Z</time></trkpt>
<trkpt lat="46.23015" lon="7.27226"><ele>716.6</ele><time>2025-11-04T11:28:21Z</time></trkpt>
<trkpt lat="46.23026" lon="7.27247"><ele>717.6</ele><time>2025-11-04T11:28:28Z</time></trkpt>
<trkpt lat="46.23033" lon="7.27257"><ele>718</ele><time>2025-11-04T11:28:32Z</time></trkpt>
<trkpt lat="46.23039" lon="7.27266"><ele>718.6</ele><time>2025-11-04T11:28:36Z</time></trkpt>
<trkpt lat="46.23047" lon="7.27276"><ele>719.2</ele><time>2025-11-04T11:28:41Z</time></trkpt>
<trkpt lat="46.23051" lon="7.27281"><ele>719.6</ele><time>2025-11-04T11:28:44Z</time></trkpt>
<trkpt lat="46.23059" lon="7.27297"><ele>720.8</ele><time>2025-11-04T11:28:51Z</time></trkpt>
<trkpt lat="46.23063" lon="7.27312"><ele>721.8</ele><time>2025-11-04T11:28:58Z</time></trkpt>
<trkpt lat="46.23066" lon="7.27316"><ele>722.2</ele><time>2025-11-04T11:29:01Z</time></trkpt>
<trkpt lat="46.23069" lon="7.27313"><ele>722.8</ele><time>2025-11-04T11:29:04Z</time></trkpt>
<trkpt lat="46.23069" lon="7.27312"><ele>723</ele><time>2025-11-04T11:29:05Z</time></trkpt>
<trkpt lat="46.23069" lon="7.2731"><ele>723.2</ele><time>2025-11-04T11:29:06Z</time></trkpt>
<trkpt lat="46.23068" lon="7.27304"><ele>723.6</ele><time>2025-11-04T11:29:09Z</time></trkpt>
<trkpt lat="46.23067" lon="7.27301"><ele>724</ele><time>2025-11-04T11:29:11Z</time></trkpt>
<trkpt lat="46.23065" lon="7.27287"><ele>725</ele><time>2025-11-04T11:29:18Z</time></trkpt>
<trkpt lat="46.23065" lon="7.27285"><ele>725</ele><time>2025-11-04T11:29:19Z</time></trkpt>
<trkpt lat="46.23062" lon="7.2727"><ele>725.8</ele><time>2025-11-04T11:29:26Z</time></trkpt>
<trkpt lat="46.23061" lon="7.27266"><ele>726.2</ele><time>2025-11-04T11:29:28Z</time></trkpt>
<trkpt lat="46.23058" lon="7.27256"><ele>727</ele><time>2025-11-04T11:29:34Z</time></trkpt>
<trkpt lat="46.23057" lon="7.27253"><ele>727.2</ele><time>2025-11-04T11:29:35Z</time></trkpt>
<trkpt lat="46.23054" lon="7.27241"><ele>727.8</ele><time>2025-11-04T11:29:41Z</time></trkpt>
<trkpt lat="46.23052" lon="7.27235"><ele>728.2</ele><time>2025-11-04T11:29:44Z</time></trkpt>
<trkpt lat="46.23048" lon="7.27227"><ele>728.6</ele><time>2025-11-04T11:29:48Z</time></trkpt>
<trkpt lat="46.23043" lon="7.27219"><ele>729.2</ele><time>2025-11-04T11:29:53Z</time></trkpt>
<trkpt lat="46.23039" lon="7.27215"><ele>729.8</ele><time>2025-11-04T11:29:56Z</time></trkpt>
<trkpt lat="46.23037" lon="7.2721"><ele>730.4</ele><time>2025-11-04T11:30:00Z</time></trkpt>
<trkpt lat="46.23035" lon="7.27206"><ele>730.6</ele><time>2025-11-04T11:30:02Z</time></trkpt>
<trkpt lat="46.23027" lon="7.27195"><ele>731</ele><time>2025-11-04T11:30:09Z</time></trkpt>
<trkpt lat="46.23025" lon="7.27192"><ele>731.4</ele><time>2025-11-04T11:30:11Z</time></trkpt>
<trkpt lat="46.23015" lon="7.27179"><ele>732.2</ele><time>2025-11-04T11:30:19Z</time></trkpt>
<trkpt lat="46.23013" lon="7.27176"><ele>732.4</ele><time>2025-11-04T11:30:21Z</time></trkpt>
<trkpt lat="46.23005" lon="7.27164"><ele>733.4</ele><time>2025-11-04T11:30:28Z</time></trkpt>
<trkpt lat="46.23" lon="7.27157"><ele>733.8</ele><time>2025-11-04T11:30:32Z</time></trkpt>
<trkpt lat="46.22995" lon="7.27147"><ele>734.6</ele><time>2025-11-04T11:30:37Z</time></trkpt>
<trkpt lat="46.22993" lon="7.2714"><ele>735</ele><time>2025-11-04T11:30:40Z</time></trkpt>
<trkpt lat="46.22988" lon="7.2713"><ele>735.6</ele><time>2025-11-04T11:30:45Z</time></trkpt>
<trkpt lat="46.22986" lon="7.27123"><ele>736.4</ele><time>2025-11-04T11:30:49Z</time></trkpt>
<trkpt lat="46.22985" lon="7.27119"><ele>736.6</ele><time>2025-11-04T11:30:51Z</time></trkpt>
<trkpt lat="46.22982" lon="7.27114"><ele>737.2</ele><time>2025-11-04T11:30:55Z</time></trkpt>
<trkpt lat="46.22979" lon="7.27108"><ele>737.8</ele><time>2025-11-04T11:30:59Z</time></trkpt>
<trkpt lat="46.22979" lon="7.27106"><ele>738</ele><time>2025-11-04T11:31:01Z</time></trkpt>
<trkpt lat="46.22977" lon="7.27101"><ele>738.8</ele><time>2025-11-04T11:31:04Z</time></trkpt>
<trkpt lat="46.22975" lon="7.27097"><ele>739</ele><time>2025-11-04T11:31:06Z</time></trkpt>
<trkpt lat="46.22972" lon="7.27092"><ele>739.8</ele><time>2025-11-04T11:31:10Z</time></trkpt>
<trkpt lat="46.22971" lon="7.27091"><ele>740</ele><time>2025-11-04T11:31:11Z</time></trkpt>
<trkpt lat="46.22969" lon="7.27086"><ele>740.6</ele><time>2025-11-04T11:31:14Z</time></trkpt>
<trkpt lat="46.22968" lon="7.27082"><ele>741</ele><time>2025-11-04T11:31:16Z</time></trkpt>
<trkpt lat="46.22966" lon="7.27075"><ele>741.8</ele><time>2025-11-04T11:31:21Z</time></trkpt>
<trkpt lat="46.22966" lon="7.27074"><ele>741.8</ele><time>2025-11-04T11:31:22Z</time></trkpt>
<trkpt lat="46.22966" lon="7.27073"><ele>742</ele><time>2025-11-04T11:31:23Z</time></trkpt>
<trkpt lat="46.22965" lon="7.27069"><ele>742.4</ele><time>2025-11-04T11:31:27Z</time></trkpt>
<trkpt lat="46.22962" lon="7.27064"><ele>743</ele><time>2025-11-04T11:31:32Z</time></trkpt>
<trkpt lat="46.22962" lon="7.27062"><ele>743.2</ele><time>2025-11-04T11:31:33Z</time></trkpt>
<trkpt lat="46.2296" lon="7.27054"><ele>744</ele><time>2025-11-04T11:31:38Z</time></trkpt>
<trkpt lat="46.2296" lon="7.27053"><ele>744.2</ele><time>2025-11-04T11:31:39Z</time></trkpt>
<trkpt lat="46.22958" lon="7.27045"><ele>745.2</ele><time>2025-11-04T11:31:44Z</time></trkpt>
<trkpt lat="46.22958" lon="7.27042"><ele>745.4</ele><time>2025-11-04T11:31:46Z</time></trkpt>
<trkpt lat="46.22957" lon="7.2703"><ele>746.4</ele><time>2025-11-04T11:31:52Z</time></trkpt>
<trkpt lat="46.22953" lon="7.27019"><ele>747.4</ele><time>2025-11-04T11:31:58Z</time></trkpt>
<trkpt lat="46.22952" lon="7.27017"><ele>747.6</ele><time>2025-11-04T11:31:59Z</time></trkpt>
<trkpt lat="46.2295" lon="7.27007"><ele>748.6</ele><time>2025-11-04T11:32:04Z</time></trkpt>
<trkpt lat="46.22949" lon="7.27003"><ele>749.2</ele><time>2025-11-04T11:32:06Z</time></trkpt>
<trkpt lat="46.22947" lon="7.26998"><ele>749.6</ele><time>2025-11-04T11:32:09Z</time></trkpt>
<trkpt lat="46.22945" lon="7.26993"><ele>750.4</ele><time>2025-11-04T11:32:13Z</time></trkpt>
<trkpt lat="46.22945" lon="7.2699"><ele>750.6</ele><time>2025-11-04T11:32:14Z</time></trkpt>
<trkpt lat="46.22944" lon="7.26988"><ele>750.8</ele><time>2025-11-04T11:32:15Z</time></trkpt>
<trkpt lat="46.22943" lon="7.26986"><ele>751</ele><time>2025-11-04T11:32:17Z</time></trkpt>
<trkpt lat="46.22941" lon="7.26979"><ele>751.8</ele><time>2025-11-04T11:32:21Z</time></trkpt>
<trkpt lat="46.22939" lon="7.26973"><ele>752.4</ele><time>2025-11-04T11:32:25Z</time></trkpt>
<trkpt lat="46.22937" lon="7.2697"><ele>752.8</ele><time>2025-11-04T11:32:27Z</time></trkpt>
<trkpt lat="46.22934" lon="7.26959"><ele>753.8</ele><time>2025-11-04T11:32:33Z</time></trkpt>
<trkpt lat="46.22934" lon="7.26958"><ele>754</ele><time>2025-11-04T11:32:34Z</time></trkpt>
<trkpt lat="46.2293" lon="7.26948"><ele>755</ele><time>2025-11-04T11:32:40Z</time></trkpt>
<trkpt lat="46.22929" lon="7.26946"><ele>755.2</ele><time>2025-11-04T11:32:41Z</time></trkpt>
<trkpt lat="46.22926" lon="7.26938"><ele>756.2</ele><time>2025-11-04T11:32:46Z</time></trkpt>
<trkpt lat="46.22926" lon="7.26935"><ele>756.4</ele><time>2025-11-04T11:32:48Z</time></trkpt>
<trkpt lat="46.22923" lon="7.26925"><ele>757.4</ele><time>2025-11-04T11:32:54Z</time></trkpt>
<trkpt lat="46.22922" lon="7.26919"><ele>758</ele><time>2025-11-04T11:32:58Z</time></trkpt>
<trkpt lat="46.22921" lon="7.26915"><ele>758.2</ele><time>2025-11-04T11:33:00Z</time></trkpt>
<trkpt lat="46.2292" lon="7.26913"><ele>758.4</ele><time>2025-11-04T11:33:01Z</time></trkpt>
<trkpt lat="46.2292" lon="7.26911"><ele>758.6</ele><time>2025-11-04T11:33:02Z</time></trkpt>
<trkpt lat="46.22915" lon="7.26896"><ele>759.6</ele><time>2025-11-04T11:33:10Z</time></trkpt>
<trkpt lat="46.2291" lon="7.2688"><ele>760.2</ele><time>2025-11-04T11:33:18Z</time></trkpt>
<trkpt lat="46.22909" lon="7.26875"><ele>760.6</ele><time>2025-11-04T11:33:21Z</time></trkpt>
<trkpt lat="46.22909" lon="7.26874"><ele>760.8</ele><time>2025-11-04T11:33:22Z</time></trkpt>
<trkpt lat="46.22905" lon="7.26864"><ele>761.2</ele><time>2025-11-04T11:33:28Z</time></trkpt>
<trkpt lat="46.22903" lon="7.2686"><ele>761.6</ele><time>2025-11-04T11:33:30Z</time></trkpt>
<trkpt lat="46.22902" lon="7.26859"><ele>761.6</ele><time>2025-11-04T11:33:31Z</time></trkpt>
<trkpt lat="46.22896" lon="7.26848"><ele>762.4</ele><time>2025-11-04T11:33:37Z</time></trkpt>
<trkpt lat="46.22893" lon="7.26843"><ele>762.8</ele><time>2025-11-04T11:33:40Z</time></trkpt>
<trkpt lat="46.2289" lon="7.26835"><ele>763.2</ele><time>2025-11-04T11:33:44Z</time></trkpt>
<trkpt lat="46.22887" lon="7.26828"><ele>763.8</ele><time>2025-11-04T11:33:48Z</time></trkpt>
<trkpt lat="46.22883" lon="7.26821"><ele>764.6</ele><time>2025-11-04T11:33:52Z</time></trkpt>
<trkpt lat="46.22879" lon="7.26815"><ele>765</ele><time>2025-11-04T11:33:55Z</time></trkpt>
<trkpt lat="46.22875" lon="7.26809"><ele>765.8</ele><time>2025-11-04T11:33:59Z</time></trkpt>
<trkpt lat="46.22872" lon="7.26806"><ele>766.2</ele><time>2025-11-04T11:34:01Z</time></trkpt>
<trkpt lat="46.22867" lon="7.26794"><ele>767.2</ele><time>2025-11-04T11:34:07Z</time></trkpt>
<trkpt lat="46.22862" lon="7.26785"><ele>768.4</ele><time>2025-11-04T11:34:12Z</time></trkpt>
<trkpt lat="46.2286" lon="7.26782"><ele>768.8</ele><time>2025-11-04T11:34:14Z</time></trkpt>
<trkpt lat="46.22856" lon="7.26775"><ele>769.4</ele><time>2025-11-04T11:34:18Z</time></trkpt>
<trkpt lat="46.2285" lon="7.26768"><ele>770.6</ele><time>2025-11-04T11:34:23Z</time></trkpt>
<trkpt lat="46.22846" lon="7.26757"><ele>771.4</ele><time>2025-11-04T11:34:30Z</time></trkpt>
<trkpt lat="46.22845" lon="7.26755"><ele>771.6</ele><time>2025-11-04T11:34:31Z</time></trkpt>
<trkpt lat="46.22841" lon="7.26746"><ele>772.2</ele><time>2025-11-04T11:34:36Z</time></trkpt>
<trkpt lat="46.22838" lon="7.26741"><ele>772.6</ele><time>2025-11-04T11:34:39Z</time></trkpt>
<trkpt lat="46.22836" lon="7.26732"><ele>773.2</ele><time>2025-11-04T11:34:44Z</time></trkpt>
<trkpt lat="46.22834" lon="7.26726"><ele>773.8</ele><time>2025-11-04T11:34:47Z</time></trkpt>
<trkpt lat="46.22832" lon="7.26715"><ele>774.6</ele><time>2025-11-04T11:34:52Z</time></trkpt>
<trkpt lat="46.22832" lon="7.2671"><ele>775</ele><time>2025-11-04T11:34:55Z</time></trkpt>
<trkpt lat="46.22831" lon="7.26702"><ele>775.6</ele><time>2025-11-04T11:34:59Z</time></trkpt>
<trkpt lat="46.22831" lon="7.26698"><ele>776</ele><time>2025-11-04T11:35:01Z</time></trkpt>
<trkpt lat="46.22829" lon="7.2669"><ele>776.8</ele><time>2025-11-04T11:35:05Z</time></trkpt>
<trkpt lat="46.22829" lon="7.26688"><ele>777</ele><time>2025-11-04T11:35:06Z</time></trkpt>
<trkpt lat="46.22829" lon="7.2668"><ele>777.8</ele><time>2025-11-04T11:35:11Z</time></trkpt>
<trkpt lat="46.2283" lon="7.26678"><ele>778</ele><time>2025-11-04T11:35:12Z</time></trkpt>
<trkpt lat="46.22834" lon="7.26672"><ele>778.8</ele><time>2025-11-04T11:35:17Z</time></trkpt>
<trkpt lat="46.22836" lon="7.26669"><ele>779.2</ele><time>2025-11-04T11:35:20Z</time></trkpt>
<trkpt lat="46.22839" lon="7.26664"><ele>779.8</ele><time>2025-11-04T11:35:24Z</time></trkpt>
<trkpt lat="46.2284" lon="7.26662"><ele>780.2</ele><time>2025-11-04T11:35:26Z</time></trkpt>
<trkpt lat="46.22843" lon="7.26658"><ele>780.8</ele><time>2025-11-04T11:35:30Z</time></trkpt>
<trkpt lat="46.22844" lon="7.26655"><ele>781.4</ele><time>2025-11-04T11:35:33Z</time></trkpt>
<trkpt lat="46.22846" lon="7.26653"><ele>782</ele><time>2025-11-04T11:35:35Z</time></trkpt>
<trkpt lat="46.22849" lon="7.2665"><ele>782.6</ele><time>2025-11-04T11:35:38Z</time></trkpt>
<trkpt lat="46.22851" lon="7.26647"><ele>783.2</ele><time>2025-11-04T11:35:42Z</time></trkpt>
<trkpt lat="46.22852" lon="7.26645"><ele>783.6</ele><time>2025-11-04T11:35:44Z</time></trkpt>
<trkpt lat="46.22854" lon="7.26643"><ele>784.2</ele><time>2025-11-04T11:35:47Z</time></trkpt>
<trkpt lat="46.22856" lon="7.26641"><ele>784.6</ele><time>2025-11-04T11:35:49Z</time></trkpt>
<trkpt lat="46.22859" lon="7.26636"><ele>785.6</ele><time>2025-11-04T11:35:53Z</time></trkpt>
<trkpt lat="46.22859" lon="7.26636"><ele>785.8</ele><time>2025-11-04T11:35:54Z</time></trkpt>
<trkpt lat="46.22863" lon="7.2663"><ele>786.6</ele><time>2025-11-04T11:35:59Z</time></trkpt>
<trkpt lat="46.22863" lon="7.26629"><ele>786.8</ele><time>2025-11-04T11:36:00Z</time></trkpt>
<trkpt lat="46.22866" lon="7.26625"><ele>787.8</ele><time>2025-11-04T11:36:05Z</time></trkpt>
<trkpt lat="46.2287" lon="7.2662"><ele>789</ele><time>2025-11-04T11:36:11Z</time></trkpt>
<trkpt lat="46.22873" lon="7.26614"><ele>790.2</ele><time>2025-11-04T11:36:17Z</time></trkpt>
<trkpt lat="46.22874" lon="7.26612"><ele>790.4</ele><time>2025-11-04T11:36:18Z</time></trkpt>
<trkpt lat="46.22875" lon="7.2661"><ele>790.8</ele><time>2025-11-04T11:36:20Z</time></trkpt>
<trkpt lat="46.22876" lon="7.26608"><ele>791.4</ele><time>2025-11-04T11:36:22Z</time></trkpt>
<trkpt lat="46.22877" lon="7.26604"><ele>791.8</ele><time>2025-11-04T11:36:25Z</time></trkpt>
<trkpt lat="46.22879" lon="7.26601"><ele>792.4</ele><time>2025-11-04T11:36:28Z</time></trkpt>
<trkpt lat="46.2288" lon="7.26601"><ele>792.6</ele><time>2025-11-04T11:36:29Z</time></trkpt>
<trkpt lat="46.22881" lon="7.26601"><ele>792.8</ele><time>2025-11-04T11:36:30Z</time></trkpt>
<trkpt lat="46.22884" lon="7.26603"><ele>793.6</ele><time>2025-11-04T11:36:34Z</time></trkpt>
<trkpt lat="46.22884" lon="7.26604"><ele>793.8</ele><time>2025-11-04T11:36:35Z</time></trkpt>
<trkpt lat="46.22885" lon="7.26605"><ele>794</ele><time>2025-11-04T11:36:36Z</time></trkpt>
<trkpt lat="46.22886" lon="7.26605"><ele>794</ele><time>2025-11-04T11:36:37Z</time></trkpt>
<trkpt lat="46.22889" lon="7.26613"><ele>794.6</ele><time>2025-11-04T11:36:42Z</time></trkpt>
<trkpt lat="46.22891" lon="7.26627"><ele>795.4</ele><time>2025-11-04T11:36:50Z</time></trkpt>
<trkpt lat="46.22891" lon="7.26633"><ele>795.8</ele><time>2025-11-04T11:36:53Z</time></trkpt>
<trkpt lat="46.22891" lon="7.26638"><ele>796.2</ele><time>2025-11-04T11:36:56Z</time></trkpt>
<trkpt lat="46.22891" lon="7.26645"><ele>796.8</ele><time>2025-11-04T11:37:00Z</time></trkpt>
<trkpt lat="46.22892" lon="7.26654"><ele>797.2</ele><time>2025-11-04T11:37:04Z</time></trkpt>
<trkpt lat="46.22893" lon="7.26661"><ele>798</ele><time>2025-11-04T11:37:08Z</time></trkpt>
<trkpt lat="46.22893" lon="7.26666"><ele>798.4</ele><time>2025-11-04T11:37:11Z</time></trkpt>
<trkpt lat="46.22895" lon="7.26675"><ele>799</ele><time>2025-11-04T11:37:15Z</time></trkpt>
<trkpt lat="46.22896" lon="7.26677"><ele>799.2</ele><time>2025-11-04T11:37:17Z</time></trkpt>
<trkpt lat="46.22902" lon="7.26672"><ele>800.2</ele><time>2025-11-04T11:37:21Z</time></trkpt>
<trkpt lat="46.22909" lon="7.26662"><ele>801.4</ele><time>2025-11-04T11:37:28Z</time></trkpt>
<trkpt lat="46.22914" lon="7.26655"><ele>802.2</ele><time>2025-11-04T11:37:34Z</time></trkpt>
<trkpt lat="46.22914" lon="7.26654"><ele>802.4</ele><time>2025-11-04T11:37:35Z</time></trkpt>
<trkpt lat="46.22919" lon="7.26645"><ele>803.6</ele><time>2025-11-04T11:37:42Z</time></trkpt>
<trkpt lat="46.22924" lon="7.26636"><ele>804.6</ele><time>2025-11-04T11:37:49Z</time></trkpt>
<trkpt lat="46.22924" lon="7.26634"><ele>804.6</ele><time>2025-11-04T11:37:50Z</time></trkpt>
<trkpt lat="46.22922" lon="7.26625"><ele>805.4</ele><time>2025-11-04T11:37:55Z</time></trkpt>
<trkpt lat="46.22922" lon="7.26621"><ele>805.6</ele><time>2025-11-04T11:37:57Z</time></trkpt>
<trkpt lat="46.22925" lon="7.26616"><ele>806.2</ele><time>2025-11-04T11:38:01Z</time></trkpt>
<trkpt lat="46.22928" lon="7.26614"><ele>806.4</ele><time>2025-11-04T11:38:03Z</time></trkpt>
<trkpt lat="46.2293" lon="7.26616"><ele>806.6</ele><time>2025-11-04T11:38:05Z</time></trkpt>
<trkpt lat="46.22931" lon="7.26617"><ele>806.6</ele><time>2025-11-04T11:38:06Z</time></trkpt>
<trkpt lat="46.22937" lon="7.26627"><ele>807.6</ele><time>2025-11-04T11:38:13Z</time></trkpt>
<trkpt lat="46.22938" lon="7.26629"><ele>807.8</ele><time>2025-11-04T11:38:14Z</time></trkpt>
<trkpt lat="46.22942" lon="7.26636"><ele>808.6</ele><time>2025-11-04T11:38:20Z</time></trkpt>
<trkpt lat="46.22942" lon="7.26638"><ele>808.8</ele><time>2025-11-04T11:38:21Z</time></trkpt>
<trkpt lat="46.22944" lon="7.26641"><ele>809.2</ele><time>2025-11-04T11:38:23Z</time></trkpt>
<trkpt lat="46.22946" lon="7.26647"><ele>809.6</ele><time>2025-11-04T11:38:27Z</time></trkpt>
<trkpt lat="46.22952" lon="7.26656"><ele>810.8</ele><time>2025-11-04T11:38:34Z</time></trkpt>
<trkpt lat="46.22957" lon="7.26664"><ele>812</ele><time>2025-11-04T11:38:40Z</time></trkpt>
<trkpt lat="46.22958" lon="7.26666"><ele>812.2</ele><time>2025-11-04T11:38:41Z</time></trkpt>
<trkpt lat="46.22961" lon="7.26671"><ele>813</ele><time>2025-11-04T11:38:46Z</time></trkpt>
<trkpt lat="46.22964" lon="7.26673"><ele>813.4</ele><time>2025-11-04T11:38:48Z</time></trkpt>
<trkpt lat="46.22966" lon="7.26678"><ele>814</ele><time>2025-11-04T11:38:52Z</time></trkpt>
<trkpt lat="46.22968" lon="7.26678"><ele>814.2</ele><time>2025-11-04T11:38:53Z</time></trkpt>
<trkpt lat="46.22972" lon="7.2667"><ele>815</ele><time>2025-11-04T11:38:59Z</time></trkpt>
<trkpt lat="46.22972" lon="7.26668"><ele>815.2</ele><time>2025-11-04T11:39:00Z</time></trkpt>
<trkpt lat="46.22972" lon="7.26654"><ele>816.2</ele><time>2025-11-04T11:39:07Z</time></trkpt>
<trkpt lat="46.22972" lon="7.26653"><ele>816.4</ele><time>2025-11-04T11:39:08Z</time></trkpt>
<trkpt lat="46.22972" lon="7.26641"><ele>817.2</ele><time>2025-11-04T11:39:15Z</time></trkpt>
<trkpt lat="46.22972" lon="7.26639"><ele>817.4</ele><time>2025-11-04T11:39:16Z</time></trkpt>
<trkpt lat="46.22972" lon="7.26629"><ele>818</ele><time>2025-11-04T11:39:21Z</time></trkpt>
<trkpt lat="46.22973" lon="7.26627"><ele>818.2</ele><time>2025-11-04T11:39:22Z</time></trkpt>
<trkpt lat="46.22974" lon="7.26626"><ele>818.4</ele><time>2025-11-04T11:39:23Z</time></trkpt>
<trkpt lat="46.22975" lon="7.26625"><ele>818.6</ele><time>2025-11-04T11:39:24Z</time></trkpt>
<trkpt lat="46.2298" lon="7.26622"><ele>819.2</ele><time>2025-11-04T11:39:28Z</time></trkpt>
<trkpt lat="46.22984" lon="7.26625"><ele>819.6</ele><time>2025-11-04T11:39:31Z</time></trkpt>
<trkpt lat="46.22986" lon="7.2663"><ele>820</ele><time>2025-11-04T11:39:34Z</time></trkpt>
<trkpt lat="46.22988" lon="7.26636"><ele>820.6</ele><time>2025-11-04T11:39:38Z</time></trkpt>
<trkpt lat="46.2299" lon="7.26642"><ele>821.4</ele><time>2025-11-04T11:39:42Z</time></trkpt>
<trkpt lat="46.22993" lon="7.26646"><ele>821.8</ele><time>2025-11-04T11:39:45Z</time></trkpt>
<trkpt lat="46.22996" lon="7.26651"><ele>822.4</ele><time>2025-11-04T11:39:49Z</time></trkpt>
<trkpt lat="46.22999" lon="7.26655"><ele>822.8</ele><time>2025-11-04T11:39:52Z</time></trkpt>
<trkpt lat="46.23004" lon="7.26656"><ele>823.8</ele><time>2025-11-04T11:39:57Z</time></trkpt>
<trkpt lat="46.23005" lon="7.26657"><ele>823.8</ele><time>2025-11-04T11:39:58Z</time></trkpt>
<trkpt lat="46.23012" lon="7.2666"><ele>825</ele><time>2025-11-04T11:40:04Z</time></trkpt>
<trkpt lat="46.2302" lon="7.26665"><ele>826.2</ele><time>2025-11-04T11:40:10Z</time></trkpt>
<trkpt lat="46.23021" lon="7.26666"><ele>826.4</ele><time>2025-11-04T11:40:11Z</time></trkpt>
<trkpt lat="46.23027" lon="7.26671"><ele>827.4</ele><time>2025-11-04T11:40:16Z</time></trkpt>
<trkpt lat="46.2303" lon="7.26674"><ele>828</ele><time>2025-11-04T11:40:19Z</time></trkpt>
<trkpt lat="46.23033" lon="7.26677"><ele>828.6</ele><time>2025-11-04T11:40:22Z</time></trkpt>
<trkpt lat="46.23038" lon="7.26681"><ele>829.4</ele><time>2025-11-04T11:40:26Z</time></trkpt>
<trkpt lat="46.23039" lon="7.26684"><ele>829.6</ele><time>2025-11-04T11:40:28Z</time></trkpt>
<trkpt lat="46.23042" lon="7.26691"><ele>830.2</ele><time>2025-11-04T11:40:32Z</time></trkpt>
<trkpt lat="46.23044" lon="7.26696"><ele>830.8</ele><time>2025-11-04T11:40:35Z</time></trkpt>
<trkpt lat="46.23047" lon="7.26707"><ele>831.6</ele><time>2025-11-04T11:40:41Z</time></trkpt>
<trkpt lat="46.23048" lon="7.26708"><ele>831.8</ele><time>2025-11-04T11:40:42Z</time></trkpt>
<trkpt lat="46.23052" lon="7.2672"><ele>833</ele><time>2025-11-04T11:40:49Z</time></trkpt>
<trkpt lat="46.23053" lon="7.26724"><ele>833.2</ele><time>2025-11-04T11:40:51Z</time></trkpt>
<trkpt lat="46.23055" lon="7.26731"><ele>834</ele><time>2025-11-04T11:40:55Z</time></trkpt>
<trkpt lat="46.23058" lon="7.26738"><ele>834.4</ele><time>2025-11-04T11:40:59Z</time></trkpt>
<trkpt lat="46.2306" lon="7.26746"><ele>835</ele><time>2025-11-04T11:41:03Z</time></trkpt>
<trkpt lat="46.23063" lon="7.26753"><ele>835.8</ele><time>2025-11-04T11:41:08Z</time></trkpt>
<trkpt lat="46.23064" lon="7.26754"><ele>836</ele><time>2025-11-04T11:41:09Z</time></trkpt>
<trkpt lat="46.23068" lon="7.26767"><ele>837.2</ele><time>2025-11-04T11:41:16Z</time></trkpt>
<trkpt lat="46.23072" lon="7.26778"><ele>838.2</ele><time>2025-11-04T11:41:22Z</time></trkpt>
<trkpt lat="46.23072" lon="7.2678"><ele>838.2</ele><time>2025-11-04T11:41:23Z</time></trkpt>
<trkpt lat="46.23077" lon="7.2679"><ele>839.2</ele><time>2025-11-04T11:41:29Z</time></trkpt>
<trkpt lat="46.2308" lon="7.26796"><ele>839.8</ele><time>2025-11-04T11:41:33Z</time></trkpt>
<trkpt lat="46.23082" lon="7.26801"><ele>840.4</ele><time>2025-11-04T11:41:36Z</time></trkpt>
<trkpt lat="46.23085" lon="7.26812"><ele>841.2</ele><time>2025-11-04T11:41:42Z</time></trkpt>
<trkpt lat="46.23086" lon="7.26813"><ele>841.4</ele><time>2025-11-04T11:41:43Z</time></trkpt>
<trkpt lat="46.2309" lon="7.26826"><ele>842.4</ele><time>2025-11-04T11:41:50Z</time></trkpt>
<trkpt lat="46.23095" lon="7.26834"><ele>843.4</ele><time>2025-11-04T11:41:56Z</time></trkpt>
<trkpt lat="46.23095" lon="7.26836"><ele>843.4</ele><time>2025-11-04T11:41:57Z</time></trkpt>
<trkpt lat="46.23101" lon="7.26852"><ele>844.6</ele><time>2025-11-04T11:42:05Z</time></trkpt>
<trkpt lat="46.23101" lon="7.26854"><ele>844.8</ele><time>2025-11-04T11:42:06Z</time></trkpt>
<trkpt lat="46.23108" lon="7.26864"><ele>845.6</ele><time>2025-11-04T11:42:13Z</time></trkpt>
<trkpt lat="46.23113" lon="7.26874"><ele>846.8</ele><time>2025-11-04T11:42:20Z</time></trkpt>
<trkpt lat="46.23114" lon="7.26875"><ele>847</ele><time>2025-11-04T11:42:21Z</time></trkpt>
<trkpt lat="46.23119" lon="7.26882"><ele>847.8</ele><time>2025-11-04T11:42:27Z</time></trkpt>
<trkpt lat="46.2312" lon="7.26884"><ele>848</ele><time>2025-11-04T11:42:28Z</time></trkpt>
<trkpt lat="46.23125" lon="7.26894"><ele>848.8</ele><time>2025-11-04T11:42:35Z</time></trkpt>
<trkpt lat="46.23133" lon="7.26902"><ele>850</ele><time>2025-11-04T11:42:43Z</time></trkpt>
<trkpt lat="46.23134" lon="7.26903"><ele>850</ele><time>2025-11-04T11:42:44Z</time></trkpt>
<trkpt lat="46.2314" lon="7.26914"><ele>851</ele><time>2025-11-04T11:42:51Z</time></trkpt>
<trkpt lat="46.23143" lon="7.26916"><ele>851.4</ele><time>2025-11-04T11:42:54Z</time></trkpt>
<trkpt lat="46.23148" lon="7.26917"><ele>852.2</ele><time>2025-11-04T11:42:58Z</time></trkpt>
<trkpt lat="46.23151" lon="7.26914"><ele>852.6</ele><time>2025-11-04T11:43:01Z</time></trkpt>
<trkpt lat="46.23153" lon="7.2691"><ele>853.2</ele><time>2025-11-04T11:43:04Z</time></trkpt>
<trkpt lat="46.23154" lon="7.269"><ele>854</ele><time>2025-11-04T11:43:09Z</time></trkpt>
<trkpt lat="46.23155" lon="7.26896"><ele>854.4</ele><time>2025-11-04T11:43:11Z</time></trkpt>
<trkpt lat="46.23155" lon="7.26888"><ele>855</ele><time>2025-11-04T11:43:15Z</time></trkpt>
<trkpt lat="46.23156" lon="7.26884"><ele>855.4</ele><time>2025-11-04T11:43:18Z</time></trkpt>
<trkpt lat="46.23157" lon="7.26872"><ele>856.2</ele><time>2025-11-04T11:43:24Z</time></trkpt>
<trkpt lat="46.23156" lon="7.26871"><ele>856.4</ele><time>2025-11-04T11:43:25Z</time></trkpt>
<trkpt lat="46.23158" lon="7.2686"><ele>857.2</ele><time>2025-11-04T11:43:31Z</time></trkpt>
<trkpt lat="46.23158" lon="7.26856"><ele>857.6</ele><time>2025-11-04T11:43:33Z</time></trkpt>
<trkpt lat="46.23159" lon="7.26843"><ele>858.6</ele><time>2025-11-04T11:43:40Z</time></trkpt>
<trkpt lat="46.23159" lon="7.2683"><ele>859.8</ele><time>2025-11-04T11:43:47Z</time></trkpt>
<trkpt lat="46.23159" lon="7.26826"><ele>860</ele><time>2025-11-04T11:43:49Z</time></trkpt>
<trkpt lat="46.23159" lon="7.26815"><ele>860.8</ele><time>2025-11-04T11:43:55Z</time></trkpt>
<trkpt lat="46.2316" lon="7.26809"><ele>861.4</ele><time>2025-11-04T11:43:58Z</time></trkpt>
<trkpt lat="46.2316" lon="7.26799"><ele>862</ele><time>2025-11-04T11:44:03Z</time></trkpt>
<trkpt lat="46.23161" lon="7.26786"><ele>863</ele><time>2025-11-04T11:44:10Z</time></trkpt>
<trkpt lat="46.2316" lon="7.26771"><ele>864.2</ele><time>2025-11-04T11:44:18Z</time></trkpt>
<trkpt lat="46.2316" lon="7.26757"><ele>865.2</ele><time>2025-11-04T11:44:25Z</time></trkpt>
<trkpt lat="46.23158" lon="7.26742"><ele>866.2</ele><time>2025-11-04T11:44:32Z</time></trkpt>
<trkpt lat="46.23157" lon="7.2674"><ele>866.4</ele><time>2025-11-04T11:44:33Z</time></trkpt>
<trkpt lat="46.23155" lon="7.26731"><ele>867.4</ele><time>2025-11-04T11:44:39Z</time></trkpt>
<trkpt lat="46.23154" lon="7.26727"><ele>867.6</ele><time>2025-11-04T11:44:41Z</time></trkpt>
<trkpt lat="46.23151" lon="7.26718"><ele>868.4</ele><time>2025-11-04T11:44:46Z</time></trkpt>
<trkpt lat="46.23149" lon="7.26712"><ele>869</ele><time>2025-11-04T11:44:49Z</time></trkpt>
<trkpt lat="46.23146" lon="7.26705"><ele>869.6</ele><time>2025-11-04T11:44:53Z</time></trkpt>
<trkpt lat="46.23144" lon="7.26697"><ele>870.2</ele><time>2025-11-04T11:44:57Z</time></trkpt>
<trkpt lat="46.23143" lon="7.26688"><ele>870.6</ele><time>2025-11-04T11:45:01Z</time></trkpt>
<trkpt lat="46.23143" lon="7.26679"><ele>871.4</ele><time>2025-11-04T11:45:05Z</time></trkpt>
<trkpt lat="46.23145" lon="7.26673"><ele>871.8</ele><time>2025-11-04T11:45:08Z</time></trkpt>
<trkpt lat="46.23144" lon="7.26664"><ele>872.4</ele><time>2025-11-04T11:45:13Z</time></trkpt>
<trkpt lat="46.23144" lon="7.2666"><ele>872.8</ele><time>2025-11-04T11:45:15Z</time></trkpt>
<trkpt lat="46.23144" lon="7.26648"><ele>873.6</ele><time>2025-11-04T11:45:21Z</time></trkpt>
<trkpt lat="46.23143" lon="7.26644"><ele>874</ele><time>2025-11-04T11:45:23Z</time></trkpt>
<trkpt lat="46.23142" lon="7.26628"><ele>875</ele><time>2025-11-04T11:45:31Z</time></trkpt>
<trkpt lat="46.23142" lon="7.26626"><ele>875</ele><time>2025-11-04T11:45:32Z</time></trkpt>
<trkpt lat="46.2314" lon="7.26611"><ele>876.2</ele><time>2025-11-04T11:45:39Z</time></trkpt>
<trkpt lat="46.23139" lon="7.26607"><ele>876.4</ele><time>2025-11-04T11:45:41Z</time></trkpt>
<trkpt lat="46.23135" lon="7.26596"><ele>877.2</ele><time>2025-11-04T11:45:48Z</time></trkpt>
<trkpt lat="46.23133" lon="7.26594"><ele>877.4</ele><time>2025-11-04T11:45:50Z</time></trkpt>
<trkpt lat="46.23131" lon="7.26589"><ele>877.8</ele><time>2025-11-04T11:45:53Z</time></trkpt>
<trkpt lat="46.23133" lon="7.26586"><ele>878.2</ele><time>2025-11-04T11:45:55Z</time></trkpt>
<trkpt lat="46.23134" lon="7.26584"><ele>878.2</ele><time>2025-11-04T11:45:56Z</time></trkpt>
<trkpt lat="46.2314" lon="7.26583"><ele>879</ele><time>2025-11-04T11:46:01Z</time></trkpt>
<trkpt lat="46.23144" lon="7.26588"><ele>879.4</ele><time>2025-11-04T11:46:04Z</time></trkpt>
<trkpt lat="46.23148" lon="7.26595"><ele>879.8</ele><time>2025-11-04T11:46:08Z</time></trkpt>
<trkpt lat="46.23153" lon="7.26604"><ele>880.4</ele><time>2025-11-04T11:46:14Z</time></trkpt>
<trkpt lat="46.23153" lon="7.26606"><ele>880.6</ele><time>2025-11-04T11:46:15Z</time></trkpt>
<trkpt lat="46.23155" lon="7.26606"><ele>880.6</ele><time>2025-11-04T11:46:16Z</time></trkpt>
<trkpt lat="46.23159" lon="7.26614"><ele>881.4</ele><time>2025-11-04T11:46:20Z</time></trkpt>
<trkpt lat="46.2316" lon="7.26615"><ele>881.4</ele><time>2025-11-04T11:46:21Z</time></trkpt>
<trkpt lat="46.23166" lon="7.2663"><ele>882.6</ele><time>2025-11-04T11:46:29Z</time></trkpt>
<trkpt lat="46.23172" lon="7.26637"><ele>883.4</ele><time>2025-11-04T11:46:36Z</time></trkpt>
<trkpt lat="46.23173" lon="7.26638"><ele>883.6</ele><time>2025-11-04T11:46:37Z</time></trkpt>
<trkpt lat="46.23179" lon="7.26642"><ele>884.4</ele><time>2025-11-04T11:46:43Z</time></trkpt>
<trkpt lat="46.23181" lon="7.26645"><ele>884.6</ele><time>2025-11-04T11:46:45Z</time></trkpt>
<trkpt lat="46.23184" lon="7.26648"><ele>885</ele><time>2025-11-04T11:46:48Z</time></trkpt>
<trkpt lat="46.23185" lon="7.26651"><ele>885.2</ele><time>2025-11-04T11:46:50Z</time></trkpt>
<trkpt lat="46.23186" lon="7.26652"><ele>885.4</ele><time>2025-11-04T11:46:51Z</time></trkpt>
<trkpt lat="46.23188" lon="7.26657"><ele>885.8</ele><time>2025-11-04T11:46:54Z</time></trkpt>
<trkpt lat="46.23191" lon="7.26662"><ele>886.2</ele><time>2025-11-04T11:46:58Z</time></trkpt>
<trkpt lat="46.23194" lon="7.26667"><ele>887</ele><time>2025-11-04T11:47:02Z</time></trkpt>
<trkpt lat="46.23195" lon="7.2667"><ele>887.2</ele><time>2025-11-04T11:47:04Z</time></trkpt>
<trkpt lat="46.23202" lon="7.2668"><ele>888</ele><time>2025-11-04T11:47:11Z</time></trkpt>
<trkpt lat="46.23205" lon="7.26684"><ele>888.4</ele><time>2025-11-04T11:47:14Z</time></trkpt>
<trkpt lat="46.23208" lon="7.2669"><ele>889</ele><time>2025-11-04T11:47:18Z</time></trkpt>
<trkpt lat="46.23211" lon="7.26695"><ele>889.6</ele><time>2025-11-04T11:47:22Z</time></trkpt>
<trkpt lat="46.23213" lon="7.26699"><ele>890</ele><time>2025-11-04T11:47:25Z</time></trkpt>
<trkpt lat="46.23214" lon="7.26699"><ele>890.2</ele><time>2025-11-04T11:47:26Z</time></trkpt>
<trkpt lat="46.23218" lon="7.26703"><ele>890.6</ele><time>2025-11-04T11:47:29Z</time></trkpt>
<trkpt lat="46.23219" lon="7.26704"><ele>890.8</ele><time>2025-11-04T11:47:30Z</time></trkpt>
<trkpt lat="46.2322" lon="7.26706"><ele>891.2</ele><time>2025-11-04T11:47:32Z</time></trkpt>
<trkpt lat="46.23224" lon="7.26711"><ele>891.8</ele><time>2025-11-04T11:47:37Z</time></trkpt>
<trkpt lat="46.23227" lon="7.26714"><ele>892.2</ele><time>2025-11-04T11:47:41Z</time></trkpt>
<trkpt lat="46.2323" lon="7.26718"><ele>892.6</ele><time>2025-11-04T11:47:44Z</time></trkpt>
<trkpt lat="46.23235" lon="7.26721"><ele>893.4</ele><time>2025-11-04T11:47:49Z</time></trkpt>
<trkpt lat="46.23235" lon="7.26722"><ele>893.4</ele><time>2025-11-04T11:47:50Z</time></trkpt>
<trkpt lat="46.23242" lon="7.26728"><ele>894.4</ele><time>2025-11-04T11:47:57Z</time></trkpt>
<trkpt lat="46.2325" lon="7.26733"><ele>895.6</ele><time>2025-11-04T11:48:04Z</time></trkpt>
<trkpt lat="46.23256" lon="7.26738"><ele>896.4</ele><time>2025-11-04T11:48:10Z</time></trkpt>
<trkpt lat="46.23257" lon="7.26739"><ele>896.6</ele><time>2025-11-04T11:48:11Z</time></trkpt>
<trkpt lat="46.23261" lon="7.26742"><ele>897.4</ele><time>2025-11-04T11:48:15Z</time></trkpt>
<trkpt lat="46.23263" lon="7.26742"><ele>897.6</ele><time>2025-11-04T11:48:16Z</time></trkpt>
<trkpt lat="46.23264" lon="7.26743"><ele>897.8</ele><time>2025-11-04T11:48:17Z</time></trkpt>
<trkpt lat="46.2327" lon="7.26747"><ele>898.8</ele><time>2025-11-04T11:48:23Z</time></trkpt>
<trkpt lat="46.23276" lon="7.26754"><ele>899.8</ele><time>2025-11-04T11:48:29Z</time></trkpt>
<trkpt lat="46.23281" lon="7.2676"><ele>900.8</ele><time>2025-11-04T11:48:35Z</time></trkpt>
<trkpt lat="46.23282" lon="7.26761"><ele>901</ele><time>2025-11-04T11:48:36Z</time></trkpt>
<trkpt lat="46.23289" lon="7.26766"><ele>902</ele><time>2025-11-04T11:48:42Z</time></trkpt>
<trkpt lat="46.23294" lon="7.26772"><ele>902.8</ele><time>2025-11-04T11:48:47Z</time></trkpt>
<trkpt lat="46.23297" lon="7.26775"><ele>903.2</ele><time>2025-11-04T11:48:50Z</time></trkpt>
<trkpt lat="46.23298" lon="7.26778"><ele>903.6</ele><time>2025-11-04T11:48:52Z</time></trkpt>
<trkpt lat="46.23303" lon="7.26783"><ele>904.2</ele><time>2025-11-04T11:48:57Z</time></trkpt>
<trkpt lat="46.23305" lon="7.26786"><ele>904.6</ele><time>2025-11-04T11:48:59Z</time></trkpt>
<trkpt lat="46.2331" lon="7.26795"><ele>905.4</ele><time>2025-11-04T11:49:06Z</time></trkpt>
<trkpt lat="46.23312" lon="7.26798"><ele>905.8</ele><time>2025-11-04T11:49:08Z</time></trkpt>
<trkpt lat="46.23316" lon="7.26803"><ele>906.4</ele><time>2025-11-04T11:49:12Z</time></trkpt>
<trkpt lat="46.23319" lon="7.26809"><ele>907</ele><time>2025-11-04T11:49:16Z</time></trkpt>
<trkpt lat="46.23322" lon="7.26814"><ele>907.6</ele><time>2025-11-04T11:49:19Z</time></trkpt>
<trkpt lat="46.23326" lon="7.26819"><ele>908</ele><time>2025-11-04T11:49:23Z</time></trkpt>
<trkpt lat="46.2333" lon="7.26825"><ele>908.6</ele><time>2025-11-04T11:49:27Z</time></trkpt>
<trkpt lat="46.23334" lon="7.26831"><ele>909.2</ele><time>2025-11-04T11:49:31Z</time></trkpt>
<trkpt lat="46.23337" lon="7.26836"><ele>909.8</ele><time>2025-11-04T11:49:35Z</time></trkpt>
<trkpt lat="46.23339" lon="7.26839"><ele>910</ele><time>2025-11-04T11:49:37Z</time></trkpt>
<trkpt lat="46.23341" lon="7.26844"><ele>910.4</ele><time>2025-11-04T11:49:40Z</time></trkpt>
<trkpt lat="46.23344" lon="7.26848"><ele>910.8</ele><time>2025-11-04T11:49:43Z</time></trkpt>
<trkpt lat="46.23348" lon="7.26854"><ele>911.4</ele><time>2025-11-04T11:49:47Z</time></trkpt>
<trkpt lat="46.23357" lon="7.26868"><ele>912</ele><time>2025-11-04T11:49:56Z</time></trkpt>
<trkpt lat="46.23359" lon="7.2687"><ele>912</ele><time>2025-11-04T11:49:57Z</time></trkpt>
<trkpt lat="46.23369" lon="7.26885"><ele>912.8</ele><time>2025-11-04T11:50:06Z</time></trkpt>
<trkpt lat="46.23372" lon="7.26888"><ele>913</ele><time>2025-11-04T11:50:08Z</time></trkpt>
<trkpt lat="46.23381" lon="7.26896"><ele>913.6</ele><time>2025-11-04T11:50:14Z</time></trkpt>
<trkpt lat="46.23382" lon="7.26898"><ele>913.6</ele><time>2025-11-04T11:50:15Z</time></trkpt>
<trkpt lat="46.23389" lon="7.26905"><ele>914</ele><time>2025-11-04T11:50:19Z</time></trkpt>
<trkpt lat="46.23394" lon="7.26911"><ele>914.4</ele><time>2025-11-04T11:50:22Z</time></trkpt>
<trkpt lat="46.23401" lon="7.26916"><ele>915</ele><time>2025-11-04T11:50:26Z</time></trkpt>
<trkpt lat="46.23408" lon="7.26924"><ele>915.6</ele><time>2025-11-04T11:50:30Z</time></trkpt>
<trkpt lat="46.23416" lon="7.26931"><ele>916.2</ele><time>2025-11-04T11:50:34Z</time></trkpt>
<trkpt lat="46.23426" lon="7.26941"><ele>917.2</ele><time>2025-11-04T11:50:39Z</time></trkpt>
<trkpt lat="46.23428" lon="7.26942"><ele>917.4</ele><time>2025-11-04T11:50:40Z</time></trkpt>
<trkpt lat="46.23437" lon="7.26947"><ele>918.4</ele><time>2025-11-04T11:50:44Z</time></trkpt>
<trkpt lat="46.23441" lon="7.2695"><ele>919</ele><time>2025-11-04T11:50:46Z</time></trkpt>
<trkpt lat="46.23446" lon="7.26953"><ele>919.4</ele><time>2025-11-04T11:50:48Z</time></trkpt>
<trkpt lat="46.23451" lon="7.26958"><ele>920</ele><time>2025-11-04T11:50:51Z</time></trkpt>
<trkpt lat="46.23458" lon="7.26961"><ele>920.4</ele><time>2025-11-04T11:50:54Z</time></trkpt>
<trkpt lat="46.2346" lon="7.26961"><ele>920.6</ele><time>2025-11-04T11:50:55Z</time></trkpt>
<trkpt lat="46.23472" lon="7.26966"><ele>921.6</ele><time>2025-11-04T11:51:01Z</time></trkpt>
<trkpt lat="46.23488" lon="7.26973"><ele>922.8</ele><time>2025-11-04T11:51:09Z</time></trkpt>
<trkpt lat="46.23493" lon="7.26976"><ele>923.2</ele><time>2025-11-04T11:51:12Z</time></trkpt>
<trkpt lat="46.23501" lon="7.2698"><ele>923.8</ele><time>2025-11-04T11:51:16Z</time></trkpt>
<trkpt lat="46.23508" lon="7.26983"><ele>924.2</ele><time>2025-11-04T11:51:19Z</time></trkpt>
<trkpt lat="46.23516" lon="7.26987"><ele>924.8</ele><time>2025-11-04T11:51:23Z</time></trkpt>
<trkpt lat="46.23528" lon="7.26994"><ele>925.6</ele><time>2025-11-04T11:51:29Z</time></trkpt>
<trkpt lat="46.23534" lon="7.26997"><ele>926</ele><time>2025-11-04T11:51:32Z</time></trkpt>
<trkpt lat="46.23544" lon="7.27007"><ele>926.8</ele><time>2025-11-04T11:51:38Z</time></trkpt>
<trkpt lat="46.23545" lon="7.27008"><ele>927</ele><time>2025-11-04T11:51:39Z</time></trkpt>
<trkpt lat="46.23561" lon="7.27022"><ele>928</ele><time>2025-11-04T11:51:48Z</time></trkpt>
<trkpt lat="46.23577" lon="7.27036"><ele>929.2</ele><time>2025-11-04T11:51:57Z</time></trkpt>
<trkpt lat="46.23587" lon="7.27046"><ele>930</ele><time>2025-11-04T11:52:02Z</time></trkpt>
<trkpt lat="46.23589" lon="7.27048"><ele>930.2</ele><time>2025-11-04T11:52:03Z</time></trkpt>
<trkpt lat="46.23596" lon="7.27057"><ele>930.6</ele><time>2025-11-04T11:52:08Z</time></trkpt>
<trkpt lat="46.23602" lon="7.27065"><ele>931.2</ele><time>2025-11-04T11:52:12Z</time></trkpt>
<trkpt lat="46.23605" lon="7.27071"><ele>932</ele><time>2025-11-04T11:52:15Z</time></trkpt>
<trkpt lat="46.23607" lon="7.27078"><ele>932.4</ele><time>2025-11-04T11:52:18Z</time></trkpt>
<trkpt lat="46.23614" lon="7.27089"><ele>933.2</ele><time>2025-11-04T11:52:24Z</time></trkpt>
<trkpt lat="46.23615" lon="7.27094"><ele>933.6</ele><time>2025-11-04T11:52:26Z</time></trkpt>
<trkpt lat="46.23621" lon="7.27102"><ele>934.4</ele><time>2025-11-04T11:52:32Z</time></trkpt>
<trkpt lat="46.23622" lon="7.27103"><ele>934.6</ele><time>2025-11-04T11:52:33Z</time></trkpt>
<trkpt lat="46.2363" lon="7.27112"><ele>935.8</ele><time>2025-11-04T11:52:40Z</time></trkpt>
<trkpt lat="46.23631" lon="7.27114"><ele>935.8</ele><time>2025-11-04T11:52:41Z</time></trkpt>
<trkpt lat="46.23636" lon="7.27122"><ele>936.8</ele><time>2025-11-04T11:52:47Z</time></trkpt>
<trkpt lat="46.23637" lon="7.27125"><ele>937.2</ele><time>2025-11-04T11:52:49Z</time></trkpt>
<trkpt lat="46.2364" lon="7.27138"><ele>937.4</ele><time>2025-11-04T11:52:56Z</time></trkpt>
<trkpt lat="46.23642" lon="7.27136"><ele>937.2</ele><time>2025-11-04T11:52:58Z</time></trkpt>
<trkpt lat="46.23643" lon="7.27134"><ele>937.2</ele><time>2025-11-04T11:53:00Z</time></trkpt>
<trkpt lat="46.23642" lon="7.27134"><ele>937.4</ele><time>2025-11-04T11:53:04Z</time></trkpt>
<trkpt lat="46.23642" lon="7.27134"><ele>937.4</ele><time>2025-11-04T11:53:05Z</time></trkpt>
<trkpt lat="46.23641" lon="7.27134"><ele>937</ele><time>2025-11-04T11:53:16Z</time></trkpt>
<trkpt lat="46.23641" lon="7.27134"><ele>937.4</ele><time>2025-11-04T11:53:26Z</time></trkpt>
<trkpt lat="46.23641" lon="7.27134"><ele>937</ele><time>2025-11-04T11:53:36Z</time></trkpt>
<trkpt lat="46.23641" lon="7.27134"><ele>937</ele><time>2025-11-04T11:53:46Z</time></trkpt>
<trkpt lat="46.23641" lon="7.27134"><ele>936.8</ele><time>2025-11-04T11:53:52Z</time></trkpt>
<trkpt lat="46.23641" lon="7.27134"><ele>937</ele><time>2025-11-04T11:53:54Z</time></trkpt>
<trkpt lat="46.23641" lon="7.27134"><ele>937.2</ele><time>2025-11-04T11:54:01Z</time></trkpt>
<trkpt lat="46.23641" lon="7.27134"><ele>937.2</ele><time>2025-11-04T11:54:09Z</time></trkpt>
<trkpt lat="46.23639" lon="7.27135"><ele>937.2</ele><time>2025-11-04T11:54:16Z</time></trkpt>
<trkpt lat="46.2364" lon="7.27134"><ele>937.2</ele><time>2025-11-04T11:54:22Z</time></trkpt>
<trkpt lat="46.2364" lon="7.27134"><ele>937.2</ele><time>2025-11-04T11:54:26Z</time></trkpt>
<trkpt lat="46.2364" lon="7.27134"><ele>937.2</ele><time>2025-11-04T11:54:27Z</time></trkpt>
<trkpt lat="46.23639" lon="7.27134"><ele>937.2</ele><time>2025-11-04T11:54:34Z</time></trkpt>
<trkpt lat="46.23636" lon="7.27134"><ele>937.2</ele><time>2025-11-04T11:54:40Z</time></trkpt>
<trkpt lat="46.23636" lon="7.27134"><ele>937.2</ele><time>2025-11-04T11:54:43Z</time></trkpt>
<trkpt lat="46.23636" lon="7.27134"><ele>937.2</ele><time>2025-11-04T11:54:51Z</time></trkpt>
<trkpt lat="46.23637" lon="7.2713"><ele>937.2</ele><time>2025-11-04T11:54:54Z</time></trkpt>
<trkpt lat="46.23638" lon="7.27127"><ele>937</ele><time>2025-11-04T11:54:56Z</time></trkpt>
<trkpt lat="46.23639" lon="7.27121"><ele>937.6</ele><time>2025-11-04T11:54:59Z</time></trkpt>
<trkpt lat="46.23642" lon="7.27119"><ele>937.8</ele><time>2025-11-04T11:55:01Z</time></trkpt>
<trkpt lat="46.23643" lon="7.27116"><ele>938</ele><time>2025-11-04T11:55:03Z</time></trkpt>
<trkpt lat="46.23647" lon="7.27111"><ele>938.6</ele><time>2025-11-04T11:55:07Z</time></trkpt>
<trkpt lat="46.2365" lon="7.27109"><ele>939</ele><time>2025-11-04T11:55:10Z</time></trkpt>
<trkpt lat="46.23654" lon="7.27109"><ele>939.4</ele><time>2025-11-04T11:55:13Z</time></trkpt>
<trkpt lat="46.23659" lon="7.27108"><ele>940</ele><time>2025-11-04T11:55:17Z</time></trkpt>
<trkpt lat="46.23659" lon="7.27107"><ele>940.2</ele><time>2025-11-04T11:55:18Z</time></trkpt>
<trkpt lat="46.2366" lon="7.27106"><ele>940.4</ele><time>2025-11-04T11:55:19Z</time></trkpt>
<trkpt lat="46.23663" lon="7.27104"><ele>941</ele><time>2025-11-04T11:55:22Z</time></trkpt>
<trkpt lat="46.23665" lon="7.27103"><ele>941.2</ele><time>2025-11-04T11:55:23Z</time></trkpt>
<trkpt lat="46.23667" lon="7.27101"><ele>941.6</ele><time>2025-11-04T11:55:26Z</time></trkpt>
<trkpt lat="46.23671" lon="7.27097"><ele>942.4</ele><time>2025-11-04T11:55:31Z</time></trkpt>
<trkpt lat="46.23674" lon="7.27093"><ele>943</ele><time>2025-11-04T11:55:35Z</time></trkpt>
<trkpt lat="46.23677" lon="7.2709"><ele>943.4</ele><time>2025-11-04T11:55:38Z</time></trkpt>
<trkpt lat="46.2368" lon="7.27087"><ele>943.8</ele><time>2025-11-04T11:55:41Z</time></trkpt>
<trkpt lat="46.23684" lon="7.27082"><ele>944.6</ele><time>2025-11-04T11:55:45Z</time></trkpt>
<trkpt lat="46.23685" lon="7.2708"><ele>944.8</ele><time>2025-11-04T11:55:46Z</time></trkpt>
<trkpt lat="46.23686" lon="7.27077"><ele>945</ele><time>2025-11-04T11:55:48Z</time></trkpt>
<trkpt lat="46.23687" lon="7.27072"><ele>945.6</ele><time>2025-11-04T11:55:51Z</time></trkpt>
<trkpt lat="46.23688" lon="7.27065"><ele>946.2</ele><time>2025-11-04T11:55:55Z</time></trkpt>
<trkpt lat="46.23687" lon="7.27058"><ele>946.8</ele><time>2025-11-04T11:55:59Z</time></trkpt>
<trkpt lat="46.23688" lon="7.27054"><ele>947</ele><time>2025-11-04T11:56:01Z</time></trkpt>
<trkpt lat="46.23686" lon="7.27047"><ele>947.8</ele><time>2025-11-04T11:56:06Z</time></trkpt>
<trkpt lat="46.23685" lon="7.27044"><ele>948</ele><time>2025-11-04T11:56:08Z</time></trkpt>
<trkpt lat="46.23682" lon="7.27035"><ele>949</ele><time>2025-11-04T11:56:13Z</time></trkpt>
<trkpt lat="46.23683" lon="7.27032"><ele>949.2</ele><time>2025-11-04T11:56:15Z</time></trkpt>
<trkpt lat="46.23687" lon="7.27031"><ele>949.8</ele><time>2025-11-04T11:56:19Z</time></trkpt>
<trkpt lat="46.23689" lon="7.27031"><ele>950</ele><time>2025-11-04T11:56:20Z</time></trkpt>
<trkpt lat="46.23691" lon="7.27033"><ele>950.4</ele><time>2025-11-04T11:56:22Z</time></trkpt>
<trkpt lat="46.23693" lon="7.27038"><ele>950.6</ele><time>2025-11-04T11:56:25Z</time></trkpt>
<trkpt lat="46.23695" lon="7.27042"><ele>951</ele><time>2025-11-04T11:56:28Z</time></trkpt>
<trkpt lat="46.23699" lon="7.27048"><ele>951.4</ele><time>2025-11-04T11:56:32Z</time></trkpt>
<trkpt lat="46.23707" lon="7.27066"><ele>951.8</ele><time>2025-11-04T11:56:40Z</time></trkpt>
<trkpt lat="46.23713" lon="7.27093"><ele>952</ele><time>2025-11-04T11:56:48Z</time></trkpt>
<trkpt lat="46.23714" lon="7.271"><ele>952.2</ele><time>2025-11-04T11:56:50Z</time></trkpt>
<trkpt lat="46.23716" lon="7.27122"><ele>952.6</ele><time>2025-11-04T11:56:57Z</time></trkpt>
<trkpt lat="46.2372" lon="7.27129"><ele>953.2</ele><time>2025-11-04T11:57:00Z</time></trkpt>
<trkpt lat="46.23721" lon="7.27132"><ele>953.6</ele><time>2025-11-04T11:57:01Z</time></trkpt>
<trkpt lat="46.23725" lon="7.27153"><ele>954</ele><time>2025-11-04T11:57:06Z</time></trkpt>
<trkpt lat="46.23727" lon="7.27175"><ele>953.6</ele><time>2025-11-04T11:57:10Z</time></trkpt>
<trkpt lat="46.23729" lon="7.27186"><ele>953.6</ele><time>2025-11-04T11:57:12Z</time></trkpt>
<trkpt lat="46.23737" lon="7.27225"><ele>953.4</ele><time>2025-11-04T11:57:18Z</time></trkpt>
<trkpt lat="46.23745" lon="7.27245"><ele>954.4</ele><time>2025-11-04T11:57:22Z</time></trkpt>
<trkpt lat="46.23749" lon="7.27256"><ele>955.6</ele><time>2025-11-04T11:57:26Z</time></trkpt>
<trkpt lat="46.23751" lon="7.27258"><ele>955.6</ele><time>2025-11-04T11:57:27Z</time></trkpt>
<trkpt lat="46.23759" lon="7.27272"><ele>956.4</ele><time>2025-11-04T11:57:33Z</time></trkpt>
<trkpt lat="46.23762" lon="7.27276"><ele>956.6</ele><time>2025-11-04T11:57:35Z</time></trkpt>
<trkpt lat="46.23775" lon="7.27287"><ele>957.4</ele><time>2025-11-04T11:57:42Z</time></trkpt>
<trkpt lat="46.23777" lon="7.27288"><ele>957.6</ele><time>2025-11-04T11:57:43Z</time></trkpt>
<trkpt lat="46.23793" lon="7.27292"><ele>958.8</ele><time>2025-11-04T11:57:49Z</time></trkpt>
<trkpt lat="46.23797" lon="7.27296"><ele>959.6</ele><time>2025-11-04T11:57:51Z</time></trkpt>
<trkpt lat="46.23798" lon="7.27299"><ele>960</ele><time>2025-11-04T11:57:52Z</time></trkpt>
<trkpt lat="46.23798" lon="7.27302"><ele>960.4</ele><time>2025-11-04T11:57:53Z</time></trkpt>
<trkpt lat="46.23796" lon="7.2731"><ele>961.2</ele><time>2025-11-04T11:57:56Z</time></trkpt>
<trkpt lat="46.23794" lon="7.27317"><ele>961.8</ele><time>2025-11-04T11:57:58Z</time></trkpt>
<trkpt lat="46.23793" lon="7.27325"><ele>962.2</ele><time>2025-11-04T11:58:00Z</time></trkpt>
<trkpt lat="46.23791" lon="7.2734"><ele>963.2</ele><time>2025-11-04T11:58:04Z</time></trkpt>
<trkpt lat="46.2379" lon="7.27348"><ele>963.4</ele><time>2025-11-04T11:58:06Z</time></trkpt>
<trkpt lat="46.2379" lon="7.27362"><ele>963.8</ele><time>2025-11-04T11:58:09Z</time></trkpt>
<trkpt lat="46.23793" lon="7.27371"><ele>964</ele><time>2025-11-04T11:58:11Z</time></trkpt>
<trkpt lat="46.23798" lon="7.27379"><ele>964.4</ele><time>2025-11-04T11:58:13Z</time></trkpt>
<trkpt lat="46.23804" lon="7.27388"><ele>965.2</ele><time>2025-11-04T11:58:16Z</time></trkpt>
<trkpt lat="46.23808" lon="7.27394"><ele>965.4</ele><time>2025-11-04T11:58:18Z</time></trkpt>
<trkpt lat="46.23812" lon="7.27405"><ele>966</ele><time>2025-11-04T11:58:22Z</time></trkpt>
<trkpt lat="46.23813" lon="7.27409"><ele>966.2</ele><time>2025-11-04T11:58:26Z</time></trkpt>
<trkpt lat="46.23814" lon="7.2741"><ele>966.2</ele><time>2025-11-04T11:58:27Z</time></trkpt>
<trkpt lat="46.23819" lon="7.27415"><ele>966.6</ele><time>2025-11-04T11:58:30Z</time></trkpt>
<trkpt lat="46.2382" lon="7.27416"><ele>966.6</ele><time>2025-11-04T11:58:31Z</time></trkpt>
<trkpt lat="46.23831" lon="7.27437"><ele>967.4</ele><time>2025-11-04T11:58:40Z</time></trkpt>
<trkpt lat="46.23832" lon="7.27442"><ele>967.6</ele><time>2025-11-04T11:58:42Z</time></trkpt>
<trkpt lat="46.23837" lon="7.2745"><ele>968.4</ele><time>2025-11-04T11:58:47Z</time></trkpt>
<trkpt lat="46.23837" lon="7.27452"><ele>968.6</ele><time>2025-11-04T11:58:48Z</time></trkpt>
<trkpt lat="46.23838" lon="7.27453"><ele>968.6</ele><time>2025-11-04T11:58:49Z</time></trkpt>
<trkpt lat="46.23839" lon="7.27458"><ele>969</ele><time>2025-11-04T11:58:52Z</time></trkpt>
<trkpt lat="46.23843" lon="7.27462"><ele>969.8</ele><time>2025-11-04T11:58:58Z</time></trkpt>
<trkpt lat="46.23843" lon="7.27462"><ele>970</ele><time>2025-11-04T11:58:59Z</time></trkpt>
<trkpt lat="46.23844" lon="7.27461"><ele>970.2</ele><time>2025-11-04T11:59:00Z</time></trkpt>
<trkpt lat="46.23846" lon="7.27455"><ele>971</ele><time>2025-11-04T11:59:04Z</time></trkpt>
<trkpt lat="46.23848" lon="7.27453"><ele>971.4</ele><time>2025-11-04T11:59:06Z</time></trkpt>
<trkpt lat="46.23851" lon="7.27455"><ele>972</ele><time>2025-11-04T11:59:08Z</time></trkpt>
<trkpt lat="46.23852" lon="7.27455"><ele>972.2</ele><time>2025-11-04T11:59:09Z</time></trkpt>
<trkpt lat="46.23856" lon="7.27461"><ele>973</ele><time>2025-11-04T11:59:13Z</time></trkpt>
<trkpt lat="46.23858" lon="7.27464"><ele>973.4</ele><time>2025-11-04T11:59:15Z</time></trkpt>
<trkpt lat="46.23861" lon="7.27467"><ele>974.2</ele><time>2025-11-04T11:59:18Z</time></trkpt>
<trkpt lat="46.23863" lon="7.2747"><ele>974.6</ele><time>2025-11-04T11:59:21Z</time></trkpt>
<trkpt lat="46.23866" lon="7.27477"><ele>975.2</ele><time>2025-11-04T11:59:26Z</time></trkpt>
<trkpt lat="46.23866" lon="7.27481"><ele>975.4</ele><time>2025-11-04T11:59:29Z</time></trkpt>
<trkpt lat="46.23871" lon="7.27489"><ele>975.8</ele><time>2025-11-04T11:59:35Z</time></trkpt>
<trkpt lat="46.23878" lon="7.27498"><ele>976</ele><time>2025-11-04T11:59:41Z</time></trkpt>
<trkpt lat="46.23883" lon="7.27505"><ele>976.2</ele><time>2025-11-04T11:59:46Z</time></trkpt>
<trkpt lat="46.23887" lon="7.27511"><ele>976.4</ele><time>2025-11-04T11:59:50Z</time></trkpt>
<trkpt lat="46.23893" lon="7.2752"><ele>976.8</ele><time>2025-11-04T11:59:56Z</time></trkpt>
<trkpt lat="46.23894" lon="7.27521"><ele>977</ele><time>2025-11-04T11:59:57Z</time></trkpt>
<trkpt lat="46.23896" lon="7.27522"><ele>977.2</ele><time>2025-11-04T11:59:59Z</time></trkpt>
<trkpt lat="46.23904" lon="7.27528"><ele>978</ele><time>2025-11-04T12:00:06Z</time></trkpt>
<trkpt lat="46.23909" lon="7.27531"><ele>978.2</ele><time>2025-11-04T12:00:10Z</time></trkpt>
<trkpt lat="46.23915" lon="7.27535"><ele>978.6</ele><time>2025-11-04T12:00:14Z</time></trkpt>
<trkpt lat="46.23922" lon="7.27542"><ele>978.8</ele><time>2025-11-04T12:00:21Z</time></trkpt>
<trkpt lat="46.23925" lon="7.27543"><ele>979.4</ele><time>2025-11-04T12:00:24Z</time></trkpt>
<trkpt lat="46.23928" lon="7.27544"><ele>979.8</ele><time>2025-11-04T12:00:27Z</time></trkpt>
<trkpt lat="46.23932" lon="7.27544"><ele>980.4</ele><time>2025-11-04T12:00:30Z</time></trkpt>
<trkpt lat="46.23934" lon="7.27543"><ele>981</ele><time>2025-11-04T12:00:33Z</time></trkpt>
<trkpt lat="46.23937" lon="7.27542"><ele>981.6</ele><time>2025-11-04T12:00:36Z</time></trkpt>
<trkpt lat="46.2394" lon="7.27541"><ele>982.4</ele><time>2025-11-04T12:00:39Z</time></trkpt>
<trkpt lat="46.23941" lon="7.2754"><ele>982.8</ele><time>2025-11-04T12:00:41Z</time></trkpt>
<trkpt lat="46.23941" lon="7.2754"><ele>983.2</ele><time>2025-11-04T12:00:44Z</time></trkpt>
<trkpt lat="46.23944" lon="7.27538"><ele>983.6</ele><time>2025-11-04T12:00:49Z</time></trkpt>
<trkpt lat="46.23945" lon="7.27537"><ele>984</ele><time>2025-11-04T12:00:52Z</time></trkpt>
<trkpt lat="46.23949" lon="7.27537"><ele>985</ele><time>2025-11-04T12:00:59Z</time></trkpt>
<trkpt lat="46.23949" lon="7.27537"><ele>985.2</ele><time>2025-11-04T12:01:01Z</time></trkpt>
<trkpt lat="46.23954" lon="7.27539"><ele>986.2</ele><time>2025-11-04T12:01:09Z</time></trkpt>
<trkpt lat="46.23958" lon="7.27541"><ele>986.8</ele><time>2025-11-04T12:01:15Z</time></trkpt>
<trkpt lat="46.23959" lon="7.27544"><ele>987.2</ele><time>2025-11-04T12:01:18Z</time></trkpt>
<trkpt lat="46.23959" lon="7.2755"><ele>987.6</ele><time>2025-11-04T12:01:23Z</time></trkpt>
<trkpt lat="46.23959" lon="7.27556"><ele>988.2</ele><time>2025-11-04T12:01:29Z</time></trkpt>
<trkpt lat="46.23959" lon="7.27558"><ele>988.4</ele><time>2025-11-04T12:01:31Z</time></trkpt>
<trkpt lat="46.23958" lon="7.27562"><ele>989.2</ele><time>2025-11-04T12:01:37Z</time></trkpt>
<trkpt lat="46.23958" lon="7.27563"><ele>989.6</ele><time>2025-11-04T12:01:39Z</time></trkpt>
<trkpt lat="46.23958" lon="7.27567"><ele>990.2</ele><time>2025-11-04T12:01:44Z</time></trkpt>
<trkpt lat="46.23958" lon="7.27571"><ele>991.2</ele><time>2025-11-04T12:01:49Z</time></trkpt>
<trkpt lat="46.23958" lon="7.27572"><ele>991.4</ele><time>2025-11-04T12:01:51Z</time></trkpt>
<trkpt lat="46.23959" lon="7.27579"><ele>992</ele><time>2025-11-04T12:01:57Z</time></trkpt>
<trkpt lat="46.23959" lon="7.27582"><ele>992.4</ele><time>2025-11-04T12:02:00Z</time></trkpt>
<trkpt lat="46.23959" lon="7.27585"><ele>993</ele><time>2025-11-04T12:02:05Z</time></trkpt>
<trkpt lat="46.23959" lon="7.27586"><ele>993.6</ele><time>2025-11-04T12:02:08Z</time></trkpt>
<trkpt lat="46.23961" lon="7.27589"><ele>994</ele><time>2025-11-04T12:02:13Z</time></trkpt>
<trkpt lat="46.23963" lon="7.27593"><ele>994.6</ele><time>2025-11-04T12:02:18Z</time></trkpt>
<trkpt lat="46.23965" lon="7.27594"><ele>994.8</ele><time>2025-11-04T12:02:20Z</time></trkpt>
<trkpt lat="46.23967" lon="7.27597"><ele>995.6</ele><time>2025-11-04T12:02:26Z</time></trkpt>
<trkpt lat="46.23967" lon="7.27597"><ele>995.8</ele><time>2025-11-04T12:02:27Z</time></trkpt>
<trkpt lat="46.23971" lon="7.27602"><ele>996.6</ele><time>2025-11-04T12:02:34Z</time></trkpt>
<trkpt lat="46.23974" lon="7.27606"><ele>997.6</ele><time>2025-11-04T12:02:41Z</time></trkpt>
<trkpt lat="46.23978" lon="7.27607"><ele>998.6</ele><time>2025-11-04T12:02:48Z</time></trkpt>
<trkpt lat="46.23979" lon="7.27608"><ele>998.6</ele><time>2025-11-04T12:02:49Z</time></trkpt>
<trkpt lat="46.2398" lon="7.27611"><ele>999.4</ele><time>2025-11-04T12:02:55Z</time></trkpt>
<trkpt lat="46.23982" lon="7.27612"><ele>999.8</ele><time>2025-11-04T12:02:58Z</time></trkpt>
<trkpt lat="46.23984" lon="7.27616"><ele>1000.2</ele><time>2025-11-04T12:03:02Z</time></trkpt>
<trkpt lat="46.23987" lon="7.2762"><ele>1000.8</ele><time>2025-11-04T12:03:08Z</time></trkpt>
<trkpt lat="46.23992" lon="7.27624"><ele>1001.8</ele><time>2025-11-04T12:03:15Z</time></trkpt>
<trkpt lat="46.23992" lon="7.27626"><ele>1002</ele><time>2025-11-04T12:03:17Z</time></trkpt>
<trkpt lat="46.23994" lon="7.27628"><ele>1002.4</ele><time>2025-11-04T12:03:21Z</time></trkpt>
<trkpt lat="46.23995" lon="7.27629"><ele>1002.4</ele><time>2025-11-04T12:03:23Z</time></trkpt>
<trkpt lat="46.23996" lon="7.2763"><ele>1002.6</ele><time>2025-11-04T12:03:25Z</time></trkpt>
<trkpt lat="46.23998" lon="7.27634"><ele>1003.2</ele><time>2025-11-04T12:03:28Z</time></trkpt>
<trkpt lat="46.24001" lon="7.27636"><ele>1003.2</ele><time>2025-11-04T12:03:30Z</time></trkpt>
<trkpt lat="46.24005" lon="7.27643"><ele>1003.6</ele><time>2025-11-04T12:03:35Z</time></trkpt>
<trkpt lat="46.24006" lon="7.27645"><ele>1003.8</ele><time>2025-11-04T12:03:36Z</time></trkpt>
<trkpt lat="46.24009" lon="7.27649"><ele>1004.2</ele><time>2025-11-04T12:03:40Z</time></trkpt>
<trkpt lat="46.24011" lon="7.27651"><ele>1004.6</ele><time>2025-11-04T12:03:42Z</time></trkpt>
<trkpt lat="46.24019" lon="7.27659"><ele>1005</ele><time>2025-11-04T12:03:48Z</time></trkpt>
<trkpt lat="46.24024" lon="7.27665"><ele>1005.2</ele><time>2025-11-04T12:03:52Z</time></trkpt>
<trkpt lat="46.2403" lon="7.27674"><ele>1005.8</ele><time>2025-11-04T12:03:57Z</time></trkpt>
<trkpt lat="46.24036" lon="7.27684"><ele>1006.2</ele><time>2025-11-04T12:04:03Z</time></trkpt>
<trkpt lat="46.24038" lon="7.27688"><ele>1006.6</ele><time>2025-11-04T12:04:05Z</time></trkpt>
<trkpt lat="46.24048" lon="7.27701"><ele>1007.2</ele><time>2025-11-04T12:04:13Z</time></trkpt>
<trkpt lat="46.24051" lon="7.27703"><ele>1007.4</ele><time>2025-11-04T12:04:15Z</time></trkpt>
<trkpt lat="46.24061" lon="7.27717"><ele>1007.8</ele><time>2025-11-04T12:04:22Z</time></trkpt>
<trkpt lat="46.24067" lon="7.27727"><ele>1008.4</ele><time>2025-11-04T12:04:27Z</time></trkpt>
<trkpt lat="46.2407" lon="7.27731"><ele>1008.6</ele><time>2025-11-04T12:04:29Z</time></trkpt>
<trkpt lat="46.24083" lon="7.27748"><ele>1009.4</ele><time>2025-11-04T12:04:38Z</time></trkpt>
<trkpt lat="46.24092" lon="7.27761"><ele>1010.2</ele><time>2025-11-04T12:04:45Z</time></trkpt>
<trkpt lat="46.24093" lon="7.27763"><ele>1010.4</ele><time>2025-11-04T12:04:46Z</time></trkpt>
<trkpt lat="46.24101" lon="7.27773"><ele>1011.4</ele><time>2025-11-04T12:04:53Z</time></trkpt>
<trkpt lat="46.24101" lon="7.27774"><ele>1011.6</ele><time>2025-11-04T12:04:54Z</time></trkpt>
<trkpt lat="46.24107" lon="7.27782"><ele>1012.6</ele><time>2025-11-04T12:05:00Z</time></trkpt>
<trkpt lat="46.24108" lon="7.27783"><ele>1012.8</ele><time>2025-11-04T12:05:01Z</time></trkpt>
<trkpt lat="46.24111" lon="7.27791"><ele>1013.8</ele><time>2025-11-04T12:05:06Z</time></trkpt>
<trkpt lat="46.24115" lon="7.27796"><ele>1015</ele><time>2025-11-04T12:05:11Z</time></trkpt>
<trkpt lat="46.24115" lon="7.27797"><ele>1015</ele><time>2025-11-04T12:05:12Z</time></trkpt>
<trkpt lat="46.24117" lon="7.27797"><ele>1015.4</ele><time>2025-11-04T12:05:14Z</time></trkpt>
<trkpt lat="46.24119" lon="7.27795"><ele>1015.4</ele><time>2025-11-04T12:05:16Z</time></trkpt>
<trkpt lat="46.24119" lon="7.27792"><ele>1015.6</ele><time>2025-11-04T12:05:18Z</time></trkpt>
<trkpt lat="46.24117" lon="7.27787"><ele>1016</ele><time>2025-11-04T12:05:21Z</time></trkpt>
<trkpt lat="46.24115" lon="7.27781"><ele>1016.6</ele><time>2025-11-04T12:05:24Z</time></trkpt>
<trkpt lat="46.24113" lon="7.27773"><ele>1017</ele><time>2025-11-04T12:05:29Z</time></trkpt>
<trkpt lat="46.24112" lon="7.27764"><ele>1018</ele><time>2025-11-04T12:05:34Z</time></trkpt>
<trkpt lat="46.2411" lon="7.27758"><ele>1018.2</ele><time>2025-11-04T12:05:37Z</time></trkpt>
<trkpt lat="46.24107" lon="7.27751"><ele>1018.8</ele><time>2025-11-04T12:05:41Z</time></trkpt>
<trkpt lat="46.24104" lon="7.27746"><ele>1019.2</ele><time>2025-11-04T12:05:44Z</time></trkpt>
<trkpt lat="46.241" lon="7.27734"><ele>1020.2</ele><time>2025-11-04T12:05:51Z</time></trkpt>
<trkpt lat="46.241" lon="7.27732"><ele>1020.2</ele><time>2025-11-04T12:05:52Z</time></trkpt>
<trkpt lat="46.24097" lon="7.27719"><ele>1021.2</ele><time>2025-11-04T12:05:59Z</time></trkpt>
<trkpt lat="46.24096" lon="7.27718"><ele>1021.4</ele><time>2025-11-04T12:06:00Z</time></trkpt>
<trkpt lat="46.24093" lon="7.27707"><ele>1022</ele><time>2025-11-04T12:06:06Z</time></trkpt>
<trkpt lat="46.24092" lon="7.27703"><ele>1022.4</ele><time>2025-11-04T12:06:09Z</time></trkpt>
<trkpt lat="46.24089" lon="7.27694"><ele>1023</ele><time>2025-11-04T12:06:14Z</time></trkpt>
<trkpt lat="46.24087" lon="7.27688"><ele>1023.4</ele><time>2025-11-04T12:06:17Z</time></trkpt>
<trkpt lat="46.24084" lon="7.2768"><ele>1024</ele><time>2025-11-04T12:06:22Z</time></trkpt>
<trkpt lat="46.24083" lon="7.27677"><ele>1024.4</ele><time>2025-11-04T12:06:24Z</time></trkpt>
<trkpt lat="46.24079" lon="7.27664"><ele>1025.4</ele><time>2025-11-04T12:06:31Z</time></trkpt>
<trkpt lat="46.24075" lon="7.27651"><ele>1026.4</ele><time>2025-11-04T12:06:38Z</time></trkpt>
<trkpt lat="46.24074" lon="7.2765"><ele>1026.4</ele><time>2025-11-04T12:06:39Z</time></trkpt>
<trkpt lat="46.2407" lon="7.2764"><ele>1027.4</ele><time>2025-11-04T12:06:46Z</time></trkpt>
<trkpt lat="46.2407" lon="7.27637"><ele>1027.6</ele><time>2025-11-04T12:06:47Z</time></trkpt>
<trkpt lat="46.24068" lon="7.27628"><ele>1028.2</ele><time>2025-11-04T12:06:52Z</time></trkpt>
<trkpt lat="46.24068" lon="7.27621"><ele>1028.6</ele><time>2025-11-04T12:06:55Z</time></trkpt>
<trkpt lat="46.24067" lon="7.27615"><ele>1029</ele><time>2025-11-04T12:06:59Z</time></trkpt>
<trkpt lat="46.24065" lon="7.27606"><ele>1029.6</ele><time>2025-11-04T12:07:03Z</time></trkpt>
<trkpt lat="46.24063" lon="7.27594"><ele>1030.4</ele><time>2025-11-04T12:07:09Z</time></trkpt>
<trkpt lat="46.24062" lon="7.2759"><ele>1030.6</ele><time>2025-11-04T12:07:11Z</time></trkpt>
<trkpt lat="46.2406" lon="7.2758"><ele>1031.4</ele><time>2025-11-04T12:07:16Z</time></trkpt>
<trkpt lat="46.24059" lon="7.27575"><ele>1031.8</ele><time>2025-11-04T12:07:19Z</time></trkpt>
<trkpt lat="46.24058" lon="7.27571"><ele>1032.2</ele><time>2025-11-04T12:07:22Z</time></trkpt>
<trkpt lat="46.24056" lon="7.27562"><ele>1032.8</ele><time>2025-11-04T12:07:26Z</time></trkpt>
<trkpt lat="46.24055" lon="7.27557"><ele>1033.2</ele><time>2025-11-04T12:07:29Z</time></trkpt>
<trkpt lat="46.24051" lon="7.27552"><ele>1033.8</ele><time>2025-11-04T12:07:34Z</time></trkpt>
<trkpt lat="46.24049" lon="7.27549"><ele>1034.2</ele><time>2025-11-04T12:07:36Z</time></trkpt>
<trkpt lat="46.24045" lon="7.27544"><ele>1035</ele><time>2025-11-04T12:07:40Z</time></trkpt>
<trkpt lat="46.24042" lon="7.27538"><ele>1035.6</ele><time>2025-11-04T12:07:44Z</time></trkpt>
<trkpt lat="46.24041" lon="7.27533"><ele>1036</ele><time>2025-11-04T12:07:48Z</time></trkpt>
<trkpt lat="46.24042" lon="7.2753"><ele>1036.2</ele><time>2025-11-04T12:07:50Z</time></trkpt>
<trkpt lat="46.24041" lon="7.27528"><ele>1036.4</ele><time>2025-11-04T12:07:52Z</time></trkpt>
<trkpt lat="46.2404" lon="7.27527"><ele>1036.4</ele><time>2025-11-04T12:07:54Z</time></trkpt>
<trkpt lat="46.24038" lon="7.27528"><ele>1036.4</ele><time>2025-11-04T12:07:55Z</time></trkpt>
<trkpt lat="46.24037" lon="7.27527"><ele>1036.2</ele><time>2025-11-04T12:07:59Z</time></trkpt>
<trkpt lat="46.24037" lon="7.27527"><ele>1036.4</ele><time>2025-11-04T12:08:11Z</time></trkpt>
<trkpt lat="46.24037" lon="7.27527"><ele>1035.8</ele><time>2025-11-04T12:08:21Z</time></trkpt>
<trkpt lat="46.24037" lon="7.27527"><ele>1036</ele><time>2025-11-04T12:08:27Z</time></trkpt>
<trkpt lat="46.24037" lon="7.27527"><ele>1036</ele><time>2025-11-04T12:08:33Z</time></trkpt>
<trkpt lat="46.24037" lon="7.27527"><ele>1036.2</ele><time>2025-11-04T12:08:48Z</time></trkpt>
<trkpt lat="46.24037" lon="7.27527"><ele>1036.2</ele><time>2025-11-04T12:08:55Z</time></trkpt>
<trkpt lat="46.24037" lon="7.27527"><ele>1036</ele><time>2025-11-04T12:08:59Z</time></trkpt>
<trkpt lat="46.24037" lon="7.27527"><ele>1036</ele><time>2025-11-04T12:09:05Z</time></trkpt>
<trkpt lat="46.24037" lon="7.27528"><ele>1036</ele><time>2025-11-04T12:09:15Z</time></trkpt>
<trkpt lat="46.24037" lon="7.27526"><ele>1036</ele><time>2025-11-04T12:09:20Z</time></trkpt>
<trkpt lat="46.2404" lon="7.27517"><ele>1036</ele><time>2025-11-04T12:09:25Z</time></trkpt>
<trkpt lat="46.24042" lon="7.27505"><ele>1036.6</ele><time>2025-11-04T12:09:32Z</time></trkpt>
<trkpt lat="46.24043" lon="7.27498"><ele>1037.2</ele><time>2025-11-04T12:09:36Z</time></trkpt>
<trkpt lat="46.24043" lon="7.27492"><ele>1037.4</ele><time>2025-11-04T12:09:39Z</time></trkpt>
<trkpt lat="46.2404" lon="7.27483"><ele>1037.8</ele><time>2025-11-04T12:09:44Z</time></trkpt>
<trkpt lat="46.24038" lon="7.2748"><ele>1038.2</ele><time>2025-11-04T12:09:46Z</time></trkpt>
<trkpt lat="46.24035" lon="7.27472"><ele>1039.6</ele><time>2025-11-04T12:09:50Z</time></trkpt>
<trkpt lat="46.24035" lon="7.27467"><ele>1040.8</ele><time>2025-11-04T12:09:53Z</time></trkpt>
<trkpt lat="46.24035" lon="7.27464"><ele>1041.4</ele><time>2025-11-04T12:09:55Z</time></trkpt>
<trkpt lat="46.24034" lon="7.27463"><ele>1041.8</ele><time>2025-11-04T12:09:56Z</time></trkpt>
<trkpt lat="46.24034" lon="7.2746"><ele>1042</ele><time>2025-11-04T12:09:57Z</time></trkpt>
<trkpt lat="46.24033" lon="7.27456"><ele>1043</ele><time>2025-11-04T12:10:00Z</time></trkpt>
<trkpt lat="46.24032" lon="7.27455"><ele>1043.2</ele><time>2025-11-04T12:10:01Z</time></trkpt>
<trkpt lat="46.24031" lon="7.27453"><ele>1043.4</ele><time>2025-11-04T12:10:02Z</time></trkpt>
<trkpt lat="46.24031" lon="7.2745"><ele>1044</ele><time>2025-11-04T12:10:04Z</time></trkpt>
<trkpt lat="46.24031" lon="7.27446"><ele>1044.4</ele><time>2025-11-04T12:10:07Z</time></trkpt>
<trkpt lat="46.24031" lon="7.27441"><ele>1044.6</ele><time>2025-11-04T12:10:10Z</time></trkpt>
<trkpt lat="46.24032" lon="7.27429"><ele>1045.2</ele><time>2025-11-04T12:10:17Z</time></trkpt>
<trkpt lat="46.24033" lon="7.27425"><ele>1045.4</ele><time>2025-11-04T12:10:20Z</time></trkpt>
<trkpt lat="46.24033" lon="7.27423"><ele>1045.4</ele><time>2025-11-04T12:10:21Z</time></trkpt>
<trkpt lat="46.24033" lon="7.27421"><ele>1045.6</ele><time>2025-11-04T12:10:22Z</time></trkpt>
<trkpt lat="46.24032" lon="7.27418"><ele>1045.6</ele><time>2025-11-04T12:10:24Z</time></trkpt>
<trkpt lat="46.24032" lon="7.27414"><ele>1046</ele><time>2025-11-04T12:10:27Z</time></trkpt>
<trkpt lat="46.24031" lon="7.27412"><ele>1046</ele><time>2025-11-04T12:10:28Z</time></trkpt>
<trkpt lat="46.2403" lon="7.27406"><ele>1046.6</ele><time>2025-11-04T12:10:31Z</time></trkpt>
<trkpt lat="46.2403" lon="7.27398"><ele>1047.8</ele><time>2025-11-04T12:10:35Z</time></trkpt>
<trkpt lat="46.24029" lon="7.27388"><ele>1048.8</ele><time>2025-11-04T12:10:41Z</time></trkpt>
<trkpt lat="46.24028" lon="7.27385"><ele>1049</ele><time>2025-11-04T12:10:43Z</time></trkpt>
<trkpt lat="46.24027" lon="7.27379"><ele>1049.4</ele><time>2025-11-04T12:10:47Z</time></trkpt>
<trkpt lat="46.24025" lon="7.27374"><ele>1050</ele><time>2025-11-04T12:10:51Z</time></trkpt>
<trkpt lat="46.24023" lon="7.27371"><ele>1050.2</ele><time>2025-11-04T12:10:53Z</time></trkpt>
<trkpt lat="46.24022" lon="7.27364"><ele>1050</ele><time>2025-11-04T12:10:56Z</time></trkpt>
<trkpt lat="46.24023" lon="7.2736"><ele>1050</ele><time>2025-11-04T12:10:58Z</time></trkpt>
<trkpt lat="46.24023" lon="7.27352"><ele>1051.2</ele><time>2025-11-04T12:11:03Z</time></trkpt>
<trkpt lat="46.24022" lon="7.27342"><ele>1052.2</ele><time>2025-11-04T12:11:09Z</time></trkpt>
<trkpt lat="46.24022" lon="7.2734"><ele>1052.2</ele><time>2025-11-04T12:11:10Z</time></trkpt>
<trkpt lat="46.24024" lon="7.27333"><ele>1053</ele><time>2025-11-04T12:11:14Z</time></trkpt>
<trkpt lat="46.24024" lon="7.27332"><ele>1053.2</ele><time>2025-11-04T12:11:15Z</time></trkpt>
<trkpt lat="46.24024" lon="7.2733"><ele>1053.4</ele><time>2025-11-04T12:11:16Z</time></trkpt>
<trkpt lat="46.24025" lon="7.27327"><ele>1053.8</ele><time>2025-11-04T12:11:19Z</time></trkpt>
<trkpt lat="46.24026" lon="7.27324"><ele>1054.4</ele><time>2025-11-04T12:11:22Z</time></trkpt>
<trkpt lat="46.24028" lon="7.27322"><ele>1054.6</ele><time>2025-11-04T12:11:24Z</time></trkpt>
<trkpt lat="46.24028" lon="7.27322"><ele>1054.8</ele><time>2025-11-04T12:11:25Z</time></trkpt>
<trkpt lat="46.24029" lon="7.27321"><ele>1055</ele><time>2025-11-04T12:11:26Z</time></trkpt>
<trkpt lat="46.24031" lon="7.27317"><ele>1055.4</ele><time>2025-11-04T12:11:29Z</time></trkpt>
<trkpt lat="46.24033" lon="7.27316"><ele>1055.6</ele><time>2025-11-04T12:11:30Z</time></trkpt>
<trkpt lat="46.24035" lon="7.27315"><ele>1055.8</ele><time>2025-11-04T12:11:32Z</time></trkpt>
<trkpt lat="46.24035" lon="7.27318"><ele>1056</ele><time>2025-11-04T12:11:34Z</time></trkpt>
<trkpt lat="46.24031" lon="7.27329"><ele>1056</ele><time>2025-11-04T12:11:40Z</time></trkpt>
<trkpt lat="46.24031" lon="7.27344"><ele>1056.2</ele><time>2025-11-04T12:11:47Z</time></trkpt>
<trkpt lat="46.24037" lon="7.27357"><ele>1056.2</ele><time>2025-11-04T12:11:54Z</time></trkpt>
<trkpt lat="46.24037" lon="7.27359"><ele>1056.4</ele><time>2025-11-04T12:11:55Z</time></trkpt>
<trkpt lat="46.2404" lon="7.27367"><ele>1056.4</ele><time>2025-11-04T12:11:58Z</time></trkpt>
<trkpt lat="46.24041" lon="7.27371"><ele>1056.4</ele><time>2025-11-04T12:11:59Z</time></trkpt>
<trkpt lat="46.24046" lon="7.27386"><ele>1056.6</ele><time>2025-11-04T12:12:04Z</time></trkpt>
<trkpt lat="46.24047" lon="7.27401"><ele>1056.8</ele><time>2025-11-04T12:12:10Z</time></trkpt>
<trkpt lat="46.24048" lon="7.27417"><ele>1057</ele><time>2025-11-04T12:12:16Z</time></trkpt>
<trkpt lat="46.24048" lon="7.27424"><ele>1057</ele><time>2025-11-04T12:12:18Z</time></trkpt>
<trkpt lat="46.24049" lon="7.27427"><ele>1057</ele><time>2025-11-04T12:12:19Z</time></trkpt>
<trkpt lat="46.2405" lon="7.27438"><ele>1057.2</ele><time>2025-11-04T12:12:22Z</time></trkpt>
<trkpt lat="46.24053" lon="7.27445"><ele>1057.4</ele><time>2025-11-04T12:12:25Z</time></trkpt>
<trkpt lat="46.24055" lon="7.27449"><ele>1057.6</ele><time>2025-11-04T12:12:27Z</time></trkpt>
<trkpt lat="46.24057" lon="7.2745"><ele>1057.8</ele><time>2025-11-04T12:12:28Z</time></trkpt>
<trkpt lat="46.24063" lon="7.27456"><ele>1057.8</ele><time>2025-11-04T12:12:32Z</time></trkpt>
<trkpt lat="46.24074" lon="7.27466"><ele>1058.2</ele><time>2025-11-04T12:12:38Z</time></trkpt>
<trkpt lat="46.24076" lon="7.27468"><ele>1058.2</ele><time>2025-11-04T12:12:39Z</time></trkpt>
<trkpt lat="46.2408" lon="7.27478"><ele>1058.6</ele><time>2025-11-04T12:12:43Z</time></trkpt>
<trkpt lat="46.24082" lon="7.27482"><ele>1058.6</ele><time>2025-11-04T12:12:45Z</time></trkpt>
<trkpt lat="46.24088" lon="7.27495"><ele>1058.8</ele><time>2025-11-04T12:12:50Z</time></trkpt>
<trkpt lat="46.2409" lon="7.27509"><ele>1059.2</ele><time>2025-11-04T12:12:55Z</time></trkpt>
<trkpt lat="46.24093" lon="7.27528"><ele>1059.4</ele><time>2025-11-04T12:13:01Z</time></trkpt>
<trkpt lat="46.24099" lon="7.27553"><ele>1059</ele><time>2025-11-04T12:13:07Z</time></trkpt>
<trkpt lat="46.24108" lon="7.27566"><ele>1059.2</ele><time>2025-11-04T12:13:12Z</time></trkpt>
<trkpt lat="46.24113" lon="7.27575"><ele>1059.6</ele><time>2025-11-04T12:13:16Z</time></trkpt>
<trkpt lat="46.24115" lon="7.27577"><ele>1059.8</ele><time>2025-11-04T12:13:17Z</time></trkpt>
<trkpt lat="46.24118" lon="7.27578"><ele>1060.2</ele><time>2025-11-04T12:13:18Z</time></trkpt>
<trkpt lat="46.24125" lon="7.27584"><ele>1061</ele><time>2025-11-04T12:13:21Z</time></trkpt>
<trkpt lat="46.24134" lon="7.27596"><ele>1062</ele><time>2025-11-04T12:13:26Z</time></trkpt>
<trkpt lat="46.24135" lon="7.27598"><ele>1062.2</ele><time>2025-11-04T12:13:27Z</time></trkpt>
<trkpt lat="46.24136" lon="7.27602"><ele>1062.2</ele><time>2025-11-04T12:13:28Z</time></trkpt>
<trkpt lat="46.24138" lon="7.2761"><ele>1062.4</ele><time>2025-11-04T12:13:31Z</time></trkpt>
<trkpt lat="46.2414" lon="7.27617"><ele>1062.6</ele><time>2025-11-04T12:13:34Z</time></trkpt>
<trkpt lat="46.24143" lon="7.27624"><ele>1063</ele><time>2025-11-04T12:13:37Z</time></trkpt>
<trkpt lat="46.24146" lon="7.27628"><ele>1063.2</ele><time>2025-11-04T12:13:39Z</time></trkpt>
<trkpt lat="46.24152" lon="7.27637"><ele>1063.6</ele><time>2025-11-04T12:13:43Z</time></trkpt>
<trkpt lat="46.24158" lon="7.27648"><ele>1064.2</ele><time>2025-11-04T12:13:49Z</time></trkpt>
<trkpt lat="46.24165" lon="7.27658"><ele>1064.8</ele><time>2025-11-04T12:13:54Z</time></trkpt>
<trkpt lat="46.24167" lon="7.2766"><ele>1065</ele><time>2025-11-04T12:13:56Z</time></trkpt>
<trkpt lat="46.24171" lon="7.27666"><ele>1065.2</ele><time>2025-11-04T12:13:59Z</time></trkpt>
<trkpt lat="46.24174" lon="7.27671"><ele>1065.4</ele><time>2025-11-04T12:14:01Z</time></trkpt>
<trkpt lat="46.24181" lon="7.27684"><ele>1065.8</ele><time>2025-11-04T12:14:07Z</time></trkpt>
<trkpt lat="46.2419" lon="7.27706"><ele>1066.2</ele><time>2025-11-04T12:14:14Z</time></trkpt>
<trkpt lat="46.24195" lon="7.27716"><ele>1066.4</ele><time>2025-11-04T12:14:17Z</time></trkpt>
<trkpt lat="46.24197" lon="7.27722"><ele>1066.8</ele><time>2025-11-04T12:14:20Z</time></trkpt>
<trkpt lat="46.24205" lon="7.27733"><ele>1067.2</ele><time>2025-11-04T12:14:27Z</time></trkpt>
<trkpt lat="46.24206" lon="7.27735"><ele>1067.4</ele><time>2025-11-04T12:14:28Z</time></trkpt>
<trkpt lat="46.24208" lon="7.2774"><ele>1067.4</ele><time>2025-11-04T12:14:30Z</time></trkpt>
<trkpt lat="46.24213" lon="7.27748"><ele>1067.6</ele><time>2025-11-04T12:14:34Z</time></trkpt>
<trkpt lat="46.24221" lon="7.27758"><ele>1068.6</ele><time>2025-11-04T12:14:40Z</time></trkpt>
<trkpt lat="46.24226" lon="7.27765"><ele>1069.2</ele><time>2025-11-04T12:14:45Z</time></trkpt>
<trkpt lat="46.24234" lon="7.27777"><ele>1069.8</ele><time>2025-11-04T12:14:52Z</time></trkpt>
<trkpt lat="46.24242" lon="7.27787"><ele>1070.6</ele><time>2025-11-04T12:14:59Z</time></trkpt>
<trkpt lat="46.24244" lon="7.27789"><ele>1070.8</ele><time>2025-11-04T12:15:01Z</time></trkpt>
<trkpt lat="46.24248" lon="7.27796"><ele>1071.2</ele><time>2025-11-04T12:15:06Z</time></trkpt>
<trkpt lat="46.24248" lon="7.27805"><ele>1071.6</ele><time>2025-11-04T12:15:10Z</time></trkpt>
<trkpt lat="46.24247" lon="7.27809"><ele>1071.6</ele><time>2025-11-04T12:15:12Z</time></trkpt>
<trkpt lat="46.24243" lon="7.27819"><ele>1071.8</ele><time>2025-11-04T12:15:17Z</time></trkpt>
<trkpt lat="46.24247" lon="7.27832"><ele>1072.2</ele><time>2025-11-04T12:15:23Z</time></trkpt>
<trkpt lat="46.24253" lon="7.27843"><ele>1072.4</ele><time>2025-11-04T12:15:28Z</time></trkpt>
<trkpt lat="46.24263" lon="7.27854"><ele>1072.2</ele><time>2025-11-04T12:15:33Z</time></trkpt>
<trkpt lat="46.24271" lon="7.27869"><ele>1072.4</ele><time>2025-11-04T12:15:39Z</time></trkpt>
<trkpt lat="46.24276" lon="7.27881"><ele>1073</ele><time>2025-11-04T12:15:44Z</time></trkpt>
<trkpt lat="46.2428" lon="7.27891"><ele>1074</ele><time>2025-11-04T12:15:48Z</time></trkpt>
<trkpt lat="46.24281" lon="7.27896"><ele>1074.6</ele><time>2025-11-04T12:15:50Z</time></trkpt>
<trkpt lat="46.2428" lon="7.27899"><ele>1074.8</ele><time>2025-11-04T12:15:51Z</time></trkpt>
<trkpt lat="46.2428" lon="7.27902"><ele>1075</ele><time>2025-11-04T12:15:52Z</time></trkpt>
<trkpt lat="46.2428" lon="7.27914"><ele>1074.8</ele><time>2025-11-04T12:15:55Z</time></trkpt>
<trkpt lat="46.24279" lon="7.2793"><ele>1074</ele><time>2025-11-04T12:15:58Z</time></trkpt>
<trkpt lat="46.24279" lon="7.27946"><ele>1073.8</ele><time>2025-11-04T12:16:01Z</time></trkpt>
<trkpt lat="46.24283" lon="7.27967"><ele>1073.8</ele><time>2025-11-04T12:16:06Z</time></trkpt>
<trkpt lat="46.2429" lon="7.27982"><ele>1074</ele><time>2025-11-04T12:16:11Z</time></trkpt>
<trkpt lat="46.24301" lon="7.28005"><ele>1074.2</ele><time>2025-11-04T12:16:18Z</time></trkpt>
<trkpt lat="46.24307" lon="7.2802"><ele>1074.4</ele><time>2025-11-04T12:16:23Z</time></trkpt>
<trkpt lat="46.24307" lon="7.28024"><ele>1074.4</ele><time>2025-11-04T12:16:24Z</time></trkpt>
<trkpt lat="46.24307" lon="7.28049"><ele>1074.6</ele><time>2025-11-04T12:16:30Z</time></trkpt>
<trkpt lat="46.24309" lon="7.28073"><ele>1074.6</ele><time>2025-11-04T12:16:36Z</time></trkpt>
<trkpt lat="46.24313" lon="7.28094"><ele>1074.8</ele><time>2025-11-04T12:16:42Z</time></trkpt>
<trkpt lat="46.24319" lon="7.28112"><ele>1075</ele><time>2025-11-04T12:16:47Z</time></trkpt>
<trkpt lat="46.24326" lon="7.28129"><ele>1074.8</ele><time>2025-11-04T12:16:52Z</time></trkpt>
<trkpt lat="46.24335" lon="7.28147"><ele>1075.2</ele><time>2025-11-04T12:16:57Z</time></trkpt>
<trkpt lat="46.24342" lon="7.28165"><ele>1075.4</ele><time>2025-11-04T12:17:02Z</time></trkpt>
<trkpt lat="46.24353" lon="7.28183"><ele>1075.6</ele><time>2025-11-04T12:17:08Z</time></trkpt>
<trkpt lat="46.24361" lon="7.28199"><ele>1076</ele><time>2025-11-04T12:17:13Z</time></trkpt>
<trkpt lat="46.24372" lon="7.28219"><ele>1076.2</ele><time>2025-11-04T12:17:19Z</time></trkpt>
<trkpt lat="46.24385" lon="7.28239"><ele>1076.2</ele><time>2025-11-04T12:17:26Z</time></trkpt>
<trkpt lat="46.244" lon="7.2825"><ele>1076.8</ele><time>2025-11-04T12:17:31Z</time></trkpt>
<trkpt lat="46.24411" lon="7.28262"><ele>1076.8</ele><time>2025-11-04T12:17:36Z</time></trkpt>
<trkpt lat="46.2442" lon="7.28271"><ele>1077.2</ele><time>2025-11-04T12:17:40Z</time></trkpt>
<trkpt lat="46.24425" lon="7.28275"><ele>1077.4</ele><time>2025-11-04T12:17:42Z</time></trkpt>
<trkpt lat="46.24438" lon="7.2829"><ele>1078</ele><time>2025-11-04T12:17:48Z</time></trkpt>
<trkpt lat="46.24442" lon="7.28296"><ele>1078.2</ele><time>2025-11-04T12:17:50Z</time></trkpt>
<trkpt lat="46.24448" lon="7.28309"><ele>1078.2</ele><time>2025-11-04T12:17:54Z</time></trkpt>
<trkpt lat="46.24458" lon="7.28331"><ele>1078.4</ele><time>2025-11-04T12:18:00Z</time></trkpt>
<trkpt lat="46.24466" lon="7.28344"><ele>1078.6</ele><time>2025-11-04T12:18:05Z</time></trkpt>
<trkpt lat="46.24479" lon="7.28359"><ele>1079</ele><time>2025-11-04T12:18:11Z</time></trkpt>
<trkpt lat="46.24488" lon="7.28375"><ele>1079.4</ele><time>2025-11-04T12:18:17Z</time></trkpt>
<trkpt lat="46.24497" lon="7.2839"><ele>1080.2</ele><time>2025-11-04T12:18:25Z</time></trkpt>
<trkpt lat="46.24498" lon="7.28392"><ele>1080.4</ele><time>2025-11-04T12:18:26Z</time></trkpt>
<trkpt lat="46.24504" lon="7.28403"><ele>1081</ele><time>2025-11-04T12:18:33Z</time></trkpt>
<trkpt lat="46.24511" lon="7.28418"><ele>1081.2</ele><time>2025-11-04T12:18:40Z</time></trkpt>
<trkpt lat="46.24512" lon="7.28422"><ele>1081.4</ele><time>2025-11-04T12:18:42Z</time></trkpt>
<trkpt lat="46.24515" lon="7.28429"><ele>1082.2</ele><time>2025-11-04T12:18:46Z</time></trkpt>
<trkpt lat="46.24517" lon="7.28432"><ele>1082.4</ele><time>2025-11-04T12:18:48Z</time></trkpt>
<trkpt lat="46.24522" lon="7.28441"><ele>1083.4</ele><time>2025-11-04T12:18:53Z</time></trkpt>
<trkpt lat="46.24524" lon="7.28442"><ele>1083.6</ele><time>2025-11-04T12:18:54Z</time></trkpt>
<trkpt lat="46.2453" lon="7.28452"><ele>1084.6</ele><time>2025-11-04T12:19:01Z</time></trkpt>
<trkpt lat="46.24537" lon="7.28459"><ele>1085.6</ele><time>2025-11-04T12:19:08Z</time></trkpt>
<trkpt lat="46.24538" lon="7.2846"><ele>1085.8</ele><time>2025-11-04T12:19:09Z</time></trkpt>
<trkpt lat="46.24544" lon="7.28466"><ele>1086.8</ele><time>2025-11-04T12:19:16Z</time></trkpt>
<trkpt lat="46.24552" lon="7.28469"><ele>1087.8</ele><time>2025-11-04T12:19:23Z</time></trkpt>
<trkpt lat="46.24553" lon="7.2847"><ele>1088</ele><time>2025-11-04T12:19:24Z</time></trkpt>
<trkpt lat="46.24559" lon="7.28477"><ele>1088.8</ele><time>2025-11-04T12:19:30Z</time></trkpt>
<trkpt lat="46.24561" lon="7.28478"><ele>1089</ele><time>2025-11-04T12:19:32Z</time></trkpt>
<trkpt lat="46.24566" lon="7.28483"><ele>1089.8</ele><time>2025-11-04T12:19:38Z</time></trkpt>
<trkpt lat="46.24568" lon="7.28485"><ele>1090</ele><time>2025-11-04T12:19:40Z</time></trkpt>
<trkpt lat="46.24569" lon="7.28488"><ele>1090.4</ele><time>2025-11-04T12:19:42Z</time></trkpt>
<trkpt lat="46.24568" lon="7.28492"><ele>1090.6</ele><time>2025-11-04T12:19:44Z</time></trkpt>
<trkpt lat="46.24569" lon="7.28499"><ele>1091.2</ele><time>2025-11-04T12:19:48Z</time></trkpt>
<trkpt lat="46.2457" lon="7.28504"><ele>1091.6</ele><time>2025-11-04T12:19:51Z</time></trkpt>
<trkpt lat="46.2457" lon="7.28512"><ele>1092.2</ele><time>2025-11-04T12:19:55Z</time></trkpt>
<trkpt lat="46.24569" lon="7.28519"><ele>1092.8</ele><time>2025-11-04T12:19:59Z</time></trkpt>
<trkpt lat="46.24568" lon="7.28523"><ele>1093.2</ele><time>2025-11-04T12:20:02Z</time></trkpt>
<trkpt lat="46.24567" lon="7.28524"><ele>1093.6</ele><time>2025-11-04T12:20:04Z</time></trkpt>
<trkpt lat="46.24568" lon="7.28526"><ele>1093.8</ele><time>2025-11-04T12:20:06Z</time></trkpt>
<trkpt lat="46.24568" lon="7.2853"><ele>1094.2</ele><time>2025-11-04T12:20:08Z</time></trkpt>
<trkpt lat="46.24567" lon="7.28534"><ele>1094.4</ele><time>2025-11-04T12:20:10Z</time></trkpt>
<trkpt lat="46.24567" lon="7.28544"><ele>1095.4</ele><time>2025-11-04T12:20:16Z</time></trkpt>
<trkpt lat="46.24567" lon="7.28546"><ele>1095.6</ele><time>2025-11-04T12:20:17Z</time></trkpt>
<trkpt lat="46.24567" lon="7.28558"><ele>1096.4</ele><time>2025-11-04T12:20:24Z</time></trkpt>
<trkpt lat="46.24566" lon="7.2856"><ele>1096.6</ele><time>2025-11-04T12:20:25Z</time></trkpt>
<trkpt lat="46.24563" lon="7.28572"><ele>1097.6</ele><time>2025-11-04T12:20:32Z</time></trkpt>
<trkpt lat="46.24563" lon="7.28574"><ele>1097.8</ele><time>2025-11-04T12:20:33Z</time></trkpt>
<trkpt lat="46.24562" lon="7.28584"><ele>1098.4</ele><time>2025-11-04T12:20:39Z</time></trkpt>
<trkpt lat="46.24563" lon="7.28588"><ele>1098.8</ele><time>2025-11-04T12:20:41Z</time></trkpt>
<trkpt lat="46.24564" lon="7.28597"><ele>1099.6</ele><time>2025-11-04T12:20:46Z</time></trkpt>
<trkpt lat="46.24565" lon="7.28603"><ele>1099.8</ele><time>2025-11-04T12:20:49Z</time></trkpt>
<trkpt lat="46.24567" lon="7.28613"><ele>1100.4</ele><time>2025-11-04T12:20:54Z</time></trkpt>
<trkpt lat="46.24569" lon="7.28618"><ele>1101</ele><time>2025-11-04T12:20:57Z</time></trkpt>
<trkpt lat="46.2457" lon="7.28621"><ele>1101.6</ele><time>2025-11-04T12:21:01Z</time></trkpt>
<trkpt lat="46.24571" lon="7.28624"><ele>1102</ele><time>2025-11-04T12:21:03Z</time></trkpt>
<trkpt lat="46.24575" lon="7.28632"><ele>1103</ele><time>2025-11-04T12:21:09Z</time></trkpt>
<trkpt lat="46.24579" lon="7.28641"><ele>1104</ele><time>2025-11-04T12:21:16Z</time></trkpt>
<trkpt lat="46.2458" lon="7.28642"><ele>1104.2</ele><time>2025-11-04T12:21:17Z</time></trkpt>
<trkpt lat="46.24586" lon="7.28646"><ele>1105</ele><time>2025-11-04T12:21:23Z</time></trkpt>
<trkpt lat="46.24587" lon="7.28647"><ele>1105.2</ele><time>2025-11-04T12:21:24Z</time></trkpt>
<trkpt lat="46.24592" lon="7.28652"><ele>1105.8</ele><time>2025-11-04T12:21:30Z</time></trkpt>
<trkpt lat="46.24594" lon="7.28655"><ele>1106</ele><time>2025-11-04T12:21:32Z</time></trkpt>
<trkpt lat="46.24594" lon="7.28656"><ele>1106.2</ele><time>2025-11-04T12:21:33Z</time></trkpt>
<trkpt lat="46.24597" lon="7.2866"><ele>1106.8</ele><time>2025-11-04T12:21:36Z</time></trkpt>
<trkpt lat="46.246" lon="7.28665"><ele>1107.2</ele><time>2025-11-04T12:21:41Z</time></trkpt>
<trkpt lat="46.24602" lon="7.28667"><ele>1107.6</ele><time>2025-11-04T12:21:43Z</time></trkpt>
<trkpt lat="46.24606" lon="7.28673"><ele>1108.4</ele><time>2025-11-04T12:21:49Z</time></trkpt>
<trkpt lat="46.24607" lon="7.28674"><ele>1108.6</ele><time>2025-11-04T12:21:50Z</time></trkpt>
<trkpt lat="46.24608" lon="7.28676"><ele>1108.8</ele><time>2025-11-04T12:21:52Z</time></trkpt>
<trkpt lat="46.24609" lon="7.28677"><ele>1109</ele><time>2025-11-04T12:21:54Z</time></trkpt>
<trkpt lat="46.24611" lon="7.28677"><ele>1109.2</ele><time>2025-11-04T12:21:55Z</time></trkpt>
<trkpt lat="46.24613" lon="7.28679"><ele>1109.4</ele><time>2025-11-04T12:21:57Z</time></trkpt>
<trkpt lat="46.24614" lon="7.28682"><ele>1109.8</ele><time>2025-11-04T12:22:00Z</time></trkpt>
<trkpt lat="46.2462" lon="7.28686"><ele>1110.6</ele><time>2025-11-04T12:22:05Z</time></trkpt>
<trkpt lat="46.24621" lon="7.28687"><ele>1110.8</ele><time>2025-11-04T12:22:06Z</time></trkpt>
<trkpt lat="46.24625" lon="7.28691"><ele>1111.6</ele><time>2025-11-04T12:22:12Z</time></trkpt>
<trkpt lat="46.24626" lon="7.28692"><ele>1111.8</ele><time>2025-11-04T12:22:13Z</time></trkpt>
<trkpt lat="46.24631" lon="7.28697"><ele>1112.6</ele><time>2025-11-04T12:22:19Z</time></trkpt>
<trkpt lat="46.24634" lon="7.28698"><ele>1113</ele><time>2025-11-04T12:22:22Z</time></trkpt>
<trkpt lat="46.24638" lon="7.28699"><ele>1113.8</ele><time>2025-11-04T12:22:27Z</time></trkpt>
<trkpt lat="46.24639" lon="7.287"><ele>1113.8</ele><time>2025-11-04T12:22:28Z</time></trkpt>
<trkpt lat="46.24645" lon="7.28706"><ele>1114.8</ele><time>2025-11-04T12:22:34Z</time></trkpt>
<trkpt lat="46.24646" lon="7.28707"><ele>1115</ele><time>2025-11-04T12:22:35Z</time></trkpt>
<trkpt lat="46.24653" lon="7.28711"><ele>1116</ele><time>2025-11-04T12:22:43Z</time></trkpt>
<trkpt lat="46.24658" lon="7.28715"><ele>1117</ele><time>2025-11-04T12:22:50Z</time></trkpt>
<trkpt lat="46.24659" lon="7.28715"><ele>1117</ele><time>2025-11-04T12:22:51Z</time></trkpt>
<trkpt lat="46.24667" lon="7.28717"><ele>1117.8</ele><time>2025-11-04T12:22:58Z</time></trkpt>
<trkpt lat="46.24668" lon="7.28717"><ele>1118</ele><time>2025-11-04T12:22:59Z</time></trkpt>
<trkpt lat="46.24674" lon="7.28718"><ele>1118.8</ele><time>2025-11-04T12:23:05Z</time></trkpt>
<trkpt lat="46.24676" lon="7.28718"><ele>1119</ele><time>2025-11-04T12:23:07Z</time></trkpt>
<trkpt lat="46.24681" lon="7.28717"><ele>1119.6</ele><time>2025-11-04T12:23:11Z</time></trkpt>
<trkpt lat="46.24684" lon="7.28717"><ele>1120.2</ele><time>2025-11-04T12:23:14Z</time></trkpt>
<trkpt lat="46.24688" lon="7.28717"><ele>1120.6</ele><time>2025-11-04T12:23:18Z</time></trkpt>
<trkpt lat="46.24689" lon="7.28718"><ele>1120.8</ele><time>2025-11-04T12:23:19Z</time></trkpt>
<trkpt lat="46.24691" lon="7.28719"><ele>1121.2</ele><time>2025-11-04T12:23:21Z</time></trkpt>
<trkpt lat="46.24693" lon="7.28719"><ele>1121.4</ele><time>2025-11-04T12:23:23Z</time></trkpt>
<trkpt lat="46.24698" lon="7.28718"><ele>1122.2</ele><time>2025-11-04T12:23:29Z</time></trkpt>
<trkpt lat="46.24704" lon="7.28717"><ele>1122.8</ele><time>2025-11-04T12:23:34Z</time></trkpt>
<trkpt lat="46.24707" lon="7.28718"><ele>1123.4</ele><time>2025-11-04T12:23:38Z</time></trkpt>
<trkpt lat="46.24708" lon="7.28718"><ele>1123.6</ele><time>2025-11-04T12:23:39Z</time></trkpt>
<trkpt lat="46.24714" lon="7.28719"><ele>1124.4</ele><time>2025-11-04T12:23:45Z</time></trkpt>
<trkpt lat="46.24722" lon="7.28721"><ele>1125.6</ele><time>2025-11-04T12:23:52Z</time></trkpt>
<trkpt lat="46.24728" lon="7.28721"><ele>1126.6</ele><time>2025-11-04T12:23:59Z</time></trkpt>
<trkpt lat="46.24733" lon="7.28721"><ele>1127.2</ele><time>2025-11-04T12:24:04Z</time></trkpt>
<trkpt lat="46.24736" lon="7.28721"><ele>1127.6</ele><time>2025-11-04T12:24:07Z</time></trkpt>
<trkpt lat="46.24738" lon="7.2872"><ele>1128</ele><time>2025-11-04T12:24:10Z</time></trkpt>
<trkpt lat="46.24739" lon="7.28719"><ele>1128.2</ele><time>2025-11-04T12:24:12Z</time></trkpt>
<trkpt lat="46.24743" lon="7.28719"><ele>1128.6</ele><time>2025-11-04T12:24:15Z</time></trkpt>
<trkpt lat="46.24749" lon="7.28721"><ele>1129.4</ele><time>2025-11-04T12:24:21Z</time></trkpt>
<trkpt lat="46.2475" lon="7.28723"><ele>1129.8</ele><time>2025-11-04T12:24:23Z</time></trkpt>
<trkpt lat="46.24753" lon="7.28726"><ele>1130.2</ele><time>2025-11-04T12:24:26Z</time></trkpt>
<trkpt lat="46.24755" lon="7.28729"><ele>1130.8</ele><time>2025-11-04T12:24:29Z</time></trkpt>
<trkpt lat="46.24756" lon="7.2873"><ele>1130.8</ele><time>2025-11-04T12:24:30Z</time></trkpt>
<trkpt lat="46.24757" lon="7.28732"><ele>1131.2</ele><time>2025-11-04T12:24:32Z</time></trkpt>
<trkpt lat="46.24761" lon="7.28735"><ele>1131.8</ele><time>2025-11-04T12:24:38Z</time></trkpt>
<trkpt lat="46.24762" lon="7.28736"><ele>1132</ele><time>2025-11-04T12:24:39Z</time></trkpt>
<trkpt lat="46.24766" lon="7.28738"><ele>1132.8</ele><time>2025-11-04T12:24:44Z</time></trkpt>
<trkpt lat="46.24768" lon="7.28738"><ele>1133</ele><time>2025-11-04T12:24:47Z</time></trkpt>
<trkpt lat="46.24772" lon="7.28739"><ele>1133.6</ele><time>2025-11-04T12:24:51Z</time></trkpt>
<trkpt lat="46.24775" lon="7.28739"><ele>1134</ele><time>2025-11-04T12:24:54Z</time></trkpt>
<trkpt lat="46.24777" lon="7.2874"><ele>1134.2</ele><time>2025-11-04T12:24:56Z</time></trkpt>
<trkpt lat="46.2478" lon="7.28738"><ele>1134.4</ele><time>2025-11-04T12:24:57Z</time></trkpt>
<trkpt lat="46.24784" lon="7.28739"><ele>1135</ele><time>2025-11-04T12:25:00Z</time></trkpt>
<trkpt lat="46.24785" lon="7.28738"><ele>1135.2</ele><time>2025-11-04T12:25:01Z</time></trkpt>
<trkpt lat="46.2479" lon="7.28735"><ele>1136</ele><time>2025-11-04T12:25:06Z</time></trkpt>
<trkpt lat="46.24793" lon="7.28733"><ele>1136.2</ele><time>2025-11-04T12:25:08Z</time></trkpt>
<trkpt lat="46.24797" lon="7.28729"><ele>1137.2</ele><time>2025-11-04T12:25:13Z</time></trkpt>
<trkpt lat="46.24798" lon="7.28728"><ele>1137.4</ele><time>2025-11-04T12:25:14Z</time></trkpt>
<trkpt lat="46.24803" lon="7.28723"><ele>1138.2</ele><time>2025-11-04T12:25:19Z</time></trkpt>
<trkpt lat="46.24804" lon="7.28723"><ele>1138.4</ele><time>2025-11-04T12:25:20Z</time></trkpt>
<trkpt lat="46.24809" lon="7.28719"><ele>1139.2</ele><time>2025-11-04T12:25:25Z</time></trkpt>
<trkpt lat="46.24811" lon="7.28717"><ele>1139.4</ele><time>2025-11-04T12:25:27Z</time></trkpt>
<trkpt lat="46.24814" lon="7.28715"><ele>1139.8</ele><time>2025-11-04T12:25:30Z</time></trkpt>
<trkpt lat="46.2482" lon="7.28713"><ele>1140.6</ele><time>2025-11-04T12:25:35Z</time></trkpt>
<trkpt lat="46.24822" lon="7.28712"><ele>1140.8</ele><time>2025-11-04T12:25:37Z</time></trkpt>
<trkpt lat="46.24828" lon="7.28709"><ele>1141.6</ele><time>2025-11-04T12:25:43Z</time></trkpt>
<trkpt lat="46.24836" lon="7.28711"><ele>1142.8</ele><time>2025-11-04T12:25:50Z</time></trkpt>
<trkpt lat="46.24845" lon="7.28715"><ele>1144</ele><time>2025-11-04T12:25:57Z</time></trkpt>
<trkpt lat="46.24851" lon="7.28722"><ele>1145</ele><time>2025-11-04T12:26:04Z</time></trkpt>
<trkpt lat="46.24852" lon="7.28723"><ele>1145.2</ele><time>2025-11-04T12:26:05Z</time></trkpt>
<trkpt lat="46.24858" lon="7.28731"><ele>1146</ele><time>2025-11-04T12:26:11Z</time></trkpt>
<trkpt lat="46.24863" lon="7.28737"><ele>1147</ele><time>2025-11-04T12:26:17Z</time></trkpt>
<trkpt lat="46.24865" lon="7.2874"><ele>1147.2</ele><time>2025-11-04T12:26:19Z</time></trkpt>
<trkpt lat="46.24871" lon="7.28748"><ele>1148.4</ele><time>2025-11-04T12:26:26Z</time></trkpt>
<trkpt lat="46.24878" lon="7.28752"><ele>1149.4</ele><time>2025-11-04T12:26:32Z</time></trkpt>
<trkpt lat="46.2488" lon="7.28753"><ele>1149.6</ele><time>2025-11-04T12:26:33Z</time></trkpt>
<trkpt lat="46.24886" lon="7.28755"><ele>1150.6</ele><time>2025-11-04T12:26:39Z</time></trkpt>
<trkpt lat="46.24892" lon="7.28756"><ele>1151.4</ele><time>2025-11-04T12:26:45Z</time></trkpt>
<trkpt lat="46.24892" lon="7.28755"><ele>1151.6</ele><time>2025-11-04T12:26:46Z</time></trkpt>
<trkpt lat="46.24899" lon="7.28757"><ele>1152.4</ele><time>2025-11-04T12:26:51Z</time></trkpt>
<trkpt lat="46.249" lon="7.28757"><ele>1152.6</ele><time>2025-11-04T12:26:53Z</time></trkpt>
<trkpt lat="46.24901" lon="7.28757"><ele>1153</ele><time>2025-11-04T12:26:55Z</time></trkpt>
<trkpt lat="46.24906" lon="7.28757"><ele>1153.6</ele><time>2025-11-04T12:27:01Z</time></trkpt>
<trkpt lat="46.24907" lon="7.28756"><ele>1153.8</ele><time>2025-11-04T12:27:02Z</time></trkpt>
<trkpt lat="46.24912" lon="7.28758"><ele>1154.2</ele><time>2025-11-04T12:27:06Z</time></trkpt>
<trkpt lat="46.24916" lon="7.28759"><ele>1154.8</ele><time>2025-11-04T12:27:10Z</time></trkpt>
<trkpt lat="46.24919" lon="7.2876"><ele>1155.2</ele><time>2025-11-04T12:27:13Z</time></trkpt>
<trkpt lat="46.24925" lon="7.28762"><ele>1155.8</ele><time>2025-11-04T12:27:18Z</time></trkpt>
<trkpt lat="46.24927" lon="7.28763"><ele>1156.2</ele><time>2025-11-04T12:27:21Z</time></trkpt>
<trkpt lat="46.24933" lon="7.28766"><ele>1157</ele><time>2025-11-04T12:27:27Z</time></trkpt>
<trkpt lat="46.24939" lon="7.28769"><ele>1157.8</ele><time>2025-11-04T12:27:33Z</time></trkpt>
<trkpt lat="46.2494" lon="7.28769"><ele>1158</ele><time>2025-11-04T12:27:34Z</time></trkpt>
<trkpt lat="46.24941" lon="7.2877"><ele>1158</ele><time>2025-11-04T12:27:35Z</time></trkpt>
<trkpt lat="46.24945" lon="7.28773"><ele>1158.6</ele><time>2025-11-04T12:27:39Z</time></trkpt>
<trkpt lat="46.24948" lon="7.28777"><ele>1159</ele><time>2025-11-04T12:27:42Z</time></trkpt>
<trkpt lat="46.24951" lon="7.2878"><ele>1159.4</ele><time>2025-11-04T12:27:45Z</time></trkpt>
<trkpt lat="46.24954" lon="7.28784"><ele>1160.2</ele><time>2025-11-04T12:27:50Z</time></trkpt>
<trkpt lat="46.24955" lon="7.28786"><ele>1160.6</ele><time>2025-11-04T12:27:52Z</time></trkpt>
<trkpt lat="46.24958" lon="7.28792"><ele>1161.2</ele><time>2025-11-04T12:27:56Z</time></trkpt>
<trkpt lat="46.24959" lon="7.28792"><ele>1161.2</ele><time>2025-11-04T12:27:57Z</time></trkpt>
<trkpt lat="46.24964" lon="7.28798"><ele>1162.4</ele><time>2025-11-04T12:28:04Z</time></trkpt>
<trkpt lat="46.24969" lon="7.28803"><ele>1163.2</ele><time>2025-11-04T12:28:10Z</time></trkpt>
<trkpt lat="46.24971" lon="7.28805"><ele>1163.4</ele><time>2025-11-04T12:28:12Z</time></trkpt>
<trkpt lat="46.24975" lon="7.28809"><ele>1164.2</ele><time>2025-11-04T12:28:17Z</time></trkpt>
<trkpt lat="46.24977" lon="7.2881"><ele>1164.4</ele><time>2025-11-04T12:28:19Z</time></trkpt>
<trkpt lat="46.24983" lon="7.28814"><ele>1165.2</ele><time>2025-11-04T12:28:25Z</time></trkpt>
<trkpt lat="46.24984" lon="7.28815"><ele>1165.4</ele><time>2025-11-04T12:28:26Z</time></trkpt>
<trkpt lat="46.24985" lon="7.28816"><ele>1165.4</ele><time>2025-11-04T12:28:27Z</time></trkpt>
<trkpt lat="46.2499" lon="7.28818"><ele>1166.4</ele><time>2025-11-04T12:28:33Z</time></trkpt>
<trkpt lat="46.2499" lon="7.28819"><ele>1166.4</ele><time>2025-11-04T12:28:34Z</time></trkpt>
<trkpt lat="46.24994" lon="7.28819"><ele>1167</ele><time>2025-11-04T12:28:38Z</time></trkpt>
<trkpt lat="46.24997" lon="7.28818"><ele>1167.6</ele><time>2025-11-04T12:28:42Z</time></trkpt>
<trkpt lat="46.24999" lon="7.28817"><ele>1167.8</ele><time>2025-11-04T12:28:44Z</time></trkpt>
<trkpt lat="46.25004" lon="7.28817"><ele>1168.6</ele><time>2025-11-04T12:28:50Z</time></trkpt>
<trkpt lat="46.25006" lon="7.28817"><ele>1168.6</ele><time>2025-11-04T12:28:51Z</time></trkpt>
<trkpt lat="46.2501" lon="7.28819"><ele>1169.2</ele><time>2025-11-04T12:28:55Z</time></trkpt>
<trkpt lat="46.25012" lon="7.28819"><ele>1169.4</ele><time>2025-11-04T12:28:57Z</time></trkpt>
<trkpt lat="46.25014" lon="7.28821"><ele>1169.8</ele><time>2025-11-04T12:28:59Z</time></trkpt>
<trkpt lat="46.25019" lon="7.28826"><ele>1170.6</ele><time>2025-11-04T12:29:06Z</time></trkpt>
<trkpt lat="46.2502" lon="7.28827"><ele>1170.8</ele><time>2025-11-04T12:29:08Z</time></trkpt>
<trkpt lat="46.25021" lon="7.28831"><ele>1171.4</ele><time>2025-11-04T12:29:11Z</time></trkpt>
<trkpt lat="46.25021" lon="7.28838"><ele>1172</ele><time>2025-11-04T12:29:16Z</time></trkpt>
<trkpt lat="46.25021" lon="7.2884"><ele>1172</ele><time>2025-11-04T12:29:17Z</time></trkpt>
<trkpt lat="46.2502" lon="7.28848"><ele>1173</ele><time>2025-11-04T12:29:22Z</time></trkpt>
<trkpt lat="46.2502" lon="7.2885"><ele>1173.2</ele><time>2025-11-04T12:29:23Z</time></trkpt>
<trkpt lat="46.25021" lon="7.28857"><ele>1174</ele><time>2025-11-04T12:29:29Z</time></trkpt>
<trkpt lat="46.25021" lon="7.28858"><ele>1174.2</ele><time>2025-11-04T12:29:30Z</time></trkpt>
<trkpt lat="46.25021" lon="7.28859"><ele>1174.2</ele><time>2025-11-04T12:29:31Z</time></trkpt>
<trkpt lat="46.25021" lon="7.28862"><ele>1174.6</ele><time>2025-11-04T12:29:34Z</time></trkpt>
<trkpt lat="46.25022" lon="7.28868"><ele>1175.2</ele><time>2025-11-04T12:29:38Z</time></trkpt>
<trkpt lat="46.25022" lon="7.2887"><ele>1175.4</ele><time>2025-11-04T12:29:39Z</time></trkpt>
<trkpt lat="46.25023" lon="7.28877"><ele>1176</ele><time>2025-11-04T12:29:44Z</time></trkpt>
<trkpt lat="46.25024" lon="7.28878"><ele>1176.2</ele><time>2025-11-04T12:29:45Z</time></trkpt>
<trkpt lat="46.25024" lon="7.28886"><ele>1177</ele><time>2025-11-04T12:29:51Z</time></trkpt>
<trkpt lat="46.25024" lon="7.28889"><ele>1177.2</ele><time>2025-11-04T12:29:53Z</time></trkpt>
<trkpt lat="46.25024" lon="7.28898"><ele>1178</ele><time>2025-11-04T12:29:58Z</time></trkpt>
<trkpt lat="46.25025" lon="7.28904"><ele>1178.4</ele><time>2025-11-04T12:30:01Z</time></trkpt>
<trkpt lat="46.25026" lon="7.28907"><ele>1178.6</ele><time>2025-11-04T12:30:03Z</time></trkpt>
<trkpt lat="46.25026" lon="7.2891"><ele>1179</ele><time>2025-11-04T12:30:05Z</time></trkpt>
<trkpt lat="46.25026" lon="7.28915"><ele>1179.4</ele><time>2025-11-04T12:30:08Z</time></trkpt>
<trkpt lat="46.25026" lon="7.28924"><ele>1180.4</ele><time>2025-11-04T12:30:14Z</time></trkpt>
<trkpt lat="46.25026" lon="7.28926"><ele>1180.6</ele><time>2025-11-04T12:30:15Z</time></trkpt>
<trkpt lat="46.25027" lon="7.28934"><ele>1181.2</ele><time>2025-11-04T12:30:20Z</time></trkpt>
<trkpt lat="46.25028" lon="7.28937"><ele>1181.6</ele><time>2025-11-04T12:30:22Z</time></trkpt>
<trkpt lat="46.25028" lon="7.28941"><ele>1182</ele><time>2025-11-04T12:30:25Z</time></trkpt>
<trkpt lat="46.2503" lon="7.28949"><ele>1182.6</ele><time>2025-11-04T12:30:30Z</time></trkpt>
<trkpt lat="46.25031" lon="7.2895"><ele>1182.8</ele><time>2025-11-04T12:30:31Z</time></trkpt>
<trkpt lat="46.25035" lon="7.28959"><ele>1183.6</ele><time>2025-11-04T12:30:38Z</time></trkpt>
<trkpt lat="46.25036" lon="7.28963"><ele>1184.4</ele><time>2025-11-04T12:30:42Z</time></trkpt>
<trkpt lat="46.25037" lon="7.28965"><ele>1184.6</ele><time>2025-11-04T12:30:44Z</time></trkpt>
<trkpt lat="46.25042" lon="7.28969"><ele>1185.4</ele><time>2025-11-04T12:30:50Z</time></trkpt>
<trkpt lat="46.25045" lon="7.28972"><ele>1185.8</ele><time>2025-11-04T12:30:53Z</time></trkpt>
<trkpt lat="46.25048" lon="7.28973"><ele>1186.4</ele><time>2025-11-04T12:30:57Z</time></trkpt>
<trkpt lat="46.25051" lon="7.28973"><ele>1187</ele><time>2025-11-04T12:31:00Z</time></trkpt>
<trkpt lat="46.25053" lon="7.28975"><ele>1187.2</ele><time>2025-11-04T12:31:02Z</time></trkpt>
<trkpt lat="46.25056" lon="7.28978"><ele>1188</ele><time>2025-11-04T12:31:06Z</time></trkpt>
<trkpt lat="46.25057" lon="7.28978"><ele>1188</ele><time>2025-11-04T12:31:07Z</time></trkpt>
<trkpt lat="46.2506" lon="7.28977"><ele>1188.4</ele><time>2025-11-04T12:31:09Z</time></trkpt>
<trkpt lat="46.25064" lon="7.28977"><ele>1189</ele><time>2025-11-04T12:31:14Z</time></trkpt>
<trkpt lat="46.25065" lon="7.28977"><ele>1189.2</ele><time>2025-11-04T12:31:15Z</time></trkpt>
<trkpt lat="46.25068" lon="7.28978"><ele>1189.4</ele><time>2025-11-04T12:31:18Z</time></trkpt>
<trkpt lat="46.25072" lon="7.28979"><ele>1190.2</ele><time>2025-11-04T12:31:22Z</time></trkpt>
<trkpt lat="46.2508" lon="7.2898"><ele>1191</ele><time>2025-11-04T12:31:30Z</time></trkpt>
<trkpt lat="46.25083" lon="7.28979"><ele>1191.2</ele><time>2025-11-04T12:31:32Z</time></trkpt>
<trkpt lat="46.25087" lon="7.28975"><ele>1191.4</ele><time>2025-11-04T12:31:35Z</time></trkpt>
<trkpt lat="46.25093" lon="7.28968"><ele>1192</ele><time>2025-11-04T12:31:41Z</time></trkpt>
<trkpt lat="46.25095" lon="7.28965"><ele>1192.2</ele><time>2025-11-04T12:31:43Z</time></trkpt>
<trkpt lat="46.25101" lon="7.28957"><ele>1192.8</ele><time>2025-11-04T12:31:49Z</time></trkpt>
<trkpt lat="46.25104" lon="7.28953"><ele>1193.2</ele><time>2025-11-04T12:31:52Z</time></trkpt>
<trkpt lat="46.25107" lon="7.2895"><ele>1193.4</ele><time>2025-11-04T12:31:55Z</time></trkpt>
<trkpt lat="46.25112" lon="7.28942"><ele>1193.8</ele><time>2025-11-04T12:32:01Z</time></trkpt>
<trkpt lat="46.25124" lon="7.28929"><ele>1193.8</ele><time>2025-11-04T12:32:09Z</time></trkpt>
<trkpt lat="46.25131" lon="7.28915"><ele>1194</ele><time>2025-11-04T12:32:15Z</time></trkpt>
<trkpt lat="46.25132" lon="7.28914"><ele>1194.2</ele><time>2025-11-04T12:32:16Z</time></trkpt>
<trkpt lat="46.25137" lon="7.2891"><ele>1195.4</ele><time>2025-11-04T12:32:20Z</time></trkpt>
<trkpt lat="46.25138" lon="7.28908"><ele>1195.6</ele><time>2025-11-04T12:32:21Z</time></trkpt>
<trkpt lat="46.25142" lon="7.28903"><ele>1196.4</ele><time>2025-11-04T12:32:25Z</time></trkpt>
<trkpt lat="46.25144" lon="7.28901"><ele>1196.6</ele><time>2025-11-04T12:32:27Z</time></trkpt>
<trkpt lat="46.25145" lon="7.28901"><ele>1196.8</ele><time>2025-11-04T12:32:28Z</time></trkpt>
<trkpt lat="46.25151" lon="7.28898"><ele>1196.6</ele><time>2025-11-04T12:32:32Z</time></trkpt>
<trkpt lat="46.25152" lon="7.28897"><ele>1196.6</ele><time>2025-11-04T12:32:33Z</time></trkpt>
<trkpt lat="46.25158" lon="7.28893"><ele>1197</ele><time>2025-11-04T12:32:38Z</time></trkpt>
<trkpt lat="46.25166" lon="7.2889"><ele>1197.4</ele><time>2025-11-04T12:32:44Z</time></trkpt>
<trkpt lat="46.25168" lon="7.28889"><ele>1197.6</ele><time>2025-11-04T12:32:46Z</time></trkpt>
<trkpt lat="46.25174" lon="7.28888"><ele>1198</ele><time>2025-11-04T12:32:51Z</time></trkpt>
<trkpt lat="46.25182" lon="7.28884"><ele>1198.2</ele><time>2025-11-04T12:32:57Z</time></trkpt>
<trkpt lat="46.25189" lon="7.2888"><ele>1198.6</ele><time>2025-11-04T12:33:02Z</time></trkpt>
<trkpt lat="46.25192" lon="7.28879"><ele>1198.8</ele><time>2025-11-04T12:33:04Z</time></trkpt>
<trkpt lat="46.25201" lon="7.28873"><ele>1199.2</ele><time>2025-11-04T12:33:10Z</time></trkpt>
<trkpt lat="46.25205" lon="7.28869"><ele>1199.8</ele><time>2025-11-04T12:33:14Z</time></trkpt>
<trkpt lat="46.25208" lon="7.28866"><ele>1200.4</ele><time>2025-11-04T12:33:17Z</time></trkpt>
<trkpt lat="46.25211" lon="7.28865"><ele>1201</ele><time>2025-11-04T12:33:20Z</time></trkpt>
<trkpt lat="46.25211" lon="7.28864"><ele>1201.2</ele><time>2025-11-04T12:33:21Z</time></trkpt>
<trkpt lat="46.25214" lon="7.28862"><ele>1201.6</ele><time>2025-11-04T12:33:23Z</time></trkpt>
<trkpt lat="46.25218" lon="7.28862"><ele>1202</ele><time>2025-11-04T12:33:27Z</time></trkpt>
<trkpt lat="46.25219" lon="7.28861"><ele>1202.2</ele><time>2025-11-04T12:33:28Z</time></trkpt>
<trkpt lat="46.25225" lon="7.28859"><ele>1203</ele><time>2025-11-04T12:33:33Z</time></trkpt>
<trkpt lat="46.25227" lon="7.2886"><ele>1203.2</ele><time>2025-11-04T12:33:34Z</time></trkpt>
<trkpt lat="46.25234" lon="7.28859"><ele>1204</ele><time>2025-11-04T12:33:40Z</time></trkpt>
<trkpt lat="46.25237" lon="7.28858"><ele>1204.2</ele><time>2025-11-04T12:33:42Z</time></trkpt>
<trkpt lat="46.25242" lon="7.28853"><ele>1205</ele><time>2025-11-04T12:33:47Z</time></trkpt>
<trkpt lat="46.25246" lon="7.28852"><ele>1205.2</ele><time>2025-11-04T12:33:50Z</time></trkpt>
<trkpt lat="46.25249" lon="7.28851"><ele>1205.6</ele><time>2025-11-04T12:33:53Z</time></trkpt>
<trkpt lat="46.25255" lon="7.28846"><ele>1206.2</ele><time>2025-11-04T12:33:59Z</time></trkpt>
<trkpt lat="46.25257" lon="7.28845"><ele>1206.4</ele><time>2025-11-04T12:34:00Z</time></trkpt>
<trkpt lat="46.25262" lon="7.28837"><ele>1206.6</ele><time>2025-11-04T12:34:05Z</time></trkpt>
<trkpt lat="46.25268" lon="7.28822"><ele>1207.2</ele><time>2025-11-04T12:34:13Z</time></trkpt>
<trkpt lat="46.25271" lon="7.28815"><ele>1207.4</ele><time>2025-11-04T12:34:16Z</time></trkpt>
<trkpt lat="46.25275" lon="7.28803"><ele>1207.6</ele><time>2025-11-04T12:34:21Z</time></trkpt>
<trkpt lat="46.25283" lon="7.28795"><ele>1208.2</ele><time>2025-11-04T12:34:26Z</time></trkpt>
<trkpt lat="46.25285" lon="7.28796"><ele>1208.4</ele><time>2025-11-04T12:34:27Z</time></trkpt>
<trkpt lat="46.2529" lon="7.288"><ele>1208.8</ele><time>2025-11-04T12:34:30Z</time></trkpt>
<trkpt lat="46.2529" lon="7.28802"><ele>1208.8</ele><time>2025-11-04T12:34:31Z</time></trkpt>
<trkpt lat="46.25292" lon="7.28807"><ele>1209.2</ele><time>2025-11-04T12:34:34Z</time></trkpt>
<trkpt lat="46.25293" lon="7.28809"><ele>1209.4</ele><time>2025-11-04T12:34:35Z</time></trkpt>
<trkpt lat="46.25298" lon="7.28815"><ele>1209.6</ele><time>2025-11-04T12:34:39Z</time></trkpt>
<trkpt lat="46.253" lon="7.28815"><ele>1209.6</ele><time>2025-11-04T12:34:40Z</time></trkpt>
<trkpt lat="46.25308" lon="7.28813"><ele>1209.8</ele><time>2025-11-04T12:34:44Z</time></trkpt>
<trkpt lat="46.2532" lon="7.28812"><ele>1210</ele><time>2025-11-04T12:34:51Z</time></trkpt>
<trkpt lat="46.25338" lon="7.28811"><ele>1210</ele><time>2025-11-04T12:34:58Z</time></trkpt>
<trkpt lat="46.25352" lon="7.28808"><ele>1210.2</ele><time>2025-11-04T12:35:03Z</time></trkpt>
<trkpt lat="46.25358" lon="7.28808"><ele>1210.4</ele><time>2025-11-04T12:35:06Z</time></trkpt>
<trkpt lat="46.25368" lon="7.28809"><ele>1211</ele><time>2025-11-04T12:35:11Z</time></trkpt>
<trkpt lat="46.25376" lon="7.28818"><ele>1211.2</ele><time>2025-11-04T12:35:16Z</time></trkpt>
<trkpt lat="46.2539" lon="7.28835"><ele>1211.2</ele><time>2025-11-04T12:35:23Z</time></trkpt>
<trkpt lat="46.25404" lon="7.28841"><ele>1211.4</ele><time>2025-11-04T12:35:29Z</time></trkpt>
<trkpt lat="46.25418" lon="7.28846"><ele>1211.4</ele><time>2025-11-04T12:35:35Z</time></trkpt>
<trkpt lat="46.25429" lon="7.28852"><ele>1212.2</ele><time>2025-11-04T12:35:41Z</time></trkpt>
<trkpt lat="46.25436" lon="7.28853"><ele>1212.6</ele><time>2025-11-04T12:35:44Z</time></trkpt>
<trkpt lat="46.25442" lon="7.28855"><ele>1213</ele><time>2025-11-04T12:35:48Z</time></trkpt>
<trkpt lat="46.25445" lon="7.28856"><ele>1213.8</ele><time>2025-11-04T12:35:51Z</time></trkpt>
<trkpt lat="46.25447" lon="7.28857"><ele>1214.2</ele><time>2025-11-04T12:35:53Z</time></trkpt>
<trkpt lat="46.25448" lon="7.28857"><ele>1214.4</ele><time>2025-11-04T12:35:54Z</time></trkpt>
<trkpt lat="46.25449" lon="7.28858"><ele>1214.8</ele><time>2025-11-04T12:35:56Z</time></trkpt>
<trkpt lat="46.2545" lon="7.28858"><ele>1215</ele><time>2025-11-04T12:35:57Z</time></trkpt>
<trkpt lat="46.25451" lon="7.28858"><ele>1215.2</ele><time>2025-11-04T12:35:58Z</time></trkpt>
<trkpt lat="46.25456" lon="7.28859"><ele>1215.8</ele><time>2025-11-04T12:36:02Z</time></trkpt>
<trkpt lat="46.25457" lon="7.2886"><ele>1216</ele><time>2025-11-04T12:36:03Z</time></trkpt>
<trkpt lat="46.25461" lon="7.28861"><ele>1216.6</ele><time>2025-11-04T12:36:07Z</time></trkpt>
<trkpt lat="46.25464" lon="7.28861"><ele>1217</ele><time>2025-11-04T12:36:10Z</time></trkpt>
<trkpt lat="46.25466" lon="7.28861"><ele>1217.4</ele><time>2025-11-04T12:36:12Z</time></trkpt>
<trkpt lat="46.25468" lon="7.28861"><ele>1217.8</ele><time>2025-11-04T12:36:14Z</time></trkpt>
<trkpt lat="46.25471" lon="7.2886"><ele>1218.2</ele><time>2025-11-04T12:36:17Z</time></trkpt>
<trkpt lat="46.25473" lon="7.28859"><ele>1218.6</ele><time>2025-11-04T12:36:20Z</time></trkpt>
<trkpt lat="46.25479" lon="7.28858"><ele>1219.2</ele><time>2025-11-04T12:36:26Z</time></trkpt>
<trkpt lat="46.2548" lon="7.28858"><ele>1219.2</ele><time>2025-11-04T12:36:27Z</time></trkpt>
<trkpt lat="46.25486" lon="7.28855"><ele>1220</ele><time>2025-11-04T12:36:33Z</time></trkpt>
<trkpt lat="46.25487" lon="7.28855"><ele>1220</ele><time>2025-11-04T12:36:34Z</time></trkpt>
<trkpt lat="46.25487" lon="7.28855"><ele>1220.2</ele><time>2025-11-04T12:36:35Z</time></trkpt>
<trkpt lat="46.25491" lon="7.28852"><ele>1220.8</ele><time>2025-11-04T12:36:39Z</time></trkpt>
<trkpt lat="46.25492" lon="7.28851"><ele>1220.8</ele><time>2025-11-04T12:36:40Z</time></trkpt>
<trkpt lat="46.25496" lon="7.28848"><ele>1221.4</ele><time>2025-11-04T12:36:44Z</time></trkpt>
<trkpt lat="46.25498" lon="7.28847"><ele>1221.6</ele><time>2025-11-04T12:36:45Z</time></trkpt>
<trkpt lat="46.255" lon="7.28846"><ele>1221.8</ele><time>2025-11-04T12:36:50Z</time></trkpt>
<trkpt lat="46.25503" lon="7.28846"><ele>1222.4</ele><time>2025-11-04T12:36:55Z</time></trkpt>
<trkpt lat="46.25503" lon="7.28846"><ele>1222.6</ele><time>2025-11-04T12:36:56Z</time></trkpt>
<trkpt lat="46.25508" lon="7.28846"><ele>1223.4</ele><time>2025-11-04T12:37:03Z</time></trkpt>
<trkpt lat="46.25508" lon="7.28846"><ele>1223.6</ele><time>2025-11-04T12:37:04Z</time></trkpt>
<trkpt lat="46.25511" lon="7.28846"><ele>1224.4</ele><time>2025-11-04T12:37:09Z</time></trkpt>
<trkpt lat="46.25511" lon="7.28847"><ele>1224.6</ele><time>2025-11-04T12:37:11Z</time></trkpt>
<trkpt lat="46.25513" lon="7.28848"><ele>1225.2</ele><time>2025-11-04T12:37:16Z</time></trkpt>
<trkpt lat="46.25515" lon="7.28849"><ele>1225.8</ele><time>2025-11-04T12:37:19Z</time></trkpt>
<trkpt lat="46.25517" lon="7.28849"><ele>1226.4</ele><time>2025-11-04T12:37:22Z</time></trkpt>
<trkpt lat="46.2552" lon="7.28854"><ele>1226.8</ele><time>2025-11-04T12:37:27Z</time></trkpt>
<trkpt lat="46.25521" lon="7.28856"><ele>1226.8</ele><time>2025-11-04T12:37:29Z</time></trkpt>
<trkpt lat="46.25522" lon="7.28858"><ele>1227</ele><time>2025-11-04T12:37:34Z</time></trkpt>
<trkpt lat="46.25526" lon="7.28862"><ele>1227.4</ele><time>2025-11-04T12:37:38Z</time></trkpt>
<trkpt lat="46.25535" lon="7.28874"><ele>1227.4</ele><time>2025-11-04T12:37:45Z</time></trkpt>
<trkpt lat="46.25544" lon="7.28879"><ele>1227.8</ele><time>2025-11-04T12:37:50Z</time></trkpt>
<trkpt lat="46.25545" lon="7.28881"><ele>1227.8</ele><time>2025-11-04T12:37:51Z</time></trkpt>
<trkpt lat="46.25553" lon="7.28886"><ele>1227.8</ele><time>2025-11-04T12:37:55Z</time></trkpt>
<trkpt lat="46.25562" lon="7.28891"><ele>1228</ele><time>2025-11-04T12:38:00Z</time></trkpt>
<trkpt lat="46.25571" lon="7.28892"><ele>1228</ele><time>2025-11-04T12:38:04Z</time></trkpt>
<trkpt lat="46.25572" lon="7.28891"><ele>1228</ele><time>2025-11-04T12:38:05Z</time></trkpt>
<trkpt lat="46.25582" lon="7.28889"><ele>1228.4</ele><time>2025-11-04T12:38:10Z</time></trkpt>
<trkpt lat="46.25586" lon="7.28888"><ele>1228.6</ele><time>2025-11-04T12:38:12Z</time></trkpt>
<trkpt lat="46.25602" lon="7.28888"><ele>1228.6</ele><time>2025-11-04T12:38:18Z</time></trkpt>
<trkpt lat="46.25613" lon="7.28887"><ele>1228.8</ele><time>2025-11-04T12:38:23Z</time></trkpt>
<trkpt lat="46.25623" lon="7.28883"><ele>1228.8</ele><time>2025-11-04T12:38:27Z</time></trkpt>
<trkpt lat="46.2563" lon="7.2888"><ele>1229</ele><time>2025-11-04T12:38:30Z</time></trkpt>
<trkpt lat="46.25641" lon="7.28872"><ele>1229.8</ele><time>2025-11-04T12:38:35Z</time></trkpt>
<trkpt lat="46.25649" lon="7.28869"><ele>1231</ele><time>2025-11-04T12:38:39Z</time></trkpt>
<trkpt lat="46.25651" lon="7.28869"><ele>1231.2</ele><time>2025-11-04T12:38:40Z</time></trkpt>
<trkpt lat="46.25655" lon="7.28871"><ele>1232</ele><time>2025-11-04T12:38:43Z</time></trkpt>
<trkpt lat="46.25657" lon="7.28871"><ele>1232</ele><time>2025-11-04T12:38:44Z</time></trkpt>
<trkpt lat="46.25659" lon="7.28868"><ele>1232.2</ele><time>2025-11-04T12:38:46Z</time></trkpt>
<trkpt lat="46.25665" lon="7.28862"><ele>1233</ele><time>2025-11-04T12:38:50Z</time></trkpt>
<trkpt lat="46.25665" lon="7.2886"><ele>1233.2</ele><time>2025-11-04T12:38:51Z</time></trkpt>
<trkpt lat="46.25672" lon="7.28856"><ele>1233.8</ele><time>2025-11-04T12:38:56Z</time></trkpt>
<trkpt lat="46.25678" lon="7.28856"><ele>1234</ele><time>2025-11-04T12:39:00Z</time></trkpt>
<trkpt lat="46.25678" lon="7.28857"><ele>1234.2</ele><time>2025-11-04T12:39:01Z</time></trkpt>
<trkpt lat="46.25679" lon="7.2886"><ele>1234.4</ele><time>2025-11-04T12:39:02Z</time></trkpt>
<trkpt lat="46.25679" lon="7.28861"><ele>1234.8</ele><time>2025-11-04T12:39:05Z</time></trkpt>
<trkpt lat="46.2568" lon="7.28862"><ele>1235</ele><time>2025-11-04T12:39:08Z</time></trkpt>
<trkpt lat="46.25681" lon="7.28866"><ele>1235.2</ele><time>2025-11-04T12:39:12Z</time></trkpt>
<trkpt lat="46.25681" lon="7.28867"><ele>1235.2</ele><time>2025-11-04T12:39:13Z</time></trkpt>
<trkpt lat="46.25681" lon="7.28872"><ele>1235.8</ele><time>2025-11-04T12:39:17Z</time></trkpt>
<trkpt lat="46.25681" lon="7.28876"><ele>1236.2</ele><time>2025-11-04T12:39:21Z</time></trkpt>
<trkpt lat="46.25682" lon="7.28879"><ele>1236.4</ele><time>2025-11-04T12:39:24Z</time></trkpt>
<trkpt lat="46.25682" lon="7.28888"><ele>1236.6</ele><time>2025-11-04T12:39:29Z</time></trkpt>
<trkpt lat="46.25683" lon="7.28898"><ele>1236.6</ele><time>2025-11-04T12:39:33Z</time></trkpt>
<trkpt lat="46.25686" lon="7.28915"><ele>1236.4</ele><time>2025-11-04T12:39:38Z</time></trkpt>
<trkpt lat="46.25691" lon="7.28932"><ele>1236.6</ele><time>2025-11-04T12:39:44Z</time></trkpt>
<trkpt lat="46.25695" lon="7.28949"><ele>1236.6</ele><time>2025-11-04T12:39:49Z</time></trkpt>
<trkpt lat="46.25695" lon="7.28963"><ele>1237</ele><time>2025-11-04T12:39:53Z</time></trkpt>
<trkpt lat="46.25704" lon="7.28977"><ele>1236.6</ele><time>2025-11-04T12:39:59Z</time></trkpt>
<trkpt lat="46.25713" lon="7.28975"><ele>1237.2</ele><time>2025-11-04T12:40:04Z</time></trkpt>
<trkpt lat="46.25717" lon="7.28974"><ele>1237.2</ele><time>2025-11-04T12:40:06Z</time></trkpt>
<trkpt lat="46.25724" lon="7.2897"><ele>1237</ele><time>2025-11-04T12:40:09Z</time></trkpt>
<trkpt lat="46.25733" lon="7.28969"><ele>1237.6</ele><time>2025-11-04T12:40:13Z</time></trkpt>
<trkpt lat="46.25741" lon="7.28967"><ele>1237.8</ele><time>2025-11-04T12:40:18Z</time></trkpt>
<trkpt lat="46.25746" lon="7.28964"><ele>1238.6</ele><time>2025-11-04T12:40:21Z</time></trkpt>
<trkpt lat="46.25747" lon="7.28963"><ele>1239</ele><time>2025-11-04T12:40:22Z</time></trkpt>
<trkpt lat="46.25759" lon="7.28961"><ele>1238.8</ele><time>2025-11-04T12:40:27Z</time></trkpt>
<trkpt lat="46.25775" lon="7.28962"><ele>1238</ele><time>2025-11-04T12:40:31Z</time></trkpt>
<trkpt lat="46.25787" lon="7.28963"><ele>1238</ele><time>2025-11-04T12:40:36Z</time></trkpt>
<trkpt lat="46.25794" lon="7.28966"><ele>1238.2</ele><time>2025-11-04T12:40:41Z</time></trkpt>
<trkpt lat="46.25795" lon="7.28968"><ele>1238.2</ele><time>2025-11-04T12:40:42Z</time></trkpt>
<trkpt lat="46.25804" lon="7.28975"><ele>1238.2</ele><time>2025-11-04T12:40:47Z</time></trkpt>
<trkpt lat="46.25818" lon="7.28984"><ele>1238.6</ele><time>2025-11-04T12:40:53Z</time></trkpt>
<trkpt lat="46.25828" lon="7.28988"><ele>1238.6</ele><time>2025-11-04T12:40:58Z</time></trkpt>
<trkpt lat="46.25841" lon="7.28994"><ele>1238.8</ele><time>2025-11-04T12:41:03Z</time></trkpt>
<trkpt lat="46.25858" lon="7.28998"><ele>1238.8</ele><time>2025-11-04T12:41:10Z</time></trkpt>
<trkpt lat="46.25872" lon="7.29004"><ele>1239.4</ele><time>2025-11-04T12:41:17Z</time></trkpt>
<trkpt lat="46.25876" lon="7.29006"><ele>1239.4</ele><time>2025-11-04T12:41:19Z</time></trkpt>
<trkpt lat="46.25885" lon="7.29012"><ele>1239.4</ele><time>2025-11-04T12:41:23Z</time></trkpt>
<trkpt lat="46.25901" lon="7.29026"><ele>1239.2</ele><time>2025-11-04T12:41:31Z</time></trkpt>
<trkpt lat="46.25906" lon="7.29032"><ele>1239.6</ele><time>2025-11-04T12:41:35Z</time></trkpt>
<trkpt lat="46.25908" lon="7.29037"><ele>1240</ele><time>2025-11-04T12:41:37Z</time></trkpt>
<trkpt lat="46.25913" lon="7.29048"><ele>1240.6</ele><time>2025-11-04T12:41:42Z</time></trkpt>
<trkpt lat="46.25914" lon="7.29051"><ele>1240.6</ele><time>2025-11-04T12:41:43Z</time></trkpt>
<trkpt lat="46.2592" lon="7.29065"><ele>1241.2</ele><time>2025-11-04T12:41:49Z</time></trkpt>
<trkpt lat="46.25928" lon="7.29075"><ele>1241.4</ele><time>2025-11-04T12:41:55Z</time></trkpt>
<trkpt lat="46.25931" lon="7.29079"><ele>1241.6</ele><time>2025-11-04T12:41:57Z</time></trkpt>
<trkpt lat="46.25939" lon="7.29086"><ele>1241.8</ele><time>2025-11-04T12:42:01Z</time></trkpt>
<trkpt lat="46.2595" lon="7.29095"><ele>1241.8</ele><time>2025-11-04T12:42:07Z</time></trkpt>
<trkpt lat="46.25962" lon="7.29105"><ele>1242</ele><time>2025-11-04T12:42:13Z</time></trkpt>
<trkpt lat="46.25975" lon="7.2911"><ele>1242</ele><time>2025-11-04T12:42:18Z</time></trkpt>
<trkpt lat="46.25984" lon="7.29115"><ele>1242.2</ele><time>2025-11-04T12:42:23Z</time></trkpt>
<trkpt lat="46.25986" lon="7.29115"><ele>1242.4</ele><time>2025-11-04T12:42:24Z</time></trkpt>
<trkpt lat="46.25994" lon="7.29114"><ele>1242.6</ele><time>2025-11-04T12:42:28Z</time></trkpt>
<trkpt lat="46.26005" lon="7.2911"><ele>1243.2</ele><time>2025-11-04T12:42:33Z</time></trkpt>
<trkpt lat="46.26009" lon="7.29111"><ele>1244</ele><time>2025-11-04T12:42:35Z</time></trkpt>
<trkpt lat="46.2601" lon="7.29113"><ele>1244.4</ele><time>2025-11-04T12:42:36Z</time></trkpt>
<trkpt lat="46.26011" lon="7.29116"><ele>1244.6</ele><time>2025-11-04T12:42:37Z</time></trkpt>
<trkpt lat="46.26011" lon="7.29119"><ele>1244.6</ele><time>2025-11-04T12:42:38Z</time></trkpt>
<trkpt lat="46.26011" lon="7.29128"><ele>1244</ele><time>2025-11-04T12:42:41Z</time></trkpt>
<trkpt lat="46.26012" lon="7.29133"><ele>1243.8</ele><time>2025-11-04T12:42:43Z</time></trkpt>
<trkpt lat="46.26013" lon="7.2914"><ele>1244</ele><time>2025-11-04T12:42:45Z</time></trkpt>
<trkpt lat="46.2602" lon="7.29155"><ele>1244.4</ele><time>2025-11-04T12:42:50Z</time></trkpt>
<trkpt lat="46.2603" lon="7.29174"><ele>1244.4</ele><time>2025-11-04T12:42:56Z</time></trkpt>
<trkpt lat="46.26037" lon="7.29187"><ele>1244.8</ele><time>2025-11-04T12:43:01Z</time></trkpt>
<trkpt lat="46.26045" lon="7.29194"><ele>1244.8</ele><time>2025-11-04T12:43:05Z</time></trkpt>
<trkpt lat="46.26052" lon="7.29203"><ele>1245</ele><time>2025-11-04T12:43:09Z</time></trkpt>
<trkpt lat="46.26057" lon="7.29208"><ele>1245.2</ele><time>2025-11-04T12:43:11Z</time></trkpt>
<trkpt lat="46.26066" lon="7.29221"><ele>1245.2</ele><time>2025-11-04T12:43:16Z</time></trkpt>
<trkpt lat="46.26074" lon="7.29237"><ele>1245.4</ele><time>2025-11-04T12:43:21Z</time></trkpt>
<trkpt lat="46.26081" lon="7.29252"><ele>1245.6</ele><time>2025-11-04T12:43:27Z</time></trkpt>
<trkpt lat="46.26081" lon="7.29269"><ele>1245.6</ele><time>2025-11-04T12:43:32Z</time></trkpt>
<trkpt lat="46.26083" lon="7.29276"><ele>1246</ele><time>2025-11-04T12:43:34Z</time></trkpt>
<trkpt lat="46.26087" lon="7.29291"><ele>1246.6</ele><time>2025-11-04T12:43:38Z</time></trkpt>
<trkpt lat="46.26092" lon="7.29311"><ele>1246.6</ele><time>2025-11-04T12:43:43Z</time></trkpt>
<trkpt lat="46.26095" lon="7.29331"><ele>1246.8</ele><time>2025-11-04T12:43:48Z</time></trkpt>
<trkpt lat="46.26099" lon="7.2935"><ele>1247</ele><time>2025-11-04T12:43:53Z</time></trkpt>
<trkpt lat="46.261" lon="7.29353"><ele>1247</ele><time>2025-11-04T12:43:54Z</time></trkpt>
<trkpt lat="46.26104" lon="7.29371"><ele>1247.4</ele><time>2025-11-04T12:44:00Z</time></trkpt>
<trkpt lat="46.26109" lon="7.29385"><ele>1247.4</ele><time>2025-11-04T12:44:05Z</time></trkpt>
<trkpt lat="46.26118" lon="7.29398"><ele>1247.6</ele><time>2025-11-04T12:44:10Z</time></trkpt>
<trkpt lat="46.26132" lon="7.29406"><ele>1247.8</ele><time>2025-11-04T12:44:16Z</time></trkpt>
<trkpt lat="46.26141" lon="7.29406"><ele>1248</ele><time>2025-11-04T12:44:20Z</time></trkpt>
<trkpt lat="46.26157" lon="7.29413"><ele>1247.8</ele><time>2025-11-04T12:44:26Z</time></trkpt>
<trkpt lat="46.26165" lon="7.29416"><ele>1248</ele><time>2025-11-04T12:44:29Z</time></trkpt>
<trkpt lat="46.26173" lon="7.29425"><ele>1248.4</ele><time>2025-11-04T12:44:33Z</time></trkpt>
<trkpt lat="46.26184" lon="7.2944"><ele>1248.8</ele><time>2025-11-04T12:44:39Z</time></trkpt>
<trkpt lat="46.2619" lon="7.29455"><ele>1248.8</ele><time>2025-11-04T12:44:44Z</time></trkpt>
<trkpt lat="46.26196" lon="7.29465"><ele>1249.2</ele><time>2025-11-04T12:44:48Z</time></trkpt>
<trkpt lat="46.26198" lon="7.29471"><ele>1249.4</ele><time>2025-11-04T12:44:50Z</time></trkpt>
<trkpt lat="46.26208" lon="7.29488"><ele>1249.4</ele><time>2025-11-04T12:44:57Z</time></trkpt>
<trkpt lat="46.2621" lon="7.29494"><ele>1250.2</ele><time>2025-11-04T12:45:00Z</time></trkpt>
<trkpt lat="46.2621" lon="7.29497"><ele>1250.4</ele><time>2025-11-04T12:45:01Z</time></trkpt>
<trkpt lat="46.26211" lon="7.29499"><ele>1250.6</ele><time>2025-11-04T12:45:02Z</time></trkpt>
<trkpt lat="46.2622" lon="7.29513"><ele>1250.8</ele><time>2025-11-04T12:45:08Z</time></trkpt>
<trkpt lat="46.26222" lon="7.29515"><ele>1251.2</ele><time>2025-11-04T12:45:10Z</time></trkpt>
<trkpt lat="46.26225" lon="7.2952"><ele>1251.4</ele><time>2025-11-04T12:45:13Z</time></trkpt>
<trkpt lat="46.26227" lon="7.29522"><ele>1251.6</ele><time>2025-11-04T12:45:15Z</time></trkpt>
<trkpt lat="46.2623" lon="7.29526"><ele>1252</ele><time>2025-11-04T12:45:18Z</time></trkpt>
<trkpt lat="46.26232" lon="7.29529"><ele>1252.2</ele><time>2025-11-04T12:45:20Z</time></trkpt>
<trkpt lat="46.26237" lon="7.29537"><ele>1252</ele><time>2025-11-04T12:45:24Z</time></trkpt>
<trkpt lat="46.26243" lon="7.29548"><ele>1251.2</ele><time>2025-11-04T12:45:27Z</time></trkpt>
<trkpt lat="46.26246" lon="7.29552"><ele>1250.8</ele><time>2025-11-04T12:45:28Z</time></trkpt>
<trkpt lat="46.2625" lon="7.29556"><ele>1250.6</ele><time>2025-11-04T12:45:29Z</time></trkpt>
<trkpt lat="46.26254" lon="7.2956"><ele>1250.4</ele><time>2025-11-04T12:45:30Z</time></trkpt>
<trkpt lat="46.26258" lon="7.29564"><ele>1250</ele><time>2025-11-04T12:45:31Z</time></trkpt>
<trkpt lat="46.26268" lon="7.29574"><ele>1249.4</ele><time>2025-11-04T12:45:33Z</time></trkpt>
<trkpt lat="46.26271" lon="7.2958"><ele>1249.4</ele><time>2025-11-04T12:45:34Z</time></trkpt>
<trkpt lat="46.26279" lon="7.29596"><ele>1250.2</ele><time>2025-11-04T12:45:38Z</time></trkpt>
<trkpt lat="46.26282" lon="7.29602"><ele>1251</ele><time>2025-11-04T12:45:41Z</time></trkpt>
<trkpt lat="46.26284" lon="7.29604"><ele>1251.4</ele><time>2025-11-04T12:45:43Z</time></trkpt>
<trkpt lat="46.26289" lon="7.29612"><ele>1252.2</ele><time>2025-11-04T12:45:49Z</time></trkpt>
<trkpt lat="46.26297" lon="7.29621"><ele>1252.8</ele><time>2025-11-04T12:45:55Z</time></trkpt>
<trkpt lat="46.26298" lon="7.29624"><ele>1253.2</ele><time>2025-11-04T12:45:57Z</time></trkpt>
<trkpt lat="46.26303" lon="7.29632"><ele>1254</ele><time>2025-11-04T12:46:02Z</time></trkpt>
<trkpt lat="46.26305" lon="7.29635"><ele>1254.2</ele><time>2025-11-04T12:46:04Z</time></trkpt>
<trkpt lat="46.26309" lon="7.29644"><ele>1255</ele><time>2025-11-04T12:46:09Z</time></trkpt>
<trkpt lat="46.26311" lon="7.2965"><ele>1255.4</ele><time>2025-11-04T12:46:12Z</time></trkpt>
<trkpt lat="46.26312" lon="7.29653"><ele>1255.6</ele><time>2025-11-04T12:46:14Z</time></trkpt>
<trkpt lat="46.26316" lon="7.29661"><ele>1256.4</ele><time>2025-11-04T12:46:18Z</time></trkpt>
<trkpt lat="46.26317" lon="7.29663"><ele>1256.4</ele><time>2025-11-04T12:46:19Z</time></trkpt>
<trkpt lat="46.26317" lon="7.29664"><ele>1256.6</ele><time>2025-11-04T12:46:20Z</time></trkpt>
<trkpt lat="46.26319" lon="7.29674"><ele>1257.4</ele><time>2025-11-04T12:46:25Z</time></trkpt>
<trkpt lat="46.2632" lon="7.29678"><ele>1257.6</ele><time>2025-11-04T12:46:27Z</time></trkpt>
<trkpt lat="46.26321" lon="7.29682"><ele>1257.8</ele><time>2025-11-04T12:46:29Z</time></trkpt>
<trkpt lat="46.26323" lon="7.29689"><ele>1258.4</ele><time>2025-11-04T12:46:34Z</time></trkpt>
<trkpt lat="46.26324" lon="7.2969"><ele>1258.6</ele><time>2025-11-04T12:46:35Z</time></trkpt>
<trkpt lat="46.26325" lon="7.29692"><ele>1258.8</ele><time>2025-11-04T12:46:37Z</time></trkpt>
<trkpt lat="46.26328" lon="7.29696"><ele>1259.2</ele><time>2025-11-04T12:46:40Z</time></trkpt>
<trkpt lat="46.26329" lon="7.29702"><ele>1259.6</ele><time>2025-11-04T12:46:44Z</time></trkpt>
<trkpt lat="46.26333" lon="7.29706"><ele>1260</ele><time>2025-11-04T12:46:48Z</time></trkpt>
<trkpt lat="46.26338" lon="7.29712"><ele>1260.6</ele><time>2025-11-04T12:46:54Z</time></trkpt>
<trkpt lat="46.26343" lon="7.29723"><ele>1261.6</ele><time>2025-11-04T12:47:01Z</time></trkpt>
<trkpt lat="46.26344" lon="7.29726"><ele>1261.6</ele><time>2025-11-04T12:47:03Z</time></trkpt>
<trkpt lat="46.26349" lon="7.29734"><ele>1262.4</ele><time>2025-11-04T12:47:08Z</time></trkpt>
<trkpt lat="46.26351" lon="7.29738"><ele>1262.8</ele><time>2025-11-04T12:47:11Z</time></trkpt>
<trkpt lat="46.26352" lon="7.29734"><ele>1262.8</ele><time>2025-11-04T12:47:14Z</time></trkpt>
<trkpt lat="46.26343" lon="7.29723"><ele>1262.4</ele><time>2025-11-04T12:47:18Z</time></trkpt>
<trkpt lat="46.26336" lon="7.29714"><ele>1261.6</ele><time>2025-11-04T12:47:20Z</time></trkpt>
<trkpt lat="46.26329" lon="7.297"><ele>1260.6</ele><time>2025-11-04T12:47:22Z</time></trkpt>
<trkpt lat="46.26325" lon="7.29684"><ele>1259.2</ele><time>2025-11-04T12:47:24Z</time></trkpt>
<trkpt lat="46.26321" lon="7.29681"><ele>1258.6</ele><time>2025-11-04T12:47:25Z</time></trkpt>
<trkpt lat="46.26316" lon="7.29685"><ele>1257.8</ele><time>2025-11-04T12:47:27Z</time></trkpt>
<trkpt lat="46.26314" lon="7.2969"><ele>1257.4</ele><time>2025-11-04T12:47:28Z</time></trkpt>
<trkpt lat="46.26313" lon="7.29697"><ele>1256.8</ele><time>2025-11-04T12:47:29Z</time></trkpt>
<trkpt lat="46.26314" lon="7.29705"><ele>1256</ele><time>2025-11-04T12:47:30Z</time></trkpt>
<trkpt lat="46.26316" lon="7.29713"><ele>1255.2</ele><time>2025-11-04T12:47:31Z</time></trkpt>
<trkpt lat="46.26319" lon="7.29721"><ele>1254.4</ele><time>2025-11-04T12:47:32Z</time></trkpt>
<trkpt lat="46.26322" lon="7.29729"><ele>1254</ele><time>2025-11-04T12:47:33Z</time></trkpt>
<trkpt lat="46.26327" lon="7.29744"><ele>1253.6</ele><time>2025-11-04T12:47:35Z</time></trkpt>
<trkpt lat="46.26329" lon="7.29751"><ele>1253.4</ele><time>2025-11-04T12:47:36Z</time></trkpt>
<trkpt lat="46.2633" lon="7.29759"><ele>1253.4</ele><time>2025-11-04T12:47:37Z</time></trkpt>
<trkpt lat="46.26334" lon="7.2978"><ele>1253</ele><time>2025-11-04T12:47:40Z</time></trkpt>
<trkpt lat="46.26337" lon="7.29787"><ele>1253</ele><time>2025-11-04T12:47:41Z</time></trkpt>
<trkpt lat="46.26341" lon="7.29792"><ele>1253</ele><time>2025-11-04T12:47:42Z</time></trkpt>
<trkpt lat="46.26352" lon="7.29806"><ele>1253</ele><time>2025-11-04T12:47:45Z</time></trkpt>
<trkpt lat="46.26354" lon="7.29812"><ele>1253</ele><time>2025-11-04T12:47:46Z</time></trkpt>
<trkpt lat="46.26359" lon="7.29827"><ele>1253.2</ele><time>2025-11-04T12:47:49Z</time></trkpt>
<trkpt lat="46.2636" lon="7.29841"><ele>1253.4</ele><time>2025-11-04T12:47:52Z</time></trkpt>
<trkpt lat="46.26361" lon="7.2985"><ele>1253.6</ele><time>2025-11-04T12:47:54Z</time></trkpt>
<trkpt lat="46.26362" lon="7.29854"><ele>1253.6</ele><time>2025-11-04T12:47:55Z</time></trkpt>
<trkpt lat="46.26365" lon="7.29876"><ele>1253.8</ele><time>2025-11-04T12:48:00Z</time></trkpt>
<trkpt lat="46.26366" lon="7.29884"><ele>1253.8</ele><time>2025-11-04T12:48:02Z</time></trkpt>
<trkpt lat="46.26375" lon="7.29907"><ele>1254.8</ele><time>2025-11-04T12:48:09Z</time></trkpt>
<trkpt lat="46.26377" lon="7.29908"><ele>1255</ele><time>2025-11-04T12:48:10Z</time></trkpt>
<trkpt lat="46.26379" lon="7.29913"><ele>1255.6</ele><time>2025-11-04T12:48:14Z</time></trkpt>
<trkpt lat="46.2638" lon="7.29915"><ele>1255.8</ele><time>2025-11-04T12:48:15Z</time></trkpt>
<trkpt lat="46.26382" lon="7.29918"><ele>1256</ele><time>2025-11-04T12:48:18Z</time></trkpt>
<trkpt lat="46.26384" lon="7.29921"><ele>1256.2</ele><time>2025-11-04T12:48:20Z</time></trkpt>
<trkpt lat="46.26389" lon="7.29934"><ele>1256.6</ele><time>2025-11-04T12:48:26Z</time></trkpt>
<trkpt lat="46.26393" lon="7.29945"><ele>1257.2</ele><time>2025-11-04T12:48:31Z</time></trkpt>
<trkpt lat="46.26395" lon="7.29948"><ele>1257</ele><time>2025-11-04T12:48:33Z</time></trkpt>
<trkpt lat="46.26399" lon="7.29951"><ele>1257</ele><time>2025-11-04T12:48:35Z</time></trkpt>
<trkpt lat="46.26405" lon="7.29954"><ele>1257</ele><time>2025-11-04T12:48:38Z</time></trkpt>
<trkpt lat="46.26412" lon="7.29958"><ele>1257.2</ele><time>2025-11-04T12:48:43Z</time></trkpt>
<trkpt lat="46.26419" lon="7.29957"><ele>1257.6</ele><time>2025-11-04T12:48:48Z</time></trkpt>
<trkpt lat="46.26423" lon="7.29958"><ele>1257.6</ele><time>2025-11-04T12:48:53Z</time></trkpt>
<trkpt lat="46.26422" lon="7.29958"><ele>1257.6</ele><time>2025-11-04T12:48:58Z</time></trkpt>
<trkpt lat="46.26421" lon="7.29958"><ele>1257.6</ele><time>2025-11-04T12:49:04Z</time></trkpt>
<trkpt lat="46.26421" lon="7.29958"><ele>1257.4</ele><time>2025-11-04T12:49:13Z</time></trkpt>
<trkpt lat="46.26421" lon="7.29959"><ele>1257.8</ele><time>2025-11-04T12:49:20Z</time></trkpt>
<trkpt lat="46.2642" lon="7.29959"><ele>1257.8</ele><time>2025-11-04T12:49:21Z</time></trkpt>
<trkpt lat="46.2642" lon="7.29963"><ele>1257.6</ele><time>2025-11-04T12:49:26Z</time></trkpt>
<trkpt lat="46.26421" lon="7.29964"><ele>1257.6</ele><time>2025-11-04T12:49:33Z</time></trkpt>
<trkpt lat="46.26419" lon="7.29963"><ele>1257.6</ele><time>2025-11-04T12:49:36Z</time></trkpt>
<trkpt lat="46.26418" lon="7.29963"><ele>1257.6</ele><time>2025-11-04T12:49:37Z</time></trkpt>
<trkpt lat="46.26414" lon="7.29961"><ele>1257.4</ele><time>2025-11-04T12:49:41Z</time></trkpt>
<trkpt lat="46.26414" lon="7.29962"><ele>1257.4</ele><time>2025-11-04T12:49:42Z</time></trkpt>
<trkpt lat="46.26417" lon="7.29963"><ele>1256.8</ele><time>2025-11-04T12:49:46Z</time></trkpt>
<trkpt lat="46.26421" lon="7.29964"><ele>1257</ele><time>2025-11-04T12:49:48Z</time></trkpt>
<trkpt lat="46.26425" lon="7.29966"><ele>1257.2</ele><time>2025-11-04T12:49:50Z</time></trkpt>
<trkpt lat="46.26427" lon="7.29971"><ele>1257.4</ele><time>2025-11-04T12:49:52Z</time></trkpt>
<trkpt lat="46.26427" lon="7.29974"><ele>1257.4</ele><time>2025-11-04T12:49:53Z</time></trkpt>
<trkpt lat="46.26422" lon="7.29986"><ele>1257.6</ele><time>2025-11-04T12:49:58Z</time></trkpt>
<trkpt lat="46.26409" lon="7.29996"><ele>1257.8</ele><time>2025-11-04T12:50:03Z</time></trkpt>
<trkpt lat="46.26395" lon="7.30005"><ele>1257.8</ele><time>2025-11-04T12:50:09Z</time></trkpt>
<trkpt lat="46.26391" lon="7.30015"><ele>1258.2</ele><time>2025-11-04T12:50:12Z</time></trkpt>
<trkpt lat="46.2639" lon="7.30031"><ele>1258.6</ele><time>2025-11-04T12:50:17Z</time></trkpt>
<trkpt lat="46.26387" lon="7.30055"><ele>1259.2</ele><time>2025-11-04T12:50:24Z</time></trkpt>
<trkpt lat="46.26387" lon="7.30058"><ele>1259.2</ele><time>2025-11-04T12:50:25Z</time></trkpt>
<trkpt lat="46.26387" lon="7.30074"><ele>1259.2</ele><time>2025-11-04T12:50:29Z</time></trkpt>
<trkpt lat="46.26382" lon="7.30103"><ele>1259</ele><time>2025-11-04T12:50:35Z</time></trkpt>
<trkpt lat="46.26385" lon="7.30122"><ele>1259.2</ele><time>2025-11-04T12:50:39Z</time></trkpt>
<trkpt lat="46.26388" lon="7.30144"><ele>1259.6</ele><time>2025-11-04T12:50:43Z</time></trkpt>
<trkpt lat="46.2639" lon="7.30162"><ele>1259.4</ele><time>2025-11-04T12:50:46Z</time></trkpt>
<trkpt lat="46.26393" lon="7.30172"><ele>1259.4</ele><time>2025-11-04T12:50:48Z</time></trkpt>
<trkpt lat="46.26405" lon="7.3018"><ele>1260</ele><time>2025-11-04T12:50:52Z</time></trkpt>
<trkpt lat="46.26417" lon="7.3019"><ele>1260</ele><time>2025-11-04T12:50:56Z</time></trkpt>
<trkpt lat="46.26417" lon="7.30205"><ele>1260</ele><time>2025-11-04T12:50:59Z</time></trkpt>
<trkpt lat="46.26416" lon="7.30209"><ele>1260</ele><time>2025-11-04T12:51:00Z</time></trkpt>
<trkpt lat="46.26414" lon="7.30236"><ele>1260</ele><time>2025-11-04T12:51:05Z</time></trkpt>
<trkpt lat="46.26416" lon="7.3024"><ele>1260.2</ele><time>2025-11-04T12:51:06Z</time></trkpt>
<trkpt lat="46.26422" lon="7.30245"><ele>1260</ele><time>2025-11-04T12:51:08Z</time></trkpt>
<trkpt lat="46.26429" lon="7.30246"><ele>1260.2</ele><time>2025-11-04T12:51:10Z</time></trkpt>
<trkpt lat="46.26435" lon="7.30249"><ele>1260.6</ele><time>2025-11-04T12:51:12Z</time></trkpt>
<trkpt lat="46.26439" lon="7.30258"><ele>1260.6</ele><time>2025-11-04T12:51:14Z</time></trkpt>
<trkpt lat="46.2644" lon="7.30262"><ele>1260.4</ele><time>2025-11-04T12:51:15Z</time></trkpt>
<trkpt lat="46.26451" lon="7.30274"><ele>1260.6</ele><time>2025-11-04T12:51:19Z</time></trkpt>
<trkpt lat="46.26453" lon="7.30276"><ele>1260.8</ele><time>2025-11-04T12:51:20Z</time></trkpt>
<trkpt lat="46.26461" lon="7.30287"><ele>1261.2</ele><time>2025-11-04T12:51:24Z</time></trkpt>
<trkpt lat="46.26462" lon="7.3029"><ele>1261.4</ele><time>2025-11-04T12:51:25Z</time></trkpt>
<trkpt lat="46.2647" lon="7.30304"><ele>1261.8</ele><time>2025-11-04T12:51:29Z</time></trkpt>
<trkpt lat="46.26483" lon="7.30315"><ele>1262.4</ele><time>2025-11-04T12:51:35Z</time></trkpt>
<trkpt lat="46.26485" lon="7.30317"><ele>1262.4</ele><time>2025-11-04T12:51:36Z</time></trkpt>
<trkpt lat="46.2649" lon="7.30318"><ele>1262.8</ele><time>2025-11-04T12:51:38Z</time></trkpt>
<trkpt lat="46.26493" lon="7.30317"><ele>1262.6</ele><time>2025-11-04T12:51:39Z</time></trkpt>
<trkpt lat="46.26507" lon="7.3031"><ele>1263</ele><time>2025-11-04T12:51:44Z</time></trkpt>
<trkpt lat="46.26521" lon="7.30297"><ele>1263.2</ele><time>2025-11-04T12:51:50Z</time></trkpt>
<trkpt lat="46.26526" lon="7.30296"><ele>1263.8</ele><time>2025-11-04T12:51:52Z</time></trkpt>
<trkpt lat="46.26539" lon="7.30291"><ele>1264.4</ele><time>2025-11-04T12:51:56Z</time></trkpt>
<trkpt lat="46.26557" lon="7.30287"><ele>1264.2</ele><time>2025-11-04T12:52:01Z</time></trkpt>
<trkpt lat="46.26575" lon="7.30282"><ele>1264.6</ele><time>2025-11-04T12:52:06Z</time></trkpt>
<trkpt lat="46.26584" lon="7.30282"><ele>1265</ele><time>2025-11-04T12:52:09Z</time></trkpt>
<trkpt lat="46.26591" lon="7.3028"><ele>1265.2</ele><time>2025-11-04T12:52:11Z</time></trkpt>
<trkpt lat="46.266" lon="7.30283"><ele>1265.6</ele><time>2025-11-04T12:52:15Z</time></trkpt>
<trkpt lat="46.26604" lon="7.30286"><ele>1265.8</ele><time>2025-11-04T12:52:19Z</time></trkpt>
<trkpt lat="46.26605" lon="7.30289"><ele>1266</ele><time>2025-11-04T12:52:20Z</time></trkpt>
<trkpt lat="46.26605" lon="7.30292"><ele>1266</ele><time>2025-11-04T12:52:21Z</time></trkpt>
<trkpt lat="46.26607" lon="7.30303"><ele>1265.8</ele><time>2025-11-04T12:52:24Z</time></trkpt>
<trkpt lat="46.26615" lon="7.30318"><ele>1266.2</ele><time>2025-11-04T12:52:29Z</time></trkpt>
<trkpt lat="46.26627" lon="7.30335"><ele>1266.2</ele><time>2025-11-04T12:52:34Z</time></trkpt>
<trkpt lat="46.26629" lon="7.30338"><ele>1266.2</ele><time>2025-11-04T12:52:35Z</time></trkpt>
<trkpt lat="46.26645" lon="7.30354"><ele>1266.2</ele><time>2025-11-04T12:52:41Z</time></trkpt>
<trkpt lat="46.26665" lon="7.30363"><ele>1266.4</ele><time>2025-11-04T12:52:46Z</time></trkpt>
<trkpt lat="46.2668" lon="7.30374"><ele>1266.8</ele><time>2025-11-04T12:52:51Z</time></trkpt>
<trkpt lat="46.26699" lon="7.30398"><ele>1266.6</ele><time>2025-11-04T12:52:58Z</time></trkpt>
<trkpt lat="46.26718" lon="7.30408"><ele>1267</ele><time>2025-11-04T12:53:03Z</time></trkpt>
<trkpt lat="46.26721" lon="7.30411"><ele>1267</ele><time>2025-11-04T12:53:04Z</time></trkpt>
<trkpt lat="46.2673" lon="7.30421"><ele>1267.2</ele><time>2025-11-04T12:53:07Z</time></trkpt>
<trkpt lat="46.26742" lon="7.30441"><ele>1267.2</ele><time>2025-11-04T12:53:12Z</time></trkpt>
<trkpt lat="46.26759" lon="7.30473"><ele>1267.6</ele><time>2025-11-04T12:53:19Z</time></trkpt>
<trkpt lat="46.26776" lon="7.30489"><ele>1268</ele><time>2025-11-04T12:53:24Z</time></trkpt>
<trkpt lat="46.26778" lon="7.30493"><ele>1268.2</ele><time>2025-11-04T12:53:25Z</time></trkpt>
<trkpt lat="46.26785" lon="7.30497"><ele>1268.2</ele><time>2025-11-04T12:53:27Z</time></trkpt>
<trkpt lat="46.26791" lon="7.305"><ele>1268.4</ele><time>2025-11-04T12:53:29Z</time></trkpt>
<trkpt lat="46.268" lon="7.30501"><ele>1268.8</ele><time>2025-11-04T12:53:32Z</time></trkpt>
<trkpt lat="46.26803" lon="7.30497"><ele>1269.2</ele><time>2025-11-04T12:53:34Z</time></trkpt>
<trkpt lat="46.26808" lon="7.30483"><ele>1269.8</ele><time>2025-11-04T12:53:39Z</time></trkpt>
<trkpt lat="46.26812" lon="7.30474"><ele>1270.2</ele><time>2025-11-04T12:53:43Z</time></trkpt>
<trkpt lat="46.26813" lon="7.30472"><ele>1270.6</ele><time>2025-11-04T12:53:44Z</time></trkpt>
<trkpt lat="46.26817" lon="7.30459"><ele>1271</ele><time>2025-11-04T12:53:50Z</time></trkpt>
<trkpt lat="46.26819" lon="7.3044"><ele>1271.2</ele><time>2025-11-04T12:53:56Z</time></trkpt>
<trkpt lat="46.26819" lon="7.30437"><ele>1271.4</ele><time>2025-11-04T12:53:57Z</time></trkpt>
<trkpt lat="46.2682" lon="7.30418"><ele>1272.4</ele><time>2025-11-04T12:54:02Z</time></trkpt>
<trkpt lat="46.26824" lon="7.30411"><ele>1272.8</ele><time>2025-11-04T12:54:04Z</time></trkpt>
<trkpt lat="46.26826" lon="7.30405"><ele>1273.2</ele><time>2025-11-04T12:54:06Z</time></trkpt>
<trkpt lat="46.26826" lon="7.30401"><ele>1273.4</ele><time>2025-11-04T12:54:07Z</time></trkpt>
<trkpt lat="46.26833" lon="7.3038"><ele>1273.4</ele><time>2025-11-04T12:54:12Z</time></trkpt>
<trkpt lat="46.26841" lon="7.30359"><ele>1273.8</ele><time>2025-11-04T12:54:17Z</time></trkpt>
<trkpt lat="46.26848" lon="7.30347"><ele>1274.4</ele><time>2025-11-04T12:54:20Z</time></trkpt>
<trkpt lat="46.26857" lon="7.30337"><ele>1274.2</ele><time>2025-11-04T12:54:23Z</time></trkpt>
<trkpt lat="46.26873" lon="7.30328"><ele>1274.2</ele><time>2025-11-04T12:54:28Z</time></trkpt>
<trkpt lat="46.26892" lon="7.30319"><ele>1274.2</ele><time>2025-11-04T12:54:33Z</time></trkpt>
<trkpt lat="46.2691" lon="7.30312"><ele>1274.8</ele><time>2025-11-04T12:54:38Z</time></trkpt>
<trkpt lat="46.26912" lon="7.30308"><ele>1275</ele><time>2025-11-04T12:54:39Z</time></trkpt>
<trkpt lat="46.26919" lon="7.30296"><ele>1275</ele><time>2025-11-04T12:54:42Z</time></trkpt>
<trkpt lat="46.26933" lon="7.30288"><ele>1275</ele><time>2025-11-04T12:54:46Z</time></trkpt>
<trkpt lat="46.26948" lon="7.30286"><ele>1275.4</ele><time>2025-11-04T12:54:50Z</time></trkpt>
<trkpt lat="46.26951" lon="7.30288"><ele>1275.8</ele><time>2025-11-04T12:54:51Z</time></trkpt>
<trkpt lat="46.26953" lon="7.30289"><ele>1276</ele><time>2025-11-04T12:54:52Z</time></trkpt>
<trkpt lat="46.26966" lon="7.30295"><ele>1276.2</ele><time>2025-11-04T12:54:57Z</time></trkpt>
<trkpt lat="46.2697" lon="7.30297"><ele>1276.4</ele><time>2025-11-04T12:54:58Z</time></trkpt>
<trkpt lat="46.26993" lon="7.30299"><ele>1276.4</ele><time>2025-11-04T12:55:05Z</time></trkpt>
<trkpt lat="46.27013" lon="7.30291"><ele>1276.8</ele><time>2025-11-04T12:55:10Z</time></trkpt>
<trkpt lat="46.27028" lon="7.30274"><ele>1277.2</ele><time>2025-11-04T12:55:15Z</time></trkpt>
<trkpt lat="46.27038" lon="7.30259"><ele>1277.8</ele><time>2025-11-04T12:55:20Z</time></trkpt>
<trkpt lat="46.2704" lon="7.30256"><ele>1278</ele><time>2025-11-04T12:55:21Z</time></trkpt>
<trkpt lat="46.2705" lon="7.30246"><ele>1278.6</ele><time>2025-11-04T12:55:26Z</time></trkpt>
<trkpt lat="46.2706" lon="7.30248"><ele>1279</ele><time>2025-11-04T12:55:30Z</time></trkpt>
<trkpt lat="46.27072" lon="7.30249"><ele>1279</ele><time>2025-11-04T12:55:34Z</time></trkpt>
<trkpt lat="46.27085" lon="7.30249"><ele>1279</ele><time>2025-11-04T12:55:38Z</time></trkpt>
<trkpt lat="46.27103" lon="7.30255"><ele>1279.2</ele><time>2025-11-04T12:55:43Z</time></trkpt>
<trkpt lat="46.27118" lon="7.30253"><ele>1279.8</ele><time>2025-11-04T12:55:48Z</time></trkpt>
<trkpt lat="46.27126" lon="7.30243"><ele>1280</ele><time>2025-11-04T12:55:52Z</time></trkpt>
<trkpt lat="46.27127" lon="7.3024"><ele>1280.2</ele><time>2025-11-04T12:55:53Z</time></trkpt>
<trkpt lat="46.27129" lon="7.30231"><ele>1281.2</ele><time>2025-11-04T12:55:58Z</time></trkpt>
<trkpt lat="46.27135" lon="7.30222"><ele>1281.6</ele><time>2025-11-04T12:56:03Z</time></trkpt>
<trkpt lat="46.27136" lon="7.30222"><ele>1281.8</ele><time>2025-11-04T12:56:04Z</time></trkpt>
<trkpt lat="46.27139" lon="7.30218"><ele>1281.8</ele><time>2025-11-04T12:56:07Z</time></trkpt>
<trkpt lat="46.27144" lon="7.30201"><ele>1282</ele><time>2025-11-04T12:56:12Z</time></trkpt>
<trkpt lat="46.27145" lon="7.30197"><ele>1282.2</ele><time>2025-11-04T12:56:14Z</time></trkpt>
<trkpt lat="46.27148" lon="7.3019"><ele>1282.6</ele><time>2025-11-04T12:56:17Z</time></trkpt>
<trkpt lat="46.2716" lon="7.30178"><ele>1283.4</ele><time>2025-11-04T12:56:23Z</time></trkpt>
<trkpt lat="46.27173" lon="7.30163"><ele>1283.6</ele><time>2025-11-04T12:56:30Z</time></trkpt>
<trkpt lat="46.27187" lon="7.30147"><ele>1283.8</ele><time>2025-11-04T12:56:36Z</time></trkpt>
<trkpt lat="46.27201" lon="7.30135"><ele>1283.8</ele><time>2025-11-04T12:56:41Z</time></trkpt>
<trkpt lat="46.27215" lon="7.30135"><ele>1284.2</ele><time>2025-11-04T12:56:46Z</time></trkpt>
<trkpt lat="46.27218" lon="7.3014"><ele>1284.4</ele><time>2025-11-04T12:56:48Z</time></trkpt>
<trkpt lat="46.27221" lon="7.30147"><ele>1284.4</ele><time>2025-11-04T12:56:50Z</time></trkpt>
<trkpt lat="46.27232" lon="7.30162"><ele>1284.4</ele><time>2025-11-04T12:56:55Z</time></trkpt>
<trkpt lat="46.27245" lon="7.30181"><ele>1285</ele><time>2025-11-04T12:57:01Z</time></trkpt>
<trkpt lat="46.27253" lon="7.30205"><ele>1284.8</ele><time>2025-11-04T12:57:06Z</time></trkpt>
<trkpt lat="46.27259" lon="7.3021"><ele>1284.4</ele><time>2025-11-04T12:57:08Z</time></trkpt>
<trkpt lat="46.27263" lon="7.30211"><ele>1284.4</ele><time>2025-11-04T12:57:09Z</time></trkpt>
<trkpt lat="46.27274" lon="7.3021"><ele>1284.8</ele><time>2025-11-04T12:57:12Z</time></trkpt>
<trkpt lat="46.27281" lon="7.30209"><ele>1285.4</ele><time>2025-11-04T12:57:14Z</time></trkpt>
<trkpt lat="46.27297" lon="7.30213"><ele>1286</ele><time>2025-11-04T12:57:19Z</time></trkpt>
<trkpt lat="46.27299" lon="7.30214"><ele>1285.8</ele><time>2025-11-04T12:57:20Z</time></trkpt>
<trkpt lat="46.27317" lon="7.30218"><ele>1286</ele><time>2025-11-04T12:57:25Z</time></trkpt>
<trkpt lat="46.27334" lon="7.30225"><ele>1286.6</ele><time>2025-11-04T12:57:30Z</time></trkpt>
<trkpt lat="46.27337" lon="7.30227"><ele>1286.8</ele><time>2025-11-04T12:57:31Z</time></trkpt>
<trkpt lat="46.27355" lon="7.30241"><ele>1287.6</ele><time>2025-11-04T12:57:37Z</time></trkpt>
<trkpt lat="46.27357" lon="7.30244"><ele>1287.6</ele><time>2025-11-04T12:57:38Z</time></trkpt>
<trkpt lat="46.27368" lon="7.30262"><ele>1288</ele><time>2025-11-04T12:57:43Z</time></trkpt>
<trkpt lat="46.27381" lon="7.30275"><ele>1288.6</ele><time>2025-11-04T12:57:48Z</time></trkpt>
<trkpt lat="46.27399" lon="7.30285"><ele>1289</ele><time>2025-11-04T12:57:54Z</time></trkpt>
<trkpt lat="46.27408" lon="7.30291"><ele>1289.8</ele><time>2025-11-04T12:57:58Z</time></trkpt>
<trkpt lat="46.27419" lon="7.30297"><ele>1290.8</ele><time>2025-11-04T12:58:04Z</time></trkpt>
<trkpt lat="46.2742" lon="7.30299"><ele>1290.8</ele><time>2025-11-04T12:58:05Z</time></trkpt>
<trkpt lat="46.27426" lon="7.30307"><ele>1291.6</ele><time>2025-11-04T12:58:09Z</time></trkpt>
<trkpt lat="46.27428" lon="7.30309"><ele>1291.6</ele><time>2025-11-04T12:58:10Z</time></trkpt>
<trkpt lat="46.2743" lon="7.30316"><ele>1292</ele><time>2025-11-04T12:58:13Z</time></trkpt>
<trkpt lat="46.27432" lon="7.30324"><ele>1292.2</ele><time>2025-11-04T12:58:16Z</time></trkpt>
<trkpt lat="46.27439" lon="7.30345"><ele>1292.4</ele><time>2025-11-04T12:58:22Z</time></trkpt>
<trkpt lat="46.27446" lon="7.30361"><ele>1293</ele><time>2025-11-04T12:58:27Z</time></trkpt>
<trkpt lat="46.27447" lon="7.30367"><ele>1293.2</ele><time>2025-11-04T12:58:29Z</time></trkpt>
<trkpt lat="46.2745" lon="7.30394"><ele>1293.6</ele><time>2025-11-04T12:58:36Z</time></trkpt>
<trkpt lat="46.27454" lon="7.30398"><ele>1294.2</ele><time>2025-11-04T12:58:39Z</time></trkpt>
<trkpt lat="46.27456" lon="7.30399"><ele>1294.4</ele><time>2025-11-04T12:58:40Z</time></trkpt>
<trkpt lat="46.27468" lon="7.30405"><ele>1295.2</ele><time>2025-11-04T12:58:47Z</time></trkpt>
<trkpt lat="46.27472" lon="7.30408"><ele>1295.6</ele><time>2025-11-04T12:58:49Z</time></trkpt>
<trkpt lat="46.27477" lon="7.3042"><ele>1296</ele><time>2025-11-04T12:58:54Z</time></trkpt>
<trkpt lat="46.27472" lon="7.3043"><ele>1295.8</ele><time>2025-11-04T12:58:58Z</time></trkpt>
<trkpt lat="46.2747" lon="7.30431"><ele>1295.8</ele><time>2025-11-04T12:58:59Z</time></trkpt>
<trkpt lat="46.27463" lon="7.3044"><ele>1295.6</ele><time>2025-11-04T12:59:03Z</time></trkpt>
<trkpt lat="46.27452" lon="7.30455"><ele>1294.8</ele><time>2025-11-04T12:59:07Z</time></trkpt>
<trkpt lat="46.2744" lon="7.30475"><ele>1295.6</ele><time>2025-11-04T12:59:13Z</time></trkpt>
<trkpt lat="46.27434" lon="7.30501"><ele>1295.6</ele><time>2025-11-04T12:59:19Z</time></trkpt>
<trkpt lat="46.27427" lon="7.30517"><ele>1295.8</ele><time>2025-11-04T12:59:23Z</time></trkpt>
<trkpt lat="46.27422" lon="7.30525"><ele>1295.8</ele><time>2025-11-04T12:59:25Z</time></trkpt>
<trkpt lat="46.27421" lon="7.30548"><ele>1295.8</ele><time>2025-11-04T12:59:30Z</time></trkpt>
<trkpt lat="46.27424" lon="7.30583"><ele>1295.4</ele><time>2025-11-04T12:59:36Z</time></trkpt>
<trkpt lat="46.27425" lon="7.30589"><ele>1295.2</ele><time>2025-11-04T12:59:37Z</time></trkpt>
<trkpt lat="46.27428" lon="7.30601"><ele>1295.2</ele><time>2025-11-04T12:59:39Z</time></trkpt>
<trkpt lat="46.27431" lon="7.30624"><ele>1295.8</ele><time>2025-11-04T12:59:43Z</time></trkpt>
<trkpt lat="46.27434" lon="7.30658"><ele>1295.6</ele><time>2025-11-04T12:59:49Z</time></trkpt>
<trkpt lat="46.27442" lon="7.30684"><ele>1295.4</ele><time>2025-11-04T12:59:54Z</time></trkpt>
<trkpt lat="46.27444" lon="7.30706"><ele>1295.8</ele><time>2025-11-04T12:59:58Z</time></trkpt>
<trkpt lat="46.27445" lon="7.30711"><ele>1296</ele><time>2025-11-04T12:59:59Z</time></trkpt>
<trkpt lat="46.27445" lon="7.30719"><ele>1296.4</ele><time>2025-11-04T13:00:01Z</time></trkpt>
<trkpt lat="46.27447" lon="7.30732"><ele>1296.6</ele><time>2025-11-04T13:00:04Z</time></trkpt>
<trkpt lat="46.27454" lon="7.30752"><ele>1296</ele><time>2025-11-04T13:00:08Z</time></trkpt>
<trkpt lat="46.2746" lon="7.30773"><ele>1296.4</ele><time>2025-11-04T13:00:12Z</time></trkpt>
<trkpt lat="46.27461" lon="7.30777"><ele>1296.4</ele><time>2025-11-04T13:00:13Z</time></trkpt>
<trkpt lat="46.27473" lon="7.30801"><ele>1296.2</ele><time>2025-11-04T13:00:19Z</time></trkpt>
<trkpt lat="46.2749" lon="7.30805"><ele>1296.2</ele><time>2025-11-04T13:00:24Z</time></trkpt>
<trkpt lat="46.27501" lon="7.30808"><ele>1296.6</ele><time>2025-11-04T13:00:27Z</time></trkpt>
<trkpt lat="46.27507" lon="7.30812"><ele>1296.6</ele><time>2025-11-04T13:00:29Z</time></trkpt>
<trkpt lat="46.27515" lon="7.3083"><ele>1296.6</ele><time>2025-11-04T13:00:33Z</time></trkpt>
<trkpt lat="46.27522" lon="7.30856"><ele>1296.4</ele><time>2025-11-04T13:00:38Z</time></trkpt>
<trkpt lat="46.27534" lon="7.30859"><ele>1296.8</ele><time>2025-11-04T13:00:42Z</time></trkpt>
<trkpt lat="46.27543" lon="7.30848"><ele>1296.6</ele><time>2025-11-04T13:00:46Z</time></trkpt>
<trkpt lat="46.27553" lon="7.30836"><ele>1297.4</ele><time>2025-11-04T13:00:51Z</time></trkpt>
<trkpt lat="46.27563" lon="7.30826"><ele>1298</ele><time>2025-11-04T13:00:56Z</time></trkpt>
<trkpt lat="46.27576" lon="7.30825"><ele>1298.4</ele><time>2025-11-04T13:01:01Z</time></trkpt>
<trkpt lat="46.2758" lon="7.30823"><ele>1298.6</ele><time>2025-11-04T13:01:03Z</time></trkpt>
<trkpt lat="46.27585" lon="7.30819"><ele>1299.2</ele><time>2025-11-04T13:01:07Z</time></trkpt>
<trkpt lat="46.27594" lon="7.30816"><ele>1299.4</ele><time>2025-11-04T13:01:13Z</time></trkpt>
<trkpt lat="46.27604" lon="7.30812"><ele>1299.6</ele><time>2025-11-04T13:01:20Z</time></trkpt>
<trkpt lat="46.27608" lon="7.30811"><ele>1299.6</ele><time>2025-11-04T13:01:21Z</time></trkpt>
<trkpt lat="46.27613" lon="7.30809"><ele>1299.8</ele><time>2025-11-04T13:01:24Z</time></trkpt>
<trkpt lat="46.27623" lon="7.30805"><ele>1300.2</ele><time>2025-11-04T13:01:30Z</time></trkpt>
<trkpt lat="46.27634" lon="7.30804"><ele>1300.6</ele><time>2025-11-04T13:01:36Z</time></trkpt>
<trkpt lat="46.27643" lon="7.308"><ele>1301</ele><time>2025-11-04T13:01:41Z</time></trkpt>
<trkpt lat="46.27656" lon="7.30795"><ele>1301.6</ele><time>2025-11-04T13:01:48Z</time></trkpt>
<trkpt lat="46.27657" lon="7.30795"><ele>1301.8</ele><time>2025-11-04T13:01:49Z</time></trkpt>
<trkpt lat="46.27668" lon="7.30794"><ele>1302.8</ele><time>2025-11-04T13:01:55Z</time></trkpt>
<trkpt lat="46.2767" lon="7.30794"><ele>1303</ele><time>2025-11-04T13:01:56Z</time></trkpt>
<trkpt lat="46.27675" lon="7.30796"><ele>1303.8</ele><time>2025-11-04T13:01:59Z</time></trkpt>
<trkpt lat="46.27684" lon="7.30803"><ele>1304.2</ele><time>2025-11-04T13:02:05Z</time></trkpt>
<trkpt lat="46.27687" lon="7.30815"><ele>1304.2</ele><time>2025-11-04T13:02:09Z</time></trkpt>
<trkpt lat="46.27688" lon="7.30824"><ele>1304</ele><time>2025-11-04T13:02:11Z</time></trkpt>
<trkpt lat="46.27685" lon="7.30844"><ele>1304</ele><time>2025-11-04T13:02:16Z</time></trkpt>
<trkpt lat="46.27685" lon="7.30853"><ele>1304.8</ele><time>2025-11-04T13:02:20Z</time></trkpt>
<trkpt lat="46.27685" lon="7.30856"><ele>1305</ele><time>2025-11-04T13:02:21Z</time></trkpt>
<trkpt lat="46.27684" lon="7.30873"><ele>1305</ele><time>2025-11-04T13:02:27Z</time></trkpt>
<trkpt lat="46.27677" lon="7.30883"><ele>1305.4</ele><time>2025-11-04T13:02:32Z</time></trkpt>
<trkpt lat="46.27674" lon="7.30889"><ele>1305.8</ele><time>2025-11-04T13:02:35Z</time></trkpt>
<trkpt lat="46.27671" lon="7.30896"><ele>1305.6</ele><time>2025-11-04T13:02:38Z</time></trkpt>
<trkpt lat="46.27669" lon="7.30912"><ele>1305.8</ele><time>2025-11-04T13:02:43Z</time></trkpt>
<trkpt lat="46.27669" lon="7.30915"><ele>1306</ele><time>2025-11-04T13:02:44Z</time></trkpt>
<trkpt lat="46.27672" lon="7.3093"><ele>1306</ele><time>2025-11-04T13:02:49Z</time></trkpt>
<trkpt lat="46.27673" lon="7.3095"><ele>1306.2</ele><time>2025-11-04T13:02:55Z</time></trkpt>
<trkpt lat="46.27668" lon="7.30969"><ele>1306.4</ele><time>2025-11-04T13:03:01Z</time></trkpt>
<trkpt lat="46.27669" lon="7.30988"><ele>1306.4</ele><time>2025-11-04T13:03:06Z</time></trkpt>
<trkpt lat="46.27671" lon="7.31002"><ele>1306.8</ele><time>2025-11-04T13:03:10Z</time></trkpt>
<trkpt lat="46.27672" lon="7.31006"><ele>1307</ele><time>2025-11-04T13:03:11Z</time></trkpt>
<trkpt lat="46.27672" lon="7.31017"><ele>1307.2</ele><time>2025-11-04T13:03:15Z</time></trkpt>
<trkpt lat="46.27672" lon="7.31019"><ele>1307.2</ele><time>2025-11-04T13:03:16Z</time></trkpt>
<trkpt lat="46.27667" lon="7.31026"><ele>1307.6</ele><time>2025-11-04T13:03:21Z</time></trkpt>
<trkpt lat="46.27663" lon="7.3103"><ele>1307.8</ele><time>2025-11-04T13:03:26Z</time></trkpt>
<trkpt lat="46.27663" lon="7.31032"><ele>1308</ele><time>2025-11-04T13:03:30Z</time></trkpt>
<trkpt lat="46.27662" lon="7.31035"><ele>1307.8</ele><time>2025-11-04T13:03:33Z</time></trkpt>
<trkpt lat="46.27658" lon="7.31043"><ele>1307.8</ele><time>2025-11-04T13:03:40Z</time></trkpt>
<trkpt lat="46.27657" lon="7.31049"><ele>1308</ele><time>2025-11-04T13:03:47Z</time></trkpt>
<trkpt lat="46.27655" lon="7.31055"><ele>1308</ele><time>2025-11-04T13:03:53Z</time></trkpt>
<trkpt lat="46.27654" lon="7.31063"><ele>1308</ele><time>2025-11-04T13:03:57Z</time></trkpt>
<trkpt lat="46.27655" lon="7.31074"><ele>1308.2</ele><time>2025-11-04T13:04:03Z</time></trkpt>
<trkpt lat="46.27656" lon="7.31088"><ele>1308.2</ele><time>2025-11-04T13:04:08Z</time></trkpt>
<trkpt lat="46.27654" lon="7.31101"><ele>1308.2</ele><time>2025-11-04T13:04:13Z</time></trkpt>
<trkpt lat="46.27653" lon="7.31113"><ele>1308.2</ele><time>2025-11-04T13:04:17Z</time></trkpt>
<trkpt lat="46.27651" lon="7.31125"><ele>1308.4</ele><time>2025-11-04T13:04:22Z</time></trkpt>
<trkpt lat="46.27652" lon="7.3113"><ele>1308.4</ele><time>2025-11-04T13:04:25Z</time></trkpt>
<trkpt lat="46.27654" lon="7.31135"><ele>1308.4</ele><time>2025-11-04T13:04:27Z</time></trkpt>
<trkpt lat="46.27657" lon="7.31153"><ele>1308.6</ele><time>2025-11-04T13:04:34Z</time></trkpt>
<trkpt lat="46.27657" lon="7.31156"><ele>1308.8</ele><time>2025-11-04T13:04:38Z</time></trkpt>
<trkpt lat="46.27658" lon="7.31157"><ele>1309</ele><time>2025-11-04T13:04:39Z</time></trkpt>
<trkpt lat="46.27658" lon="7.31163"><ele>1309.8</ele><time>2025-11-04T13:04:44Z</time></trkpt>
<trkpt lat="46.27658" lon="7.31165"><ele>1310</ele><time>2025-11-04T13:04:45Z</time></trkpt>
<trkpt lat="46.27659" lon="7.31174"><ele>1311.2</ele><time>2025-11-04T13:04:52Z</time></trkpt>
<trkpt lat="46.27661" lon="7.31182"><ele>1311.4</ele><time>2025-11-04T13:04:58Z</time></trkpt>
<trkpt lat="46.27663" lon="7.31184"><ele>1311.8</ele><time>2025-11-04T13:05:03Z</time></trkpt>
<trkpt lat="46.27663" lon="7.31185"><ele>1312</ele><time>2025-11-04T13:05:04Z</time></trkpt>
<trkpt lat="46.27666" lon="7.31187"><ele>1312.2</ele><time>2025-11-04T13:05:08Z</time></trkpt>
<trkpt lat="46.27668" lon="7.31189"><ele>1312.4</ele><time>2025-11-04T13:05:11Z</time></trkpt>
<trkpt lat="46.27672" lon="7.31193"><ele>1312.8</ele><time>2025-11-04T13:05:16Z</time></trkpt>
<trkpt lat="46.27677" lon="7.31197"><ele>1313.2</ele><time>2025-11-04T13:05:21Z</time></trkpt>
<trkpt lat="46.27678" lon="7.31197"><ele>1313.4</ele><time>2025-11-04T13:05:23Z</time></trkpt>
<trkpt lat="46.27678" lon="7.31199"><ele>1313.6</ele><time>2025-11-04T13:05:31Z</time></trkpt>
<trkpt lat="46.27679" lon="7.31195"><ele>1313.4</ele><time>2025-11-04T13:05:37Z</time></trkpt>
<trkpt lat="46.27679" lon="7.31194"><ele>1313.4</ele><time>2025-11-04T13:05:43Z</time></trkpt>
<trkpt lat="46.27681" lon="7.31194"><ele>1313.4</ele><time>2025-11-04T13:05:47Z</time></trkpt>
<trkpt lat="46.27686" lon="7.31198"><ele>1313.6</ele><time>2025-11-04T13:05:53Z</time></trkpt>
<trkpt lat="46.27686" lon="7.31197"><ele>1313.6</ele><time>2025-11-04T13:05:54Z</time></trkpt>
<trkpt lat="46.27688" lon="7.31198"><ele>1313.6</ele><time>2025-11-04T13:05:57Z</time></trkpt>
<trkpt lat="46.27689" lon="7.31199"><ele>1313.8</ele><time>2025-11-04T13:05:59Z</time></trkpt>
<trkpt lat="46.27698" lon="7.312"><ele>1314.2</ele><time>2025-11-04T13:06:05Z</time></trkpt>
<trkpt lat="46.277" lon="7.312"><ele>1314.4</ele><time>2025-11-04T13:06:06Z</time></trkpt>
<trkpt lat="46.27705" lon="7.31201"><ele>1314.4</ele><time>2025-11-04T13:06:10Z</time></trkpt>
<trkpt lat="46.27712" lon="7.31201"><ele>1315.2</ele><time>2025-11-04T13:06:16Z</time></trkpt>
<trkpt lat="46.27713" lon="7.31201"><ele>1315.4</ele><time>2025-11-04T13:06:17Z</time></trkpt>
<trkpt lat="46.2772" lon="7.31204"><ele>1316</ele><time>2025-11-04T13:06:21Z</time></trkpt>
<trkpt lat="46.27728" lon="7.31206"><ele>1316.6</ele><time>2025-11-04T13:06:26Z</time></trkpt>
<trkpt lat="46.2773" lon="7.31207"><ele>1316.6</ele><time>2025-11-04T13:06:27Z</time></trkpt>
<trkpt lat="46.27743" lon="7.31208"><ele>1317.8</ele><time>2025-11-04T13:06:34Z</time></trkpt>
<trkpt lat="46.27753" lon="7.31207"><ele>1318.6</ele><time>2025-11-04T13:06:39Z</time></trkpt>
<trkpt lat="46.2776" lon="7.31203"><ele>1318.8</ele><time>2025-11-04T13:06:43Z</time></trkpt>
<trkpt lat="46.27763" lon="7.31202"><ele>1319</ele><time>2025-11-04T13:06:45Z</time></trkpt>
<trkpt lat="46.27771" lon="7.312"><ele>1319.8</ele><time>2025-11-04T13:06:49Z</time></trkpt>
<trkpt lat="46.27774" lon="7.312"><ele>1320.2</ele><time>2025-11-04T13:06:51Z</time></trkpt>
<trkpt lat="46.27777" lon="7.312"><ele>1320.6</ele><time>2025-11-04T13:06:54Z</time></trkpt>
<trkpt lat="46.2778" lon="7.31201"><ele>1321</ele><time>2025-11-04T13:06:56Z</time></trkpt>
<trkpt lat="46.27782" lon="7.31202"><ele>1321.2</ele><time>2025-11-04T13:06:58Z</time></trkpt>
<trkpt lat="46.27785" lon="7.31206"><ele>1321.2</ele><time>2025-11-04T13:07:02Z</time></trkpt>
<trkpt lat="46.27789" lon="7.31214"><ele>1321.8</ele><time>2025-11-04T13:07:07Z</time></trkpt>
<trkpt lat="46.27793" lon="7.31224"><ele>1321.8</ele><time>2025-11-04T13:07:11Z</time></trkpt>
<trkpt lat="46.27795" lon="7.31229"><ele>1322</ele><time>2025-11-04T13:07:13Z</time></trkpt>
<trkpt lat="46.27796" lon="7.31232"><ele>1322</ele><time>2025-11-04T13:07:14Z</time></trkpt>
<trkpt lat="46.27802" lon="7.31245"><ele>1322.2</ele><time>2025-11-04T13:07:19Z</time></trkpt>
<trkpt lat="46.27809" lon="7.31257"><ele>1322.6</ele><time>2025-11-04T13:07:24Z</time></trkpt>
<trkpt lat="46.27813" lon="7.31274"><ele>1323</ele><time>2025-11-04T13:07:30Z</time></trkpt>
<trkpt lat="46.27813" lon="7.31277"><ele>1323</ele><time>2025-11-04T13:07:31Z</time></trkpt>
<trkpt lat="46.27813" lon="7.31294"><ele>1323.4</ele><time>2025-11-04T13:07:36Z</time></trkpt>
<trkpt lat="46.27813" lon="7.31318"><ele>1323.6</ele><time>2025-11-04T13:07:42Z</time></trkpt>
<trkpt lat="46.2782" lon="7.31324"><ele>1323.6</ele><time>2025-11-04T13:07:45Z</time></trkpt>
<trkpt lat="46.27823" lon="7.31324"><ele>1323.6</ele><time>2025-11-04T13:07:46Z</time></trkpt>
<trkpt lat="46.27834" lon="7.31324"><ele>1324</ele><time>2025-11-04T13:07:51Z</time></trkpt>
<trkpt lat="46.27837" lon="7.31324"><ele>1324.2</ele><time>2025-11-04T13:07:52Z</time></trkpt>
<trkpt lat="46.27854" lon="7.31322"><ele>1324.2</ele><time>2025-11-04T13:07:58Z</time></trkpt>
<trkpt lat="46.27871" lon="7.31315"><ele>1325</ele><time>2025-11-04T13:08:04Z</time></trkpt>
<trkpt lat="46.27873" lon="7.31314"><ele>1325.2</ele><time>2025-11-04T13:08:05Z</time></trkpt>
<trkpt lat="46.2788" lon="7.31306"><ele>1325.4</ele><time>2025-11-04T13:08:08Z</time></trkpt>
<trkpt lat="46.27884" lon="7.31301"><ele>1325.6</ele><time>2025-11-04T13:08:10Z</time></trkpt>
<trkpt lat="46.27892" lon="7.31294"><ele>1326.2</ele><time>2025-11-04T13:08:14Z</time></trkpt>
<trkpt lat="46.27894" lon="7.31292"><ele>1326.2</ele><time>2025-11-04T13:08:15Z</time></trkpt>
<trkpt lat="46.27906" lon="7.3128"><ele>1326.8</ele><time>2025-11-04T13:08:20Z</time></trkpt>
<trkpt lat="46.27921" lon="7.31271"><ele>1326.8</ele><time>2025-11-04T13:08:25Z</time></trkpt>
<trkpt lat="46.2793" lon="7.31267"><ele>1327.2</ele><time>2025-11-04T13:08:29Z</time></trkpt>
<trkpt lat="46.27933" lon="7.31266"><ele>1327.2</ele><time>2025-11-04T13:08:30Z</time></trkpt>
<trkpt lat="46.2795" lon="7.31258"><ele>1327.4</ele><time>2025-11-04T13:08:36Z</time></trkpt>
<trkpt lat="46.27966" lon="7.31253"><ele>1328.4</ele><time>2025-11-04T13:08:41Z</time></trkpt>
<trkpt lat="46.27972" lon="7.31254"><ele>1328.4</ele><time>2025-11-04T13:08:43Z</time></trkpt>
<trkpt lat="46.2798" lon="7.31265"><ele>1328.8</ele><time>2025-11-04T13:08:47Z</time></trkpt>
<trkpt lat="46.27986" lon="7.31282"><ele>1328.6</ele><time>2025-11-04T13:08:51Z</time></trkpt>
<trkpt lat="46.27989" lon="7.31299"><ele>1329.2</ele><time>2025-11-04T13:08:55Z</time></trkpt>
<trkpt lat="46.2799" lon="7.31302"><ele>1329.4</ele><time>2025-11-04T13:08:56Z</time></trkpt>
<trkpt lat="46.27992" lon="7.31316"><ele>1329.6</ele><time>2025-11-04T13:08:59Z</time></trkpt>
<trkpt lat="46.27993" lon="7.31339"><ele>1329.8</ele><time>2025-11-04T13:09:04Z</time></trkpt>
<trkpt lat="46.27992" lon="7.31365"><ele>1330.2</ele><time>2025-11-04T13:09:10Z</time></trkpt>
<trkpt lat="46.2799" lon="7.31378"><ele>1330.4</ele><time>2025-11-04T13:09:13Z</time></trkpt>
<trkpt lat="46.27985" lon="7.31396"><ele>1330.8</ele><time>2025-11-04T13:09:17Z</time></trkpt>
<trkpt lat="46.2798" lon="7.31426"><ele>1331.6</ele><time>2025-11-04T13:09:24Z</time></trkpt>
<trkpt lat="46.27988" lon="7.31439"><ele>1332</ele><time>2025-11-04T13:09:28Z</time></trkpt>
<trkpt lat="46.28003" lon="7.31441"><ele>1332.8</ele><time>2025-11-04T13:09:33Z</time></trkpt>
<trkpt lat="46.2802" lon="7.31445"><ele>1333.8</ele><time>2025-11-04T13:09:39Z</time></trkpt>
<trkpt lat="46.28025" lon="7.31446"><ele>1334.4</ele><time>2025-11-04T13:09:43Z</time></trkpt>
<trkpt lat="46.2803" lon="7.31447"><ele>1335</ele><time>2025-11-04T13:09:47Z</time></trkpt>
<trkpt lat="46.28031" lon="7.31448"><ele>1335</ele><time>2025-11-04T13:09:48Z</time></trkpt>
<trkpt lat="46.28038" lon="7.3145"><ele>1335.8</ele><time>2025-11-04T13:09:53Z</time></trkpt>
<trkpt lat="46.2804" lon="7.31451"><ele>1336</ele><time>2025-11-04T13:09:54Z</time></trkpt>
<trkpt lat="46.28047" lon="7.3146"><ele>1336.6</ele><time>2025-11-04T13:09:59Z</time></trkpt>
<trkpt lat="46.2805" lon="7.31467"><ele>1337</ele><time>2025-11-04T13:10:02Z</time></trkpt>
<trkpt lat="46.28051" lon="7.3147"><ele>1337.2</ele><time>2025-11-04T13:10:03Z</time></trkpt>
<trkpt lat="46.28048" lon="7.3148"><ele>1337.8</ele><time>2025-11-04T13:10:07Z</time></trkpt>
<trkpt lat="46.28041" lon="7.31488"><ele>1338.2</ele><time>2025-11-04T13:10:11Z</time></trkpt>
<trkpt lat="46.28039" lon="7.3149"><ele>1338.2</ele><time>2025-11-04T13:10:12Z</time></trkpt>
<trkpt lat="46.28027" lon="7.315"><ele>1338.8</ele><time>2025-11-04T13:10:18Z</time></trkpt>
<trkpt lat="46.2802" lon="7.31515"><ele>1339.2</ele><time>2025-11-04T13:10:23Z</time></trkpt>
<trkpt lat="46.28012" lon="7.3154"><ele>1339.4</ele><time>2025-11-04T13:10:30Z</time></trkpt>
<trkpt lat="46.27998" lon="7.31553"><ele>1339.6</ele><time>2025-11-04T13:10:35Z</time></trkpt>
<trkpt lat="46.27975" lon="7.31569"><ele>1340</ele><time>2025-11-04T13:10:43Z</time></trkpt>
<trkpt lat="46.2796" lon="7.31588"><ele>1340.2</ele><time>2025-11-04T13:10:48Z</time></trkpt>
<trkpt lat="46.27956" lon="7.31597"><ele>1340.4</ele><time>2025-11-04T13:10:50Z</time></trkpt>
<trkpt lat="46.27942" lon="7.31612"><ele>1340.2</ele><time>2025-11-04T13:10:55Z</time></trkpt>
<trkpt lat="46.27926" lon="7.31639"><ele>1340.4</ele><time>2025-11-04T13:11:02Z</time></trkpt>
<trkpt lat="46.27926" lon="7.31659"><ele>1340.4</ele><time>2025-11-04T13:11:06Z</time></trkpt>
<trkpt lat="46.27929" lon="7.31665"><ele>1340.4</ele><time>2025-11-04T13:11:07Z</time></trkpt>
<trkpt lat="46.27933" lon="7.31676"><ele>1340.2</ele><time>2025-11-04T13:11:09Z</time></trkpt>
<trkpt lat="46.27934" lon="7.31683"><ele>1340.4</ele><time>2025-11-04T13:11:10Z</time></trkpt>
<trkpt lat="46.27934" lon="7.3169"><ele>1340.2</ele><time>2025-11-04T13:11:11Z</time></trkpt>
<trkpt lat="46.27932" lon="7.31703"><ele>1340.4</ele><time>2025-11-04T13:11:13Z</time></trkpt>
<trkpt lat="46.27926" lon="7.31711"><ele>1340.6</ele><time>2025-11-04T13:11:15Z</time></trkpt>
<trkpt lat="46.27918" lon="7.31719"><ele>1340.6</ele><time>2025-11-04T13:11:17Z</time></trkpt>
<trkpt lat="46.27911" lon="7.31728"><ele>1340.6</ele><time>2025-11-04T13:11:19Z</time></trkpt>
<trkpt lat="46.27906" lon="7.31739"><ele>1340.6</ele><time>2025-11-04T13:11:21Z</time></trkpt>
<trkpt lat="46.27904" lon="7.31746"><ele>1340.8</ele><time>2025-11-04T13:11:22Z</time></trkpt>
<trkpt lat="46.27893" lon="7.31792"><ele>1340.6</ele><time>2025-11-04T13:11:29Z</time></trkpt>
<trkpt lat="46.27884" lon="7.31822"><ele>1341</ele><time>2025-11-04T13:11:35Z</time></trkpt>
<trkpt lat="46.27878" lon="7.31837"><ele>1341.2</ele><time>2025-11-04T13:11:38Z</time></trkpt>
<trkpt lat="46.27873" lon="7.31853"><ele>1341.4</ele><time>2025-11-04T13:11:41Z</time></trkpt>
<trkpt lat="46.27869" lon="7.31887"><ele>1341.4</ele><time>2025-11-04T13:11:47Z</time></trkpt>
<trkpt lat="46.2787" lon="7.3192"><ele>1341.8</ele><time>2025-11-04T13:11:53Z</time></trkpt>
<trkpt lat="46.27878" lon="7.31952"><ele>1342.2</ele><time>2025-11-04T13:11:59Z</time></trkpt>
<trkpt lat="46.2788" lon="7.31956"><ele>1342.4</ele><time>2025-11-04T13:12:00Z</time></trkpt>
<trkpt lat="46.27885" lon="7.31966"><ele>1342.4</ele><time>2025-11-04T13:12:02Z</time></trkpt>
<trkpt lat="46.27891" lon="7.31979"><ele>1342.8</ele><time>2025-11-04T13:12:05Z</time></trkpt>
<trkpt lat="46.27906" lon="7.31998"><ele>1343.2</ele><time>2025-11-04T13:12:11Z</time></trkpt>
<trkpt lat="46.27913" lon="7.32007"><ele>1343.4</ele><time>2025-11-04T13:12:14Z</time></trkpt>
<trkpt lat="46.27929" lon="7.32033"><ele>1343.4</ele><time>2025-11-04T13:12:21Z</time></trkpt>
<trkpt lat="46.2795" lon="7.32064"><ele>1344.2</ele><time>2025-11-04T13:12:30Z</time></trkpt>
<trkpt lat="46.27956" lon="7.32071"><ele>1344.4</ele><time>2025-11-04T13:12:32Z</time></trkpt>
<trkpt lat="46.27969" lon="7.32083"><ele>1344.6</ele><time>2025-11-04T13:12:37Z</time></trkpt>
<trkpt lat="46.27985" lon="7.32095"><ele>1345.2</ele><time>2025-11-04T13:12:43Z</time></trkpt>
<trkpt lat="46.27996" lon="7.32108"><ele>1345.4</ele><time>2025-11-04T13:12:47Z</time></trkpt>
<trkpt lat="46.28001" lon="7.32115"><ele>1345.4</ele><time>2025-11-04T13:12:49Z</time></trkpt>
<trkpt lat="46.28013" lon="7.32135"><ele>1345.8</ele><time>2025-11-04T13:12:54Z</time></trkpt>
<trkpt lat="46.28027" lon="7.32142"><ele>1346</ele><time>2025-11-04T13:12:58Z</time></trkpt>
<trkpt lat="46.28052" lon="7.3215"><ele>1346</ele><time>2025-11-04T13:13:04Z</time></trkpt>
<trkpt lat="46.28067" lon="7.32156"><ele>1346.4</ele><time>2025-11-04T13:13:08Z</time></trkpt>
<trkpt lat="46.28074" lon="7.32159"><ele>1346.6</ele><time>2025-11-04T13:13:10Z</time></trkpt>
<trkpt lat="46.2808" lon="7.32165"><ele>1346.6</ele><time>2025-11-04T13:13:12Z</time></trkpt>
<trkpt lat="46.28093" lon="7.32176"><ele>1347.4</ele><time>2025-11-04T13:13:17Z</time></trkpt>
<trkpt lat="46.28095" lon="7.32177"><ele>1347.6</ele><time>2025-11-04T13:13:18Z</time></trkpt>
<trkpt lat="46.28099" lon="7.32176"><ele>1347.8</ele><time>2025-11-04T13:13:20Z</time></trkpt>
<trkpt lat="46.281" lon="7.32172"><ele>1348</ele><time>2025-11-04T13:13:22Z</time></trkpt>
<trkpt lat="46.281" lon="7.3217"><ele>1348.2</ele><time>2025-11-04T13:13:23Z</time></trkpt>
<trkpt lat="46.28096" lon="7.32169"><ele>1348.4</ele><time>2025-11-04T13:13:26Z</time></trkpt>
<trkpt lat="46.28095" lon="7.32168"><ele>1348.6</ele><time>2025-11-04T13:13:27Z</time></trkpt>
<trkpt lat="46.28094" lon="7.32166"><ele>1348.8</ele><time>2025-11-04T13:13:28Z</time></trkpt>
<trkpt lat="46.28092" lon="7.32161"><ele>1349.2</ele><time>2025-11-04T13:13:30Z</time></trkpt>
<trkpt lat="46.28086" lon="7.32154"><ele>1349.8</ele><time>2025-11-04T13:13:34Z</time></trkpt>
<trkpt lat="46.28082" lon="7.3215"><ele>1350.2</ele><time>2025-11-04T13:13:37Z</time></trkpt>
<trkpt lat="46.28077" lon="7.32147"><ele>1350.8</ele><time>2025-11-04T13:13:40Z</time></trkpt>
<trkpt lat="46.28071" lon="7.32142"><ele>1351.4</ele><time>2025-11-04T13:13:45Z</time></trkpt>
<trkpt lat="46.28067" lon="7.32139"><ele>1351.8</ele><time>2025-11-04T13:13:47Z</time></trkpt>
<trkpt lat="46.28058" lon="7.32135"><ele>1352.8</ele><time>2025-11-04T13:13:53Z</time></trkpt>
<trkpt lat="46.28057" lon="7.32134"><ele>1353</ele><time>2025-11-04T13:13:54Z</time></trkpt>
<trkpt lat="46.28048" lon="7.32128"><ele>1353.8</ele><time>2025-11-04T13:14:00Z</time></trkpt>
<trkpt lat="46.28046" lon="7.32127"><ele>1354</ele><time>2025-11-04T13:14:01Z</time></trkpt>
<trkpt lat="46.2804" lon="7.32123"><ele>1354.8</ele><time>2025-11-04T13:14:06Z</time></trkpt>
<trkpt lat="46.28037" lon="7.3212"><ele>1355.2</ele><time>2025-11-04T13:14:09Z</time></trkpt>
<trkpt lat="46.28032" lon="7.32114"><ele>1355.8</ele><time>2025-11-04T13:14:13Z</time></trkpt>
<trkpt lat="46.28029" lon="7.32109"><ele>1356.2</ele><time>2025-11-04T13:14:16Z</time></trkpt>
<trkpt lat="46.28025" lon="7.32103"><ele>1357</ele><time>2025-11-04T13:14:20Z</time></trkpt>
<trkpt lat="46.28023" lon="7.32096"><ele>1357.2</ele><time>2025-11-04T13:14:23Z</time></trkpt>
<trkpt lat="46.28021" lon="7.32091"><ele>1357.8</ele><time>2025-11-04T13:14:26Z</time></trkpt>
<trkpt lat="46.28019" lon="7.32084"><ele>1358.4</ele><time>2025-11-04T13:14:30Z</time></trkpt>
<trkpt lat="46.28018" lon="7.32081"><ele>1358.8</ele><time>2025-11-04T13:14:32Z</time></trkpt>
<trkpt lat="46.28015" lon="7.32071"><ele>1359.4</ele><time>2025-11-04T13:14:37Z</time></trkpt>
<trkpt lat="46.28014" lon="7.32068"><ele>1359.8</ele><time>2025-11-04T13:14:39Z</time></trkpt>
<trkpt lat="46.28013" lon="7.32061"><ele>1360.4</ele><time>2025-11-04T13:14:44Z</time></trkpt>
<trkpt lat="46.28012" lon="7.3206"><ele>1360.4</ele><time>2025-11-04T13:14:45Z</time></trkpt>
<trkpt lat="46.2801" lon="7.32055"><ele>1360.8</ele><time>2025-11-04T13:14:49Z</time></trkpt>
<trkpt lat="46.28009" lon="7.32052"><ele>1361</ele><time>2025-11-04T13:14:51Z</time></trkpt>
<trkpt lat="46.28006" lon="7.32048"><ele>1361.4</ele><time>2025-11-04T13:14:54Z</time></trkpt>
<trkpt lat="46.28005" lon="7.32047"><ele>1361.6</ele><time>2025-11-04T13:14:55Z</time></trkpt>
<trkpt lat="46.28003" lon="7.32043"><ele>1362</ele><time>2025-11-04T13:14:58Z</time></trkpt>
<trkpt lat="46.28002" lon="7.32041"><ele>1362.2</ele><time>2025-11-04T13:14:59Z</time></trkpt>
<trkpt lat="46.27999" lon="7.32033"><ele>1362.6</ele><time>2025-11-04T13:15:04Z</time></trkpt>
<trkpt lat="46.27997" lon="7.32027"><ele>1363.2</ele><time>2025-11-04T13:15:09Z</time></trkpt>
<trkpt lat="46.27995" lon="7.32023"><ele>1363.6</ele><time>2025-11-04T13:15:12Z</time></trkpt>
<trkpt lat="46.27995" lon="7.32021"><ele>1363.6</ele><time>2025-11-04T13:15:13Z</time></trkpt>
<trkpt lat="46.27992" lon="7.32013"><ele>1364.4</ele><time>2025-11-04T13:15:18Z</time></trkpt>
<trkpt lat="46.27992" lon="7.32007"><ele>1364.8</ele><time>2025-11-04T13:15:21Z</time></trkpt>
<trkpt lat="46.27992" lon="7.32002"><ele>1365.4</ele><time>2025-11-04T13:15:24Z</time></trkpt>
<trkpt lat="46.2799" lon="7.31998"><ele>1365.6</ele><time>2025-11-04T13:15:26Z</time></trkpt>
<trkpt lat="46.2799" lon="7.31993"><ele>1365.8</ele><time>2025-11-04T13:15:28Z</time></trkpt>
<trkpt lat="46.2799" lon="7.31991"><ele>1366</ele><time>2025-11-04T13:15:29Z</time></trkpt>
<trkpt lat="46.27987" lon="7.31982"><ele>1367</ele><time>2025-11-04T13:15:33Z</time></trkpt>
<trkpt lat="46.27986" lon="7.31977"><ele>1367.2</ele><time>2025-11-04T13:15:35Z</time></trkpt>
<trkpt lat="46.27986" lon="7.31965"><ele>1368</ele><time>2025-11-04T13:15:40Z</time></trkpt>
<trkpt lat="46.27986" lon="7.3196"><ele>1368.4</ele><time>2025-11-04T13:15:42Z</time></trkpt>
<trkpt lat="46.27987" lon="7.31952"><ele>1369.2</ele><time>2025-11-04T13:15:46Z</time></trkpt>
<trkpt lat="46.27989" lon="7.31949"><ele>1369.4</ele><time>2025-11-04T13:15:48Z</time></trkpt>
<trkpt lat="46.2799" lon="7.31945"><ele>1369.8</ele><time>2025-11-04T13:15:50Z</time></trkpt>
<trkpt lat="46.2799" lon="7.31943"><ele>1370</ele><time>2025-11-04T13:15:51Z</time></trkpt>
<trkpt lat="46.27992" lon="7.3194"><ele>1370.2</ele><time>2025-11-04T13:15:53Z</time></trkpt>
<trkpt lat="46.27992" lon="7.31936"><ele>1370.6</ele><time>2025-11-04T13:15:55Z</time></trkpt>
<trkpt lat="46.27995" lon="7.31931"><ele>1370.8</ele><time>2025-11-04T13:15:58Z</time></trkpt>
<trkpt lat="46.27996" lon="7.31928"><ele>1371.2</ele><time>2025-11-04T13:16:00Z</time></trkpt>
<trkpt lat="46.27997" lon="7.31927"><ele>1371.4</ele><time>2025-11-04T13:16:01Z</time></trkpt>
<trkpt lat="46.27999" lon="7.31925"><ele>1371.6</ele><time>2025-11-04T13:16:03Z</time></trkpt>
<trkpt lat="46.28001" lon="7.31922"><ele>1371.8</ele><time>2025-11-04T13:16:05Z</time></trkpt>
<trkpt lat="46.28002" lon="7.31922"><ele>1372</ele><time>2025-11-04T13:16:06Z</time></trkpt>
<trkpt lat="46.28004" lon="7.31924"><ele>1372.4</ele><time>2025-11-04T13:16:08Z</time></trkpt>
<trkpt lat="46.28008" lon="7.3193"><ele>1372.6</ele><time>2025-11-04T13:16:12Z</time></trkpt>
<trkpt lat="46.28009" lon="7.31931"><ele>1372.6</ele><time>2025-11-04T13:16:17Z</time></trkpt>
<trkpt lat="46.28008" lon="7.31934"><ele>1372.6</ele><time>2025-11-04T13:16:21Z</time></trkpt>
<trkpt lat="46.28008" lon="7.31934"><ele>1372.6</ele><time>2025-11-04T13:16:26Z</time></trkpt>
<trkpt lat="46.28007" lon="7.31935"><ele>1372.4</ele><time>2025-11-04T13:16:31Z</time></trkpt>
<trkpt lat="46.28007" lon="7.31935"><ele>1372</ele><time>2025-11-04T13:16:39Z</time></trkpt>
<trkpt lat="46.28007" lon="7.31935"><ele>1372.2</ele><time>2025-11-04T13:16:42Z</time></trkpt>
<trkpt lat="46.28007" lon="7.31935"><ele>1372.2</ele><time>2025-11-04T13:16:44Z</time></trkpt>
<trkpt lat="46.28007" lon="7.31935"><ele>1372.2</ele><time>2025-11-04T13:16:45Z</time></trkpt>
<trkpt lat="46.28007" lon="7.31935"><ele>1372.2</ele><time>2025-11-04T13:16:50Z</time></trkpt>
<trkpt lat="46.28006" lon="7.31935"><ele>1372.2</ele><time>2025-11-04T13:16:51Z</time></trkpt>
<trkpt lat="46.28007" lon="7.31935"><ele>1372.2</ele><time>2025-11-04T13:16:54Z</time></trkpt>
<trkpt lat="46.28007" lon="7.31935"><ele>1372.6</ele><time>2025-11-04T13:16:57Z</time></trkpt>
<trkpt lat="46.28006" lon="7.31934"><ele>1372.8</ele><time>2025-11-04T13:16:58Z</time></trkpt>
<trkpt lat="46.28007" lon="7.31935"><ele>1372.4</ele><time>2025-11-04T13:17:02Z</time></trkpt>
<trkpt lat="46.28006" lon="7.31934"><ele>1372.2</ele><time>2025-11-04T13:17:04Z</time></trkpt>
<trkpt lat="46.28006" lon="7.31935"><ele>1372.2</ele><time>2025-11-04T13:17:06Z</time></trkpt>
<trkpt lat="46.28007" lon="7.31935"><ele>1372.2</ele><time>2025-11-04T13:17:12Z</time></trkpt>
<trkpt lat="46.28006" lon="7.31936"><ele>1372.2</ele><time>2025-11-04T13:17:14Z</time></trkpt>
<trkpt lat="46.28005" lon="7.31936"><ele>1372.2</ele><time>2025-11-04T13:17:16Z</time></trkpt>
<trkpt lat="46.28005" lon="7.31936"><ele>1372.2</ele><time>2025-11-04T13:17:22Z</time></trkpt>
<trkpt lat="46.28005" lon="7.31936"><ele>1372.2</ele><time>2025-11-04T13:17:29Z</time></trkpt>
<trkpt lat="46.28005" lon="7.31936"><ele>1372.2</ele><time>2025-11-04T13:17:36Z</time></trkpt>
<trkpt lat="46.28006" lon="7.31935"><ele>1372.2</ele><time>2025-11-04T13:17:39Z</time></trkpt>
<trkpt lat="46.28006" lon="7.31934"><ele>1372.2</ele><time>2025-11-04T13:17:41Z</time></trkpt>
<trkpt lat="46.28007" lon="7.31933"><ele>1372.2</ele><time>2025-11-04T13:17:45Z</time></trkpt>
<trkpt lat="46.28007" lon="7.31933"><ele>1372.2</ele><time>2025-11-04T13:17:52Z</time></trkpt>
<trkpt lat="46.28007" lon="7.31933"><ele>1372.2</ele><time>2025-11-04T13:17:58Z</time></trkpt>
<trkpt lat="46.28007" lon="7.31933"><ele>1372.2</ele><time>2025-11-04T13:17:59Z</time></trkpt>
<trkpt lat="46.28007" lon="7.31933"><ele>1372.2</ele><time>2025-11-04T13:18:06Z</time></trkpt>
<trkpt lat="46.28007" lon="7.31934"><ele>1372.2</ele><time>2025-11-04T13:18:14Z</time></trkpt>
<trkpt lat="46.28006" lon="7.31935"><ele>1372.2</ele><time>2025-11-04T13:18:19Z</time></trkpt>
<trkpt lat="46.28006" lon="7.31935"><ele>1372.2</ele><time>2025-11-04T13:18:24Z</time></trkpt>
<trkpt lat="46.28006" lon="7.31935"><ele>1372.2</ele><time>2025-11-04T13:18:31Z</time></trkpt>
<trkpt lat="46.28006" lon="7.31935"><ele>1372.2</ele><time>2025-11-04T13:18:38Z</time></trkpt>
<trkpt lat="46.28006" lon="7.31935"><ele>1372.2</ele><time>2025-11-04T13:18:44Z</time></trkpt>
<trkpt lat="46.28006" lon="7.31935"><ele>1372.2</ele><time>2025-11-04T13:18:52Z</time></trkpt>
<trkpt lat="46.28006" lon="7.31935"><ele>1372.2</ele><time>2025-11-04T13:18:59Z</time></trkpt>
<trkpt lat="46.28006" lon="7.31935"><ele>1372.2</ele><time>2025-11-04T13:19:01Z</time></trkpt>
<trkpt lat="46.28006" lon="7.31935"><ele>1372.2</ele><time>2025-11-04T13:19:04Z</time></trkpt>
<trkpt lat="46.28006" lon="7.31935"><ele>1372.2</ele><time>2025-11-04T13:19:06Z</time></trkpt>
<trkpt lat="46.28006" lon="7.31935"><ele>1372.2</ele><time>2025-11-04T13:19:09Z</time></trkpt>
<trkpt lat="46.28006" lon="7.31935"><ele>1372.2</ele><time>2025-11-04T13:19:17Z</time></trkpt>
<trkpt lat="46.28006" lon="7.31935"><ele>1372.2</ele><time>2025-11-04T13:19:28Z</time></trkpt>
<trkpt lat="46.28006" lon="7.31935"><ele>1372.2</ele><time>2025-11-04T13:19:36Z</time></trkpt>
<trkpt lat="46.28006" lon="7.31935"><ele>1372.2</ele><time>2025-11-04T13:19:41Z</time></trkpt>
<trkpt lat="46.28006" lon="7.31935"><ele>1372.2</ele><time>2025-11-04T13:19:55Z</time></trkpt>
<trkpt lat="46.28006" lon="7.31935"><ele>1372.2</ele><time>2025-11-04T13:20:11Z</time></trkpt>
<trkpt lat="46.28006" lon="7.31935"><ele>1372.2</ele><time>2025-11-04T13:20:25Z</time></trkpt>
<trkpt lat="46.28006" lon="7.31935"><ele>1372.2</ele><time>2025-11-04T13:20:36Z</time></trkpt>
<trkpt lat="46.28006" lon="7.31935"><ele>1372.2</ele><time>2025-11-04T13:20:40Z</time></trkpt>
<trkpt lat="46.28006" lon="7.31935"><ele>1372.2</ele><time>2025-11-04T13:20:43Z</time></trkpt>
<trkpt lat="46.28006" lon="7.31935"><ele>1372.2</ele><time>2025-11-04T13:20:47Z</time></trkpt>
<trkpt lat="46.28006" lon="7.31934"><ele>1372.2</ele><time>2025-11-04T13:20:56Z</time></trkpt>
<trkpt lat="46.28006" lon="7.31935"><ele>1372.2</ele><time>2025-11-04T13:21:04Z</time></trkpt>
<trkpt lat="46.28006" lon="7.31935"><ele>1372.2</ele><time>2025-11-04T13:21:12Z</time></trkpt>
<trkpt lat="46.28006" lon="7.31935"><ele>1372.2</ele><time>2025-11-04T13:21:18Z</time></trkpt>
<trkpt lat="46.28006" lon="7.31935"><ele>1372.2</ele><time>2025-11-04T13:21:20Z</time></trkpt>
<trkpt lat="46.28006" lon="7.31935"><ele>1372.2</ele><time>2025-11-04T13:21:27Z</time></trkpt>
<trkpt lat="46.28007" lon="7.31934"><ele>1372.2</ele><time>2025-11-04T13:21:35Z</time></trkpt>
<trkpt lat="46.28007" lon="7.31934"><ele>1372.2</ele><time>2025-11-04T13:21:44Z</time></trkpt>
<trkpt lat="46.28007" lon="7.31934"><ele>1372.2</ele><time>2025-11-04T13:21:51Z</time></trkpt>
<trkpt lat="46.28007" lon="7.31934"><ele>1372.2</ele><time>2025-11-04T13:21:54Z</time></trkpt>
<trkpt lat="46.28007" lon="7.31934"><ele>1372.2</ele><time>2025-11-04T13:21:58Z</time></trkpt>
<trkpt lat="46.28007" lon="7.31934"><ele>1372.2</ele><time>2025-11-04T13:22:04Z</time></trkpt>
<trkpt lat="46.28007" lon="7.31934"><ele>1372.2</ele><time>2025-11-04T13:22:06Z</time></trkpt>
<trkpt lat="46.28007" lon="7.31934"><ele>1372.2</ele><time>2025-11-04T13:22:14Z</time></trkpt>
<trkpt lat="46.28007" lon="7.31934"><ele>1372.2</ele><time>2025-11-04T13:22:16Z</time></trkpt>
<trkpt lat="46.28007" lon="7.31934"><ele>1372.2</ele><time>2025-11-04T13:22:18Z</time></trkpt>
<trkpt lat="46.28007" lon="7.31934"><ele>1372.2</ele><time>2025-11-04T13:22:24Z</time></trkpt>
<trkpt lat="46.28007" lon="7.31934"><ele>1372.2</ele><time>2025-11-04T13:22:39Z</time></trkpt>
<trkpt lat="46.28007" lon="7.31935"><ele>1372.2</ele><time>2025-11-04T13:22:48Z</time></trkpt>
<trkpt lat="46.28007" lon="7.31934"><ele>1372.2</ele><time>2025-11-04T13:22:55Z</time></trkpt>
<trkpt lat="46.28007" lon="7.31935"><ele>1372.2</ele><time>2025-11-04T13:23:03Z</time></trkpt>
<trkpt lat="46.28007" lon="7.31934"><ele>1372.2</ele><time>2025-11-04T13:23:10Z</time></trkpt>
<trkpt lat="46.28007" lon="7.31934"><ele>1372.2</ele><time>2025-11-04T13:23:20Z</time></trkpt>
<trkpt lat="46.28007" lon="7.31934"><ele>1372.2</ele><time>2025-11-04T13:23:28Z</time></trkpt>
<trkpt lat="46.28007" lon="7.31934"><ele>1372.2</ele><time>2025-11-04T13:23:36Z</time></trkpt>
<trkpt lat="46.28007" lon="7.31934"><ele>1372.2</ele><time>2025-11-04T13:23:48Z</time></trkpt>
<trkpt lat="46.28007" lon="7.31934"><ele>1372.2</ele><time>2025-11-04T13:23:55Z</time></trkpt>
<trkpt lat="46.28007" lon="7.31934"><ele>1372.2</ele><time>2025-11-04T13:24:02Z</time></trkpt>
<trkpt lat="46.28007" lon="7.31934"><ele>1372.2</ele><time>2025-11-04T13:24:06Z</time></trkpt>
<trkpt lat="46.28007" lon="7.31934"><ele>1372.2</ele><time>2025-11-04T13:24:14Z</time></trkpt>
<trkpt lat="46.28007" lon="7.31934"><ele>1372.2</ele><time>2025-11-04T13:24:16Z</time></trkpt>
<trkpt lat="46.28007" lon="7.31934"><ele>1372.2</ele><time>2025-11-04T13:24:25Z</time></trkpt>
<trkpt lat="46.28007" lon="7.31934"><ele>1372.2</ele><time>2025-11-04T13:24:27Z</time></trkpt>
<trkpt lat="46.28008" lon="7.31934"><ele>1372.2</ele><time>2025-11-04T13:24:34Z</time></trkpt>
<trkpt lat="46.28006" lon="7.31935"><ele>1372.2</ele><time>2025-11-04T13:24:40Z</time></trkpt>
<trkpt lat="46.28006" lon="7.31936"><ele>1372.4</ele><time>2025-11-04T13:24:44Z</time></trkpt>
<trkpt lat="46.28005" lon="7.31936"><ele>1372.6</ele><time>2025-11-04T13:24:51Z</time></trkpt>
<trkpt lat="46.28006" lon="7.31935"><ele>1372.6</ele><time>2025-11-04T13:24:52Z</time></trkpt>
<trkpt lat="46.28007" lon="7.31934"><ele>1372</ele><time>2025-11-04T13:24:57Z</time></trkpt>
<trkpt lat="46.28007" lon="7.31935"><ele>1372.2</ele><time>2025-11-04T13:25:02Z</time></trkpt>
<trkpt lat="46.28008" lon="7.31935"><ele>1371.8</ele><time>2025-11-04T13:25:11Z</time></trkpt>
<trkpt lat="46.28007" lon="7.31935"><ele>1372</ele><time>2025-11-04T13:25:17Z</time></trkpt>
<trkpt lat="46.28007" lon="7.31935"><ele>1372.2</ele><time>2025-11-04T13:25:23Z</time></trkpt>
<trkpt lat="46.28007" lon="7.31935"><ele>1372</ele><time>2025-11-04T13:25:32Z</time></trkpt>
<trkpt lat="46.28007" lon="7.31935"><ele>1371.8</ele><time>2025-11-04T13:25:40Z</time></trkpt>
<trkpt lat="46.28007" lon="7.31935"><ele>1372</ele><time>2025-11-04T13:25:43Z</time></trkpt>
<trkpt lat="46.28007" lon="7.31935"><ele>1371.8</ele><time>2025-11-04T13:25:46Z</time></trkpt>
<trkpt lat="46.28007" lon="7.31935"><ele>1371.8</ele><time>2025-11-04T13:25:54Z</time></trkpt>
<trkpt lat="46.28007" lon="7.31935"><ele>1371.8</ele><time>2025-11-04T13:25:59Z</time></trkpt>
<trkpt lat="46.28007" lon="7.31935"><ele>1371.8</ele><time>2025-11-04T13:26:03Z</time></trkpt>
<trkpt lat="46.28007" lon="7.31934"><ele>1371.8</ele><time>2025-11-04T13:26:10Z</time></trkpt>
<trkpt lat="46.28007" lon="7.31934"><ele>1371.8</ele><time>2025-11-04T13:26:15Z</time></trkpt>
<trkpt lat="46.28007" lon="7.31935"><ele>1371.8</ele><time>2025-11-04T13:26:22Z</time></trkpt>
<trkpt lat="46.28007" lon="7.31935"><ele>1371.6</ele><time>2025-11-04T13:26:29Z</time></trkpt>
<trkpt lat="46.28006" lon="7.31935"><ele>1371.6</ele><time>2025-11-04T13:26:33Z</time></trkpt>
<trkpt lat="46.28006" lon="7.31935"><ele>1371.6</ele><time>2025-11-04T13:26:34Z</time></trkpt>
<trkpt lat="46.28006" lon="7.31935"><ele>1371.6</ele><time>2025-11-04T13:26:40Z</time></trkpt>
<trkpt lat="46.28006" lon="7.31935"><ele>1371.4</ele><time>2025-11-04T13:26:45Z</time></trkpt>
<trkpt lat="46.28007" lon="7.31935"><ele>1371.4</ele><time>2025-11-04T13:26:51Z</time></trkpt>
<trkpt lat="46.28007" lon="7.31934"><ele>1371.4</ele><time>2025-11-04T13:26:55Z</time></trkpt>
<trkpt lat="46.28007" lon="7.31934"><ele>1371.4</ele><time>2025-11-04T13:27:00Z</time></trkpt>
<trkpt lat="46.28007" lon="7.31934"><ele>1371.4</ele><time>2025-11-04T13:27:06Z</time></trkpt>
<trkpt lat="46.28007" lon="7.31934"><ele>1371.4</ele><time>2025-11-04T13:27:08Z</time></trkpt>
<trkpt lat="46.28007" lon="7.31934"><ele>1371.4</ele><time>2025-11-04T13:27:11Z</time></trkpt>
<trkpt lat="46.28007" lon="7.31934"><ele>1371.4</ele><time>2025-11-04T13:27:18Z</time></trkpt>
<trkpt lat="46.28007" lon="7.31934"><ele>1371.4</ele><time>2025-11-04T13:27:29Z</time></trkpt>
<trkpt lat="46.28007" lon="7.31934"><ele>1371.4</ele><time>2025-11-04T13:27:36Z</time></trkpt>
<trkpt lat="46.28007" lon="7.31934"><ele>1371.4</ele><time>2025-11-04T13:27:43Z</time></trkpt>
<trkpt lat="46.28007" lon="7.31934"><ele>1371.4</ele><time>2025-11-04T13:27:50Z</time></trkpt>
<trkpt lat="46.28007" lon="7.31934"><ele>1371.4</ele><time>2025-11-04T13:28:01Z</time></trkpt>
<trkpt lat="46.28007" lon="7.31934"><ele>1371.4</ele><time>2025-11-04T13:28:11Z</time></trkpt>
<trkpt lat="46.28007" lon="7.31934"><ele>1371.4</ele><time>2025-11-04T13:28:12Z</time></trkpt>
<trkpt lat="46.28007" lon="7.31934"><ele>1371.4</ele><time>2025-11-04T13:28:14Z</time></trkpt>
<trkpt lat="46.28007" lon="7.31934"><ele>1371.4</ele><time>2025-11-04T13:28:15Z</time></trkpt>
<trkpt lat="46.28007" lon="7.31934"><ele>1371.4</ele><time>2025-11-04T13:28:20Z</time></trkpt>
<trkpt lat="46.28007" lon="7.31934"><ele>1371.4</ele><time>2025-11-04T13:28:25Z</time></trkpt>
<trkpt lat="46.28007" lon="7.31934"><ele>1371.4</ele><time>2025-11-04T13:28:35Z</time></trkpt>
<trkpt lat="46.28007" lon="7.31934"><ele>1371.4</ele><time>2025-11-04T13:28:42Z</time></trkpt>
<trkpt lat="46.28007" lon="7.31934"><ele>1371.4</ele><time>2025-11-04T13:28:50Z</time></trkpt>
<trkpt lat="46.28007" lon="7.31934"><ele>1371.4</ele><time>2025-11-04T13:28:57Z</time></trkpt>
<trkpt lat="46.28007" lon="7.31934"><ele>1371.4</ele><time>2025-11-04T13:28:59Z</time></trkpt>
<trkpt lat="46.28007" lon="7.31934"><ele>1371.4</ele><time>2025-11-04T13:29:01Z</time></trkpt>
<trkpt lat="46.28007" lon="7.31934"><ele>1371.4</ele><time>2025-11-04T13:29:11Z</time></trkpt>
<trkpt lat="46.28007" lon="7.31934"><ele>1371.4</ele><time>2025-11-04T13:29:21Z</time></trkpt>
<trkpt lat="46.28007" lon="7.31934"><ele>1371.4</ele><time>2025-11-04T13:29:29Z</time></trkpt>
<trkpt lat="46.28007" lon="7.31934"><ele>1371.4</ele><time>2025-11-04T13:29:30Z</time></trkpt>
<trkpt lat="46.28007" lon="7.31934"><ele>1371.4</ele><time>2025-11-04T13:29:41Z</time></trkpt>
<trkpt lat="46.28007" lon="7.31934"><ele>1371.4</ele><time>2025-11-04T13:29:47Z</time></trkpt>
<trkpt lat="46.28007" lon="7.31935"><ele>1371.4</ele><time>2025-11-04T13:29:52Z</time></trkpt>
<trkpt lat="46.28007" lon="7.31934"><ele>1371.4</ele><time>2025-11-04T13:29:58Z</time></trkpt>
<trkpt lat="46.28007" lon="7.31934"><ele>1371.4</ele><time>2025-11-04T13:30:01Z</time></trkpt>
<trkpt lat="46.28007" lon="7.31934"><ele>1371.4</ele><time>2025-11-04T13:30:05Z</time></trkpt>
<trkpt lat="46.28007" lon="7.31934"><ele>1371.4</ele><time>2025-11-04T13:30:08Z</time></trkpt>
<trkpt lat="46.28007" lon="7.31934"><ele>1371.4</ele><time>2025-11-04T13:30:18Z</time></trkpt>
<trkpt lat="46.28007" lon="7.31934"><ele>1371.4</ele><time>2025-11-04T13:30:24Z</time></trkpt>
<trkpt lat="46.28007" lon="7.31934"><ele>1371.4</ele><time>2025-11-04T13:30:27Z</time></trkpt>
<trkpt lat="46.28007" lon="7.31934"><ele>1371.4</ele><time>2025-11-04T13:30:34Z</time></trkpt>
<trkpt lat="46.28007" lon="7.31934"><ele>1371.4</ele><time>2025-11-04T13:30:49Z</time></trkpt>
<trkpt lat="46.28007" lon="7.31934"><ele>1371.4</ele><time>2025-11-04T13:31:04Z</time></trkpt>
<trkpt lat="46.28007" lon="7.31934"><ele>1371.4</ele><time>2025-11-04T13:31:14Z</time></trkpt>
<trkpt lat="46.28007" lon="7.31934"><ele>1371.4</ele><time>2025-11-04T13:31:22Z</time></trkpt>
<trkpt lat="46.28007" lon="7.31934"><ele>1371.4</ele><time>2025-11-04T13:31:27Z</time></trkpt>
<trkpt lat="46.28007" lon="7.31934"><ele>1371.4</ele><time>2025-11-04T13:31:30Z</time></trkpt>
<trkpt lat="46.28007" lon="7.31934"><ele>1371.4</ele><time>2025-11-04T13:31:38Z</time></trkpt>
<trkpt lat="46.28007" lon="7.31934"><ele>1371.4</ele><time>2025-11-04T13:31:47Z</time></trkpt>
<trkpt lat="46.28007" lon="7.31934"><ele>1371.4</ele><time>2025-11-04T13:31:50Z</time></trkpt>
<trkpt lat="46.28007" lon="7.31934"><ele>1371.4</ele><time>2025-11-04T13:31:56Z</time></trkpt>
<trkpt lat="46.28007" lon="7.31934"><ele>1371.4</ele><time>2025-11-04T13:32:00Z</time></trkpt>
<trkpt lat="46.28007" lon="7.31934"><ele>1371.4</ele><time>2025-11-04T13:32:05Z</time></trkpt>
<trkpt lat="46.28008" lon="7.31933"><ele>1371.4</ele><time>2025-11-04T13:32:14Z</time></trkpt>
<trkpt lat="46.28009" lon="7.31933"><ele>1371.4</ele><time>2025-11-04T13:32:22Z</time></trkpt>
<trkpt lat="46.28008" lon="7.31933"><ele>1371.4</ele><time>2025-11-04T13:32:29Z</time></trkpt>
<trkpt lat="46.28008" lon="7.31932"><ele>1371.4</ele><time>2025-11-04T13:32:36Z</time></trkpt>
<trkpt lat="46.28007" lon="7.31932"><ele>1371.4</ele><time>2025-11-04T13:32:45Z</time></trkpt>
<trkpt lat="46.28006" lon="7.31932"><ele>1371.4</ele><time>2025-11-04T13:32:55Z</time></trkpt>
<trkpt lat="46.28006" lon="7.31933"><ele>1371.4</ele><time>2025-11-04T13:33:03Z</time></trkpt>
<trkpt lat="46.28006" lon="7.31934"><ele>1371.4</ele><time>2025-11-04T13:33:10Z</time></trkpt>
<trkpt lat="46.28006" lon="7.31934"><ele>1371.4</ele><time>2025-11-04T13:33:11Z</time></trkpt>
<trkpt lat="46.28007" lon="7.31935"><ele>1371.4</ele><time>2025-11-04T13:33:19Z</time></trkpt>
<trkpt lat="46.28007" lon="7.31935"><ele>1371.4</ele><time>2025-11-04T13:33:23Z</time></trkpt>
<trkpt lat="46.28007" lon="7.31935"><ele>1371.4</ele><time>2025-11-04T13:33:28Z</time></trkpt>
<trkpt lat="46.28007" lon="7.31934"><ele>1371.4</ele><time>2025-11-04T13:33:36Z</time></trkpt>
<trkpt lat="46.28007" lon="7.31932"><ele>1371.4</ele><time>2025-11-04T13:33:44Z</time></trkpt>
<trkpt lat="46.28007" lon="7.31932"><ele>1371.4</ele><time>2025-11-04T13:33:50Z</time></trkpt>
<trkpt lat="46.28007" lon="7.31933"><ele>1371.4</ele><time>2025-11-04T13:33:52Z</time></trkpt>
<trkpt lat="46.28007" lon="7.31933"><ele>1371.4</ele><time>2025-11-04T13:33:58Z</time></trkpt>
<trkpt lat="46.28008" lon="7.31933"><ele>1371.4</ele><time>2025-11-04T13:34:00Z</time></trkpt>
<trkpt lat="46.28007" lon="7.31933"><ele>1371.4</ele><time>2025-11-04T13:34:08Z</time></trkpt>
<trkpt lat="46.28007" lon="7.31934"><ele>1371.4</ele><time>2025-11-04T13:34:14Z</time></trkpt>
<trkpt lat="46.28007" lon="7.31935"><ele>1371.4</ele><time>2025-11-04T13:34:23Z</time></trkpt>
<trkpt lat="46.28007" lon="7.31936"><ele>1371.4</ele><time>2025-11-04T13:34:32Z</time></trkpt>
<trkpt lat="46.28008" lon="7.31935"><ele>1371.4</ele><time>2025-11-04T13:34:40Z</time></trkpt>
<trkpt lat="46.28007" lon="7.31934"><ele>1371.4</ele><time>2025-11-04T13:34:47Z</time></trkpt>
<trkpt lat="46.28007" lon="7.31934"><ele>1371.4</ele><time>2025-11-04T13:34:55Z</time></trkpt>
<trkpt lat="46.28007" lon="7.31934"><ele>1371.4</ele><time>2025-11-04T13:35:04Z</time></trkpt>
<trkpt lat="46.28006" lon="7.31935"><ele>1371.4</ele><time>2025-11-04T13:35:09Z</time></trkpt>
<trkpt lat="46.28007" lon="7.31934"><ele>1371.4</ele><time>2025-11-04T13:35:14Z</time></trkpt>
<trkpt lat="46.28007" lon="7.31935"><ele>1371.4</ele><time>2025-11-04T13:35:23Z</time></trkpt>
<trkpt lat="46.28007" lon="7.31934"><ele>1371.4</ele><time>2025-11-04T13:35:28Z</time></trkpt>
<trkpt lat="46.28006" lon="7.31933"><ele>1371.4</ele><time>2025-11-04T13:35:36Z</time></trkpt>
<trkpt lat="46.28006" lon="7.31933"><ele>1371.4</ele><time>2025-11-04T13:35:38Z</time></trkpt>
<trkpt lat="46.28006" lon="7.31933"><ele>1371.4</ele><time>2025-11-04T13:35:41Z</time></trkpt>
<trkpt lat="46.28007" lon="7.31934"><ele>1371.4</ele><time>2025-11-04T13:35:43Z</time></trkpt>
<trkpt lat="46.28007" lon="7.31934"><ele>1371.4</ele><time>2025-11-04T13:35:51Z</time></trkpt>
<trkpt lat="46.28007" lon="7.31933"><ele>1371.4</ele><time>2025-11-04T13:35:58Z</time></trkpt>
<trkpt lat="46.28007" lon="7.31934"><ele>1371.4</ele><time>2025-11-04T13:36:02Z</time></trkpt>
<trkpt lat="46.28007" lon="7.31934"><ele>1371.4</ele><time>2025-11-04T13:36:03Z</time></trkpt>
<trkpt lat="46.28007" lon="7.31934"><ele>1371.4</ele><time>2025-11-04T13:36:08Z</time></trkpt>
<trkpt lat="46.28007" lon="7.31934"><ele>1371.4</ele><time>2025-11-04T13:36:09Z</time></trkpt>
<trkpt lat="46.28007" lon="7.31934"><ele>1371.4</ele><time>2025-11-04T13:36:18Z</time></trkpt>
<trkpt lat="46.28007" lon="7.31934"><ele>1371.4</ele><time>2025-11-04T13:36:26Z</time></trkpt>
<trkpt lat="46.28007" lon="7.31934"><ele>1371.4</ele><time>2025-11-04T13:36:32Z</time></trkpt>
<trkpt lat="46.28007" lon="7.31934"><ele>1371.4</ele><time>2025-11-04T13:36:39Z</time></trkpt>
<trkpt lat="46.28007" lon="7.31934"><ele>1371.4</ele><time>2025-11-04T13:36:50Z</time></trkpt>
<trkpt lat="46.28007" lon="7.31934"><ele>1371.4</ele><time>2025-11-04T13:37:00Z</time></trkpt>
<trkpt lat="46.28007" lon="7.31934"><ele>1371.4</ele><time>2025-11-04T13:37:10Z</time></trkpt>
<trkpt lat="46.28007" lon="7.31934"><ele>1371.4</ele><time>2025-11-04T13:37:17Z</time></trkpt>
<trkpt lat="46.28007" lon="7.31934"><ele>1371.4</ele><time>2025-11-04T13:37:24Z</time></trkpt>
<trkpt lat="46.28007" lon="7.31934"><ele>1371.4</ele><time>2025-11-04T13:37:27Z</time></trkpt>
<trkpt lat="46.28007" lon="7.31934"><ele>1371.4</ele><time>2025-11-04T13:37:30Z</time></trkpt>
<trkpt lat="46.28007" lon="7.31934"><ele>1371.4</ele><time>2025-11-04T13:37:35Z</time></trkpt>
<trkpt lat="46.28007" lon="7.31934"><ele>1371.4</ele><time>2025-11-04T13:37:37Z</time></trkpt>
<trkpt lat="46.28007" lon="7.31934"><ele>1371.4</ele><time>2025-11-04T13:37:46Z</time></trkpt>
<trkpt lat="46.28007" lon="7.31934"><ele>1371.4</ele><time>2025-11-04T13:37:54Z</time></trkpt>
<trkpt lat="46.28007" lon="7.31934"><ele>1371.4</ele><time>2025-11-04T13:37:56Z</time></trkpt>
<trkpt lat="46.28007" lon="7.31934"><ele>1371.4</ele><time>2025-11-04T13:37:58Z</time></trkpt>
<trkpt lat="46.28008" lon="7.31933"><ele>1371.4</ele><time>2025-11-04T13:38:03Z</time></trkpt>
<trkpt lat="46.28008" lon="7.31933"><ele>1371.4</ele><time>2025-11-04T13:38:08Z</time></trkpt>
<trkpt lat="46.28008" lon="7.31933"><ele>1371.4</ele><time>2025-11-04T13:38:11Z</time></trkpt>
<trkpt lat="46.28008" lon="7.31933"><ele>1371.4</ele><time>2025-11-04T13:38:17Z</time></trkpt>
<trkpt lat="46.28008" lon="7.31933"><ele>1371.4</ele><time>2025-11-04T13:38:25Z</time></trkpt>
<trkpt lat="46.28007" lon="7.31933"><ele>1371.4</ele><time>2025-11-04T13:38:28Z</time></trkpt>
<trkpt lat="46.28008" lon="7.31933"><ele>1371.4</ele><time>2025-11-04T13:38:36Z</time></trkpt>
<trkpt lat="46.28008" lon="7.31933"><ele>1371.4</ele><time>2025-11-04T13:38:42Z</time></trkpt>
<trkpt lat="46.28008" lon="7.31933"><ele>1371.4</ele><time>2025-11-04T13:38:43Z</time></trkpt>
<trkpt lat="46.28008" lon="7.31933"><ele>1371.4</ele><time>2025-11-04T13:38:44Z</time></trkpt>
<trkpt lat="46.28008" lon="7.31933"><ele>1371.4</ele><time>2025-11-04T13:38:49Z</time></trkpt>
<trkpt lat="46.28008" lon="7.31933"><ele>1371.4</ele><time>2025-11-04T13:38:53Z</time></trkpt>
<trkpt lat="46.28008" lon="7.31933"><ele>1371.4</ele><time>2025-11-04T13:38:56Z</time></trkpt>
<trkpt lat="46.28008" lon="7.31933"><ele>1371.4</ele><time>2025-11-04T13:39:04Z</time></trkpt>
<trkpt lat="46.28008" lon="7.31933"><ele>1371.4</ele><time>2025-11-04T13:39:13Z</time></trkpt>
<trkpt lat="46.28008" lon="7.31933"><ele>1371.4</ele><time>2025-11-04T13:39:17Z</time></trkpt>
<trkpt lat="46.28008" lon="7.31933"><ele>1371.4</ele><time>2025-11-04T13:39:22Z</time></trkpt>
<trkpt lat="46.28008" lon="7.31933"><ele>1371.4</ele><time>2025-11-04T13:39:25Z</time></trkpt>
<trkpt lat="46.28008" lon="7.31933"><ele>1371.4</ele><time>2025-11-04T13:39:28Z</time></trkpt>
<trkpt lat="46.28007" lon="7.31933"><ele>1371.4</ele><time>2025-11-04T13:39:37Z</time></trkpt>
<trkpt lat="46.28006" lon="7.31934"><ele>1371.4</ele><time>2025-11-04T13:39:42Z</time></trkpt>
<trkpt lat="46.28006" lon="7.31934"><ele>1371.4</ele><time>2025-11-04T13:39:45Z</time></trkpt>
<trkpt lat="46.28007" lon="7.31934"><ele>1371.4</ele><time>2025-11-04T13:39:47Z</time></trkpt>
<trkpt lat="46.28006" lon="7.31934"><ele>1371.4</ele><time>2025-11-04T13:39:49Z</time></trkpt>
<trkpt lat="46.28006" lon="7.31934"><ele>1371.4</ele><time>2025-11-04T13:39:57Z</time></trkpt>
<trkpt lat="46.28006" lon="7.31934"><ele>1371.4</ele><time>2025-11-04T13:40:04Z</time></trkpt>
<trkpt lat="46.28006" lon="7.31934"><ele>1371.4</ele><time>2025-11-04T13:40:06Z</time></trkpt>
<trkpt lat="46.28006" lon="7.31934"><ele>1371.4</ele><time>2025-11-04T13:40:10Z</time></trkpt>
<trkpt lat="46.28006" lon="7.31934"><ele>1371.4</ele><time>2025-11-04T13:40:12Z</time></trkpt>
<trkpt lat="46.28006" lon="7.31934"><ele>1371.4</ele><time>2025-11-04T13:40:21Z</time></trkpt>
<trkpt lat="46.28006" lon="7.31934"><ele>1371.4</ele><time>2025-11-04T13:40:33Z</time></trkpt>
<trkpt lat="46.28006" lon="7.31934"><ele>1371.4</ele><time>2025-11-04T13:40:46Z</time></trkpt>
<trkpt lat="46.28006" lon="7.31934"><ele>1371.4</ele><time>2025-11-04T13:40:55Z</time></trkpt>
<trkpt lat="46.28006" lon="7.31934"><ele>1371.4</ele><time>2025-11-04T13:41:02Z</time></trkpt>
<trkpt lat="46.28006" lon="7.31934"><ele>1371.4</ele><time>2025-11-04T13:41:09Z</time></trkpt>
<trkpt lat="46.28006" lon="7.31934"><ele>1371.4</ele><time>2025-11-04T13:41:20Z</time></trkpt>
<trkpt lat="46.28006" lon="7.31934"><ele>1371.4</ele><time>2025-11-04T13:41:30Z</time></trkpt>
<trkpt lat="46.28006" lon="7.31934"><ele>1371.4</ele><time>2025-11-04T13:41:37Z</time></trkpt>
<trkpt lat="46.28006" lon="7.31934"><ele>1371.4</ele><time>2025-11-04T13:41:42Z</time></trkpt>
<trkpt lat="46.28006" lon="7.31934"><ele>1371.4</ele><time>2025-11-04T13:41:46Z</time></trkpt>
<trkpt lat="46.28006" lon="7.31933"><ele>1371.4</ele><time>2025-11-04T13:41:48Z</time></trkpt>
<trkpt lat="46.28006" lon="7.31934"><ele>1371.4</ele><time>2025-11-04T13:41:56Z</time></trkpt>
<trkpt lat="46.28006" lon="7.31934"><ele>1371.4</ele><time>2025-11-04T13:41:57Z</time></trkpt>
<trkpt lat="46.28006" lon="7.31934"><ele>1371.4</ele><time>2025-11-04T13:41:58Z</time></trkpt>
<trkpt lat="46.28005" lon="7.31933"><ele>1371.4</ele><time>2025-11-04T13:42:04Z</time></trkpt>
<trkpt lat="46.28005" lon="7.31934"><ele>1371.4</ele><time>2025-11-04T13:42:06Z</time></trkpt>
<trkpt lat="46.28005" lon="7.31934"><ele>1371.4</ele><time>2025-11-04T13:42:11Z</time></trkpt>
<trkpt lat="46.28005" lon="7.31934"><ele>1371.4</ele><time>2025-11-04T13:42:20Z</time></trkpt>
<trkpt lat="46.28005" lon="7.31934"><ele>1371.4</ele><time>2025-11-04T13:42:24Z</time></trkpt>
<trkpt lat="46.28005" lon="7.31934"><ele>1371.4</ele><time>2025-11-04T13:42:30Z</time></trkpt>
<trkpt lat="46.28005" lon="7.31934"><ele>1371.4</ele><time>2025-11-04T13:42:39Z</time></trkpt>
<trkpt lat="46.28005" lon="7.31934"><ele>1371.4</ele><time>2025-11-04T13:42:41Z</time></trkpt>
<trkpt lat="46.28007" lon="7.31934"><ele>1371.4</ele><time>2025-11-04T13:42:51Z</time></trkpt>
<trkpt lat="46.28007" lon="7.31934"><ele>1371.4</ele><time>2025-11-04T13:42:53Z</time></trkpt>
<trkpt lat="46.28007" lon="7.31934"><ele>1371.4</ele><time>2025-11-04T13:42:56Z</time></trkpt>
<trkpt lat="46.28007" lon="7.31934"><ele>1371.4</ele><time>2025-11-04T13:43:02Z</time></trkpt>
<trkpt lat="46.28007" lon="7.31934"><ele>1371.4</ele><time>2025-11-04T13:43:04Z</time></trkpt>
<trkpt lat="46.28007" lon="7.31934"><ele>1371.4</ele><time>2025-11-04T13:43:16Z</time></trkpt>
<trkpt lat="46.28007" lon="7.31934"><ele>1371.4</ele><time>2025-11-04T13:43:27Z</time></trkpt>
<trkpt lat="46.28007" lon="7.31934"><ele>1371.4</ele><time>2025-11-04T13:43:38Z</time></trkpt>
<trkpt lat="46.28007" lon="7.31934"><ele>1371.4</ele><time>2025-11-04T13:43:42Z</time></trkpt>
<trkpt lat="46.28007" lon="7.31934"><ele>1371.4</ele><time>2025-11-04T13:43:54Z</time></trkpt>
<trkpt lat="46.28007" lon="7.31934"><ele>1371.4</ele><time>2025-11-04T13:44:03Z</time></trkpt>
<trkpt lat="46.28007" lon="7.31934"><ele>1371.4</ele><time>2025-11-04T13:44:05Z</time></trkpt>
<trkpt lat="46.28007" lon="7.31934"><ele>1371.4</ele><time>2025-11-04T13:44:09Z</time></trkpt>
<trkpt lat="46.28007" lon="7.31934"><ele>1371.4</ele><time>2025-11-04T13:44:14Z</time></trkpt>
<trkpt lat="46.28007" lon="7.31934"><ele>1371.4</ele><time>2025-11-04T13:44:19Z</time></trkpt>
<trkpt lat="46.28007" lon="7.31934"><ele>1371.4</ele><time>2025-11-04T13:44:26Z</time></trkpt>
<trkpt lat="46.28007" lon="7.31934"><ele>1371.4</ele><time>2025-11-04T13:44:32Z</time></trkpt>
<trkpt lat="46.28007" lon="7.31932"><ele>1371.4</ele><time>2025-11-04T13:44:36Z</time></trkpt>
<trkpt lat="46.28007" lon="7.31932"><ele>1371.4</ele><time>2025-11-04T13:44:38Z</time></trkpt>
<trkpt lat="46.28007" lon="7.31934"><ele>1371.4</ele><time>2025-11-04T13:44:46Z</time></trkpt>
<trkpt lat="46.28008" lon="7.31933"><ele>1371.4</ele><time>2025-11-04T13:44:47Z</time></trkpt>
<trkpt lat="46.28007" lon="7.31933"><ele>1371.4</ele><time>2025-11-04T13:44:51Z</time></trkpt>
<trkpt lat="46.28008" lon="7.31934"><ele>1371.4</ele><time>2025-11-04T13:44:58Z</time></trkpt>
<trkpt lat="46.28007" lon="7.31934"><ele>1371.4</ele><time>2025-11-04T13:45:03Z</time></trkpt>
<trkpt lat="46.28007" lon="7.31934"><ele>1371.4</ele><time>2025-11-04T13:45:12Z</time></trkpt>
<trkpt lat="46.28007" lon="7.31934"><ele>1371.4</ele><time>2025-11-04T13:45:15Z</time></trkpt>
<trkpt lat="46.28008" lon="7.31935"><ele>1371.4</ele><time>2025-11-04T13:45:17Z</time></trkpt>
<trkpt lat="46.28008" lon="7.31934"><ele>1371.4</ele><time>2025-11-04T13:45:18Z</time></trkpt>
<trkpt lat="46.2801" lon="7.31934"><ele>1371</ele><time>2025-11-04T13:45:20Z</time></trkpt>
<trkpt lat="46.28014" lon="7.31936"><ele>1371.6</ele><time>2025-11-04T13:45:24Z</time></trkpt>
<trkpt lat="46.28012" lon="7.31934"><ele>1372</ele><time>2025-11-04T13:45:29Z</time></trkpt>
<trkpt lat="46.2801" lon="7.31934"><ele>1371.6</ele><time>2025-11-04T13:45:34Z</time></trkpt>
<trkpt lat="46.2801" lon="7.31934"><ele>1371.8</ele><time>2025-11-04T13:45:36Z</time></trkpt>
<trkpt lat="46.28008" lon="7.31935"><ele>1371.8</ele><time>2025-11-04T13:45:40Z</time></trkpt>
<trkpt lat="46.28008" lon="7.31935"><ele>1371.6</ele><time>2025-11-04T13:45:42Z</time></trkpt>
<trkpt lat="46.28006" lon="7.31935"><ele>1371.2</ele><time>2025-11-04T13:45:47Z</time></trkpt>
<trkpt lat="46.28007" lon="7.31935"><ele>1371</ele><time>2025-11-04T13:45:52Z</time></trkpt>
<trkpt lat="46.28007" lon="7.31935"><ele>1370.8</ele><time>2025-11-04T13:46:01Z</time></trkpt>
<trkpt lat="46.28007" lon="7.31935"><ele>1370.8</ele><time>2025-11-04T13:46:02Z</time></trkpt>
<trkpt lat="46.28007" lon="7.31935"><ele>1370.8</ele><time>2025-11-04T13:46:03Z</time></trkpt>
<trkpt lat="46.28007" lon="7.31935"><ele>1371</ele><time>2025-11-04T13:46:12Z</time></trkpt>
<trkpt lat="46.28007" lon="7.31935"><ele>1370.8</ele><time>2025-11-04T13:46:19Z</time></trkpt>
<trkpt lat="46.28007" lon="7.31935"><ele>1371.2</ele><time>2025-11-04T13:46:31Z</time></trkpt>
<trkpt lat="46.28007" lon="7.31935"><ele>1371.2</ele><time>2025-11-04T13:46:32Z</time></trkpt>
<trkpt lat="46.28007" lon="7.31935"><ele>1371</ele><time>2025-11-04T13:46:36Z</time></trkpt>
<trkpt lat="46.28007" lon="7.31935"><ele>1371</ele><time>2025-11-04T13:46:38Z</time></trkpt>
<trkpt lat="46.28007" lon="7.31935"><ele>1371.2</ele><time>2025-11-04T13:46:44Z</time></trkpt>
<trkpt lat="46.28007" lon="7.31935"><ele>1371.2</ele><time>2025-11-04T13:46:57Z</time></trkpt>
<trkpt lat="46.28007" lon="7.31935"><ele>1371</ele><time>2025-11-04T13:47:02Z</time></trkpt>
<trkpt lat="46.28007" lon="7.31935"><ele>1371</ele><time>2025-11-04T13:47:05Z</time></trkpt>
<trkpt lat="46.28007" lon="7.31935"><ele>1371</ele><time>2025-11-04T13:47:15Z</time></trkpt>
<trkpt lat="46.28007" lon="7.31935"><ele>1371</ele><time>2025-11-04T13:47:26Z</time></trkpt>
<trkpt lat="46.28007" lon="7.31935"><ele>1371</ele><time>2025-11-04T13:47:29Z</time></trkpt>
<trkpt lat="46.28007" lon="7.31935"><ele>1371.2</ele><time>2025-11-04T13:47:42Z</time></trkpt>
<trkpt lat="46.28007" lon="7.31935"><ele>1371.2</ele><time>2025-11-04T13:47:52Z</time></trkpt>
<trkpt lat="46.28007" lon="7.31935"><ele>1371.2</ele><time>2025-11-04T13:47:57Z</time></trkpt>
<trkpt lat="46.28007" lon="7.31935"><ele>1371.2</ele><time>2025-11-04T13:48:06Z</time></trkpt>
<trkpt lat="46.28007" lon="7.31935"><ele>1371.2</ele><time>2025-11-04T13:48:08Z</time></trkpt>
<trkpt lat="46.28008" lon="7.31934"><ele>1371.2</ele><time>2025-11-04T13:48:14Z</time></trkpt>
<trkpt lat="46.28008" lon="7.31936"><ele>1371.2</ele><time>2025-11-04T13:48:16Z</time></trkpt>
<trkpt lat="46.28007" lon="7.31935"><ele>1371.2</ele><time>2025-11-04T13:48:18Z</time></trkpt>
<trkpt lat="46.28007" lon="7.31935"><ele>1371.2</ele><time>2025-11-04T13:48:20Z</time></trkpt>
<trkpt lat="46.28007" lon="7.31935"><ele>1371.2</ele><time>2025-11-04T13:48:25Z</time></trkpt>
<trkpt lat="46.28007" lon="7.31936"><ele>1371.2</ele><time>2025-11-04T13:48:28Z</time></trkpt>
<trkpt lat="46.28007" lon="7.31935"><ele>1371.2</ele><time>2025-11-04T13:48:30Z</time></trkpt>
<trkpt lat="46.28007" lon="7.31935"><ele>1371.2</ele><time>2025-11-04T13:48:31Z</time></trkpt>
<trkpt lat="46.28007" lon="7.31935"><ele>1371.2</ele><time>2025-11-04T13:48:41Z</time></trkpt>
<trkpt lat="46.28007" lon="7.31935"><ele>1371.2</ele><time>2025-11-04T13:48:44Z</time></trkpt>
<trkpt lat="46.28007" lon="7.31935"><ele>1371.2</ele><time>2025-11-04T13:48:46Z</time></trkpt>
<trkpt lat="46.28007" lon="7.31935"><ele>1371.2</ele><time>2025-11-04T13:48:50Z</time></trkpt>
<trkpt lat="46.28007" lon="7.31935"><ele>1371.2</ele><time>2025-11-04T13:48:53Z</time></trkpt>
<trkpt lat="46.28007" lon="7.31935"><ele>1371.2</ele><time>2025-11-04T13:48:54Z</time></trkpt>
<trkpt lat="46.28007" lon="7.31933"><ele>1371.2</ele><time>2025-11-04T13:49:03Z</time></trkpt>
<trkpt lat="46.28007" lon="7.31933"><ele>1371.2</ele><time>2025-11-04T13:49:08Z</time></trkpt>
<trkpt lat="46.28006" lon="7.31934"><ele>1371.2</ele><time>2025-11-04T13:49:16Z</time></trkpt>
<trkpt lat="46.28007" lon="7.31934"><ele>1371.2</ele><time>2025-11-04T13:49:23Z</time></trkpt>
<trkpt lat="46.28007" lon="7.31937"><ele>1371.2</ele><time>2025-11-04T13:49:29Z</time></trkpt>
<trkpt lat="46.28007" lon="7.31937"><ele>1371.2</ele><time>2025-11-04T13:49:34Z</time></trkpt>
<trkpt lat="46.28007" lon="7.31937"><ele>1371.2</ele><time>2025-11-04T13:49:36Z</time></trkpt>
<trkpt lat="46.28007" lon="7.31935"><ele>1371.2</ele><time>2025-11-04T13:49:40Z</time></trkpt>
<trkpt lat="46.28007" lon="7.31935"><ele>1371.2</ele><time>2025-11-04T13:49:47Z</time></trkpt>
<trkpt lat="46.28007" lon="7.31934"><ele>1371.2</ele><time>2025-11-04T13:49:54Z</time></trkpt>
<trkpt lat="46.28007" lon="7.31934"><ele>1371.2</ele><time>2025-11-04T13:49:57Z</time></trkpt>
<trkpt lat="46.28007" lon="7.31935"><ele>1371.2</ele><time>2025-11-04T13:49:59Z</time></trkpt>
<trkpt lat="46.28007" lon="7.31935"><ele>1371.2</ele><time>2025-11-04T13:50:01Z</time></trkpt>
<trkpt lat="46.28007" lon="7.31935"><ele>1371.2</ele><time>2025-11-04T13:50:03Z</time></trkpt>
<trkpt lat="46.28007" lon="7.31935"><ele>1371.2</ele><time>2025-11-04T13:50:04Z</time></trkpt>
<trkpt lat="46.28007" lon="7.31935"><ele>1371.2</ele><time>2025-11-04T13:50:19Z</time></trkpt>
<trkpt lat="46.28007" lon="7.31935"><ele>1371.2</ele><time>2025-11-04T13:50:21Z</time></trkpt>
<trkpt lat="46.28007" lon="7.31935"><ele>1371.2</ele><time>2025-11-04T13:50:33Z</time></trkpt>
<trkpt lat="46.28007" lon="7.31935"><ele>1371.2</ele><time>2025-11-04T13:50:40Z</time></trkpt>
<trkpt lat="46.28007" lon="7.31935"><ele>1371.2</ele><time>2025-11-04T13:50:45Z</time></trkpt>
<trkpt lat="46.28007" lon="7.31935"><ele>1371.2</ele><time>2025-11-04T13:50:46Z</time></trkpt>
<trkpt lat="46.28007" lon="7.31935"><ele>1371.2</ele><time>2025-11-04T13:50:47Z</time></trkpt>
<trkpt lat="46.28007" lon="7.31935"><ele>1371.2</ele><time>2025-11-04T13:50:48Z</time></trkpt>
<trkpt lat="46.28007" lon="7.31935"><ele>1371.2</ele><time>2025-11-04T13:50:50Z</time></trkpt>
<trkpt lat="46.28007" lon="7.31935"><ele>1371.2</ele><time>2025-11-04T13:50:57Z</time></trkpt>
<trkpt lat="46.28007" lon="7.31935"><ele>1371.2</ele><time>2025-11-04T13:51:06Z</time></trkpt>
<trkpt lat="46.28007" lon="7.31935"><ele>1371.2</ele><time>2025-11-04T13:51:13Z</time></trkpt>
<trkpt lat="46.28007" lon="7.31935"><ele>1371.2</ele><time>2025-11-04T13:51:28Z</time></trkpt>
<trkpt lat="46.28006" lon="7.31933"><ele>1371.2</ele><time>2025-11-04T13:51:35Z</time></trkpt>
<trkpt lat="46.28006" lon="7.31933"><ele>1371.2</ele><time>2025-11-04T13:51:42Z</time></trkpt>
<trkpt lat="46.28006" lon="7.31933"><ele>1371.2</ele><time>2025-11-04T13:51:48Z</time></trkpt>
<trkpt lat="46.28006" lon="7.31933"><ele>1371.2</ele><time>2025-11-04T13:51:58Z</time></trkpt>
<trkpt lat="46.28006" lon="7.31933"><ele>1371.2</ele><time>2025-11-04T13:52:08Z</time></trkpt>
<trkpt lat="46.28006" lon="7.31934"><ele>1371.2</ele><time>2025-11-04T13:52:16Z</time></trkpt>
<trkpt lat="46.28006" lon="7.31933"><ele>1371.2</ele><time>2025-11-04T13:52:18Z</time></trkpt>
<trkpt lat="46.28006" lon="7.31933"><ele>1371.2</ele><time>2025-11-04T13:52:24Z</time></trkpt>
<trkpt lat="46.28006" lon="7.31933"><ele>1371.2</ele><time>2025-11-04T13:52:33Z</time></trkpt>
<trkpt lat="46.28006" lon="7.31933"><ele>1371.2</ele><time>2025-11-04T13:52:40Z</time></trkpt>
<trkpt lat="46.28006" lon="7.31933"><ele>1371.2</ele><time>2025-11-04T13:52:54Z</time></trkpt>
<trkpt lat="46.28006" lon="7.31933"><ele>1371.2</ele><time>2025-11-04T13:52:58Z</time></trkpt>
<trkpt lat="46.28006" lon="7.31933"><ele>1371.2</ele><time>2025-11-04T13:53:05Z</time></trkpt>
<trkpt lat="46.28006" lon="7.31933"><ele>1371.2</ele><time>2025-11-04T13:53:07Z</time></trkpt>
<trkpt lat="46.28006" lon="7.31933"><ele>1371.2</ele><time>2025-11-04T13:53:13Z</time></trkpt>
<trkpt lat="46.28007" lon="7.31934"><ele>1371.2</ele><time>2025-11-04T13:53:17Z</time></trkpt>
<trkpt lat="46.28007" lon="7.31936"><ele>1371.2</ele><time>2025-11-04T13:53:23Z</time></trkpt>
<trkpt lat="46.28007" lon="7.31936"><ele>1371.2</ele><time>2025-11-04T13:53:24Z</time></trkpt>
<trkpt lat="46.28007" lon="7.31936"><ele>1371.2</ele><time>2025-11-04T13:53:26Z</time></trkpt>
<trkpt lat="46.28007" lon="7.31936"><ele>1371.2</ele><time>2025-11-04T13:53:32Z</time></trkpt>
<trkpt lat="46.28007" lon="7.31936"><ele>1371.2</ele><time>2025-11-04T13:53:34Z</time></trkpt>
<trkpt lat="46.28007" lon="7.31934"><ele>1371.2</ele><time>2025-11-04T13:53:40Z</time></trkpt>
<trkpt lat="46.28007" lon="7.31934"><ele>1371.2</ele><time>2025-11-04T13:53:46Z</time></trkpt>
<trkpt lat="46.28008" lon="7.31931"><ele>1371.4</ele><time>2025-11-04T13:53:55Z</time></trkpt>
<trkpt lat="46.28013" lon="7.31926"><ele>1371.8</ele><time>2025-11-04T13:54:02Z</time></trkpt>
<trkpt lat="46.28014" lon="7.31926"><ele>1372.2</ele><time>2025-11-04T13:54:04Z</time></trkpt>
<trkpt lat="46.28014" lon="7.31926"><ele>1372.4</ele><time>2025-11-04T13:54:09Z</time></trkpt>
<trkpt lat="46.28013" lon="7.31927"><ele>1372.4</ele><time>2025-11-04T13:54:12Z</time></trkpt>
<trkpt lat="46.28012" lon="7.31929"><ele>1372.2</ele><time>2025-11-04T13:54:15Z</time></trkpt>
<trkpt lat="46.28008" lon="7.31933"><ele>1371.4</ele><time>2025-11-04T13:54:21Z</time></trkpt>
<trkpt lat="46.28007" lon="7.31936"><ele>1371.6</ele><time>2025-11-04T13:54:26Z</time></trkpt>
<trkpt lat="46.28008" lon="7.31936"><ele>1371.6</ele><time>2025-11-04T13:54:27Z</time></trkpt>
<trkpt lat="46.28008" lon="7.31936"><ele>1371.6</ele><time>2025-11-04T13:54:33Z</time></trkpt>
<trkpt lat="46.28009" lon="7.31935"><ele>1372</ele><time>2025-11-04T13:54:38Z</time></trkpt>
<trkpt lat="46.28007" lon="7.31933"><ele>1371.4</ele><time>2025-11-04T13:54:43Z</time></trkpt>
<trkpt lat="46.28007" lon="7.31933"><ele>1371</ele><time>2025-11-04T13:54:48Z</time></trkpt>
<trkpt lat="46.28007" lon="7.31933"><ele>1371.6</ele><time>2025-11-04T13:54:58Z</time></trkpt>
<trkpt lat="46.28007" lon="7.31933"><ele>1371.6</ele><time>2025-11-04T13:55:09Z</time></trkpt>
<trkpt lat="46.28007" lon="7.31933"><ele>1371.2</ele><time>2025-11-04T13:55:17Z</time></trkpt>
<trkpt lat="46.28007" lon="7.31933"><ele>1371.6</ele><time>2025-11-04T13:55:20Z</time></trkpt>
<trkpt lat="46.28007" lon="7.31933"><ele>1371.4</ele><time>2025-11-04T13:55:24Z</time></trkpt>
<trkpt lat="46.28007" lon="7.31933"><ele>1371.6</ele><time>2025-11-04T13:55:40Z</time></trkpt>
<trkpt lat="46.28007" lon="7.31933"><ele>1371.4</ele><time>2025-11-04T13:55:51Z</time></trkpt>
<trkpt lat="46.28007" lon="7.31933"><ele>1371.4</ele><time>2025-11-04T13:56:02Z</time></trkpt>
<trkpt lat="46.28007" lon="7.31933"><ele>1371.4</ele><time>2025-11-04T13:56:07Z</time></trkpt>
<trkpt lat="46.28007" lon="7.31933"><ele>1371.4</ele><time>2025-11-04T13:56:19Z</time></trkpt>
<trkpt lat="46.28007" lon="7.31934"><ele>1371.4</ele><time>2025-11-04T13:56:27Z</time></trkpt>
<trkpt lat="46.28008" lon="7.31934"><ele>1371.4</ele><time>2025-11-04T13:56:35Z</time></trkpt>
<trkpt lat="46.28008" lon="7.31933"><ele>1371.4</ele><time>2025-11-04T13:56:43Z</time></trkpt>
<trkpt lat="46.28008" lon="7.31934"><ele>1371.4</ele><time>2025-11-04T13:56:53Z</time></trkpt>
<trkpt lat="46.28007" lon="7.31933"><ele>1371.4</ele><time>2025-11-04T13:57:03Z</time></trkpt>
<trkpt lat="46.28006" lon="7.31933"><ele>1371.4</ele><time>2025-11-04T13:57:11Z</time></trkpt>
<trkpt lat="46.28006" lon="7.31934"><ele>1371.4</ele><time>2025-11-04T13:57:19Z</time></trkpt>
<trkpt lat="46.28007" lon="7.31933"><ele>1371.4</ele><time>2025-11-04T13:57:25Z</time></trkpt>
<trkpt lat="46.28007" lon="7.31933"><ele>1371.4</ele><time>2025-11-04T13:57:28Z</time></trkpt>
<trkpt lat="46.28007" lon="7.31934"><ele>1371.4</ele><time>2025-11-04T13:57:37Z</time></trkpt>
<trkpt lat="46.28009" lon="7.31934"><ele>1371.4</ele><time>2025-11-04T13:57:46Z</time></trkpt>
<trkpt lat="46.28009" lon="7.31933"><ele>1371.4</ele><time>2025-11-04T13:57:53Z</time></trkpt>
<trkpt lat="46.28009" lon="7.31932"><ele>1371.4</ele><time>2025-11-04T13:57:58Z</time></trkpt>
<trkpt lat="46.28007" lon="7.31932"><ele>1371.4</ele><time>2025-11-04T13:58:02Z</time></trkpt>
<trkpt lat="46.28007" lon="7.31932"><ele>1371.4</ele><time>2025-11-04T13:58:11Z</time></trkpt>
<trkpt lat="46.28008" lon="7.31933"><ele>1371.4</ele><time>2025-11-04T13:58:14Z</time></trkpt>
<trkpt lat="46.28008" lon="7.31933"><ele>1371.4</ele><time>2025-11-04T13:58:19Z</time></trkpt>
<trkpt lat="46.28009" lon="7.31933"><ele>1371.4</ele><time>2025-11-04T13:58:21Z</time></trkpt>
<trkpt lat="46.2801" lon="7.31933"><ele>1371.4</ele><time>2025-11-04T13:58:27Z</time></trkpt>
<trkpt lat="46.28008" lon="7.31933"><ele>1371.4</ele><time>2025-11-04T13:58:35Z</time></trkpt>
<trkpt lat="46.28008" lon="7.31933"><ele>1371.4</ele><time>2025-11-04T13:58:42Z</time></trkpt>
<trkpt lat="46.28007" lon="7.31935"><ele>1371.4</ele><time>2025-11-04T13:58:50Z</time></trkpt>
<trkpt lat="46.28007" lon="7.31935"><ele>1371.4</ele><time>2025-11-04T13:58:57Z</time></trkpt>
<trkpt lat="46.28007" lon="7.31935"><ele>1371.4</ele><time>2025-11-04T13:59:01Z</time></trkpt>
<trkpt lat="46.28007" lon="7.31935"><ele>1371.4</ele><time>2025-11-04T13:59:03Z</time></trkpt>
<trkpt lat="46.28007" lon="7.31935"><ele>1371.4</ele><time>2025-11-04T13:59:11Z</time></trkpt>
<trkpt lat="46.28007" lon="7.31935"><ele>1371.4</ele><time>2025-11-04T13:59:13Z</time></trkpt>
<trkpt lat="46.28007" lon="7.31935"><ele>1371.4</ele><time>2025-11-04T13:59:19Z</time></trkpt>
<trkpt lat="46.28007" lon="7.31934"><ele>1371.4</ele><time>2025-11-04T13:59:25Z</time></trkpt>
<trkpt lat="46.28007" lon="7.31933"><ele>1371.4</ele><time>2025-11-04T13:59:35Z</time></trkpt>
<trkpt lat="46.28007" lon="7.31932"><ele>1371.4</ele><time>2025-11-04T13:59:40Z</time></trkpt>
<trkpt lat="46.28007" lon="7.31932"><ele>1371.4</ele><time>2025-11-04T13:59:43Z</time></trkpt>
<trkpt lat="46.28007" lon="7.31932"><ele>1371.4</ele><time>2025-11-04T13:59:50Z</time></trkpt>
<trkpt lat="46.28008" lon="7.31933"><ele>1371.4</ele><time>2025-11-04T14:00:00Z</time></trkpt>
<trkpt lat="46.28008" lon="7.31933"><ele>1371.4</ele><time>2025-11-04T14:00:10Z</time></trkpt>
<trkpt lat="46.28007" lon="7.31934"><ele>1371.4</ele><time>2025-11-04T14:00:13Z</time></trkpt>
<trkpt lat="46.28007" lon="7.31933"><ele>1371.4</ele><time>2025-11-04T14:00:16Z</time></trkpt>
<trkpt lat="46.28008" lon="7.31934"><ele>1371.4</ele><time>2025-11-04T14:00:19Z</time></trkpt>
<trkpt lat="46.28009" lon="7.31932"><ele>1371.4</ele><time>2025-11-04T14:00:28Z</time></trkpt>
<trkpt lat="46.28008" lon="7.31932"><ele>1371.4</ele><time>2025-11-04T14:00:36Z</time></trkpt>
<trkpt lat="46.28007" lon="7.31933"><ele>1371.4</ele><time>2025-11-04T14:00:46Z</time></trkpt>
<trkpt lat="46.28008" lon="7.31933"><ele>1371.4</ele><time>2025-11-04T14:00:54Z</time></trkpt>
<trkpt lat="46.28008" lon="7.31933"><ele>1371.4</ele><time>2025-11-04T14:01:02Z</time></trkpt>
<trkpt lat="46.28007" lon="7.31933"><ele>1371.4</ele><time>2025-11-04T14:01:12Z</time></trkpt>
<trkpt lat="46.28006" lon="7.31933"><ele>1371.4</ele><time>2025-11-04T14:01:20Z</time></trkpt>
<trkpt lat="46.28007" lon="7.31934"><ele>1371.4</ele><time>2025-11-04T14:01:27Z</time></trkpt>
<trkpt lat="46.28007" lon="7.31934"><ele>1371.4</ele><time>2025-11-04T14:01:34Z</time></trkpt>
<trkpt lat="46.28007" lon="7.31934"><ele>1371.4</ele><time>2025-11-04T14:01:43Z</time></trkpt>
<trkpt lat="46.28007" lon="7.31934"><ele>1371.4</ele><time>2025-11-04T14:01:51Z</time></trkpt>
<trkpt lat="46.28007" lon="7.31934"><ele>1371.4</ele><time>2025-11-04T14:01:53Z</time></trkpt>
<trkpt lat="46.28007" lon="7.31934"><ele>1371.4</ele><time>2025-11-04T14:01:57Z</time></trkpt>
<trkpt lat="46.28007" lon="7.31934"><ele>1371.4</ele><time>2025-11-04T14:02:03Z</time></trkpt>
<trkpt lat="46.28007" lon="7.31934"><ele>1371.4</ele><time>2025-11-04T14:02:07Z</time></trkpt>
<trkpt lat="46.28006" lon="7.31933"><ele>1371.4</ele><time>2025-11-04T14:02:16Z</time></trkpt>
<trkpt lat="46.28007" lon="7.31934"><ele>1371.4</ele><time>2025-11-04T14:02:20Z</time></trkpt>
<trkpt lat="46.28007" lon="7.31934"><ele>1371.4</ele><time>2025-11-04T14:02:27Z</time></trkpt>
<trkpt lat="46.28007" lon="7.31933"><ele>1371.4</ele><time>2025-11-04T14:02:32Z</time></trkpt>
<trkpt lat="46.28007" lon="7.31934"><ele>1371.4</ele><time>2025-11-04T14:02:34Z</time></trkpt>
<trkpt lat="46.28007" lon="7.31934"><ele>1371.4</ele><time>2025-11-04T14:02:41Z</time></trkpt>
<trkpt lat="46.28007" lon="7.31934"><ele>1371.4</ele><time>2025-11-04T14:02:51Z</time></trkpt>
<trkpt lat="46.28007" lon="7.31934"><ele>1371.4</ele><time>2025-11-04T14:02:52Z</time></trkpt>
<trkpt lat="46.28007" lon="7.31934"><ele>1371.4</ele><time>2025-11-04T14:02:54Z</time></trkpt>
<trkpt lat="46.28007" lon="7.31934"><ele>1371.4</ele><time>2025-11-04T14:02:57Z</time></trkpt>
<trkpt lat="46.28007" lon="7.31934"><ele>1371.4</ele><time>2025-11-04T14:03:00Z</time></trkpt>
<trkpt lat="46.28007" lon="7.31934"><ele>1371.4</ele><time>2025-11-04T14:03:06Z</time></trkpt>
<trkpt lat="46.28007" lon="7.31934"><ele>1371.4</ele><time>2025-11-04T14:03:07Z</time></trkpt>
<trkpt lat="46.28007" lon="7.31934"><ele>1371.4</ele><time>2025-11-04T14:03:12Z</time></trkpt>
<trkpt lat="46.28007" lon="7.31934"><ele>1371.4</ele><time>2025-11-04T14:03:19Z</time></trkpt>
<trkpt lat="46.28007" lon="7.31933"><ele>1371.4</ele><time>2025-11-04T14:03:23Z</time></trkpt>
<trkpt lat="46.28006" lon="7.31934"><ele>1371.4</ele><time>2025-11-04T14:03:29Z</time></trkpt>
<trkpt lat="46.28007" lon="7.31934"><ele>1371.4</ele><time>2025-11-04T14:03:33Z</time></trkpt>
<trkpt lat="46.28007" lon="7.31934"><ele>1371.4</ele><time>2025-11-04T14:03:36Z</time></trkpt>
<trkpt lat="46.28007" lon="7.31934"><ele>1371.4</ele><time>2025-11-04T14:03:45Z</time></trkpt>
<trkpt lat="46.28007" lon="7.31934"><ele>1371.4</ele><time>2025-11-04T14:03:49Z</time></trkpt>
<trkpt lat="46.28007" lon="7.31934"><ele>1371.4</ele><time>2025-11-04T14:03:51Z</time></trkpt>
<trkpt lat="46.28007" lon="7.31934"><ele>1371.4</ele><time>2025-11-04T14:03:54Z</time></trkpt>
<trkpt lat="46.28007" lon="7.31934"><ele>1371.4</ele><time>2025-11-04T14:04:00Z</time></trkpt>
<trkpt lat="46.28007" lon="7.31934"><ele>1371.4</ele><time>2025-11-04T14:04:05Z</time></trkpt>
<trkpt lat="46.28006" lon="7.31935"><ele>1371.4</ele><time>2025-11-04T14:04:11Z</time></trkpt>
<trkpt lat="46.28007" lon="7.31934"><ele>1371.4</ele><time>2025-11-04T14:04:16Z</time></trkpt>
<trkpt lat="46.28007" lon="7.31934"><ele>1371.4</ele><time>2025-11-04T14:04:25Z</time></trkpt>
<trkpt lat="46.28007" lon="7.31934"><ele>1371.4</ele><time>2025-11-04T14:04:30Z</time></trkpt>
<trkpt lat="46.28007" lon="7.31934"><ele>1371.4</ele><time>2025-11-04T14:04:33Z</time></trkpt>
<trkpt lat="46.28007" lon="7.31934"><ele>1371.4</ele><time>2025-11-04T14:04:35Z</time></trkpt>
<trkpt lat="46.28007" lon="7.31934"><ele>1371.4</ele><time>2025-11-04T14:04:37Z</time></trkpt>
<trkpt lat="46.28007" lon="7.31934"><ele>1371.4</ele><time>2025-11-04T14:04:40Z</time></trkpt>
<trkpt lat="46.28007" lon="7.31934"><ele>1371.4</ele><time>2025-11-04T14:04:45Z</time></trkpt>
<trkpt lat="46.28007" lon="7.31934"><ele>1371.4</ele><time>2025-11-04T14:04:47Z</time></trkpt>
<trkpt lat="46.28006" lon="7.31935"><ele>1371.4</ele><time>2025-11-04T14:04:49Z</time></trkpt>
<trkpt lat="46.28005" lon="7.31936"><ele>1371.4</ele><time>2025-11-04T14:04:54Z</time></trkpt>
<trkpt lat="46.28007" lon="7.31934"><ele>1371.4</ele><time>2025-11-04T14:05:00Z</time></trkpt>
<trkpt lat="46.28007" lon="7.31934"><ele>1371.4</ele><time>2025-11-04T14:05:06Z</time></trkpt>
<trkpt lat="46.28007" lon="7.31934"><ele>1371.4</ele><time>2025-11-04T14:05:08Z</time></trkpt>
<trkpt lat="46.28006" lon="7.31935"><ele>1371.4</ele><time>2025-11-04T14:05:09Z</time></trkpt>
<trkpt lat="46.28005" lon="7.31935"><ele>1371.4</ele><time>2025-11-04T14:05:15Z</time></trkpt>
<trkpt lat="46.28005" lon="7.31935"><ele>1371.4</ele><time>2025-11-04T14:05:25Z</time></trkpt>
<trkpt lat="46.28005" lon="7.31936"><ele>1371.4</ele><time>2025-11-04T14:05:26Z</time></trkpt>
<trkpt lat="46.28007" lon="7.31933"><ele>1371.4</ele><time>2025-11-04T14:05:32Z</time></trkpt>
<trkpt lat="46.28011" lon="7.31934"><ele>1371.4</ele><time>2025-11-04T14:05:40Z</time></trkpt>
<trkpt lat="46.28016" lon="7.31932"><ele>1375.2</ele><time>2025-11-04T14:05:46Z</time></trkpt>
<trkpt lat="46.28017" lon="7.31931"><ele>1375.2</ele><time>2025-11-04T14:05:48Z</time></trkpt>
<trkpt lat="46.28019" lon="7.3193"><ele>1375.8</ele><time>2025-11-04T14:05:51Z</time></trkpt>
<trkpt lat="46.28019" lon="7.31929"><ele>1376.2</ele><time>2025-11-04T14:05:54Z</time></trkpt>
<trkpt lat="46.28022" lon="7.31931"><ele>1376.4</ele><time>2025-11-04T14:05:57Z</time></trkpt>
<trkpt lat="46.28023" lon="7.31932"><ele>1376.4</ele><time>2025-11-04T14:05:58Z</time></trkpt>
<trkpt lat="46.28029" lon="7.31935"><ele>1377.2</ele><time>2025-11-04T14:06:04Z</time></trkpt>
<trkpt lat="46.2803" lon="7.31935"><ele>1377.4</ele><time>2025-11-04T14:06:05Z</time></trkpt>
<trkpt lat="46.28036" lon="7.31938"><ele>1378.2</ele><time>2025-11-04T14:06:11Z</time></trkpt>
<trkpt lat="46.28037" lon="7.31938"><ele>1378.2</ele><time>2025-11-04T14:06:12Z</time></trkpt>
<trkpt lat="46.28042" lon="7.3194"><ele>1378.8</ele><time>2025-11-04T14:06:17Z</time></trkpt>
<trkpt lat="46.28049" lon="7.31943"><ele>1379.2</ele><time>2025-11-04T14:06:24Z</time></trkpt>
<trkpt lat="46.28055" lon="7.31947"><ele>1380</ele><time>2025-11-04T14:06:31Z</time></trkpt>
<trkpt lat="46.28058" lon="7.31949"><ele>1380.2</ele><time>2025-11-04T14:06:34Z</time></trkpt>
<trkpt lat="46.2806" lon="7.3195"><ele>1380.6</ele><time>2025-11-04T14:06:37Z</time></trkpt>
<trkpt lat="46.28067" lon="7.31953"><ele>1381.2</ele><time>2025-11-04T14:06:43Z</time></trkpt>
<trkpt lat="46.28068" lon="7.31954"><ele>1381.4</ele><time>2025-11-04T14:06:44Z</time></trkpt>
<trkpt lat="46.28074" lon="7.31954"><ele>1382</ele><time>2025-11-04T14:06:50Z</time></trkpt>
<trkpt lat="46.28079" lon="7.31955"><ele>1382.4</ele><time>2025-11-04T14:06:55Z</time></trkpt>
<trkpt lat="46.28083" lon="7.31955"><ele>1382.6</ele><time>2025-11-04T14:06:58Z</time></trkpt>
<trkpt lat="46.28092" lon="7.31952"><ele>1383.4</ele><time>2025-11-04T14:07:07Z</time></trkpt>
<trkpt lat="46.281" lon="7.31946"><ele>1384.4</ele><time>2025-11-04T14:07:15Z</time></trkpt>
<trkpt lat="46.28103" lon="7.31943"><ele>1384.6</ele><time>2025-11-04T14:07:18Z</time></trkpt>
<trkpt lat="46.28106" lon="7.31939"><ele>1385</ele><time>2025-11-04T14:07:22Z</time></trkpt>
<trkpt lat="46.2811" lon="7.31931"><ele>1385.6</ele><time>2025-11-04T14:07:29Z</time></trkpt>
<trkpt lat="46.2811" lon="7.31929"><ele>1385.8</ele><time>2025-11-04T14:07:30Z</time></trkpt>
<trkpt lat="46.28112" lon="7.3192"><ele>1386.2</ele><time>2025-11-04T14:07:36Z</time></trkpt>
<trkpt lat="46.28113" lon="7.3191"><ele>1386.6</ele><time>2025-11-04T14:07:42Z</time></trkpt>
<trkpt lat="46.28114" lon="7.31906"><ele>1386.8</ele><time>2025-11-04T14:07:44Z</time></trkpt>
<trkpt lat="46.28115" lon="7.31905"><ele>1387</ele><time>2025-11-04T14:07:45Z</time></trkpt>
<trkpt lat="46.28117" lon="7.31895"><ele>1387.6</ele><time>2025-11-04T14:07:52Z</time></trkpt>
<trkpt lat="46.28117" lon="7.31893"><ele>1387.8</ele><time>2025-11-04T14:07:54Z</time></trkpt>
<trkpt lat="46.28119" lon="7.31886"><ele>1388.2</ele><time>2025-11-04T14:07:59Z</time></trkpt>
<trkpt lat="46.28121" lon="7.31881"><ele>1388.8</ele><time>2025-11-04T14:08:03Z</time></trkpt>
<trkpt lat="46.28123" lon="7.31877"><ele>1389</ele><time>2025-11-04T14:08:06Z</time></trkpt>
<trkpt lat="46.28126" lon="7.31869"><ele>1389.8</ele><time>2025-11-04T14:08:12Z</time></trkpt>
<trkpt lat="46.28126" lon="7.31868"><ele>1390</ele><time>2025-11-04T14:08:13Z</time></trkpt>
<trkpt lat="46.28128" lon="7.31864"><ele>1390.4</ele><time>2025-11-04T14:08:17Z</time></trkpt>
<trkpt lat="46.28128" lon="7.31863"><ele>1390.4</ele><time>2025-11-04T14:08:18Z</time></trkpt>
<trkpt lat="46.28131" lon="7.31859"><ele>1390.8</ele><time>2025-11-04T14:08:22Z</time></trkpt>
<trkpt lat="46.28131" lon="7.31858"><ele>1391</ele><time>2025-11-04T14:08:23Z</time></trkpt>
<trkpt lat="46.28132" lon="7.31857"><ele>1391</ele><time>2025-11-04T14:08:24Z</time></trkpt>
<trkpt lat="46.28136" lon="7.3185"><ele>1391.8</ele><time>2025-11-04T14:08:31Z</time></trkpt>
<trkpt lat="46.28138" lon="7.31848"><ele>1392</ele><time>2025-11-04T14:08:33Z</time></trkpt>
<trkpt lat="46.2814" lon="7.31843"><ele>1392.6</ele><time>2025-11-04T14:08:37Z</time></trkpt>
<trkpt lat="46.28141" lon="7.31841"><ele>1392.6</ele><time>2025-11-04T14:08:38Z</time></trkpt>
<trkpt lat="46.28143" lon="7.31836"><ele>1393.2</ele><time>2025-11-04T14:08:42Z</time></trkpt>
<trkpt lat="46.28146" lon="7.31833"><ele>1393.4</ele><time>2025-11-04T14:08:46Z</time></trkpt>
<trkpt lat="46.28148" lon="7.31827"><ele>1394</ele><time>2025-11-04T14:08:50Z</time></trkpt>
<trkpt lat="46.2815" lon="7.31826"><ele>1394.2</ele><time>2025-11-04T14:08:52Z</time></trkpt>
<trkpt lat="46.28151" lon="7.31824"><ele>1394.4</ele><time>2025-11-04T14:08:53Z</time></trkpt>
<trkpt lat="46.28156" lon="7.31819"><ele>1395.2</ele><time>2025-11-04T14:09:00Z</time></trkpt>
<trkpt lat="46.28158" lon="7.31817"><ele>1395.6</ele><time>2025-11-04T14:09:03Z</time></trkpt>
<trkpt lat="46.28164" lon="7.31813"><ele>1396.4</ele><time>2025-11-04T14:09:09Z</time></trkpt>
<trkpt lat="46.28165" lon="7.31813"><ele>1396.6</ele><time>2025-11-04T14:09:10Z</time></trkpt>
<trkpt lat="46.28171" lon="7.31813"><ele>1397.6</ele><time>2025-11-04T14:09:17Z</time></trkpt>
<trkpt lat="46.28173" lon="7.31814"><ele>1397.8</ele><time>2025-11-04T14:09:19Z</time></trkpt>
<trkpt lat="46.2818" lon="7.31819"><ele>1398.4</ele><time>2025-11-04T14:09:24Z</time></trkpt>
<trkpt lat="46.28182" lon="7.31821"><ele>1398.6</ele><time>2025-11-04T14:09:26Z</time></trkpt>
<trkpt lat="46.28185" lon="7.31826"><ele>1399.4</ele><time>2025-11-04T14:09:30Z</time></trkpt>
<trkpt lat="46.28186" lon="7.31831"><ele>1399.6</ele><time>2025-11-04T14:09:33Z</time></trkpt>
<trkpt lat="46.28188" lon="7.31837"><ele>1400</ele><time>2025-11-04T14:09:37Z</time></trkpt>
<trkpt lat="46.2819" lon="7.31844"><ele>1400.6</ele><time>2025-11-04T14:09:41Z</time></trkpt>
<trkpt lat="46.28191" lon="7.31848"><ele>1401.2</ele><time>2025-11-04T14:09:44Z</time></trkpt>
<trkpt lat="46.28193" lon="7.31854"><ele>1401.6</ele><time>2025-11-04T14:09:48Z</time></trkpt>
<trkpt lat="46.28194" lon="7.3186"><ele>1402.2</ele><time>2025-11-04T14:09:52Z</time></trkpt>
<trkpt lat="46.28196" lon="7.31865"><ele>1402.6</ele><time>2025-11-04T14:09:55Z</time></trkpt>
<trkpt lat="46.28197" lon="7.31866"><ele>1402.6</ele><time>2025-11-04T14:09:56Z</time></trkpt>
<trkpt lat="46.28197" lon="7.31868"><ele>1402.8</ele><time>2025-11-04T14:09:57Z</time></trkpt>
<trkpt lat="46.28201" lon="7.31875"><ele>1403.4</ele><time>2025-11-04T14:10:03Z</time></trkpt>
<trkpt lat="46.28204" lon="7.31877"><ele>1403.8</ele><time>2025-11-04T14:10:06Z</time></trkpt>
<trkpt lat="46.28208" lon="7.3188"><ele>1404.4</ele><time>2025-11-04T14:10:11Z</time></trkpt>
<trkpt lat="46.28211" lon="7.31883"><ele>1404.8</ele><time>2025-11-04T14:10:14Z</time></trkpt>
<trkpt lat="46.28216" lon="7.31886"><ele>1405.4</ele><time>2025-11-04T14:10:19Z</time></trkpt>
<trkpt lat="46.28221" lon="7.31888"><ele>1406</ele><time>2025-11-04T14:10:23Z</time></trkpt>
<trkpt lat="46.28226" lon="7.31892"><ele>1406.4</ele><time>2025-11-04T14:10:27Z</time></trkpt>
<trkpt lat="46.28233" lon="7.31895"><ele>1407</ele><time>2025-11-04T14:10:32Z</time></trkpt>
<trkpt lat="46.28235" lon="7.31896"><ele>1407.2</ele><time>2025-11-04T14:10:34Z</time></trkpt>
<trkpt lat="46.28244" lon="7.31898"><ele>1408</ele><time>2025-11-04T14:10:41Z</time></trkpt>
<trkpt lat="46.28254" lon="7.31898"><ele>1408.6</ele><time>2025-11-04T14:10:47Z</time></trkpt>
<trkpt lat="46.2826" lon="7.31898"><ele>1409</ele><time>2025-11-04T14:10:51Z</time></trkpt>
<trkpt lat="46.28265" lon="7.31898"><ele>1409.4</ele><time>2025-11-04T14:10:54Z</time></trkpt>
<trkpt lat="46.28277" lon="7.31898"><ele>1410.2</ele><time>2025-11-04T14:11:01Z</time></trkpt>
<trkpt lat="46.28279" lon="7.31898"><ele>1410.2</ele><time>2025-11-04T14:11:02Z</time></trkpt>
<trkpt lat="46.28287" lon="7.31897"><ele>1410.8</ele><time>2025-11-04T14:11:07Z</time></trkpt>
<trkpt lat="46.28291" lon="7.31897"><ele>1411.2</ele><time>2025-11-04T14:11:10Z</time></trkpt>
<trkpt lat="46.28298" lon="7.31897"><ele>1411.8</ele><time>2025-11-04T14:11:15Z</time></trkpt>
<trkpt lat="46.28305" lon="7.31897"><ele>1412.2</ele><time>2025-11-04T14:11:20Z</time></trkpt>
<trkpt lat="46.28308" lon="7.31897"><ele>1412.4</ele><time>2025-11-04T14:11:22Z</time></trkpt>
<trkpt lat="46.2832" lon="7.31897"><ele>1413.2</ele><time>2025-11-04T14:11:28Z</time></trkpt>
<trkpt lat="46.28323" lon="7.31896"><ele>1413.6</ele><time>2025-11-04T14:11:30Z</time></trkpt>
<trkpt lat="46.28328" lon="7.31894"><ele>1414</ele><time>2025-11-04T14:11:33Z</time></trkpt>
<trkpt lat="46.28332" lon="7.31893"><ele>1414.2</ele><time>2025-11-04T14:11:36Z</time></trkpt>
<trkpt lat="46.28343" lon="7.31887"><ele>1415.4</ele><time>2025-11-04T14:11:43Z</time></trkpt>
<trkpt lat="46.28347" lon="7.31877"><ele>1416.6</ele><time>2025-11-04T14:11:50Z</time></trkpt>
<trkpt lat="46.28347" lon="7.31875"><ele>1416.8</ele><time>2025-11-04T14:11:51Z</time></trkpt>
<trkpt lat="46.28347" lon="7.31868"><ele>1417.6</ele><time>2025-11-04T14:11:56Z</time></trkpt>
<trkpt lat="46.28346" lon="7.31857"><ele>1418.4</ele><time>2025-11-04T14:12:02Z</time></trkpt>
<trkpt lat="46.28345" lon="7.31854"><ele>1418.8</ele><time>2025-11-04T14:12:04Z</time></trkpt>
<trkpt lat="46.28341" lon="7.31847"><ele>1419.6</ele><time>2025-11-04T14:12:09Z</time></trkpt>
<trkpt lat="46.28341" lon="7.31846"><ele>1419.8</ele><time>2025-11-04T14:12:10Z</time></trkpt>
<trkpt lat="46.28338" lon="7.31841"><ele>1420.2</ele><time>2025-11-04T14:12:14Z</time></trkpt>
<trkpt lat="46.28335" lon="7.31835"><ele>1420.8</ele><time>2025-11-04T14:12:18Z</time></trkpt>
<trkpt lat="46.28333" lon="7.31833"><ele>1421</ele><time>2025-11-04T14:12:20Z</time></trkpt>
<trkpt lat="46.28331" lon="7.3183"><ele>1421.2</ele><time>2025-11-04T14:12:22Z</time></trkpt>
<trkpt lat="46.28329" lon="7.31821"><ele>1422</ele><time>2025-11-04T14:12:27Z</time></trkpt>
<trkpt lat="46.28329" lon="7.31819"><ele>1422.2</ele><time>2025-11-04T14:12:28Z</time></trkpt>
<trkpt lat="46.28328" lon="7.31816"><ele>1422.4</ele><time>2025-11-04T14:12:30Z</time></trkpt>
<trkpt lat="46.28327" lon="7.31811"><ele>1422.8</ele><time>2025-11-04T14:12:33Z</time></trkpt>
<trkpt lat="46.28327" lon="7.3181"><ele>1423</ele><time>2025-11-04T14:12:34Z</time></trkpt>
<trkpt lat="46.28326" lon="7.31808"><ele>1423</ele><time>2025-11-04T14:12:35Z</time></trkpt>
<trkpt lat="46.28321" lon="7.31797"><ele>1423.8</ele><time>2025-11-04T14:12:42Z</time></trkpt>
<trkpt lat="46.28321" lon="7.31795"><ele>1424</ele><time>2025-11-04T14:12:43Z</time></trkpt>
<trkpt lat="46.28316" lon="7.3179"><ele>1424.6</ele><time>2025-11-04T14:12:48Z</time></trkpt>
<trkpt lat="46.28314" lon="7.31788"><ele>1425</ele><time>2025-11-04T14:12:51Z</time></trkpt>
<trkpt lat="46.28311" lon="7.31785"><ele>1425.4</ele><time>2025-11-04T14:12:54Z</time></trkpt>
<trkpt lat="46.28306" lon="7.3178"><ele>1426.2</ele><time>2025-11-04T14:12:59Z</time></trkpt>
<trkpt lat="46.28304" lon="7.31777"><ele>1426.6</ele><time>2025-11-04T14:13:02Z</time></trkpt>
<trkpt lat="46.28299" lon="7.31769"><ele>1427.2</ele><time>2025-11-04T14:13:07Z</time></trkpt>
<trkpt lat="46.28298" lon="7.31765"><ele>1427.4</ele><time>2025-11-04T14:13:09Z</time></trkpt>
<trkpt lat="46.28296" lon="7.3175"><ele>1428.4</ele><time>2025-11-04T14:13:16Z</time></trkpt>
<trkpt lat="46.28296" lon="7.31745"><ele>1428.8</ele><time>2025-11-04T14:13:19Z</time></trkpt>
<trkpt lat="46.28296" lon="7.31733"><ele>1429.4</ele><time>2025-11-04T14:13:25Z</time></trkpt>
<trkpt lat="46.28296" lon="7.31729"><ele>1429.6</ele><time>2025-11-04T14:13:27Z</time></trkpt>
<trkpt lat="46.28296" lon="7.31718"><ele>1430.4</ele><time>2025-11-04T14:13:33Z</time></trkpt>
<trkpt lat="46.28297" lon="7.31714"><ele>1430.6</ele><time>2025-11-04T14:13:35Z</time></trkpt>
<trkpt lat="46.28299" lon="7.31701"><ele>1431.6</ele><time>2025-11-04T14:13:42Z</time></trkpt>
<trkpt lat="46.283" lon="7.31697"><ele>1431.8</ele><time>2025-11-04T14:13:44Z</time></trkpt>
<trkpt lat="46.28304" lon="7.31687"><ele>1432.6</ele><time>2025-11-04T14:13:50Z</time></trkpt>
<trkpt lat="46.28306" lon="7.31684"><ele>1432.8</ele><time>2025-11-04T14:13:52Z</time></trkpt>
<trkpt lat="46.28312" lon="7.31682"><ele>1433.6</ele><time>2025-11-04T14:13:57Z</time></trkpt>
<trkpt lat="46.28315" lon="7.31684"><ele>1433.8</ele><time>2025-11-04T14:13:59Z</time></trkpt>
<trkpt lat="46.28323" lon="7.31689"><ele>1434.6</ele><time>2025-11-04T14:14:05Z</time></trkpt>
<trkpt lat="46.28325" lon="7.31691"><ele>1435</ele><time>2025-11-04T14:14:07Z</time></trkpt>
<trkpt lat="46.28331" lon="7.31696"><ele>1435.8</ele><time>2025-11-04T14:14:12Z</time></trkpt>
<trkpt lat="46.28336" lon="7.317"><ele>1436.2</ele><time>2025-11-04T14:14:16Z</time></trkpt>
<trkpt lat="46.28343" lon="7.31704"><ele>1436.8</ele><time>2025-11-04T14:14:21Z</time></trkpt>
<trkpt lat="46.28346" lon="7.31705"><ele>1437.2</ele><time>2025-11-04T14:14:24Z</time></trkpt>
<trkpt lat="46.28352" lon="7.31706"><ele>1437.8</ele><time>2025-11-04T14:14:29Z</time></trkpt>
<trkpt lat="46.28355" lon="7.31707"><ele>1438</ele><time>2025-11-04T14:14:31Z</time></trkpt>
<trkpt lat="46.28362" lon="7.31708"><ele>1438.8</ele><time>2025-11-04T14:14:37Z</time></trkpt>
<trkpt lat="46.28365" lon="7.31709"><ele>1439.2</ele><time>2025-11-04T14:14:39Z</time></trkpt>
<trkpt lat="46.28371" lon="7.31711"><ele>1439.8</ele><time>2025-11-04T14:14:44Z</time></trkpt>
<trkpt lat="46.28374" lon="7.31712"><ele>1440</ele><time>2025-11-04T14:14:46Z</time></trkpt>
<trkpt lat="46.28383" lon="7.31724"><ele>1441</ele><time>2025-11-04T14:14:53Z</time></trkpt>
<trkpt lat="46.28388" lon="7.3174"><ele>1441.8</ele><time>2025-11-04T14:15:01Z</time></trkpt>
<trkpt lat="46.2839" lon="7.31743"><ele>1442</ele><time>2025-11-04T14:15:03Z</time></trkpt>
<trkpt lat="46.28394" lon="7.31752"><ele>1442.8</ele><time>2025-11-04T14:15:09Z</time></trkpt>
<trkpt lat="46.28396" lon="7.31755"><ele>1443</ele><time>2025-11-04T14:15:11Z</time></trkpt>
<trkpt lat="46.284" lon="7.3176"><ele>1443.8</ele><time>2025-11-04T14:15:15Z</time></trkpt>
<trkpt lat="46.28403" lon="7.31763"><ele>1444.2</ele><time>2025-11-04T14:15:18Z</time></trkpt>
<trkpt lat="46.28406" lon="7.31766"><ele>1444.6</ele><time>2025-11-04T14:15:22Z</time></trkpt>
<trkpt lat="46.28412" lon="7.31773"><ele>1445.2</ele><time>2025-11-04T14:15:28Z</time></trkpt>
<trkpt lat="46.28416" lon="7.3178"><ele>1445.8</ele><time>2025-11-04T14:15:33Z</time></trkpt>
<trkpt lat="46.28421" lon="7.31785"><ele>1446.2</ele><time>2025-11-04T14:15:37Z</time></trkpt>
<trkpt lat="46.28423" lon="7.31789"><ele>1446.6</ele><time>2025-11-04T14:15:40Z</time></trkpt>
<trkpt lat="46.28427" lon="7.318"><ele>1447.4</ele><time>2025-11-04T14:15:47Z</time></trkpt>
<trkpt lat="46.28428" lon="7.31802"><ele>1447.4</ele><time>2025-11-04T14:15:48Z</time></trkpt>
<trkpt lat="46.28437" lon="7.31808"><ele>1448.2</ele><time>2025-11-04T14:15:55Z</time></trkpt>
<trkpt lat="46.28438" lon="7.31808"><ele>1448.4</ele><time>2025-11-04T14:15:56Z</time></trkpt>
<trkpt lat="46.28443" lon="7.31807"><ele>1448.8</ele><time>2025-11-04T14:16:00Z</time></trkpt>
<trkpt lat="46.28445" lon="7.31805"><ele>1449</ele><time>2025-11-04T14:16:02Z</time></trkpt>
<trkpt lat="46.28448" lon="7.31803"><ele>1449.6</ele><time>2025-11-04T14:16:05Z</time></trkpt>
<trkpt lat="46.2845" lon="7.31799"><ele>1450</ele><time>2025-11-04T14:16:08Z</time></trkpt>
<trkpt lat="46.28452" lon="7.31796"><ele>1450.6</ele><time>2025-11-04T14:16:11Z</time></trkpt>
<trkpt lat="46.28454" lon="7.31791"><ele>1451.2</ele><time>2025-11-04T14:16:16Z</time></trkpt>
<trkpt lat="46.28454" lon="7.31786"><ele>1451.6</ele><time>2025-11-04T14:16:19Z</time></trkpt>
<trkpt lat="46.28454" lon="7.31782"><ele>1451.8</ele><time>2025-11-04T14:16:21Z</time></trkpt>
<trkpt lat="46.28453" lon="7.3177"><ele>1452.6</ele><time>2025-11-04T14:16:28Z</time></trkpt>
<trkpt lat="46.28453" lon="7.31768"><ele>1452.8</ele><time>2025-11-04T14:16:29Z</time></trkpt>
<trkpt lat="46.2845" lon="7.31755"><ele>1453.6</ele><time>2025-11-04T14:16:37Z</time></trkpt>
<trkpt lat="46.2845" lon="7.31753"><ele>1453.8</ele><time>2025-11-04T14:16:38Z</time></trkpt>
<trkpt lat="46.28444" lon="7.31739"><ele>1454.8</ele><time>2025-11-04T14:16:46Z</time></trkpt>
<trkpt lat="46.28444" lon="7.31737"><ele>1454.8</ele><time>2025-11-04T14:16:47Z</time></trkpt>
<trkpt lat="46.28439" lon="7.31726"><ele>1455.8</ele><time>2025-11-04T14:16:54Z</time></trkpt>
<trkpt lat="46.28439" lon="7.31724"><ele>1455.8</ele><time>2025-11-04T14:16:55Z</time></trkpt>
<trkpt lat="46.28437" lon="7.31707"><ele>1457</ele><time>2025-11-04T14:17:02Z</time></trkpt>
<trkpt lat="46.28437" lon="7.31705"><ele>1457</ele><time>2025-11-04T14:17:03Z</time></trkpt>
<trkpt lat="46.28437" lon="7.31691"><ele>1458</ele><time>2025-11-04T14:17:09Z</time></trkpt>
<trkpt lat="46.28438" lon="7.31686"><ele>1458.4</ele><time>2025-11-04T14:17:11Z</time></trkpt>
<trkpt lat="46.28439" lon="7.31677"><ele>1459</ele><time>2025-11-04T14:17:15Z</time></trkpt>
<trkpt lat="46.28439" lon="7.31668"><ele>1459.8</ele><time>2025-11-04T14:17:19Z</time></trkpt>
<trkpt lat="46.28439" lon="7.31663"><ele>1460.2</ele><time>2025-11-04T14:17:21Z</time></trkpt>
<trkpt lat="46.28438" lon="7.31659"><ele>1460.4</ele><time>2025-11-04T14:17:23Z</time></trkpt>
<trkpt lat="46.28436" lon="7.31653"><ele>1460.6</ele><time>2025-11-04T14:17:26Z</time></trkpt>
<trkpt lat="46.28433" lon="7.31646"><ele>1461.2</ele><time>2025-11-04T14:17:30Z</time></trkpt>
<trkpt lat="46.2843" lon="7.31641"><ele>1461.6</ele><time>2025-11-04T14:17:33Z</time></trkpt>
<trkpt lat="46.28425" lon="7.3163"><ele>1462.2</ele><time>2025-11-04T14:17:39Z</time></trkpt>
<trkpt lat="46.28424" lon="7.31629"><ele>1462.2</ele><time>2025-11-04T14:17:40Z</time></trkpt>
<trkpt lat="46.28418" lon="7.31616"><ele>1463.2</ele><time>2025-11-04T14:17:47Z</time></trkpt>
<trkpt lat="46.28417" lon="7.31614"><ele>1463.4</ele><time>2025-11-04T14:17:48Z</time></trkpt>
<trkpt lat="46.28413" lon="7.31603"><ele>1464.2</ele><time>2025-11-04T14:17:54Z</time></trkpt>
<trkpt lat="46.28413" lon="7.31601"><ele>1464.4</ele><time>2025-11-04T14:17:55Z</time></trkpt>
<trkpt lat="46.28412" lon="7.31596"><ele>1464.8</ele><time>2025-11-04T14:17:58Z</time></trkpt>
<trkpt lat="46.28411" lon="7.31589"><ele>1465.2</ele><time>2025-11-04T14:18:02Z</time></trkpt>
<trkpt lat="46.28411" lon="7.31588"><ele>1465.4</ele><time>2025-11-04T14:18:03Z</time></trkpt>
<trkpt lat="46.2841" lon="7.31586"><ele>1465.4</ele><time>2025-11-04T14:18:04Z</time></trkpt>
<trkpt lat="46.28409" lon="7.31576"><ele>1466</ele><time>2025-11-04T14:18:09Z</time></trkpt>
<trkpt lat="46.28409" lon="7.31568"><ele>1466.4</ele><time>2025-11-04T14:18:13Z</time></trkpt>
<trkpt lat="46.28407" lon="7.31558"><ele>1467.2</ele><time>2025-11-04T14:18:18Z</time></trkpt>
<trkpt lat="46.28408" lon="7.31553"><ele>1467.4</ele><time>2025-11-04T14:18:21Z</time></trkpt>
<trkpt lat="46.28408" lon="7.31543"><ele>1468</ele><time>2025-11-04T14:18:26Z</time></trkpt>
<trkpt lat="46.28408" lon="7.31533"><ele>1468.6</ele><time>2025-11-04T14:18:31Z</time></trkpt>
<trkpt lat="46.28408" lon="7.31528"><ele>1469</ele><time>2025-11-04T14:18:34Z</time></trkpt>
<trkpt lat="46.28409" lon="7.31516"><ele>1469.6</ele><time>2025-11-04T14:18:40Z</time></trkpt>
<trkpt lat="46.2841" lon="7.31514"><ele>1469.8</ele><time>2025-11-04T14:18:41Z</time></trkpt>
<trkpt lat="46.2841" lon="7.31513"><ele>1469.8</ele><time>2025-11-04T14:18:42Z</time></trkpt>
<trkpt lat="46.28413" lon="7.31502"><ele>1470.6</ele><time>2025-11-04T14:18:48Z</time></trkpt>
<trkpt lat="46.28413" lon="7.31499"><ele>1470.8</ele><time>2025-11-04T14:18:50Z</time></trkpt>
<trkpt lat="46.28417" lon="7.31489"><ele>1471.6</ele><time>2025-11-04T14:18:56Z</time></trkpt>
<trkpt lat="46.28418" lon="7.31487"><ele>1471.8</ele><time>2025-11-04T14:18:57Z</time></trkpt>
<trkpt lat="46.28422" lon="7.31477"><ele>1472.4</ele><time>2025-11-04T14:19:03Z</time></trkpt>
<trkpt lat="46.28425" lon="7.31473"><ele>1472.8</ele><time>2025-11-04T14:19:06Z</time></trkpt>
<trkpt lat="46.28431" lon="7.31467"><ele>1473.4</ele><time>2025-11-04T14:19:11Z</time></trkpt>
<trkpt lat="46.28436" lon="7.31465"><ele>1474</ele><time>2025-11-04T14:19:15Z</time></trkpt>
<trkpt lat="46.28442" lon="7.31459"><ele>1474.6</ele><time>2025-11-04T14:19:20Z</time></trkpt>
<trkpt lat="46.28446" lon="7.31455"><ele>1475</ele><time>2025-11-04T14:19:24Z</time></trkpt>
<trkpt lat="46.28448" lon="7.31452"><ele>1475.2</ele><time>2025-11-04T14:19:26Z</time></trkpt>
<trkpt lat="46.2845" lon="7.31441"><ele>1476</ele><time>2025-11-04T14:19:32Z</time></trkpt>
<trkpt lat="46.28452" lon="7.31429"><ele>1476.8</ele><time>2025-11-04T14:19:39Z</time></trkpt>
<trkpt lat="46.28452" lon="7.31425"><ele>1477.2</ele><time>2025-11-04T14:19:41Z</time></trkpt>
<trkpt lat="46.28452" lon="7.31416"><ele>1477.8</ele><time>2025-11-04T14:19:46Z</time></trkpt>
<trkpt lat="46.28451" lon="7.31409"><ele>1478.2</ele><time>2025-11-04T14:19:50Z</time></trkpt>
<trkpt lat="46.2845" lon="7.31405"><ele>1478.6</ele><time>2025-11-04T14:19:52Z</time></trkpt>
<trkpt lat="46.28451" lon="7.31394"><ele>1479.2</ele><time>2025-11-04T14:19:58Z</time></trkpt>
<trkpt lat="46.2845" lon="7.31393"><ele>1479.2</ele><time>2025-11-04T14:19:59Z</time></trkpt>
<trkpt lat="46.28451" lon="7.31385"><ele>1479.8</ele><time>2025-11-04T14:20:03Z</time></trkpt>
<trkpt lat="46.2845" lon="7.31377"><ele>1480.4</ele><time>2025-11-04T14:20:08Z</time></trkpt>
<trkpt lat="46.2845" lon="7.31372"><ele>1480.6</ele><time>2025-11-04T14:20:10Z</time></trkpt>
<trkpt lat="46.28448" lon="7.31357"><ele>1481.4</ele><time>2025-11-04T14:20:18Z</time></trkpt>
<trkpt lat="46.28448" lon="7.31355"><ele>1481.6</ele><time>2025-11-04T14:20:19Z</time></trkpt>
<trkpt lat="46.28446" lon="7.3134"><ele>1482.6</ele><time>2025-11-04T14:20:27Z</time></trkpt>
<trkpt lat="46.28447" lon="7.31335"><ele>1482.8</ele><time>2025-11-04T14:20:29Z</time></trkpt>
<trkpt lat="46.28446" lon="7.31323"><ele>1483.6</ele><time>2025-11-04T14:20:36Z</time></trkpt>
<trkpt lat="46.28447" lon="7.31321"><ele>1483.8</ele><time>2025-11-04T14:20:37Z</time></trkpt>
<trkpt lat="46.28446" lon="7.31307"><ele>1484.6</ele><time>2025-11-04T14:20:44Z</time></trkpt>
<trkpt lat="46.28445" lon="7.31303"><ele>1484.8</ele><time>2025-11-04T14:20:46Z</time></trkpt>
<trkpt lat="46.28441" lon="7.31291"><ele>1485.8</ele><time>2025-11-04T14:20:53Z</time></trkpt>
<trkpt lat="46.28439" lon="7.31286"><ele>1486</ele><time>2025-11-04T14:20:56Z</time></trkpt>
<trkpt lat="46.28435" lon="7.31277"><ele>1486.8</ele><time>2025-11-04T14:21:02Z</time></trkpt>
<trkpt lat="46.28435" lon="7.31276"><ele>1486.8</ele><time>2025-11-04T14:21:03Z</time></trkpt>
<trkpt lat="46.28431" lon="7.31264"><ele>1487.8</ele><time>2025-11-04T14:21:10Z</time></trkpt>
<trkpt lat="46.2843" lon="7.31262"><ele>1487.8</ele><time>2025-11-04T14:21:11Z</time></trkpt>
<trkpt lat="46.28428" lon="7.31254"><ele>1488.6</ele><time>2025-11-04T14:21:16Z</time></trkpt>
<trkpt lat="46.28427" lon="7.31249"><ele>1489</ele><time>2025-11-04T14:21:19Z</time></trkpt>
<trkpt lat="46.28426" lon="7.31241"><ele>1489.4</ele><time>2025-11-04T14:21:23Z</time></trkpt>
<trkpt lat="46.28424" lon="7.3123"><ele>1490</ele><time>2025-11-04T14:21:29Z</time></trkpt>
<trkpt lat="46.28424" lon="7.31227"><ele>1490.2</ele><time>2025-11-04T14:21:31Z</time></trkpt>
<trkpt lat="46.28421" lon="7.31218"><ele>1491</ele><time>2025-11-04T14:21:37Z</time></trkpt>
<trkpt lat="46.28421" lon="7.31216"><ele>1491</ele><time>2025-11-04T14:21:38Z</time></trkpt>
<trkpt lat="46.28419" lon="7.3121"><ele>1491.4</ele><time>2025-11-04T14:21:42Z</time></trkpt>
<trkpt lat="46.28416" lon="7.31202"><ele>1492.2</ele><time>2025-11-04T14:21:47Z</time></trkpt>
<trkpt lat="46.28415" lon="7.312"><ele>1492.2</ele><time>2025-11-04T14:21:48Z</time></trkpt>
<trkpt lat="46.28413" lon="7.31193"><ele>1492.8</ele><time>2025-11-04T14:21:52Z</time></trkpt>
<trkpt lat="46.28412" lon="7.31189"><ele>1493.2</ele><time>2025-11-04T14:21:55Z</time></trkpt>
<trkpt lat="46.28411" lon="7.31187"><ele>1493.4</ele><time>2025-11-04T14:21:56Z</time></trkpt>
<trkpt lat="46.28406" lon="7.31181"><ele>1494.2</ele><time>2025-11-04T14:22:01Z</time></trkpt>
<trkpt lat="46.28404" lon="7.3118"><ele>1494.4</ele><time>2025-11-04T14:22:02Z</time></trkpt>
<trkpt lat="46.28395" lon="7.31173"><ele>1495.2</ele><time>2025-11-04T14:22:09Z</time></trkpt>
<trkpt lat="46.28393" lon="7.31172"><ele>1495.4</ele><time>2025-11-04T14:22:10Z</time></trkpt>
<trkpt lat="46.28387" lon="7.31166"><ele>1495.8</ele><time>2025-11-04T14:22:16Z</time></trkpt>
<trkpt lat="46.28384" lon="7.31165"><ele>1496</ele><time>2025-11-04T14:22:20Z</time></trkpt>
<trkpt lat="46.28385" lon="7.31164"><ele>1495.8</ele><time>2025-11-04T14:22:23Z</time></trkpt>
<trkpt lat="46.28386" lon="7.31165"><ele>1495.8</ele><time>2025-11-04T14:22:25Z</time></trkpt>
<trkpt lat="46.28386" lon="7.31165"><ele>1495.8</ele><time>2025-11-04T14:22:34Z</time></trkpt>
<trkpt lat="46.28386" lon="7.31165"><ele>1495.4</ele><time>2025-11-04T14:22:40Z</time></trkpt>
<trkpt lat="46.28386" lon="7.31165"><ele>1495.8</ele><time>2025-11-04T14:22:49Z</time></trkpt>
<trkpt lat="46.28386" lon="7.31165"><ele>1495.6</ele><time>2025-11-04T14:22:56Z</time></trkpt>
<trkpt lat="46.28385" lon="7.31164"><ele>1495.6</ele><time>2025-11-04T14:23:04Z</time></trkpt>
<trkpt lat="46.28384" lon="7.31164"><ele>1495.6</ele><time>2025-11-04T14:23:05Z</time></trkpt>
<trkpt lat="46.28382" lon="7.31164"><ele>1495.4</ele><time>2025-11-04T14:23:07Z</time></trkpt>
<trkpt lat="46.28371" lon="7.31163"><ele>1493.8</ele><time>2025-11-04T14:23:11Z</time></trkpt>
<trkpt lat="46.28366" lon="7.31163"><ele>1493.2</ele><time>2025-11-04T14:23:12Z</time></trkpt>
<trkpt lat="46.2836" lon="7.31162"><ele>1492.4</ele><time>2025-11-04T14:23:13Z</time></trkpt>
<trkpt lat="46.28348" lon="7.31161"><ele>1490.8</ele><time>2025-11-04T14:23:15Z</time></trkpt>
<trkpt lat="46.28335" lon="7.31158"><ele>1489</ele><time>2025-11-04T14:23:17Z</time></trkpt>
<trkpt lat="46.28328" lon="7.31156"><ele>1487.8</ele><time>2025-11-04T14:23:18Z</time></trkpt>
<trkpt lat="46.28322" lon="7.31155"><ele>1486.8</ele><time>2025-11-04T14:23:19Z</time></trkpt>
<trkpt lat="46.28316" lon="7.31154"><ele>1485.6</ele><time>2025-11-04T14:23:20Z</time></trkpt>
<trkpt lat="46.28303" lon="7.31152"><ele>1484.2</ele><time>2025-11-04T14:23:22Z</time></trkpt>
<trkpt lat="46.2829" lon="7.31148"><ele>1482.6</ele><time>2025-11-04T14:23:24Z</time></trkpt>
<trkpt lat="46.2828" lon="7.31138"><ele>1481</ele><time>2025-11-04T14:23:26Z</time></trkpt>
<trkpt lat="46.28275" lon="7.31132"><ele>1480.4</ele><time>2025-11-04T14:23:27Z</time></trkpt>
<trkpt lat="46.28269" lon="7.31127"><ele>1479.6</ele><time>2025-11-04T14:23:28Z</time></trkpt>
<trkpt lat="46.28255" lon="7.31126"><ele>1478.2</ele><time>2025-11-04T14:23:30Z</time></trkpt>
<trkpt lat="46.28242" lon="7.31127"><ele>1477</ele><time>2025-11-04T14:23:32Z</time></trkpt>
<trkpt lat="46.28231" lon="7.31121"><ele>1475.6</ele><time>2025-11-04T14:23:34Z</time></trkpt>
<trkpt lat="46.28224" lon="7.3111"><ele>1474.2</ele><time>2025-11-04T14:23:36Z</time></trkpt>
<trkpt lat="46.28222" lon="7.31102"><ele>1473.6</ele><time>2025-11-04T14:23:37Z</time></trkpt>
<trkpt lat="46.28222" lon="7.31094"><ele>1473</ele><time>2025-11-04T14:23:38Z</time></trkpt>
<trkpt lat="46.28221" lon="7.31076"><ele>1471.6</ele><time>2025-11-04T14:23:40Z</time></trkpt>
<trkpt lat="46.28221" lon="7.31067"><ele>1470.8</ele><time>2025-11-04T14:23:41Z</time></trkpt>
<trkpt lat="46.28221" lon="7.31058"><ele>1470</ele><time>2025-11-04T14:23:42Z</time></trkpt>
<trkpt lat="46.28219" lon="7.31036"><ele>1468.4</ele><time>2025-11-04T14:23:44Z</time></trkpt>
<trkpt lat="46.28218" lon="7.31024"><ele>1467.6</ele><time>2025-11-04T14:23:45Z</time></trkpt>
<trkpt lat="46.28219" lon="7.31013"><ele>1466.8</ele><time>2025-11-04T14:23:46Z</time></trkpt>
<trkpt lat="46.28221" lon="7.30991"><ele>1465.2</ele><time>2025-11-04T14:23:48Z</time></trkpt>
<trkpt lat="46.28226" lon="7.30972"><ele>1464.2</ele><time>2025-11-04T14:23:50Z</time></trkpt>
<trkpt lat="46.28228" lon="7.30963"><ele>1464</ele><time>2025-11-04T14:23:51Z</time></trkpt>
<trkpt lat="46.28231" lon="7.30938"><ele>1464.6</ele><time>2025-11-04T14:23:54Z</time></trkpt>
<trkpt lat="46.28233" lon="7.30929"><ele>1465.2</ele><time>2025-11-04T14:23:56Z</time></trkpt>
<trkpt lat="46.28235" lon="7.3092"><ele>1465.6</ele><time>2025-11-04T14:23:58Z</time></trkpt>
<trkpt lat="46.28236" lon="7.30913"><ele>1466.2</ele><time>2025-11-04T14:24:00Z</time></trkpt>
<trkpt lat="46.28238" lon="7.30907"><ele>1466.6</ele><time>2025-11-04T14:24:02Z</time></trkpt>
<trkpt lat="46.2824" lon="7.30898"><ele>1467.2</ele><time>2025-11-04T14:24:05Z</time></trkpt>
<trkpt lat="46.28242" lon="7.30889"><ele>1467.4</ele><time>2025-11-04T14:24:08Z</time></trkpt>
<trkpt lat="46.28246" lon="7.3087"><ele>1468.2</ele><time>2025-11-04T14:24:14Z</time></trkpt>
<trkpt lat="46.28247" lon="7.30864"><ele>1468.6</ele><time>2025-11-04T14:24:16Z</time></trkpt>
<trkpt lat="46.28247" lon="7.30861"><ele>1468.6</ele><time>2025-11-04T14:24:17Z</time></trkpt>
<trkpt lat="46.28248" lon="7.30859"><ele>1468.8</ele><time>2025-11-04T14:24:18Z</time></trkpt>
<trkpt lat="46.28248" lon="7.30856"><ele>1468.8</ele><time>2025-11-04T14:24:19Z</time></trkpt>
<trkpt lat="46.28249" lon="7.3085"><ele>1469.2</ele><time>2025-11-04T14:24:22Z</time></trkpt>
<trkpt lat="46.28255" lon="7.30829"><ele>1470</ele><time>2025-11-04T14:24:31Z</time></trkpt>
<trkpt lat="46.28253" lon="7.30818"><ele>1470.4</ele><time>2025-11-04T14:24:35Z</time></trkpt>
<trkpt lat="46.28253" lon="7.30815"><ele>1470.4</ele><time>2025-11-04T14:24:36Z</time></trkpt>
<trkpt lat="46.28251" lon="7.30811"><ele>1470.6</ele><time>2025-11-04T14:24:38Z</time></trkpt>
<trkpt lat="46.28246" lon="7.30804"><ele>1471.2</ele><time>2025-11-04T14:24:43Z</time></trkpt>
<trkpt lat="46.28245" lon="7.30803"><ele>1471.4</ele><time>2025-11-04T14:24:44Z</time></trkpt>
<trkpt lat="46.28242" lon="7.30802"><ele>1472</ele><time>2025-11-04T14:24:47Z</time></trkpt>
<trkpt lat="46.28238" lon="7.308"><ele>1472.4</ele><time>2025-11-04T14:24:50Z</time></trkpt>
<trkpt lat="46.28234" lon="7.30799"><ele>1473</ele><time>2025-11-04T14:24:53Z</time></trkpt>
<trkpt lat="46.28232" lon="7.30799"><ele>1473.4</ele><time>2025-11-04T14:24:56Z</time></trkpt>
<trkpt lat="46.28227" lon="7.308"><ele>1474.2</ele><time>2025-11-04T14:25:00Z</time></trkpt>
<trkpt lat="46.28225" lon="7.308"><ele>1474.4</ele><time>2025-11-04T14:25:02Z</time></trkpt>
<trkpt lat="46.28217" lon="7.30799"><ele>1475.6</ele><time>2025-11-04T14:25:09Z</time></trkpt>
<trkpt lat="46.28215" lon="7.308"><ele>1475.8</ele><time>2025-11-04T14:25:10Z</time></trkpt>
<trkpt lat="46.28209" lon="7.308"><ele>1476.6</ele><time>2025-11-04T14:25:16Z</time></trkpt>
<trkpt lat="46.28207" lon="7.308"><ele>1476.8</ele><time>2025-11-04T14:25:17Z</time></trkpt>
<trkpt lat="46.28205" lon="7.30801"><ele>1477</ele><time>2025-11-04T14:25:19Z</time></trkpt>
<trkpt lat="46.28201" lon="7.30802"><ele>1477.6</ele><time>2025-11-04T14:25:23Z</time></trkpt>
<trkpt lat="46.28197" lon="7.30803"><ele>1478</ele><time>2025-11-04T14:25:26Z</time></trkpt>
<trkpt lat="46.28193" lon="7.30802"><ele>1478.6</ele><time>2025-11-04T14:25:30Z</time></trkpt>
<trkpt lat="46.28189" lon="7.308"><ele>1479.2</ele><time>2025-11-04T14:25:33Z</time></trkpt>
<trkpt lat="46.28185" lon="7.30795"><ele>1479.8</ele><time>2025-11-04T14:25:37Z</time></trkpt>
<trkpt lat="46.28183" lon="7.30793"><ele>1480</ele><time>2025-11-04T14:25:39Z</time></trkpt>
<trkpt lat="46.28181" lon="7.30789"><ele>1480.6</ele><time>2025-11-04T14:25:43Z</time></trkpt>
<trkpt lat="46.2818" lon="7.30786"><ele>1481</ele><time>2025-11-04T14:25:45Z</time></trkpt>
<trkpt lat="46.2818" lon="7.30786"><ele>1481</ele><time>2025-11-04T14:25:46Z</time></trkpt>
<trkpt lat="46.28178" lon="7.3078"><ele>1481.6</ele><time>2025-11-04T14:25:50Z</time></trkpt>
<trkpt lat="46.28178" lon="7.30777"><ele>1482</ele><time>2025-11-04T14:25:52Z</time></trkpt>
<trkpt lat="46.28176" lon="7.30768"><ele>1483</ele><time>2025-11-04T14:25:59Z</time></trkpt>
<trkpt lat="46.28175" lon="7.30766"><ele>1483.2</ele><time>2025-11-04T14:26:00Z</time></trkpt>
<trkpt lat="46.28173" lon="7.30759"><ele>1484.2</ele><time>2025-11-04T14:26:06Z</time></trkpt>
<trkpt lat="46.28172" lon="7.30756"><ele>1484.6</ele><time>2025-11-04T14:26:09Z</time></trkpt>
<trkpt lat="46.28171" lon="7.30755"><ele>1484.8</ele><time>2025-11-04T14:26:10Z</time></trkpt>
<trkpt lat="46.28171" lon="7.30753"><ele>1485.2</ele><time>2025-11-04T14:26:12Z</time></trkpt>
<trkpt lat="46.28168" lon="7.30749"><ele>1485.8</ele><time>2025-11-04T14:26:16Z</time></trkpt>
<trkpt lat="46.28165" lon="7.30746"><ele>1486.4</ele><time>2025-11-04T14:26:19Z</time></trkpt>
<trkpt lat="46.28161" lon="7.30742"><ele>1487.2</ele><time>2025-11-04T14:26:23Z</time></trkpt>
<trkpt lat="46.28161" lon="7.30742"><ele>1487.4</ele><time>2025-11-04T14:26:24Z</time></trkpt>
<trkpt lat="46.28159" lon="7.30741"><ele>1487.8</ele><time>2025-11-04T14:26:26Z</time></trkpt>
<trkpt lat="46.28158" lon="7.30741"><ele>1488.2</ele><time>2025-11-04T14:26:28Z</time></trkpt>
<trkpt lat="46.28156" lon="7.3074"><ele>1488.6</ele><time>2025-11-04T14:26:30Z</time></trkpt>
<trkpt lat="46.28154" lon="7.30741"><ele>1489</ele><time>2025-11-04T14:26:33Z</time></trkpt>
<trkpt lat="46.2815" lon="7.30743"><ele>1489.6</ele><time>2025-11-04T14:26:36Z</time></trkpt>
<trkpt lat="46.28149" lon="7.30743"><ele>1489.8</ele><time>2025-11-04T14:26:37Z</time></trkpt>
<trkpt lat="46.28147" lon="7.30743"><ele>1490.2</ele><time>2025-11-04T14:26:39Z</time></trkpt>
<trkpt lat="46.28143" lon="7.30744"><ele>1490.6</ele><time>2025-11-04T14:26:42Z</time></trkpt>
<trkpt lat="46.28142" lon="7.30745"><ele>1491</ele><time>2025-11-04T14:26:44Z</time></trkpt>
<trkpt lat="46.2814" lon="7.30746"><ele>1491.2</ele><time>2025-11-04T14:26:45Z</time></trkpt>
<trkpt lat="46.28138" lon="7.30747"><ele>1491.8</ele><time>2025-11-04T14:26:48Z</time></trkpt>
<trkpt lat="46.28136" lon="7.30748"><ele>1492.2</ele><time>2025-11-04T14:26:51Z</time></trkpt>
<trkpt lat="46.28135" lon="7.3075"><ele>1492.6</ele><time>2025-11-04T14:26:53Z</time></trkpt>
<trkpt lat="46.28134" lon="7.30751"><ele>1492.8</ele><time>2025-11-04T14:26:55Z</time></trkpt>
<trkpt lat="46.28132" lon="7.30752"><ele>1493.2</ele><time>2025-11-04T14:26:57Z</time></trkpt>
<trkpt lat="46.2813" lon="7.30754"><ele>1493.8</ele><time>2025-11-04T14:27:00Z</time></trkpt>
<trkpt lat="46.28129" lon="7.30755"><ele>1493.8</ele><time>2025-11-04T14:27:01Z</time></trkpt>
<trkpt lat="46.28127" lon="7.30758"><ele>1494.6</ele><time>2025-11-04T14:27:05Z</time></trkpt>
<trkpt lat="46.28126" lon="7.30759"><ele>1495</ele><time>2025-11-04T14:27:07Z</time></trkpt>
<trkpt lat="46.28123" lon="7.30761"><ele>1495.8</ele><time>2025-11-04T14:27:11Z</time></trkpt>
<trkpt lat="46.28123" lon="7.30762"><ele>1496</ele><time>2025-11-04T14:27:12Z</time></trkpt>
<trkpt lat="46.2812" lon="7.30765"><ele>1496.6</ele><time>2025-11-04T14:27:17Z</time></trkpt>
<trkpt lat="46.28118" lon="7.30766"><ele>1497</ele><time>2025-11-04T14:27:19Z</time></trkpt>
<trkpt lat="46.28115" lon="7.30766"><ele>1497.6</ele><time>2025-11-04T14:27:23Z</time></trkpt>
<trkpt lat="46.28112" lon="7.30765"><ele>1498</ele><time>2025-11-04T14:27:26Z</time></trkpt>
<trkpt lat="46.28108" lon="7.30767"><ele>1498.4</ele><time>2025-11-04T14:27:30Z</time></trkpt>
<trkpt lat="46.28105" lon="7.30767"><ele>1499.2</ele><time>2025-11-04T14:27:34Z</time></trkpt>
<trkpt lat="46.28103" lon="7.30766"><ele>1499.4</ele><time>2025-11-04T14:27:36Z</time></trkpt>
<trkpt lat="46.28101" lon="7.30767"><ele>1499.8</ele><time>2025-11-04T14:27:38Z</time></trkpt>
<trkpt lat="46.28098" lon="7.30767"><ele>1500.2</ele><time>2025-11-04T14:27:41Z</time></trkpt>
<trkpt lat="46.28097" lon="7.30767"><ele>1500.2</ele><time>2025-11-04T14:27:42Z</time></trkpt>
<trkpt lat="46.28094" lon="7.30769"><ele>1501.2</ele><time>2025-11-04T14:27:47Z</time></trkpt>
<trkpt lat="46.28093" lon="7.30771"><ele>1501.4</ele><time>2025-11-04T14:27:48Z</time></trkpt>
<trkpt lat="46.28088" lon="7.30772"><ele>1502.4</ele><time>2025-11-04T14:27:53Z</time></trkpt>
<trkpt lat="46.28087" lon="7.30773"><ele>1502.6</ele><time>2025-11-04T14:27:54Z</time></trkpt>
<trkpt lat="46.28083" lon="7.30776"><ele>1503.2</ele><time>2025-11-04T14:28:00Z</time></trkpt>
<trkpt lat="46.28082" lon="7.30777"><ele>1503.4</ele><time>2025-11-04T14:28:01Z</time></trkpt>
<trkpt lat="46.28078" lon="7.30785"><ele>1504.4</ele><time>2025-11-04T14:28:08Z</time></trkpt>
<trkpt lat="46.28075" lon="7.3079"><ele>1505.2</ele><time>2025-11-04T14:28:13Z</time></trkpt>
<trkpt lat="46.28074" lon="7.30792"><ele>1505.6</ele><time>2025-11-04T14:28:15Z</time></trkpt>
<trkpt lat="46.2807" lon="7.30797"><ele>1506.4</ele><time>2025-11-04T14:28:20Z</time></trkpt>
<trkpt lat="46.28067" lon="7.30798"><ele>1506.6</ele><time>2025-11-04T14:28:23Z</time></trkpt>
<trkpt lat="46.28062" lon="7.30799"><ele>1507.2</ele><time>2025-11-04T14:28:28Z</time></trkpt>
<trkpt lat="46.28057" lon="7.30797"><ele>1507.6</ele><time>2025-11-04T14:28:33Z</time></trkpt>
<trkpt lat="46.28057" lon="7.30796"><ele>1507.6</ele><time>2025-11-04T14:28:34Z</time></trkpt>
<trkpt lat="46.28057" lon="7.30793"><ele>1507.8</ele><time>2025-11-04T14:28:36Z</time></trkpt>
<trkpt lat="46.28059" lon="7.30787"><ele>1508.2</ele><time>2025-11-04T14:28:40Z</time></trkpt>
<trkpt lat="46.28061" lon="7.3078"><ele>1508.8</ele><time>2025-11-04T14:28:44Z</time></trkpt>
<trkpt lat="46.28062" lon="7.30773"><ele>1509.2</ele><time>2025-11-04T14:28:48Z</time></trkpt>
<trkpt lat="46.28064" lon="7.30765"><ele>1509.8</ele><time>2025-11-04T14:28:53Z</time></trkpt>
<trkpt lat="46.28064" lon="7.30764"><ele>1509.8</ele><time>2025-11-04T14:28:54Z</time></trkpt>
<trkpt lat="46.28065" lon="7.30756"><ele>1510.6</ele><time>2025-11-04T14:28:59Z</time></trkpt>
<trkpt lat="46.28066" lon="7.30749"><ele>1510.8</ele><time>2025-11-04T14:29:02Z</time></trkpt>
<trkpt lat="46.28066" lon="7.30741"><ele>1511.2</ele><time>2025-11-04T14:29:05Z</time></trkpt>
<trkpt lat="46.28064" lon="7.30726"><ele>1511.8</ele><time>2025-11-04T14:29:12Z</time></trkpt>
<trkpt lat="46.28064" lon="7.30723"><ele>1511.8</ele><time>2025-11-04T14:29:13Z</time></trkpt>
<trkpt lat="46.28061" lon="7.30708"><ele>1512.2</ele><time>2025-11-04T14:29:19Z</time></trkpt>
<trkpt lat="46.28057" lon="7.30691"><ele>1512.8</ele><time>2025-11-04T14:29:26Z</time></trkpt>
<trkpt lat="46.28056" lon="7.3067"><ele>1512.8</ele><time>2025-11-04T14:29:32Z</time></trkpt>
<trkpt lat="46.28056" lon="7.30667"><ele>1512.8</ele><time>2025-11-04T14:29:33Z</time></trkpt>
<trkpt lat="46.28056" lon="7.30653"><ele>1512.8</ele><time>2025-11-04T14:29:37Z</time></trkpt>
<trkpt lat="46.2805" lon="7.30637"><ele>1513.4</ele><time>2025-11-04T14:29:43Z</time></trkpt>
<trkpt lat="46.28046" lon="7.30632"><ele>1514</ele><time>2025-11-04T14:29:47Z</time></trkpt>
<trkpt lat="46.28043" lon="7.30628"><ele>1514.4</ele><time>2025-11-04T14:29:50Z</time></trkpt>
<trkpt lat="46.28041" lon="7.30626"><ele>1514.6</ele><time>2025-11-04T14:29:51Z</time></trkpt>
<trkpt lat="46.28037" lon="7.30623"><ele>1515</ele><time>2025-11-04T14:29:54Z</time></trkpt>
<trkpt lat="46.28036" lon="7.30622"><ele>1515</ele><time>2025-11-04T14:29:55Z</time></trkpt>
<trkpt lat="46.28031" lon="7.3062"><ele>1515.6</ele><time>2025-11-04T14:29:59Z</time></trkpt>
<trkpt lat="46.28024" lon="7.30619"><ele>1516.2</ele><time>2025-11-04T14:30:04Z</time></trkpt>
<trkpt lat="46.28022" lon="7.30619"><ele>1516.2</ele><time>2025-11-04T14:30:05Z</time></trkpt>
<trkpt lat="46.28015" lon="7.30622"><ele>1517.2</ele><time>2025-11-04T14:30:09Z</time></trkpt>
<trkpt lat="46.28013" lon="7.30622"><ele>1517.4</ele><time>2025-11-04T14:30:10Z</time></trkpt>
<trkpt lat="46.28008" lon="7.30624"><ele>1518.2</ele><time>2025-11-04T14:30:13Z</time></trkpt>
<trkpt lat="46.28004" lon="7.30625"><ele>1519</ele><time>2025-11-04T14:30:16Z</time></trkpt>
<trkpt lat="46.28002" lon="7.30626"><ele>1519.4</ele><time>2025-11-04T14:30:17Z</time></trkpt>
<trkpt lat="46.27997" lon="7.30624"><ele>1520.6</ele><time>2025-11-04T14:30:21Z</time></trkpt>
<trkpt lat="46.27995" lon="7.30624"><ele>1521</ele><time>2025-11-04T14:30:23Z</time></trkpt>
<trkpt lat="46.27996" lon="7.30624"><ele>1521</ele><time>2025-11-04T14:30:29Z</time></trkpt>
<trkpt lat="46.27994" lon="7.30621"><ele>1521.2</ele><time>2025-11-04T14:30:42Z</time></trkpt>
<trkpt lat="46.27993" lon="7.30606"><ele>1521.6</ele><time>2025-11-04T14:30:49Z</time></trkpt>
<trkpt lat="46.27994" lon="7.30586"><ele>1521</ele><time>2025-11-04T14:30:54Z</time></trkpt>
<trkpt lat="46.27993" lon="7.30574"><ele>1520.4</ele><time>2025-11-04T14:30:56Z</time></trkpt>
<trkpt lat="46.27991" lon="7.30549"><ele>1519.6</ele><time>2025-11-04T14:31:00Z</time></trkpt>
<trkpt lat="46.2799" lon="7.30519"><ele>1520.4</ele><time>2025-11-04T14:31:06Z</time></trkpt>
<trkpt lat="46.27989" lon="7.30479"><ele>1520.6</ele><time>2025-11-04T14:31:14Z</time></trkpt>
<trkpt lat="46.27983" lon="7.30437"><ele>1520.8</ele><time>2025-11-04T14:31:22Z</time></trkpt>
<trkpt lat="46.27978" lon="7.30422"><ele>1521.4</ele><time>2025-11-04T14:31:27Z</time></trkpt>
<trkpt lat="46.27975" lon="7.30416"><ele>1521.6</ele><time>2025-11-04T14:31:31Z</time></trkpt>
<trkpt lat="46.27973" lon="7.30414"><ele>1521.8</ele><time>2025-11-04T14:31:33Z</time></trkpt>
<trkpt lat="46.27969" lon="7.30405"><ele>1522.4</ele><time>2025-11-04T14:31:39Z</time></trkpt>
<trkpt lat="46.27967" lon="7.30403"><ele>1522.8</ele><time>2025-11-04T14:31:41Z</time></trkpt>
<trkpt lat="46.27963" lon="7.30399"><ele>1523.2</ele><time>2025-11-04T14:31:45Z</time></trkpt>
<trkpt lat="46.2796" lon="7.30398"><ele>1523.8</ele><time>2025-11-04T14:31:48Z</time></trkpt>
<trkpt lat="46.27957" lon="7.30397"><ele>1524.4</ele><time>2025-11-04T14:31:51Z</time></trkpt>
<trkpt lat="46.27954" lon="7.30398"><ele>1525</ele><time>2025-11-04T14:31:54Z</time></trkpt>
<trkpt lat="46.27953" lon="7.30399"><ele>1525.2</ele><time>2025-11-04T14:31:55Z</time></trkpt>
<trkpt lat="46.27952" lon="7.30399"><ele>1525.4</ele><time>2025-11-04T14:31:56Z</time></trkpt>
<trkpt lat="46.27948" lon="7.30402"><ele>1526</ele><time>2025-11-04T14:32:00Z</time></trkpt>
<trkpt lat="46.27945" lon="7.30404"><ele>1526.4</ele><time>2025-11-04T14:32:03Z</time></trkpt>
<trkpt lat="46.2794" lon="7.30407"><ele>1527</ele><time>2025-11-04T14:32:08Z</time></trkpt>
<trkpt lat="46.27939" lon="7.30407"><ele>1527.2</ele><time>2025-11-04T14:32:09Z</time></trkpt>
<trkpt lat="46.27934" lon="7.30403"><ele>1528</ele><time>2025-11-04T14:32:14Z</time></trkpt>
<trkpt lat="46.27932" lon="7.30402"><ele>1528.2</ele><time>2025-11-04T14:32:16Z</time></trkpt>
<trkpt lat="46.27929" lon="7.30395"><ele>1528.8</ele><time>2025-11-04T14:32:21Z</time></trkpt>
<trkpt lat="46.27926" lon="7.30389"><ele>1529.4</ele><time>2025-11-04T14:32:26Z</time></trkpt>
<trkpt lat="46.27924" lon="7.30385"><ele>1529.8</ele><time>2025-11-04T14:32:29Z</time></trkpt>
<trkpt lat="46.27922" lon="7.30378"><ele>1530.4</ele><time>2025-11-04T14:32:35Z</time></trkpt>
<trkpt lat="46.27918" lon="7.30371"><ele>1531.4</ele><time>2025-11-04T14:32:41Z</time></trkpt>
<trkpt lat="46.27917" lon="7.3037"><ele>1531.6</ele><time>2025-11-04T14:32:42Z</time></trkpt>
<trkpt lat="46.27913" lon="7.30363"><ele>1532.6</ele><time>2025-11-04T14:32:48Z</time></trkpt>
<trkpt lat="46.27912" lon="7.30363"><ele>1532.8</ele><time>2025-11-04T14:32:49Z</time></trkpt>
<trkpt lat="46.2791" lon="7.3036"><ele>1533.2</ele><time>2025-11-04T14:32:52Z</time></trkpt>
<trkpt lat="46.27909" lon="7.30358"><ele>1533.4</ele><time>2025-11-04T14:32:54Z</time></trkpt>
<trkpt lat="46.27909" lon="7.30355"><ele>1533.8</ele><time>2025-11-04T14:32:56Z</time></trkpt>
<trkpt lat="46.27907" lon="7.30353"><ele>1534</ele><time>2025-11-04T14:32:58Z</time></trkpt>
<trkpt lat="46.27905" lon="7.30349"><ele>1534.4</ele><time>2025-11-04T14:33:01Z</time></trkpt>
<trkpt lat="46.27903" lon="7.30345"><ele>1534.8</ele><time>2025-11-04T14:33:04Z</time></trkpt>
<trkpt lat="46.279" lon="7.30339"><ele>1535.4</ele><time>2025-11-04T14:33:09Z</time></trkpt>
<trkpt lat="46.27896" lon="7.30334"><ele>1536</ele><time>2025-11-04T14:33:14Z</time></trkpt>
<trkpt lat="46.27894" lon="7.30333"><ele>1536.2</ele><time>2025-11-04T14:33:16Z</time></trkpt>
<trkpt lat="46.27888" lon="7.30332"><ele>1537</ele><time>2025-11-04T14:33:22Z</time></trkpt>
<trkpt lat="46.27887" lon="7.30332"><ele>1537</ele><time>2025-11-04T14:33:23Z</time></trkpt>
<trkpt lat="46.27881" lon="7.30334"><ele>1537.4</ele><time>2025-11-04T14:33:28Z</time></trkpt>
<trkpt lat="46.27877" lon="7.30339"><ele>1538.2</ele><time>2025-11-04T14:33:33Z</time></trkpt>
<trkpt lat="46.27876" lon="7.30339"><ele>1538.4</ele><time>2025-11-04T14:33:34Z</time></trkpt>
<trkpt lat="46.27873" lon="7.30342"><ele>1539</ele><time>2025-11-04T14:33:38Z</time></trkpt>
<trkpt lat="46.27872" lon="7.30344"><ele>1539.2</ele><time>2025-11-04T14:33:40Z</time></trkpt>
<trkpt lat="46.27872" lon="7.30345"><ele>1539.4</ele><time>2025-11-04T14:33:41Z</time></trkpt>
<trkpt lat="46.27863" lon="7.30349"><ele>1540</ele><time>2025-11-04T14:33:49Z</time></trkpt>
<trkpt lat="46.27862" lon="7.30348"><ele>1540</ele><time>2025-11-04T14:33:50Z</time></trkpt>
<trkpt lat="46.27861" lon="7.30348"><ele>1540.4</ele><time>2025-11-04T14:33:52Z</time></trkpt>
<trkpt lat="46.27858" lon="7.3035"><ele>1540.8</ele><time>2025-11-04T14:33:55Z</time></trkpt>
<trkpt lat="46.27854" lon="7.30352"><ele>1541.6</ele><time>2025-11-04T14:33:59Z</time></trkpt>
<trkpt lat="46.27851" lon="7.30353"><ele>1541.8</ele><time>2025-11-04T14:34:01Z</time></trkpt>
<trkpt lat="46.27848" lon="7.30357"><ele>1542.6</ele><time>2025-11-04T14:34:06Z</time></trkpt>
<trkpt lat="46.27847" lon="7.30357"><ele>1542.6</ele><time>2025-11-04T14:34:07Z</time></trkpt>
<trkpt lat="46.27846" lon="7.30358"><ele>1542.8</ele><time>2025-11-04T14:34:08Z</time></trkpt>
<trkpt lat="46.27843" lon="7.30361"><ele>1543.6</ele><time>2025-11-04T14:34:12Z</time></trkpt>
<trkpt lat="46.27841" lon="7.30364"><ele>1544.4</ele><time>2025-11-04T14:34:15Z</time></trkpt>
<trkpt lat="46.27839" lon="7.30366"><ele>1544.8</ele><time>2025-11-04T14:34:17Z</time></trkpt>
<trkpt lat="46.27834" lon="7.30368"><ele>1545.6</ele><time>2025-11-04T14:34:21Z</time></trkpt>
<trkpt lat="46.27833" lon="7.30369"><ele>1545.8</ele><time>2025-11-04T14:34:22Z</time></trkpt>
<trkpt lat="46.27831" lon="7.3037"><ele>1546.2</ele><time>2025-11-04T14:34:24Z</time></trkpt>
<trkpt lat="46.27829" lon="7.30371"><ele>1546.6</ele><time>2025-11-04T14:34:26Z</time></trkpt>
<trkpt lat="46.27827" lon="7.30371"><ele>1546.8</ele><time>2025-11-04T14:34:28Z</time></trkpt>
<trkpt lat="46.27823" lon="7.3037"><ele>1547.2</ele><time>2025-11-04T14:34:32Z</time></trkpt>
<trkpt lat="46.27819" lon="7.30369"><ele>1547.4</ele><time>2025-11-04T14:34:36Z</time></trkpt>
<trkpt lat="46.27815" lon="7.30365"><ele>1547.8</ele><time>2025-11-04T14:34:42Z</time></trkpt>
<trkpt lat="46.27813" lon="7.30363"><ele>1548</ele><time>2025-11-04T14:34:44Z</time></trkpt>
<trkpt lat="46.27812" lon="7.3036"><ele>1548.2</ele><time>2025-11-04T14:34:47Z</time></trkpt>
<trkpt lat="46.27811" lon="7.30358"><ele>1548.4</ele><time>2025-11-04T14:34:49Z</time></trkpt>
<trkpt lat="46.27807" lon="7.30353"><ele>1549</ele><time>2025-11-04T14:34:56Z</time></trkpt>
<trkpt lat="46.278" lon="7.30351"><ele>1549.6</ele><time>2025-11-04T14:35:03Z</time></trkpt>
<trkpt lat="46.27797" lon="7.3035"><ele>1550</ele><time>2025-11-04T14:35:06Z</time></trkpt>
<trkpt lat="46.27791" lon="7.30346"><ele>1551</ele><time>2025-11-04T14:35:12Z</time></trkpt>
<trkpt lat="46.2779" lon="7.30346"><ele>1551.2</ele><time>2025-11-04T14:35:13Z</time></trkpt>
<trkpt lat="46.27787" lon="7.3034"><ele>1552</ele><time>2025-11-04T14:35:18Z</time></trkpt>
<trkpt lat="46.27786" lon="7.30339"><ele>1552.2</ele><time>2025-11-04T14:35:19Z</time></trkpt>
<trkpt lat="46.27784" lon="7.30332"><ele>1553.2</ele><time>2025-11-04T14:35:25Z</time></trkpt>
<trkpt lat="46.27783" lon="7.3033"><ele>1553.4</ele><time>2025-11-04T14:35:26Z</time></trkpt>
<trkpt lat="46.27783" lon="7.30323"><ele>1553.8</ele><time>2025-11-04T14:35:31Z</time></trkpt>
<trkpt lat="46.27784" lon="7.30316"><ele>1554.2</ele><time>2025-11-04T14:35:36Z</time></trkpt>
<trkpt lat="46.27784" lon="7.30315"><ele>1554.4</ele><time>2025-11-04T14:35:37Z</time></trkpt>
<trkpt lat="46.27788" lon="7.30304"><ele>1555.2</ele><time>2025-11-04T14:35:45Z</time></trkpt>
<trkpt lat="46.27788" lon="7.30302"><ele>1555.6</ele><time>2025-11-04T14:35:47Z</time></trkpt>
<trkpt lat="46.27789" lon="7.30296"><ele>1556</ele><time>2025-11-04T14:35:51Z</time></trkpt>
<trkpt lat="46.2779" lon="7.3029"><ele>1556.6</ele><time>2025-11-04T14:35:55Z</time></trkpt>
<trkpt lat="46.27791" lon="7.30286"><ele>1557</ele><time>2025-11-04T14:35:58Z</time></trkpt>
<trkpt lat="46.27792" lon="7.30278"><ele>1557.6</ele><time>2025-11-04T14:36:03Z</time></trkpt>
<trkpt lat="46.27792" lon="7.30278"><ele>1557.8</ele><time>2025-11-04T14:36:04Z</time></trkpt>
<trkpt lat="46.27794" lon="7.30272"><ele>1558.6</ele><time>2025-11-04T14:36:09Z</time></trkpt>
<trkpt lat="46.27795" lon="7.30269"><ele>1558.8</ele><time>2025-11-04T14:36:11Z</time></trkpt>
<trkpt lat="46.27795" lon="7.30263"><ele>1559.2</ele><time>2025-11-04T14:36:16Z</time></trkpt>
<trkpt lat="46.27798" lon="7.30259"><ele>1559.8</ele><time>2025-11-04T14:36:20Z</time></trkpt>
<trkpt lat="46.27798" lon="7.30258"><ele>1560</ele><time>2025-11-04T14:36:21Z</time></trkpt>
<trkpt lat="46.27804" lon="7.30253"><ele>1560.6</ele><time>2025-11-04T14:36:28Z</time></trkpt>
<trkpt lat="46.27806" lon="7.30251"><ele>1561</ele><time>2025-11-04T14:36:30Z</time></trkpt>
<trkpt lat="46.2781" lon="7.30246"><ele>1561.8</ele><time>2025-11-04T14:36:36Z</time></trkpt>
<trkpt lat="46.27812" lon="7.30244"><ele>1562</ele><time>2025-11-04T14:36:38Z</time></trkpt>
<trkpt lat="46.27816" lon="7.3024"><ele>1562.8</ele><time>2025-11-04T14:36:43Z</time></trkpt>
<trkpt lat="46.27817" lon="7.30238"><ele>1563.2</ele><time>2025-11-04T14:36:45Z</time></trkpt>
<trkpt lat="46.27819" lon="7.30235"><ele>1563.4</ele><time>2025-11-04T14:36:48Z</time></trkpt>
<trkpt lat="46.27823" lon="7.30228"><ele>1564.2</ele><time>2025-11-04T14:36:53Z</time></trkpt>
<trkpt lat="46.27824" lon="7.30225"><ele>1564.4</ele><time>2025-11-04T14:36:55Z</time></trkpt>
<trkpt lat="46.27827" lon="7.3021"><ele>1565</ele><time>2025-11-04T14:37:03Z</time></trkpt>
<trkpt lat="46.27828" lon="7.30206"><ele>1565.2</ele><time>2025-11-04T14:37:05Z</time></trkpt>
<trkpt lat="46.27828" lon="7.30193"><ele>1565.8</ele><time>2025-11-04T14:37:11Z</time></trkpt>
<trkpt lat="46.27828" lon="7.30188"><ele>1566.2</ele><time>2025-11-04T14:37:13Z</time></trkpt>
<trkpt lat="46.27827" lon="7.3018"><ele>1566.8</ele><time>2025-11-04T14:37:17Z</time></trkpt>
<trkpt lat="46.27826" lon="7.30175"><ele>1567.2</ele><time>2025-11-04T14:37:19Z</time></trkpt>
<trkpt lat="46.27827" lon="7.30167"><ele>1567.6</ele><time>2025-11-04T14:37:23Z</time></trkpt>
<trkpt lat="46.27831" lon="7.30157"><ele>1568</ele><time>2025-11-04T14:37:29Z</time></trkpt>
<trkpt lat="46.27834" lon="7.30151"><ele>1568.4</ele><time>2025-11-04T14:37:33Z</time></trkpt>
<trkpt lat="46.27835" lon="7.30145"><ele>1568.8</ele><time>2025-11-04T14:37:36Z</time></trkpt>
<trkpt lat="46.27837" lon="7.30134"><ele>1569.4</ele><time>2025-11-04T14:37:42Z</time></trkpt>
<trkpt lat="46.27836" lon="7.30132"><ele>1569.4</ele><time>2025-11-04T14:37:43Z</time></trkpt>
<trkpt lat="46.27837" lon="7.3012"><ele>1570</ele><time>2025-11-04T14:37:49Z</time></trkpt>
<trkpt lat="46.27835" lon="7.30115"><ele>1570.4</ele><time>2025-11-04T14:37:52Z</time></trkpt>
<trkpt lat="46.27834" lon="7.30109"><ele>1571.2</ele><time>2025-11-04T14:37:56Z</time></trkpt>
<trkpt lat="46.27833" lon="7.30105"><ele>1571.6</ele><time>2025-11-04T14:37:58Z</time></trkpt>
<trkpt lat="46.27833" lon="7.30098"><ele>1572.6</ele><time>2025-11-04T14:38:03Z</time></trkpt>
<trkpt lat="46.27834" lon="7.30096"><ele>1572.6</ele><time>2025-11-04T14:38:04Z</time></trkpt>
<trkpt lat="46.27834" lon="7.30092"><ele>1572.8</ele><time>2025-11-04T14:38:07Z</time></trkpt>
<trkpt lat="46.27834" lon="7.30092"><ele>1573</ele><time>2025-11-04T14:38:08Z</time></trkpt>
<trkpt lat="46.27834" lon="7.30092"><ele>1573.2</ele><time>2025-11-04T14:38:13Z</time></trkpt>
<trkpt lat="46.27834" lon="7.30092"><ele>1573.2</ele><time>2025-11-04T14:38:15Z</time></trkpt>
<trkpt lat="46.27834" lon="7.30092"><ele>1573</ele><time>2025-11-04T14:38:21Z</time></trkpt>
<trkpt lat="46.27834" lon="7.30092"><ele>1573</ele><time>2025-11-04T14:38:24Z</time></trkpt>
<trkpt lat="46.27834" lon="7.30092"><ele>1573.2</ele><time>2025-11-04T14:38:35Z</time></trkpt>
<trkpt lat="46.27834" lon="7.30092"><ele>1573</ele><time>2025-11-04T14:38:45Z</time></trkpt>
<trkpt lat="46.27835" lon="7.30091"><ele>1573.2</ele><time>2025-11-04T14:38:52Z</time></trkpt>
<trkpt lat="46.27835" lon="7.30088"><ele>1573.2</ele><time>2025-11-04T14:38:53Z</time></trkpt>
<trkpt lat="46.27837" lon="7.30084"><ele>1573.4</ele><time>2025-11-04T14:38:56Z</time></trkpt>
<trkpt lat="46.27838" lon="7.30079"><ele>1573.8</ele><time>2025-11-04T14:38:59Z</time></trkpt>
<trkpt lat="46.27841" lon="7.3007"><ele>1574.8</ele><time>2025-11-04T14:39:04Z</time></trkpt>
<trkpt lat="46.27844" lon="7.30064"><ele>1575.2</ele><time>2025-11-04T14:39:07Z</time></trkpt>
<trkpt lat="46.27846" lon="7.30055"><ele>1576</ele><time>2025-11-04T14:39:12Z</time></trkpt>
<trkpt lat="46.27847" lon="7.30052"><ele>1576.2</ele><time>2025-11-04T14:39:14Z</time></trkpt>
<trkpt lat="46.27848" lon="7.30044"><ele>1577</ele><time>2025-11-04T14:39:19Z</time></trkpt>
<trkpt lat="46.27848" lon="7.30038"><ele>1577</ele><time>2025-11-04T14:39:22Z</time></trkpt>
<trkpt lat="46.27844" lon="7.30027"><ele>1577.2</ele><time>2025-11-04T14:39:28Z</time></trkpt>
<trkpt lat="46.27835" lon="7.30022"><ele>1576.8</ele><time>2025-11-04T14:39:33Z</time></trkpt>
<trkpt lat="46.27823" lon="7.30013"><ele>1576.6</ele><time>2025-11-04T14:39:39Z</time></trkpt>
<trkpt lat="46.27815" lon="7.29999"><ele>1576.2</ele><time>2025-11-04T14:39:42Z</time></trkpt>
<trkpt lat="46.27809" lon="7.29987"><ele>1575.6</ele><time>2025-11-04T14:39:44Z</time></trkpt>
<trkpt lat="46.27806" lon="7.29981"><ele>1575.4</ele><time>2025-11-04T14:39:45Z</time></trkpt>
<trkpt lat="46.27798" lon="7.29975"><ele>1574.8</ele><time>2025-11-04T14:39:47Z</time></trkpt>
<trkpt lat="46.27794" lon="7.29973"><ele>1574.6</ele><time>2025-11-04T14:39:48Z</time></trkpt>
<trkpt lat="46.27789" lon="7.2997"><ele>1574.6</ele><time>2025-11-04T14:39:49Z</time></trkpt>
<trkpt lat="46.27773" lon="7.29961"><ele>1573</ele><time>2025-11-04T14:39:52Z</time></trkpt>
<trkpt lat="46.27767" lon="7.29958"><ele>1572.4</ele><time>2025-11-04T14:39:53Z</time></trkpt>
<trkpt lat="46.27754" lon="7.2995"><ele>1571.6</ele><time>2025-11-04T14:39:55Z</time></trkpt>
<trkpt lat="46.27749" lon="7.29946"><ele>1571</ele><time>2025-11-04T14:39:56Z</time></trkpt>
<trkpt lat="46.27745" lon="7.29939"><ele>1569.4</ele><time>2025-11-04T14:39:57Z</time></trkpt>
<trkpt lat="46.27742" lon="7.29932"><ele>1566.4</ele><time>2025-11-04T14:39:58Z</time></trkpt>
<trkpt lat="46.27739" lon="7.29924"><ele>1565.2</ele><time>2025-11-04T14:39:59Z</time></trkpt>
<trkpt lat="46.27736" lon="7.29917"><ele>1564.6</ele><time>2025-11-04T14:40:00Z</time></trkpt>
<trkpt lat="46.27731" lon="7.29913"><ele>1563.8</ele><time>2025-11-04T14:40:01Z</time></trkpt>
<trkpt lat="46.27725" lon="7.2991"><ele>1563.4</ele><time>2025-11-04T14:40:02Z</time></trkpt>
<trkpt lat="46.27718" lon="7.29909"><ele>1562.6</ele><time>2025-11-04T14:40:03Z</time></trkpt>
<trkpt lat="46.27706" lon="7.29904"><ele>1561.4</ele><time>2025-11-04T14:40:05Z</time></trkpt>
<trkpt lat="46.277" lon="7.29901"><ele>1560.8</ele><time>2025-11-04T14:40:06Z</time></trkpt>
<trkpt lat="46.27693" lon="7.299"><ele>1560.6</ele><time>2025-11-04T14:40:07Z</time></trkpt>
<trkpt lat="46.27686" lon="7.29901"><ele>1559.6</ele><time>2025-11-04T14:40:08Z</time></trkpt>
<trkpt lat="46.27679" lon="7.29901"><ele>1558.6</ele><time>2025-11-04T14:40:09Z</time></trkpt>
<trkpt lat="46.27672" lon="7.29902"><ele>1557.6</ele><time>2025-11-04T14:40:10Z</time></trkpt>
<trkpt lat="46.27659" lon="7.29899"><ele>1556.2</ele><time>2025-11-04T14:40:12Z</time></trkpt>
<trkpt lat="46.27645" lon="7.29895"><ele>1554.8</ele><time>2025-11-04T14:40:14Z</time></trkpt>
<trkpt lat="46.27632" lon="7.29889"><ele>1553.6</ele><time>2025-11-04T14:40:16Z</time></trkpt>
<trkpt lat="46.27618" lon="7.2988"><ele>1552</ele><time>2025-11-04T14:40:18Z</time></trkpt>
<trkpt lat="46.27611" lon="7.29875"><ele>1551.4</ele><time>2025-11-04T14:40:19Z</time></trkpt>
<trkpt lat="46.27604" lon="7.2987"><ele>1549.8</ele><time>2025-11-04T14:40:20Z</time></trkpt>
<trkpt lat="46.27596" lon="7.29865"><ele>1548</ele><time>2025-11-04T14:40:21Z</time></trkpt>
<trkpt lat="46.27575" lon="7.29852"><ele>1546.2</ele><time>2025-11-04T14:40:24Z</time></trkpt>
<trkpt lat="46.27568" lon="7.2985"><ele>1545.8</ele><time>2025-11-04T14:40:25Z</time></trkpt>
<trkpt lat="46.27558" lon="7.29843"><ele>1545</ele><time>2025-11-04T14:40:27Z</time></trkpt>
<trkpt lat="46.27553" lon="7.29839"><ele>1544.6</ele><time>2025-11-04T14:40:28Z</time></trkpt>
<trkpt lat="46.27548" lon="7.29834"><ele>1544</ele><time>2025-11-04T14:40:29Z</time></trkpt>
<trkpt lat="46.27544" lon="7.29828"><ele>1543.4</ele><time>2025-11-04T14:40:30Z</time></trkpt>
<trkpt lat="46.27541" lon="7.2982"><ele>1542.4</ele><time>2025-11-04T14:40:31Z</time></trkpt>
<trkpt lat="46.27535" lon="7.29803"><ele>1541.2</ele><time>2025-11-04T14:40:33Z</time></trkpt>
<trkpt lat="46.27532" lon="7.29793"><ele>1540.4</ele><time>2025-11-04T14:40:34Z</time></trkpt>
<trkpt lat="46.27528" lon="7.29785"><ele>1539.6</ele><time>2025-11-04T14:40:35Z</time></trkpt>
<trkpt lat="46.27521" lon="7.29769"><ele>1538.2</ele><time>2025-11-04T14:40:37Z</time></trkpt>
<trkpt lat="46.27515" lon="7.29763"><ele>1537.2</ele><time>2025-11-04T14:40:38Z</time></trkpt>
<trkpt lat="46.27509" lon="7.29758"><ele>1536.2</ele><time>2025-11-04T14:40:39Z</time></trkpt>
<trkpt lat="46.27502" lon="7.29755"><ele>1535.6</ele><time>2025-11-04T14:40:40Z</time></trkpt>
<trkpt lat="46.27495" lon="7.29757"><ele>1534.2</ele><time>2025-11-04T14:40:41Z</time></trkpt>
<trkpt lat="46.27488" lon="7.29759"><ele>1533.4</ele><time>2025-11-04T14:40:42Z</time></trkpt>
<trkpt lat="46.27472" lon="7.29767"><ele>1532</ele><time>2025-11-04T14:40:44Z</time></trkpt>
<trkpt lat="46.27465" lon="7.29772"><ele>1530.8</ele><time>2025-11-04T14:40:45Z</time></trkpt>
<trkpt lat="46.27459" lon="7.29777"><ele>1529.6</ele><time>2025-11-04T14:40:46Z</time></trkpt>
<trkpt lat="46.27453" lon="7.2978"><ele>1528.8</ele><time>2025-11-04T14:40:47Z</time></trkpt>
<trkpt lat="46.27442" lon="7.2978"><ele>1528.6</ele><time>2025-11-04T14:40:49Z</time></trkpt>
<trkpt lat="46.27433" lon="7.29779"><ele>1527.6</ele><time>2025-11-04T14:40:51Z</time></trkpt>
<trkpt lat="46.27425" lon="7.29772"><ele>1526.6</ele><time>2025-11-04T14:40:53Z</time></trkpt>
<trkpt lat="46.27422" lon="7.29767"><ele>1526.2</ele><time>2025-11-04T14:40:54Z</time></trkpt>
<trkpt lat="46.27408" lon="7.29751"><ele>1525</ele><time>2025-11-04T14:40:57Z</time></trkpt>
<trkpt lat="46.27402" lon="7.29749"><ele>1523.8</ele><time>2025-11-04T14:40:58Z</time></trkpt>
<trkpt lat="46.27391" lon="7.29744"><ele>1522.2</ele><time>2025-11-04T14:41:00Z</time></trkpt>
<trkpt lat="46.27384" lon="7.29729"><ele>1521.2</ele><time>2025-11-04T14:41:02Z</time></trkpt>
<trkpt lat="46.27379" lon="7.29709"><ele>1519.8</ele><time>2025-11-04T14:41:04Z</time></trkpt>
<trkpt lat="46.27374" lon="7.29699"><ele>1518.2</ele><time>2025-11-04T14:41:05Z</time></trkpt>
<trkpt lat="46.27368" lon="7.29693"><ele>1516.8</ele><time>2025-11-04T14:41:06Z</time></trkpt>
<trkpt lat="46.2736" lon="7.29691"><ele>1516</ele><time>2025-11-04T14:41:07Z</time></trkpt>
<trkpt lat="46.27351" lon="7.29691"><ele>1515.8</ele><time>2025-11-04T14:41:08Z</time></trkpt>
<trkpt lat="46.27343" lon="7.29694"><ele>1515.2</ele><time>2025-11-04T14:41:09Z</time></trkpt>
<trkpt lat="46.27337" lon="7.29698"><ele>1514.4</ele><time>2025-11-04T14:41:10Z</time></trkpt>
<trkpt lat="46.27331" lon="7.29702"><ele>1514.2</ele><time>2025-11-04T14:41:11Z</time></trkpt>
<trkpt lat="46.27318" lon="7.29709"><ele>1512.6</ele><time>2025-11-04T14:41:13Z</time></trkpt>
<trkpt lat="46.27306" lon="7.29715"><ele>1510.6</ele><time>2025-11-04T14:41:15Z</time></trkpt>
<trkpt lat="46.27299" lon="7.29717"><ele>1509.6</ele><time>2025-11-04T14:41:16Z</time></trkpt>
<trkpt lat="46.27287" lon="7.29722"><ele>1508</ele><time>2025-11-04T14:41:18Z</time></trkpt>
<trkpt lat="46.2728" lon="7.29722"><ele>1507.2</ele><time>2025-11-04T14:41:19Z</time></trkpt>
<trkpt lat="46.27274" lon="7.2972"><ele>1506.4</ele><time>2025-11-04T14:41:20Z</time></trkpt>
<trkpt lat="46.2726" lon="7.29718"><ele>1504.2</ele><time>2025-11-04T14:41:22Z</time></trkpt>
<trkpt lat="46.27251" lon="7.29718"><ele>1502.8</ele><time>2025-11-04T14:41:23Z</time></trkpt>
<trkpt lat="46.27243" lon="7.29719"><ele>1501.8</ele><time>2025-11-04T14:41:24Z</time></trkpt>
<trkpt lat="46.27235" lon="7.2972"><ele>1500.4</ele><time>2025-11-04T14:41:25Z</time></trkpt>
<trkpt lat="46.27218" lon="7.29719"><ele>1498.6</ele><time>2025-11-04T14:41:27Z</time></trkpt>
<trkpt lat="46.27196" lon="7.29717"><ele>1497.6</ele><time>2025-11-04T14:41:30Z</time></trkpt>
<trkpt lat="46.27187" lon="7.29708"><ele>1498</ele><time>2025-11-04T14:41:32Z</time></trkpt>
<trkpt lat="46.27184" lon="7.29702"><ele>1498</ele><time>2025-11-04T14:41:33Z</time></trkpt>
<trkpt lat="46.27166" lon="7.29661"><ele>1497.6</ele><time>2025-11-04T14:41:40Z</time></trkpt>
<trkpt lat="46.27154" lon="7.29638"><ele>1496.4</ele><time>2025-11-04T14:41:45Z</time></trkpt>
<trkpt lat="46.27149" lon="7.29629"><ele>1495.8</ele><time>2025-11-04T14:41:47Z</time></trkpt>
<trkpt lat="46.27146" lon="7.29625"><ele>1495.4</ele><time>2025-11-04T14:41:48Z</time></trkpt>
<trkpt lat="46.27144" lon="7.29619"><ele>1495.2</ele><time>2025-11-04T14:41:49Z</time></trkpt>
<trkpt lat="46.27141" lon="7.29614"><ele>1495</ele><time>2025-11-04T14:41:50Z</time></trkpt>
<trkpt lat="46.27136" lon="7.29608"><ele>1494.6</ele><time>2025-11-04T14:41:51Z</time></trkpt>
<trkpt lat="46.27131" lon="7.29602"><ele>1494</ele><time>2025-11-04T14:41:52Z</time></trkpt>
<trkpt lat="46.27125" lon="7.29597"><ele>1493.2</ele><time>2025-11-04T14:41:53Z</time></trkpt>
<trkpt lat="46.27117" lon="7.29595"><ele>1492</ele><time>2025-11-04T14:41:54Z</time></trkpt>
<trkpt lat="46.2711" lon="7.29595"><ele>1491</ele><time>2025-11-04T14:41:55Z</time></trkpt>
<trkpt lat="46.27103" lon="7.29597"><ele>1490</ele><time>2025-11-04T14:41:56Z</time></trkpt>
<trkpt lat="46.27096" lon="7.29597"><ele>1489.2</ele><time>2025-11-04T14:41:57Z</time></trkpt>
<trkpt lat="46.27089" lon="7.29596"><ele>1488.4</ele><time>2025-11-04T14:41:58Z</time></trkpt>
<trkpt lat="46.27082" lon="7.29595"><ele>1488</ele><time>2025-11-04T14:41:59Z</time></trkpt>
<trkpt lat="46.27075" lon="7.29592"><ele>1487.2</ele><time>2025-11-04T14:42:00Z</time></trkpt>
<trkpt lat="46.27062" lon="7.29586"><ele>1485.6</ele><time>2025-11-04T14:42:02Z</time></trkpt>
<trkpt lat="46.27055" lon="7.29583"><ele>1484.6</ele><time>2025-11-04T14:42:03Z</time></trkpt>
<trkpt lat="46.27048" lon="7.2958"><ele>1483.8</ele><time>2025-11-04T14:42:04Z</time></trkpt>
<trkpt lat="46.27041" lon="7.29576"><ele>1483.4</ele><time>2025-11-04T14:42:05Z</time></trkpt>
<trkpt lat="46.27027" lon="7.29565"><ele>1482</ele><time>2025-11-04T14:42:07Z</time></trkpt>
<trkpt lat="46.2702" lon="7.29561"><ele>1481.4</ele><time>2025-11-04T14:42:08Z</time></trkpt>
<trkpt lat="46.27012" lon="7.29558"><ele>1480.8</ele><time>2025-11-04T14:42:09Z</time></trkpt>
<trkpt lat="46.26998" lon="7.2955"><ele>1479.2</ele><time>2025-11-04T14:42:11Z</time></trkpt>
<trkpt lat="46.26984" lon="7.29539"><ele>1477.4</ele><time>2025-11-04T14:42:13Z</time></trkpt>
<trkpt lat="46.26978" lon="7.29532"><ele>1476.6</ele><time>2025-11-04T14:42:14Z</time></trkpt>
<trkpt lat="46.26973" lon="7.29524"><ele>1475.8</ele><time>2025-11-04T14:42:15Z</time></trkpt>
<trkpt lat="46.2696" lon="7.29509"><ele>1474.2</ele><time>2025-11-04T14:42:17Z</time></trkpt>
<trkpt lat="46.26953" lon="7.29504"><ele>1473.4</ele><time>2025-11-04T14:42:18Z</time></trkpt>
<trkpt lat="46.26948" lon="7.29502"><ele>1472.4</ele><time>2025-11-04T14:42:19Z</time></trkpt>
<trkpt lat="46.26939" lon="7.29495"><ele>1470.6</ele><time>2025-11-04T14:42:21Z</time></trkpt>
<trkpt lat="46.26935" lon="7.2949"><ele>1469.8</ele><time>2025-11-04T14:42:22Z</time></trkpt>
<trkpt lat="46.26932" lon="7.29484"><ele>1469</ele><time>2025-11-04T14:42:23Z</time></trkpt>
<trkpt lat="46.26926" lon="7.29468"><ele>1467.2</ele><time>2025-11-04T14:42:25Z</time></trkpt>
<trkpt lat="46.26923" lon="7.29459"><ele>1466.2</ele><time>2025-11-04T14:42:26Z</time></trkpt>
<trkpt lat="46.26917" lon="7.29454"><ele>1465.2</ele><time>2025-11-04T14:42:27Z</time></trkpt>
<trkpt lat="46.26904" lon="7.2945"><ele>1463.2</ele><time>2025-11-04T14:42:29Z</time></trkpt>
<trkpt lat="46.26898" lon="7.2945"><ele>1462</ele><time>2025-11-04T14:42:30Z</time></trkpt>
<trkpt lat="46.26892" lon="7.2945"><ele>1461</ele><time>2025-11-04T14:42:31Z</time></trkpt>
<trkpt lat="46.26887" lon="7.29449"><ele>1459.8</ele><time>2025-11-04T14:42:32Z</time></trkpt>
<trkpt lat="46.26882" lon="7.29448"><ele>1459</ele><time>2025-11-04T14:42:33Z</time></trkpt>
<trkpt lat="46.26878" lon="7.29446"><ele>1458.2</ele><time>2025-11-04T14:42:34Z</time></trkpt>
<trkpt lat="46.26875" lon="7.29443"><ele>1457.4</ele><time>2025-11-04T14:42:35Z</time></trkpt>
<trkpt lat="46.26872" lon="7.29438"><ele>1456.8</ele><time>2025-11-04T14:42:36Z</time></trkpt>
<trkpt lat="46.2687" lon="7.29434"><ele>1456</ele><time>2025-11-04T14:42:37Z</time></trkpt>
<trkpt lat="46.26867" lon="7.29431"><ele>1455.4</ele><time>2025-11-04T14:42:38Z</time></trkpt>
<trkpt lat="46.26865" lon="7.29425"><ele>1454.2</ele><time>2025-11-04T14:42:40Z</time></trkpt>
<trkpt lat="46.26865" lon="7.29424"><ele>1453.8</ele><time>2025-11-04T14:42:41Z</time></trkpt>
<trkpt lat="46.26865" lon="7.29423"><ele>1453.2</ele><time>2025-11-04T14:42:45Z</time></trkpt>
<trkpt lat="46.26865" lon="7.29423"><ele>1453.2</ele><time>2025-11-04T14:42:47Z</time></trkpt>
<trkpt lat="46.26865" lon="7.29423"><ele>1453.2</ele><time>2025-11-04T14:42:49Z</time></trkpt>
<trkpt lat="46.26865" lon="7.29423"><ele>1453</ele><time>2025-11-04T14:42:55Z</time></trkpt>
<trkpt lat="46.26865" lon="7.29423"><ele>1453</ele><time>2025-11-04T14:42:58Z</time></trkpt>
<trkpt lat="46.26865" lon="7.29423"><ele>1453</ele><time>2025-11-04T14:43:02Z</time></trkpt>
<trkpt lat="46.26865" lon="7.29423"><ele>1453</ele><time>2025-11-04T14:43:04Z</time></trkpt>
<trkpt lat="46.26865" lon="7.29423"><ele>1452.8</ele><time>2025-11-04T14:43:10Z</time></trkpt>
<trkpt lat="46.26865" lon="7.29423"><ele>1452.8</ele><time>2025-11-04T14:43:12Z</time></trkpt>
<trkpt lat="46.26865" lon="7.29423"><ele>1452.8</ele><time>2025-11-04T14:43:13Z</time></trkpt>
<trkpt lat="46.26865" lon="7.29423"><ele>1452.8</ele><time>2025-11-04T14:43:17Z</time></trkpt>
<trkpt lat="46.26865" lon="7.29423"><ele>1452.8</ele><time>2025-11-04T14:43:29Z</time></trkpt>
<trkpt lat="46.26865" lon="7.29423"><ele>1452.8</ele><time>2025-11-04T14:43:44Z</time></trkpt>
<trkpt lat="46.26865" lon="7.29423"><ele>1452.8</ele><time>2025-11-04T14:43:51Z</time></trkpt>
<trkpt lat="46.26865" lon="7.29425"><ele>1452.8</ele><time>2025-11-04T14:43:57Z</time></trkpt>
<trkpt lat="46.26865" lon="7.29425"><ele>1452.8</ele><time>2025-11-04T14:44:01Z</time></trkpt>
<trkpt lat="46.26866" lon="7.29426"><ele>1452.8</ele><time>2025-11-04T14:44:06Z</time></trkpt>
<trkpt lat="46.26865" lon="7.29425"><ele>1452.8</ele><time>2025-11-04T14:44:09Z</time></trkpt>
<trkpt lat="46.26865" lon="7.29425"><ele>1452.8</ele><time>2025-11-04T14:44:12Z</time></trkpt>
<trkpt lat="46.26865" lon="7.29425"><ele>1452.8</ele><time>2025-11-04T14:44:24Z</time></trkpt>
<trkpt lat="46.26865" lon="7.29425"><ele>1452.8</ele><time>2025-11-04T14:44:30Z</time></trkpt>
<trkpt lat="46.26865" lon="7.29425"><ele>1452.8</ele><time>2025-11-04T14:44:37Z</time></trkpt>
<trkpt lat="46.26865" lon="7.29425"><ele>1452.8</ele><time>2025-11-04T14:44:43Z</time></trkpt>
<trkpt lat="46.26865" lon="7.29425"><ele>1452.8</ele><time>2025-11-04T14:44:45Z</time></trkpt>
<trkpt lat="46.26865" lon="7.29425"><ele>1452.8</ele><time>2025-11-04T14:44:47Z</time></trkpt>
<trkpt lat="46.26865" lon="7.29425"><ele>1452.8</ele><time>2025-11-04T14:44:52Z</time></trkpt>
<trkpt lat="46.26865" lon="7.29425"><ele>1452.8</ele><time>2025-11-04T14:44:53Z</time></trkpt>
<trkpt lat="46.26865" lon="7.29425"><ele>1452.8</ele><time>2025-11-04T14:44:55Z</time></trkpt>
<trkpt lat="46.26865" lon="7.29425"><ele>1452.8</ele><time>2025-11-04T14:44:58Z</time></trkpt>
<trkpt lat="46.26865" lon="7.29425"><ele>1452.8</ele><time>2025-11-04T14:44:59Z</time></trkpt>
<trkpt lat="46.26865" lon="7.29425"><ele>1452.8</ele><time>2025-11-04T14:45:01Z</time></trkpt>
<trkpt lat="46.26866" lon="7.29426"><ele>1452.8</ele><time>2025-11-04T14:45:05Z</time></trkpt>
<trkpt lat="46.26865" lon="7.29426"><ele>1452.8</ele><time>2025-11-04T14:45:11Z</time></trkpt>
<trkpt lat="46.26865" lon="7.29425"><ele>1452.8</ele><time>2025-11-04T14:45:17Z</time></trkpt>
<trkpt lat="46.26865" lon="7.29425"><ele>1452.8</ele><time>2025-11-04T14:45:19Z</time></trkpt>
<trkpt lat="46.26866" lon="7.29425"><ele>1452.8</ele><time>2025-11-04T14:45:28Z</time></trkpt>
<trkpt lat="46.26865" lon="7.29427"><ele>1452.8</ele><time>2025-11-04T14:45:29Z</time></trkpt>
<trkpt lat="46.26865" lon="7.29426"><ele>1452.8</ele><time>2025-11-04T14:45:31Z</time></trkpt>
<trkpt lat="46.26865" lon="7.29425"><ele>1452.8</ele><time>2025-11-04T14:45:40Z</time></trkpt>
<trkpt lat="46.26865" lon="7.29425"><ele>1452.8</ele><time>2025-11-04T14:45:49Z</time></trkpt>
<trkpt lat="46.26865" lon="7.29425"><ele>1452.8</ele><time>2025-11-04T14:45:54Z</time></trkpt>
<trkpt lat="46.26865" lon="7.29425"><ele>1452.8</ele><time>2025-11-04T14:45:59Z</time></trkpt>
<trkpt lat="46.26867" lon="7.29417"><ele>1453.4</ele><time>2025-11-04T14:46:04Z</time></trkpt>
<trkpt lat="46.26867" lon="7.29411"><ele>1453</ele><time>2025-11-04T14:46:05Z</time></trkpt>
<trkpt lat="46.2686" lon="7.29399"><ele>1451.8</ele><time>2025-11-04T14:46:07Z</time></trkpt>
<trkpt lat="46.26848" lon="7.29388"><ele>1450.4</ele><time>2025-11-04T14:46:09Z</time></trkpt>
<trkpt lat="46.2684" lon="7.29384"><ele>1449.4</ele><time>2025-11-04T14:46:10Z</time></trkpt>
<trkpt lat="46.26831" lon="7.29381"><ele>1448.4</ele><time>2025-11-04T14:46:11Z</time></trkpt>
<trkpt lat="46.26822" lon="7.29379"><ele>1447.2</ele><time>2025-11-04T14:46:12Z</time></trkpt>
<trkpt lat="46.26814" lon="7.29377"><ele>1446</ele><time>2025-11-04T14:46:13Z</time></trkpt>
<trkpt lat="46.26806" lon="7.29374"><ele>1445</ele><time>2025-11-04T14:46:14Z</time></trkpt>
<trkpt lat="46.26798" lon="7.2937"><ele>1443.8</ele><time>2025-11-04T14:46:15Z</time></trkpt>
<trkpt lat="46.26791" lon="7.29366"><ele>1442.6</ele><time>2025-11-04T14:46:16Z</time></trkpt>
<trkpt lat="46.26783" lon="7.29362"><ele>1441.6</ele><time>2025-11-04T14:46:17Z</time></trkpt>
<trkpt lat="46.26769" lon="7.29355"><ele>1439.6</ele><time>2025-11-04T14:46:19Z</time></trkpt>
<trkpt lat="46.26756" lon="7.2935"><ele>1437.8</ele><time>2025-11-04T14:46:21Z</time></trkpt>
<trkpt lat="46.26745" lon="7.2934"><ele>1436.4</ele><time>2025-11-04T14:46:23Z</time></trkpt>
<trkpt lat="46.26735" lon="7.29327"><ele>1434.8</ele><time>2025-11-04T14:46:25Z</time></trkpt>
<trkpt lat="46.26725" lon="7.29311"><ele>1433</ele><time>2025-11-04T14:46:27Z</time></trkpt>
<trkpt lat="46.2672" lon="7.29303"><ele>1432.2</ele><time>2025-11-04T14:46:28Z</time></trkpt>
<trkpt lat="46.26714" lon="7.29293"><ele>1431.4</ele><time>2025-11-04T14:46:29Z</time></trkpt>
<trkpt lat="46.26704" lon="7.29274"><ele>1430.4</ele><time>2025-11-04T14:46:31Z</time></trkpt>
<trkpt lat="46.26689" lon="7.29245"><ele>1429</ele><time>2025-11-04T14:46:34Z</time></trkpt>
<trkpt lat="46.26678" lon="7.29227"><ele>1427.6</ele><time>2025-11-04T14:46:36Z</time></trkpt>
<trkpt lat="46.2667" lon="7.29209"><ele>1426.2</ele><time>2025-11-04T14:46:38Z</time></trkpt>
<trkpt lat="46.26665" lon="7.292"><ele>1425.4</ele><time>2025-11-04T14:46:39Z</time></trkpt>
<trkpt lat="46.26659" lon="7.29192"><ele>1424.6</ele><time>2025-11-04T14:46:40Z</time></trkpt>
<trkpt lat="46.26646" lon="7.29175"><ele>1422.8</ele><time>2025-11-04T14:46:42Z</time></trkpt>
<trkpt lat="46.26638" lon="7.29166"><ele>1421.6</ele><time>2025-11-04T14:46:43Z</time></trkpt>
<trkpt lat="46.26631" lon="7.29156"><ele>1420.6</ele><time>2025-11-04T14:46:44Z</time></trkpt>
<trkpt lat="46.26622" lon="7.29147"><ele>1419.6</ele><time>2025-11-04T14:46:45Z</time></trkpt>
<trkpt lat="46.26614" lon="7.29137"><ele>1418.4</ele><time>2025-11-04T14:46:46Z</time></trkpt>
<trkpt lat="46.26606" lon="7.29128"><ele>1417.2</ele><time>2025-11-04T14:46:47Z</time></trkpt>
<trkpt lat="46.26597" lon="7.29119"><ele>1416.2</ele><time>2025-11-04T14:46:48Z</time></trkpt>
<trkpt lat="46.26587" lon="7.29111"><ele>1415</ele><time>2025-11-04T14:46:49Z</time></trkpt>
<trkpt lat="46.26579" lon="7.29102"><ele>1413.8</ele><time>2025-11-04T14:46:50Z</time></trkpt>
<trkpt lat="46.2657" lon="7.29093"><ele>1412.8</ele><time>2025-11-04T14:46:51Z</time></trkpt>
<trkpt lat="46.2656" lon="7.29085"><ele>1411.6</ele><time>2025-11-04T14:46:52Z</time></trkpt>
<trkpt lat="46.2655" lon="7.29079"><ele>1410.6</ele><time>2025-11-04T14:46:53Z</time></trkpt>
<trkpt lat="46.26539" lon="7.29073"><ele>1409.4</ele><time>2025-11-04T14:46:54Z</time></trkpt>
<trkpt lat="46.26529" lon="7.29067"><ele>1408.6</ele><time>2025-11-04T14:46:55Z</time></trkpt>
<trkpt lat="46.26519" lon="7.2906"><ele>1407.6</ele><time>2025-11-04T14:46:56Z</time></trkpt>
<trkpt lat="46.2651" lon="7.29052"><ele>1406.6</ele><time>2025-11-04T14:46:57Z</time></trkpt>
<trkpt lat="46.26502" lon="7.29043"><ele>1405.6</ele><time>2025-11-04T14:46:58Z</time></trkpt>
<trkpt lat="46.26494" lon="7.29035"><ele>1404.6</ele><time>2025-11-04T14:46:59Z</time></trkpt>
<trkpt lat="46.26487" lon="7.29027"><ele>1404.2</ele><time>2025-11-04T14:47:00Z</time></trkpt>
<trkpt lat="46.26475" lon="7.29011"><ele>1403</ele><time>2025-11-04T14:47:02Z</time></trkpt>
<trkpt lat="46.26471" lon="7.29003"><ele>1402.6</ele><time>2025-11-04T14:47:03Z</time></trkpt>
<trkpt lat="46.26465" lon="7.28986"><ele>1401.8</ele><time>2025-11-04T14:47:05Z</time></trkpt>
<trkpt lat="46.26461" lon="7.28969"><ele>1401</ele><time>2025-11-04T14:47:07Z</time></trkpt>
<trkpt lat="46.26461" lon="7.2896"><ele>1400.6</ele><time>2025-11-04T14:47:08Z</time></trkpt>
<trkpt lat="46.2646" lon="7.28942"><ele>1400</ele><time>2025-11-04T14:47:10Z</time></trkpt>
<trkpt lat="46.26456" lon="7.28935"><ele>1399.4</ele><time>2025-11-04T14:47:11Z</time></trkpt>
<trkpt lat="46.2645" lon="7.28928"><ele>1398.8</ele><time>2025-11-04T14:47:12Z</time></trkpt>
<trkpt lat="46.26442" lon="7.28923"><ele>1398.2</ele><time>2025-11-04T14:47:13Z</time></trkpt>
<trkpt lat="46.26434" lon="7.28917"><ele>1397.6</ele><time>2025-11-04T14:47:14Z</time></trkpt>
<trkpt lat="46.26427" lon="7.2891"><ele>1396.8</ele><time>2025-11-04T14:47:15Z</time></trkpt>
<trkpt lat="46.26419" lon="7.289"><ele>1396.2</ele><time>2025-11-04T14:47:16Z</time></trkpt>
<trkpt lat="46.26413" lon="7.2889"><ele>1395</ele><time>2025-11-04T14:47:17Z</time></trkpt>
<trkpt lat="46.26407" lon="7.28878"><ele>1393.8</ele><time>2025-11-04T14:47:18Z</time></trkpt>
<trkpt lat="46.264" lon="7.28867"><ele>1392.6</ele><time>2025-11-04T14:47:19Z</time></trkpt>
<trkpt lat="46.26393" lon="7.28858"><ele>1391.2</ele><time>2025-11-04T14:47:20Z</time></trkpt>
<trkpt lat="46.26384" lon="7.28848"><ele>1390.2</ele><time>2025-11-04T14:47:21Z</time></trkpt>
<trkpt lat="46.26376" lon="7.2884"><ele>1389.2</ele><time>2025-11-04T14:47:22Z</time></trkpt>
<trkpt lat="46.26369" lon="7.2883"><ele>1388</ele><time>2025-11-04T14:47:23Z</time></trkpt>
<trkpt lat="46.26363" lon="7.2882"><ele>1387</ele><time>2025-11-04T14:47:24Z</time></trkpt>
<trkpt lat="46.26358" lon="7.28809"><ele>1385.8</ele><time>2025-11-04T14:47:25Z</time></trkpt>
<trkpt lat="46.26355" lon="7.28798"><ele>1384.8</ele><time>2025-11-04T14:47:26Z</time></trkpt>
<trkpt lat="46.26351" lon="7.2879"><ele>1383.6</ele><time>2025-11-04T14:47:27Z</time></trkpt>
<trkpt lat="46.26346" lon="7.28782"><ele>1382.6</ele><time>2025-11-04T14:47:28Z</time></trkpt>
<trkpt lat="46.26341" lon="7.28775"><ele>1382</ele><time>2025-11-04T14:47:29Z</time></trkpt>
<trkpt lat="46.26331" lon="7.28764"><ele>1380.4</ele><time>2025-11-04T14:47:31Z</time></trkpt>
<trkpt lat="46.26326" lon="7.28759"><ele>1380</ele><time>2025-11-04T14:47:32Z</time></trkpt>
<trkpt lat="46.26316" lon="7.28751"><ele>1379.2</ele><time>2025-11-04T14:47:34Z</time></trkpt>
<trkpt lat="46.26299" lon="7.28739"><ele>1378.2</ele><time>2025-11-04T14:47:37Z</time></trkpt>
<trkpt lat="46.26272" lon="7.28729"><ele>1377</ele><time>2025-11-04T14:47:41Z</time></trkpt>
<trkpt lat="46.26265" lon="7.28724"><ele>1376.8</ele><time>2025-11-04T14:47:42Z</time></trkpt>
<trkpt lat="46.26254" lon="7.2871"><ele>1376.4</ele><time>2025-11-04T14:47:44Z</time></trkpt>
<trkpt lat="46.26249" lon="7.28703"><ele>1376.2</ele><time>2025-11-04T14:47:45Z</time></trkpt>
<trkpt lat="46.26243" lon="7.28698"><ele>1376.2</ele><time>2025-11-04T14:47:46Z</time></trkpt>
<trkpt lat="46.26223" lon="7.28684"><ele>1376</ele><time>2025-11-04T14:47:49Z</time></trkpt>
<trkpt lat="46.26216" lon="7.2868"><ele>1375.8</ele><time>2025-11-04T14:47:50Z</time></trkpt>
<trkpt lat="46.2619" lon="7.28668"><ele>1374.8</ele><time>2025-11-04T14:47:54Z</time></trkpt>
<trkpt lat="46.26185" lon="7.28665"><ele>1374.6</ele><time>2025-11-04T14:47:55Z</time></trkpt>
<trkpt lat="46.26175" lon="7.28654"><ele>1373.8</ele><time>2025-11-04T14:47:58Z</time></trkpt>
<trkpt lat="46.26172" lon="7.28652"><ele>1373.4</ele><time>2025-11-04T14:47:59Z</time></trkpt>
<trkpt lat="46.26169" lon="7.28647"><ele>1372.8</ele><time>2025-11-04T14:48:02Z</time></trkpt>
<trkpt lat="46.26167" lon="7.2865"><ele>1372.6</ele><time>2025-11-04T14:48:05Z</time></trkpt>
<trkpt lat="46.26165" lon="7.28651"><ele>1372.4</ele><time>2025-11-04T14:48:06Z</time></trkpt>
<trkpt lat="46.2616" lon="7.28657"><ele>1372</ele><time>2025-11-04T14:48:10Z</time></trkpt>
<trkpt lat="46.26161" lon="7.2866"><ele>1371.8</ele><time>2025-11-04T14:48:11Z</time></trkpt>
<trkpt lat="46.26163" lon="7.28662"><ele>1371.6</ele><time>2025-11-04T14:48:12Z</time></trkpt>
<trkpt lat="46.26172" lon="7.28669"><ele>1371.2</ele><time>2025-11-04T14:48:15Z</time></trkpt>
<trkpt lat="46.26191" lon="7.28685"><ele>1370</ele><time>2025-11-04T14:48:19Z</time></trkpt>
<trkpt lat="46.26197" lon="7.2869"><ele>1369.6</ele><time>2025-11-04T14:48:20Z</time></trkpt>
<trkpt lat="46.26209" lon="7.28699"><ele>1368.6</ele><time>2025-11-04T14:48:22Z</time></trkpt>
<trkpt lat="46.26221" lon="7.28709"><ele>1367.4</ele><time>2025-11-04T14:48:24Z</time></trkpt>
<trkpt lat="46.26226" lon="7.28716"><ele>1366.6</ele><time>2025-11-04T14:48:25Z</time></trkpt>
<trkpt lat="46.2623" lon="7.28726"><ele>1366</ele><time>2025-11-04T14:48:26Z</time></trkpt>
<trkpt lat="46.26239" lon="7.28747"><ele>1364.6</ele><time>2025-11-04T14:48:28Z</time></trkpt>
<trkpt lat="46.26245" lon="7.28756"><ele>1363.8</ele><time>2025-11-04T14:48:29Z</time></trkpt>
<trkpt lat="46.26251" lon="7.28765"><ele>1363</ele><time>2025-11-04T14:48:30Z</time></trkpt>
<trkpt lat="46.26263" lon="7.28782"><ele>1361.2</ele><time>2025-11-04T14:48:32Z</time></trkpt>
<trkpt lat="46.26272" lon="7.288"><ele>1359.6</ele><time>2025-11-04T14:48:34Z</time></trkpt>
<trkpt lat="46.26276" lon="7.28808"><ele>1358.8</ele><time>2025-11-04T14:48:35Z</time></trkpt>
<trkpt lat="46.26279" lon="7.28818"><ele>1358.2</ele><time>2025-11-04T14:48:36Z</time></trkpt>
<trkpt lat="46.26285" lon="7.28836"><ele>1356.4</ele><time>2025-11-04T14:48:38Z</time></trkpt>
<trkpt lat="46.26288" lon="7.28847"><ele>1355.2</ele><time>2025-11-04T14:48:39Z</time></trkpt>
<trkpt lat="46.26291" lon="7.28858"><ele>1353.8</ele><time>2025-11-04T14:48:40Z</time></trkpt>
<trkpt lat="46.26294" lon="7.2887"><ele>1352.6</ele><time>2025-11-04T14:48:41Z</time></trkpt>
<trkpt lat="46.26298" lon="7.28897"><ele>1350.6</ele><time>2025-11-04T14:48:43Z</time></trkpt>
<trkpt lat="46.26299" lon="7.28911"><ele>1350.4</ele><time>2025-11-04T14:48:44Z</time></trkpt>
<trkpt lat="46.26301" lon="7.28957"><ele>1349.6</ele><time>2025-11-04T14:48:47Z</time></trkpt>
<trkpt lat="46.26299" lon="7.28989"><ele>1347.8</ele><time>2025-11-04T14:48:49Z</time></trkpt>
<trkpt lat="46.26296" lon="7.29006"><ele>1346.8</ele><time>2025-11-04T14:48:50Z</time></trkpt>
<trkpt lat="46.26294" lon="7.29022"><ele>1345.8</ele><time>2025-11-04T14:48:51Z</time></trkpt>
<trkpt lat="46.26292" lon="7.29038"><ele>1344.6</ele><time>2025-11-04T14:48:52Z</time></trkpt>
<trkpt lat="46.26293" lon="7.29055"><ele>1343.6</ele><time>2025-11-04T14:48:53Z</time></trkpt>
<trkpt lat="46.26294" lon="7.29073"><ele>1342.6</ele><time>2025-11-04T14:48:54Z</time></trkpt>
<trkpt lat="46.26295" lon="7.2909"><ele>1341.4</ele><time>2025-11-04T14:48:55Z</time></trkpt>
<trkpt lat="46.26295" lon="7.29107"><ele>1340.4</ele><time>2025-11-04T14:48:56Z</time></trkpt>
<trkpt lat="46.26295" lon="7.29124"><ele>1339.2</ele><time>2025-11-04T14:48:57Z</time></trkpt>
<trkpt lat="46.26294" lon="7.29142"><ele>1338.2</ele><time>2025-11-04T14:48:58Z</time></trkpt>
<trkpt lat="46.26293" lon="7.29159"><ele>1337</ele><time>2025-11-04T14:48:59Z</time></trkpt>
<trkpt lat="46.26293" lon="7.29175"><ele>1335.8</ele><time>2025-11-04T14:49:00Z</time></trkpt>
<trkpt lat="46.26294" lon="7.29192"><ele>1334.6</ele><time>2025-11-04T14:49:01Z</time></trkpt>
<trkpt lat="46.26295" lon="7.2921"><ele>1333.4</ele><time>2025-11-04T14:49:02Z</time></trkpt>
<trkpt lat="46.26296" lon="7.29227"><ele>1332.2</ele><time>2025-11-04T14:49:03Z</time></trkpt>
<trkpt lat="46.26299" lon="7.29244"><ele>1331</ele><time>2025-11-04T14:49:04Z</time></trkpt>
<trkpt lat="46.26301" lon="7.29262"><ele>1329.8</ele><time>2025-11-04T14:49:05Z</time></trkpt>
<trkpt lat="46.26305" lon="7.29279"><ele>1328.6</ele><time>2025-11-04T14:49:06Z</time></trkpt>
<trkpt lat="46.26309" lon="7.29296"><ele>1327.4</ele><time>2025-11-04T14:49:07Z</time></trkpt>
<trkpt lat="46.26314" lon="7.29313"><ele>1326.4</ele><time>2025-11-04T14:49:08Z</time></trkpt>
<trkpt lat="46.26318" lon="7.29329"><ele>1325.2</ele><time>2025-11-04T14:49:09Z</time></trkpt>
<trkpt lat="46.26323" lon="7.29346"><ele>1324</ele><time>2025-11-04T14:49:10Z</time></trkpt>
<trkpt lat="46.26329" lon="7.29362"><ele>1322.8</ele><time>2025-11-04T14:49:11Z</time></trkpt>
<trkpt lat="46.26336" lon="7.29377"><ele>1321.6</ele><time>2025-11-04T14:49:12Z</time></trkpt>
<trkpt lat="46.26343" lon="7.29393"><ele>1320.4</ele><time>2025-11-04T14:49:13Z</time></trkpt>
<trkpt lat="46.26348" lon="7.2941"><ele>1319.2</ele><time>2025-11-04T14:49:14Z</time></trkpt>
<trkpt lat="46.26352" lon="7.29428"><ele>1318.4</ele><time>2025-11-04T14:49:15Z</time></trkpt>
<trkpt lat="46.26355" lon="7.29446"><ele>1317</ele><time>2025-11-04T14:49:16Z</time></trkpt>
<trkpt lat="46.26359" lon="7.29464"><ele>1315.8</ele><time>2025-11-04T14:49:17Z</time></trkpt>
<trkpt lat="46.26365" lon="7.29481"><ele>1314.4</ele><time>2025-11-04T14:49:18Z</time></trkpt>
<trkpt lat="46.26371" lon="7.29497"><ele>1313</ele><time>2025-11-04T14:49:19Z</time></trkpt>
<trkpt lat="46.26378" lon="7.29513"><ele>1312</ele><time>2025-11-04T14:49:20Z</time></trkpt>
<trkpt lat="46.26386" lon="7.29529"><ele>1310.8</ele><time>2025-11-04T14:49:21Z</time></trkpt>
<trkpt lat="46.26392" lon="7.29546"><ele>1309.6</ele><time>2025-11-04T14:49:22Z</time></trkpt>
<trkpt lat="46.26395" lon="7.29565"><ele>1308.6</ele><time>2025-11-04T14:49:23Z</time></trkpt>
<trkpt lat="46.26398" lon="7.29584"><ele>1307.4</ele><time>2025-11-04T14:49:24Z</time></trkpt>
<trkpt lat="46.264" lon="7.29602"><ele>1306</ele><time>2025-11-04T14:49:25Z</time></trkpt>
<trkpt lat="46.26403" lon="7.29621"><ele>1304.8</ele><time>2025-11-04T14:49:26Z</time></trkpt>
<trkpt lat="46.26407" lon="7.29639"><ele>1303.2</ele><time>2025-11-04T14:49:27Z</time></trkpt>
<trkpt lat="46.26412" lon="7.29657"><ele>1301.8</ele><time>2025-11-04T14:49:28Z</time></trkpt>
<trkpt lat="46.26417" lon="7.29676"><ele>1300.6</ele><time>2025-11-04T14:49:29Z</time></trkpt>
<trkpt lat="46.26421" lon="7.29694"><ele>1299.2</ele><time>2025-11-04T14:49:30Z</time></trkpt>
<trkpt lat="46.26426" lon="7.29712"><ele>1298</ele><time>2025-11-04T14:49:31Z</time></trkpt>
<trkpt lat="46.26431" lon="7.2973"><ele>1296.8</ele><time>2025-11-04T14:49:32Z</time></trkpt>
<trkpt lat="46.26435" lon="7.29749"><ele>1295.4</ele><time>2025-11-04T14:49:33Z</time></trkpt>
<trkpt lat="46.26437" lon="7.29769"><ele>1294.2</ele><time>2025-11-04T14:49:34Z</time></trkpt>
<trkpt lat="46.26438" lon="7.29788"><ele>1293</ele><time>2025-11-04T14:49:35Z</time></trkpt>
<trkpt lat="46.26437" lon="7.29806"><ele>1291.6</ele><time>2025-11-04T14:49:36Z</time></trkpt>
<trkpt lat="46.26435" lon="7.29822"><ele>1290.4</ele><time>2025-11-04T14:49:37Z</time></trkpt>
<trkpt lat="46.26434" lon="7.29836"><ele>1289</ele><time>2025-11-04T14:49:38Z</time></trkpt>
<trkpt lat="46.26434" lon="7.29848"><ele>1287.8</ele><time>2025-11-04T14:49:39Z</time></trkpt>
<trkpt lat="46.26434" lon="7.29858"><ele>1286.6</ele><time>2025-11-04T14:49:40Z</time></trkpt>
<trkpt lat="46.26434" lon="7.29866"><ele>1285.6</ele><time>2025-11-04T14:49:41Z</time></trkpt>
<trkpt lat="46.26433" lon="7.29876"><ele>1284</ele><time>2025-11-04T14:49:43Z</time></trkpt>
<trkpt lat="46.26433" lon="7.29881"><ele>1283.2</ele><time>2025-11-04T14:49:45Z</time></trkpt>
<trkpt lat="46.26433" lon="7.29882"><ele>1283</ele><time>2025-11-04T14:49:46Z</time></trkpt>
<trkpt lat="46.26433" lon="7.29882"><ele>1282.8</ele><time>2025-11-04T14:49:49Z</time></trkpt>
<trkpt lat="46.26433" lon="7.29882"><ele>1282.6</ele><time>2025-11-04T14:49:58Z</time></trkpt>
<trkpt lat="46.26433" lon="7.29882"><ele>1282.6</ele><time>2025-11-04T14:50:06Z</time></trkpt>
<trkpt lat="46.26433" lon="7.29882"><ele>1282.4</ele><time>2025-11-04T14:50:08Z</time></trkpt>
<trkpt lat="46.26433" lon="7.29883"><ele>1282.6</ele><time>2025-11-04T14:50:19Z</time></trkpt>
<trkpt lat="46.26432" lon="7.29885"><ele>1282.4</ele><time>2025-11-04T14:50:25Z</time></trkpt>
<trkpt lat="46.26431" lon="7.29899"><ele>1282.2</ele><time>2025-11-04T14:50:31Z</time></trkpt>
<trkpt lat="46.26428" lon="7.299"><ele>1282</ele><time>2025-11-04T14:50:33Z</time></trkpt>
<trkpt lat="46.26428" lon="7.29898"><ele>1281.8</ele><time>2025-11-04T14:50:34Z</time></trkpt>
<trkpt lat="46.26428" lon="7.29896"><ele>1281.8</ele><time>2025-11-04T14:50:35Z</time></trkpt>
<trkpt lat="46.26429" lon="7.29891"><ele>1281.6</ele><time>2025-11-04T14:50:38Z</time></trkpt>
<trkpt lat="46.2643" lon="7.29887"><ele>1281.6</ele><time>2025-11-04T14:50:40Z</time></trkpt>
<trkpt lat="46.26431" lon="7.29884"><ele>1281.8</ele><time>2025-11-04T14:50:44Z</time></trkpt>
<trkpt lat="46.26431" lon="7.29883"><ele>1282</ele><time>2025-11-04T14:50:51Z</time></trkpt>
<trkpt lat="46.26431" lon="7.29883"><ele>1282</ele><time>2025-11-04T14:50:54Z</time></trkpt>
<trkpt lat="46.26431" lon="7.29883"><ele>1281.8</ele><time>2025-11-04T14:50:57Z</time></trkpt>
<trkpt lat="46.26429" lon="7.29881"><ele>1281.8</ele><time>2025-11-04T14:51:01Z</time></trkpt>
<trkpt lat="46.26429" lon="7.29881"><ele>1281.8</ele><time>2025-11-04T14:51:07Z</time></trkpt>
<trkpt lat="46.26429" lon="7.29881"><ele>1281.6</ele><time>2025-11-04T14:51:22Z</time></trkpt>
<trkpt lat="46.26429" lon="7.29881"><ele>1281.6</ele><time>2025-11-04T14:51:23Z</time></trkpt>
<trkpt lat="46.26428" lon="7.29883"><ele>1281.2</ele><time>2025-11-04T14:51:30Z</time></trkpt>
<trkpt lat="46.26428" lon="7.29883"><ele>1281.2</ele><time>2025-11-04T14:51:41Z</time></trkpt>
<trkpt lat="46.26428" lon="7.29883"><ele>1281.2</ele><time>2025-11-04T14:51:51Z</time></trkpt>
<trkpt lat="46.26428" lon="7.29883"><ele>1281.2</ele><time>2025-11-04T14:52:01Z</time></trkpt>
<trkpt lat="46.26428" lon="7.29883"><ele>1281</ele><time>2025-11-04T14:52:06Z</time></trkpt>
<trkpt lat="46.26427" lon="7.29885"><ele>1280.8</ele><time>2025-11-04T14:52:08Z</time></trkpt>
<trkpt lat="46.26427" lon="7.29893"><ele>1280.6</ele><time>2025-11-04T14:52:11Z</time></trkpt>
<trkpt lat="46.26425" lon="7.299"><ele>1280.4</ele><time>2025-11-04T14:52:15Z</time></trkpt>
<trkpt lat="46.26424" lon="7.29902"><ele>1280.4</ele><time>2025-11-04T14:52:16Z</time></trkpt>
<trkpt lat="46.2641" lon="7.29903"><ele>1279.8</ele><time>2025-11-04T14:52:21Z</time></trkpt>
<trkpt lat="46.26407" lon="7.29899"><ele>1279.4</ele><time>2025-11-04T14:52:22Z</time></trkpt>
<trkpt lat="46.26403" lon="7.29886"><ele>1278.6</ele><time>2025-11-04T14:52:24Z</time></trkpt>
<trkpt lat="46.26407" lon="7.29868"><ele>1277.6</ele><time>2025-11-04T14:52:26Z</time></trkpt>
<trkpt lat="46.26412" lon="7.29847"><ele>1276.6</ele><time>2025-11-04T14:52:28Z</time></trkpt>
<trkpt lat="46.26412" lon="7.29835"><ele>1276.2</ele><time>2025-11-04T14:52:29Z</time></trkpt>
<trkpt lat="46.26409" lon="7.29823"><ele>1275.6</ele><time>2025-11-04T14:52:30Z</time></trkpt>
<trkpt lat="46.26406" lon="7.29811"><ele>1275</ele><time>2025-11-04T14:52:31Z</time></trkpt>
<trkpt lat="46.26398" lon="7.29787"><ele>1273.8</ele><time>2025-11-04T14:52:33Z</time></trkpt>
<trkpt lat="46.26392" lon="7.29775"><ele>1273</ele><time>2025-11-04T14:52:34Z</time></trkpt>
<trkpt lat="46.26385" lon="7.29764"><ele>1272</ele><time>2025-11-04T14:52:35Z</time></trkpt>
<trkpt lat="46.26369" lon="7.29745"><ele>1270.4</ele><time>2025-11-04T14:52:37Z</time></trkpt>
<trkpt lat="46.26351" lon="7.29726"><ele>1268.6</ele><time>2025-11-04T14:52:39Z</time></trkpt>
<trkpt lat="46.26342" lon="7.29716"><ele>1267.6</ele><time>2025-11-04T14:52:40Z</time></trkpt>
<trkpt lat="46.26335" lon="7.29704"><ele>1266.4</ele><time>2025-11-04T14:52:41Z</time></trkpt>
<trkpt lat="46.26329" lon="7.29691"><ele>1265.4</ele><time>2025-11-04T14:52:42Z</time></trkpt>
<trkpt lat="46.26324" lon="7.29676"><ele>1264.4</ele><time>2025-11-04T14:52:43Z</time></trkpt>
<trkpt lat="46.26319" lon="7.29661"><ele>1263.2</ele><time>2025-11-04T14:52:44Z</time></trkpt>
<trkpt lat="46.26314" lon="7.29646"><ele>1262.2</ele><time>2025-11-04T14:52:45Z</time></trkpt>
<trkpt lat="46.26307" lon="7.29631"><ele>1261</ele><time>2025-11-04T14:52:46Z</time></trkpt>
<trkpt lat="46.26299" lon="7.29617"><ele>1260</ele><time>2025-11-04T14:52:47Z</time></trkpt>
<trkpt lat="46.26291" lon="7.29604"><ele>1258.8</ele><time>2025-11-04T14:52:48Z</time></trkpt>
<trkpt lat="46.26282" lon="7.29592"><ele>1257.4</ele><time>2025-11-04T14:52:49Z</time></trkpt>
<trkpt lat="46.26271" lon="7.29581"><ele>1256.2</ele><time>2025-11-04T14:52:50Z</time></trkpt>
<trkpt lat="46.2626" lon="7.29573"><ele>1255.2</ele><time>2025-11-04T14:52:51Z</time></trkpt>
<trkpt lat="46.26249" lon="7.29567"><ele>1254</ele><time>2025-11-04T14:52:52Z</time></trkpt>
<trkpt lat="46.26238" lon="7.29562"><ele>1252.6</ele><time>2025-11-04T14:52:53Z</time></trkpt>
<trkpt lat="46.26228" lon="7.29556"><ele>1251.4</ele><time>2025-11-04T14:52:54Z</time></trkpt>
<trkpt lat="46.26218" lon="7.2955"><ele>1250.2</ele><time>2025-11-04T14:52:55Z</time></trkpt>
<trkpt lat="46.2621" lon="7.29543"><ele>1248.8</ele><time>2025-11-04T14:52:56Z</time></trkpt>
<trkpt lat="46.26202" lon="7.29533"><ele>1247.6</ele><time>2025-11-04T14:52:57Z</time></trkpt>
<trkpt lat="46.26193" lon="7.29523"><ele>1246.6</ele><time>2025-11-04T14:52:58Z</time></trkpt>
<trkpt lat="46.26184" lon="7.29517"><ele>1245.6</ele><time>2025-11-04T14:52:59Z</time></trkpt>
<trkpt lat="46.26163" lon="7.2951"><ele>1243.8</ele><time>2025-11-04T14:53:01Z</time></trkpt>
<trkpt lat="46.26152" lon="7.29509"><ele>1243</ele><time>2025-11-04T14:53:02Z</time></trkpt>
<trkpt lat="46.26142" lon="7.29507"><ele>1242.4</ele><time>2025-11-04T14:53:03Z</time></trkpt>
<trkpt lat="46.26134" lon="7.29501"><ele>1241.6</ele><time>2025-11-04T14:53:04Z</time></trkpt>
<trkpt lat="46.26127" lon="7.29495"><ele>1241</ele><time>2025-11-04T14:53:05Z</time></trkpt>
<trkpt lat="46.26123" lon="7.29485"><ele>1240.2</ele><time>2025-11-04T14:53:06Z</time></trkpt>
<trkpt lat="46.26121" lon="7.29474"><ele>1239.2</ele><time>2025-11-04T14:53:07Z</time></trkpt>
<trkpt lat="46.26114" lon="7.2945"><ele>1237.6</ele><time>2025-11-04T14:53:09Z</time></trkpt>
<trkpt lat="46.26107" lon="7.29425"><ele>1236</ele><time>2025-11-04T14:53:11Z</time></trkpt>
<trkpt lat="46.26103" lon="7.29411"><ele>1235.2</ele><time>2025-11-04T14:53:12Z</time></trkpt>
<trkpt lat="46.26098" lon="7.29398"><ele>1234.6</ele><time>2025-11-04T14:53:13Z</time></trkpt>
<trkpt lat="46.2609" lon="7.29371"><ele>1233.2</ele><time>2025-11-04T14:53:15Z</time></trkpt>
<trkpt lat="46.26081" lon="7.29343"><ele>1231.8</ele><time>2025-11-04T14:53:17Z</time></trkpt>
<trkpt lat="46.2607" lon="7.29317"><ele>1230.2</ele><time>2025-11-04T14:53:19Z</time></trkpt>
<trkpt lat="46.26062" lon="7.29306"><ele>1229.4</ele><time>2025-11-04T14:53:20Z</time></trkpt>
<trkpt lat="46.26053" lon="7.29296"><ele>1228.6</ele><time>2025-11-04T14:53:21Z</time></trkpt>
<trkpt lat="46.26043" lon="7.2929"><ele>1227.6</ele><time>2025-11-04T14:53:22Z</time></trkpt>
<trkpt lat="46.26031" lon="7.29287"><ele>1226.8</ele><time>2025-11-04T14:53:23Z</time></trkpt>
<trkpt lat="46.2602" lon="7.29286"><ele>1226</ele><time>2025-11-04T14:53:24Z</time></trkpt>
<trkpt lat="46.26008" lon="7.29286"><ele>1225</ele><time>2025-11-04T14:53:25Z</time></trkpt>
<trkpt lat="46.25997" lon="7.29282"><ele>1224</ele><time>2025-11-04T14:53:26Z</time></trkpt>
<trkpt lat="46.25986" lon="7.29274"><ele>1222.8</ele><time>2025-11-04T14:53:27Z</time></trkpt>
<trkpt lat="46.25976" lon="7.29264"><ele>1221.6</ele><time>2025-11-04T14:53:28Z</time></trkpt>
<trkpt lat="46.25965" lon="7.29254"><ele>1220.4</ele><time>2025-11-04T14:53:29Z</time></trkpt>
<trkpt lat="46.25954" lon="7.29245"><ele>1219</ele><time>2025-11-04T14:53:30Z</time></trkpt>
<trkpt lat="46.25943" lon="7.29238"><ele>1217.8</ele><time>2025-11-04T14:53:31Z</time></trkpt>
<trkpt lat="46.2593" lon="7.29233"><ele>1216.8</ele><time>2025-11-04T14:53:32Z</time></trkpt>
<trkpt lat="46.25918" lon="7.2923"><ele>1215.4</ele><time>2025-11-04T14:53:33Z</time></trkpt>
<trkpt lat="46.25905" lon="7.29228"><ele>1214.4</ele><time>2025-11-04T14:53:34Z</time></trkpt>
<trkpt lat="46.25893" lon="7.29224"><ele>1213.2</ele><time>2025-11-04T14:53:35Z</time></trkpt>
<trkpt lat="46.25881" lon="7.29217"><ele>1212</ele><time>2025-11-04T14:53:36Z</time></trkpt>
<trkpt lat="46.25871" lon="7.29207"><ele>1210.8</ele><time>2025-11-04T14:53:37Z</time></trkpt>
<trkpt lat="46.25862" lon="7.29193"><ele>1209.6</ele><time>2025-11-04T14:53:38Z</time></trkpt>
<trkpt lat="46.25854" lon="7.29178"><ele>1208.4</ele><time>2025-11-04T14:53:39Z</time></trkpt>
<trkpt lat="46.25845" lon="7.29166"><ele>1207.2</ele><time>2025-11-04T14:53:40Z</time></trkpt>
<trkpt lat="46.25834" lon="7.29158"><ele>1206</ele><time>2025-11-04T14:53:41Z</time></trkpt>
<trkpt lat="46.25822" lon="7.29153"><ele>1204.8</ele><time>2025-11-04T14:53:42Z</time></trkpt>
<trkpt lat="46.2581" lon="7.2915"><ele>1203.6</ele><time>2025-11-04T14:53:43Z</time></trkpt>
<trkpt lat="46.25797" lon="7.29148"><ele>1202.6</ele><time>2025-11-04T14:53:44Z</time></trkpt>
<trkpt lat="46.25785" lon="7.29142"><ele>1201.2</ele><time>2025-11-04T14:53:45Z</time></trkpt>
<trkpt lat="46.25775" lon="7.29133"><ele>1200</ele><time>2025-11-04T14:53:46Z</time></trkpt>
<trkpt lat="46.25765" lon="7.29125"><ele>1198.8</ele><time>2025-11-04T14:53:47Z</time></trkpt>
<trkpt lat="46.25753" lon="7.29121"><ele>1197.4</ele><time>2025-11-04T14:53:48Z</time></trkpt>
<trkpt lat="46.25742" lon="7.2912"><ele>1196</ele><time>2025-11-04T14:53:49Z</time></trkpt>
<trkpt lat="46.25729" lon="7.29121"><ele>1194.8</ele><time>2025-11-04T14:53:50Z</time></trkpt>
<trkpt lat="46.25717" lon="7.29123"><ele>1193.6</ele><time>2025-11-04T14:53:51Z</time></trkpt>
<trkpt lat="46.25704" lon="7.29125"><ele>1192.6</ele><time>2025-11-04T14:53:52Z</time></trkpt>
<trkpt lat="46.25692" lon="7.29129"><ele>1191.6</ele><time>2025-11-04T14:53:53Z</time></trkpt>
<trkpt lat="46.2568" lon="7.29134"><ele>1190.4</ele><time>2025-11-04T14:53:54Z</time></trkpt>
<trkpt lat="46.25668" lon="7.29139"><ele>1189.2</ele><time>2025-11-04T14:53:55Z</time></trkpt>
<trkpt lat="46.25658" lon="7.2914"><ele>1188</ele><time>2025-11-04T14:53:56Z</time></trkpt>
<trkpt lat="46.2565" lon="7.29136"><ele>1187</ele><time>2025-11-04T14:53:57Z</time></trkpt>
<trkpt lat="46.25643" lon="7.2913"><ele>1185.8</ele><time>2025-11-04T14:53:58Z</time></trkpt>
<trkpt lat="46.25638" lon="7.29121"><ele>1184.6</ele><time>2025-11-04T14:53:59Z</time></trkpt>
<trkpt lat="46.25633" lon="7.29112"><ele>1183.6</ele><time>2025-11-04T14:54:00Z</time></trkpt>
<trkpt lat="46.25627" lon="7.29107"><ele>1182.8</ele><time>2025-11-04T14:54:01Z</time></trkpt>
<trkpt lat="46.2562" lon="7.29104"><ele>1182</ele><time>2025-11-04T14:54:02Z</time></trkpt>
<trkpt lat="46.25614" lon="7.291"><ele>1181.6</ele><time>2025-11-04T14:54:03Z</time></trkpt>
<trkpt lat="46.25611" lon="7.29094"><ele>1181.2</ele><time>2025-11-04T14:54:04Z</time></trkpt>
<trkpt lat="46.25609" lon="7.29088"><ele>1181.2</ele><time>2025-11-04T14:54:05Z</time></trkpt>
<trkpt lat="46.2561" lon="7.29077"><ele>1181.4</ele><time>2025-11-04T14:54:07Z</time></trkpt>
<trkpt lat="46.25605" lon="7.29058"><ele>1181.8</ele><time>2025-11-04T14:54:11Z</time></trkpt>
<trkpt lat="46.256" lon="7.29042"><ele>1182.6</ele><time>2025-11-04T14:54:15Z</time></trkpt>
<trkpt lat="46.25599" lon="7.29038"><ele>1182.8</ele><time>2025-11-04T14:54:16Z</time></trkpt>
<trkpt lat="46.25598" lon="7.29034"><ele>1183</ele><time>2025-11-04T14:54:17Z</time></trkpt>
<trkpt lat="46.2559" lon="7.29025"><ele>1183.4</ele><time>2025-11-04T14:54:20Z</time></trkpt>
<trkpt lat="46.25583" lon="7.29024"><ele>1183.4</ele><time>2025-11-04T14:54:23Z</time></trkpt>
<trkpt lat="46.25585" lon="7.29024"><ele>1183.2</ele><time>2025-11-04T14:54:26Z</time></trkpt>
<trkpt lat="46.25588" lon="7.29023"><ele>1183.2</ele><time>2025-11-04T14:54:27Z</time></trkpt>
<trkpt lat="46.25593" lon="7.29025"><ele>1183.2</ele><time>2025-11-04T14:54:30Z</time></trkpt>
<trkpt lat="46.25595" lon="7.29029"><ele>1183.2</ele><time>2025-11-04T14:54:31Z</time></trkpt>
<trkpt lat="46.25604" lon="7.29054"><ele>1182.6</ele><time>2025-11-04T14:54:36Z</time></trkpt>
<trkpt lat="46.25607" lon="7.29069"><ele>1182.2</ele><time>2025-11-04T14:54:38Z</time></trkpt>
<trkpt lat="46.25608" lon="7.29076"><ele>1182</ele><time>2025-11-04T14:54:39Z</time></trkpt>
<trkpt lat="46.25609" lon="7.29083"><ele>1181.6</ele><time>2025-11-04T14:54:40Z</time></trkpt>
<trkpt lat="46.25613" lon="7.29098"><ele>1180.8</ele><time>2025-11-04T14:54:43Z</time></trkpt>
<trkpt lat="46.25615" lon="7.29103"><ele>1180.6</ele><time>2025-11-04T14:54:44Z</time></trkpt>
<trkpt lat="46.25621" lon="7.29125"><ele>1179.8</ele><time>2025-11-04T14:54:47Z</time></trkpt>
<trkpt lat="46.25625" lon="7.29132"><ele>1179.4</ele><time>2025-11-04T14:54:48Z</time></trkpt>
<trkpt lat="46.25633" lon="7.29149"><ele>1178.4</ele><time>2025-11-04T14:54:50Z</time></trkpt>
<trkpt lat="46.25647" lon="7.29161"><ele>1177.2</ele><time>2025-11-04T14:54:52Z</time></trkpt>
<trkpt lat="46.25662" lon="7.29172"><ele>1176</ele><time>2025-11-04T14:54:54Z</time></trkpt>
<trkpt lat="46.25679" lon="7.29183"><ele>1174.4</ele><time>2025-11-04T14:54:56Z</time></trkpt>
<trkpt lat="46.25696" lon="7.29199"><ele>1172.8</ele><time>2025-11-04T14:54:58Z</time></trkpt>
<trkpt lat="46.25704" lon="7.29209"><ele>1172.2</ele><time>2025-11-04T14:54:59Z</time></trkpt>
<trkpt lat="46.25711" lon="7.2922"><ele>1171.2</ele><time>2025-11-04T14:55:00Z</time></trkpt>
<trkpt lat="46.25726" lon="7.29244"><ele>1169.2</ele><time>2025-11-04T14:55:02Z</time></trkpt>
<trkpt lat="46.25735" lon="7.29254"><ele>1168</ele><time>2025-11-04T14:55:03Z</time></trkpt>
<trkpt lat="46.25745" lon="7.29264"><ele>1166.8</ele><time>2025-11-04T14:55:04Z</time></trkpt>
<trkpt lat="46.25754" lon="7.29275"><ele>1165.8</ele><time>2025-11-04T14:55:05Z</time></trkpt>
<trkpt lat="46.25763" lon="7.29288"><ele>1164.6</ele><time>2025-11-04T14:55:06Z</time></trkpt>
<trkpt lat="46.25768" lon="7.29304"><ele>1163.6</ele><time>2025-11-04T14:55:07Z</time></trkpt>
<trkpt lat="46.25773" lon="7.2932"><ele>1162.4</ele><time>2025-11-04T14:55:08Z</time></trkpt>
<trkpt lat="46.2578" lon="7.29333"><ele>1161</ele><time>2025-11-04T14:55:09Z</time></trkpt>
<trkpt lat="46.25789" lon="7.29344"><ele>1159.8</ele><time>2025-11-04T14:55:10Z</time></trkpt>
<trkpt lat="46.25795" lon="7.29357"><ele>1158.6</ele><time>2025-11-04T14:55:11Z</time></trkpt>
<trkpt lat="46.25798" lon="7.29372"><ele>1157.4</ele><time>2025-11-04T14:55:12Z</time></trkpt>
<trkpt lat="46.25799" lon="7.29387"><ele>1156.2</ele><time>2025-11-04T14:55:13Z</time></trkpt>
<trkpt lat="46.25802" lon="7.29401"><ele>1155.2</ele><time>2025-11-04T14:55:14Z</time></trkpt>
<trkpt lat="46.25808" lon="7.29412"><ele>1154</ele><time>2025-11-04T14:55:15Z</time></trkpt>
<trkpt lat="46.25817" lon="7.29421"><ele>1153.2</ele><time>2025-11-04T14:55:16Z</time></trkpt>
<trkpt lat="46.25826" lon="7.2943"><ele>1152.2</ele><time>2025-11-04T14:55:17Z</time></trkpt>
<trkpt lat="46.25834" lon="7.29441"><ele>1151.4</ele><time>2025-11-04T14:55:18Z</time></trkpt>
<trkpt lat="46.25841" lon="7.29454"><ele>1150.4</ele><time>2025-11-04T14:55:19Z</time></trkpt>
<trkpt lat="46.25845" lon="7.29469"><ele>1149.4</ele><time>2025-11-04T14:55:20Z</time></trkpt>
<trkpt lat="46.25847" lon="7.29485"><ele>1148.4</ele><time>2025-11-04T14:55:21Z</time></trkpt>
<trkpt lat="46.25849" lon="7.29502"><ele>1147.2</ele><time>2025-11-04T14:55:22Z</time></trkpt>
<trkpt lat="46.25848" lon="7.29518"><ele>1146.2</ele><time>2025-11-04T14:55:23Z</time></trkpt>
<trkpt lat="46.25846" lon="7.29535"><ele>1145</ele><time>2025-11-04T14:55:24Z</time></trkpt>
<trkpt lat="46.25843" lon="7.29552"><ele>1144</ele><time>2025-11-04T14:55:25Z</time></trkpt>
<trkpt lat="46.25841" lon="7.2957"><ele>1142.6</ele><time>2025-11-04T14:55:26Z</time></trkpt>
<trkpt lat="46.2584" lon="7.29588"><ele>1141.4</ele><time>2025-11-04T14:55:27Z</time></trkpt>
<trkpt lat="46.25839" lon="7.29606"><ele>1140.2</ele><time>2025-11-04T14:55:28Z</time></trkpt>
<trkpt lat="46.25839" lon="7.29625"><ele>1138.8</ele><time>2025-11-04T14:55:29Z</time></trkpt>
<trkpt lat="46.25838" lon="7.29661"><ele>1136.4</ele><time>2025-11-04T14:55:31Z</time></trkpt>
<trkpt lat="46.25838" lon="7.2968"><ele>1135</ele><time>2025-11-04T14:55:32Z</time></trkpt>
<trkpt lat="46.25837" lon="7.29699"><ele>1133.8</ele><time>2025-11-04T14:55:33Z</time></trkpt>
<trkpt lat="46.25835" lon="7.29718"><ele>1132.4</ele><time>2025-11-04T14:55:34Z</time></trkpt>
<trkpt lat="46.25833" lon="7.29738"><ele>1131.2</ele><time>2025-11-04T14:55:35Z</time></trkpt>
<trkpt lat="46.25832" lon="7.29757"><ele>1130</ele><time>2025-11-04T14:55:36Z</time></trkpt>
<trkpt lat="46.25831" lon="7.29776"><ele>1128.8</ele><time>2025-11-04T14:55:37Z</time></trkpt>
<trkpt lat="46.25829" lon="7.29795"><ele>1127.4</ele><time>2025-11-04T14:55:38Z</time></trkpt>
<trkpt lat="46.25827" lon="7.29814"><ele>1126</ele><time>2025-11-04T14:55:39Z</time></trkpt>
<trkpt lat="46.25825" lon="7.29834"><ele>1125</ele><time>2025-11-04T14:55:40Z</time></trkpt>
<trkpt lat="46.25823" lon="7.29854"><ele>1123.6</ele><time>2025-11-04T14:55:41Z</time></trkpt>
<trkpt lat="46.25822" lon="7.29873"><ele>1121.8</ele><time>2025-11-04T14:55:42Z</time></trkpt>
<trkpt lat="46.25821" lon="7.29892"><ele>1120.8</ele><time>2025-11-04T14:55:43Z</time></trkpt>
<trkpt lat="46.25821" lon="7.29912"><ele>1119.2</ele><time>2025-11-04T14:55:44Z</time></trkpt>
<trkpt lat="46.25822" lon="7.2993"><ele>1118</ele><time>2025-11-04T14:55:45Z</time></trkpt>
<trkpt lat="46.25822" lon="7.29946"><ele>1116.4</ele><time>2025-11-04T14:55:46Z</time></trkpt>
<trkpt lat="46.25823" lon="7.29958"><ele>1114.8</ele><time>2025-11-04T14:55:47Z</time></trkpt>
<trkpt lat="46.25824" lon="7.29968"><ele>1113.6</ele><time>2025-11-04T14:55:48Z</time></trkpt>
<trkpt lat="46.25825" lon="7.29978"><ele>1112.2</ele><time>2025-11-04T14:55:49Z</time></trkpt>
<trkpt lat="46.25826" lon="7.29988"><ele>1111.2</ele><time>2025-11-04T14:55:50Z</time></trkpt>
<trkpt lat="46.25829" lon="7.30009"><ele>1109.8</ele><time>2025-11-04T14:55:52Z</time></trkpt>
<trkpt lat="46.25832" lon="7.30029"><ele>1108.4</ele><time>2025-11-04T14:55:54Z</time></trkpt>
<trkpt lat="46.25836" lon="7.3005"><ele>1107</ele><time>2025-11-04T14:55:56Z</time></trkpt>
<trkpt lat="46.25841" lon="7.30071"><ele>1105.4</ele><time>2025-11-04T14:55:58Z</time></trkpt>
<trkpt lat="46.25846" lon="7.30091"><ele>1103.6</ele><time>2025-11-04T14:56:00Z</time></trkpt>
<trkpt lat="46.25848" lon="7.30101"><ele>1103</ele><time>2025-11-04T14:56:01Z</time></trkpt>
<trkpt lat="46.25848" lon="7.30111"><ele>1102.2</ele><time>2025-11-04T14:56:02Z</time></trkpt>
<trkpt lat="46.25848" lon="7.3013"><ele>1100.8</ele><time>2025-11-04T14:56:04Z</time></trkpt>
<trkpt lat="46.25847" lon="7.30139"><ele>1100</ele><time>2025-11-04T14:56:05Z</time></trkpt>
<trkpt lat="46.25847" lon="7.30149"><ele>1099.4</ele><time>2025-11-04T14:56:06Z</time></trkpt>
<trkpt lat="46.25844" lon="7.3016"><ele>1098.8</ele><time>2025-11-04T14:56:07Z</time></trkpt>
<trkpt lat="46.2584" lon="7.3017"><ele>1098.2</ele><time>2025-11-04T14:56:08Z</time></trkpt>
<trkpt lat="46.25834" lon="7.30178"><ele>1097.4</ele><time>2025-11-04T14:56:09Z</time></trkpt>
<trkpt lat="46.25826" lon="7.30185"><ele>1096.6</ele><time>2025-11-04T14:56:10Z</time></trkpt>
<trkpt lat="46.25817" lon="7.30191"><ele>1096</ele><time>2025-11-04T14:56:11Z</time></trkpt>
<trkpt lat="46.25809" lon="7.30199"><ele>1095.2</ele><time>2025-11-04T14:56:12Z</time></trkpt>
<trkpt lat="46.25798" lon="7.30222"><ele>1093.8</ele><time>2025-11-04T14:56:14Z</time></trkpt>
<trkpt lat="46.25806" lon="7.30247"><ele>1092.4</ele><time>2025-11-04T14:56:16Z</time></trkpt>
<trkpt lat="46.25824" lon="7.30257"><ele>1091</ele><time>2025-11-04T14:56:18Z</time></trkpt>
<trkpt lat="46.25845" lon="7.30267"><ele>1089.4</ele><time>2025-11-04T14:56:20Z</time></trkpt>
<trkpt lat="46.25854" lon="7.30276"><ele>1088.4</ele><time>2025-11-04T14:56:21Z</time></trkpt>
<trkpt lat="46.25863" lon="7.30286"><ele>1087.4</ele><time>2025-11-04T14:56:22Z</time></trkpt>
<trkpt lat="46.25873" lon="7.30293"><ele>1086.4</ele><time>2025-11-04T14:56:23Z</time></trkpt>
<trkpt lat="46.25885" lon="7.30298"><ele>1085.4</ele><time>2025-11-04T14:56:24Z</time></trkpt>
<trkpt lat="46.25907" lon="7.30306"><ele>1083.6</ele><time>2025-11-04T14:56:26Z</time></trkpt>
<trkpt lat="46.25916" lon="7.30315"><ele>1082.6</ele><time>2025-11-04T14:56:27Z</time></trkpt>
<trkpt lat="46.25923" lon="7.30326"><ele>1081.6</ele><time>2025-11-04T14:56:28Z</time></trkpt>
<trkpt lat="46.25928" lon="7.30341"><ele>1080.6</ele><time>2025-11-04T14:56:29Z</time></trkpt>
<trkpt lat="46.25932" lon="7.30357"><ele>1079.4</ele><time>2025-11-04T14:56:30Z</time></trkpt>
<trkpt lat="46.25938" lon="7.3039"><ele>1077.4</ele><time>2025-11-04T14:56:32Z</time></trkpt>
<trkpt lat="46.25944" lon="7.30404"><ele>1076.4</ele><time>2025-11-04T14:56:33Z</time></trkpt>
<trkpt lat="46.25953" lon="7.30412"><ele>1075.4</ele><time>2025-11-04T14:56:34Z</time></trkpt>
<trkpt lat="46.25964" lon="7.30416"><ele>1074.4</ele><time>2025-11-04T14:56:35Z</time></trkpt>
<trkpt lat="46.25974" lon="7.30416"><ele>1073.4</ele><time>2025-11-04T14:56:36Z</time></trkpt>
<trkpt lat="46.25983" lon="7.30419"><ele>1072.6</ele><time>2025-11-04T14:56:37Z</time></trkpt>
<trkpt lat="46.2599" lon="7.30428"><ele>1071.8</ele><time>2025-11-04T14:56:38Z</time></trkpt>
<trkpt lat="46.25993" lon="7.30439"><ele>1071</ele><time>2025-11-04T14:56:39Z</time></trkpt>
<trkpt lat="46.25993" lon="7.30452"><ele>1070.2</ele><time>2025-11-04T14:56:40Z</time></trkpt>
<trkpt lat="46.25992" lon="7.30464"><ele>1069.6</ele><time>2025-11-04T14:56:41Z</time></trkpt>
<trkpt lat="46.25989" lon="7.30489"><ele>1068.2</ele><time>2025-11-04T14:56:43Z</time></trkpt>
<trkpt lat="46.25994" lon="7.30517"><ele>1067</ele><time>2025-11-04T14:56:45Z</time></trkpt>
<trkpt lat="46.25994" lon="7.3053"><ele>1066.6</ele><time>2025-11-04T14:56:46Z</time></trkpt>
<trkpt lat="46.25989" lon="7.30539"><ele>1066</ele><time>2025-11-04T14:56:47Z</time></trkpt>
<trkpt lat="46.25982" lon="7.30541"><ele>1065.6</ele><time>2025-11-04T14:56:48Z</time></trkpt>
<trkpt lat="46.25977" lon="7.30537"><ele>1065</ele><time>2025-11-04T14:56:49Z</time></trkpt>
<trkpt lat="46.25975" lon="7.30529"><ele>1064.4</ele><time>2025-11-04T14:56:50Z</time></trkpt>
<trkpt lat="46.25977" lon="7.3052"><ele>1063.8</ele><time>2025-11-04T14:56:51Z</time></trkpt>
<trkpt lat="46.25979" lon="7.30509"><ele>1063.2</ele><time>2025-11-04T14:56:52Z</time></trkpt>
<trkpt lat="46.25982" lon="7.30484"><ele>1062</ele><time>2025-11-04T14:56:54Z</time></trkpt>
<trkpt lat="46.2597" lon="7.30464"><ele>1060.8</ele><time>2025-11-04T14:56:56Z</time></trkpt>
<trkpt lat="46.25953" lon="7.30466"><ele>1059.2</ele><time>2025-11-04T14:56:58Z</time></trkpt>
<trkpt lat="46.25934" lon="7.3047"><ele>1057.8</ele><time>2025-11-04T14:57:00Z</time></trkpt>
<trkpt lat="46.25925" lon="7.30465"><ele>1057</ele><time>2025-11-04T14:57:01Z</time></trkpt>
<trkpt lat="46.25915" lon="7.30459"><ele>1056.2</ele><time>2025-11-04T14:57:02Z</time></trkpt>
<trkpt lat="46.25896" lon="7.30444"><ele>1054.4</ele><time>2025-11-04T14:57:04Z</time></trkpt>
<trkpt lat="46.25887" lon="7.30437"><ele>1053.4</ele><time>2025-11-04T14:57:05Z</time></trkpt>
<trkpt lat="46.25876" lon="7.30433"><ele>1052.2</ele><time>2025-11-04T14:57:06Z</time></trkpt>
<trkpt lat="46.25865" lon="7.30432"><ele>1051.6</ele><time>2025-11-04T14:57:07Z</time></trkpt>
<trkpt lat="46.25854" lon="7.30433"><ele>1050.4</ele><time>2025-11-04T14:57:08Z</time></trkpt>
<trkpt lat="46.25843" lon="7.30433"><ele>1049.4</ele><time>2025-11-04T14:57:09Z</time></trkpt>
<trkpt lat="46.25831" lon="7.30433"><ele>1048.2</ele><time>2025-11-04T14:57:10Z</time></trkpt>
<trkpt lat="46.25819" lon="7.30434"><ele>1047.2</ele><time>2025-11-04T14:57:11Z</time></trkpt>
<trkpt lat="46.25795" lon="7.30433"><ele>1045.4</ele><time>2025-11-04T14:57:13Z</time></trkpt>
<trkpt lat="46.25783" lon="7.30431"><ele>1044.2</ele><time>2025-11-04T14:57:14Z</time></trkpt>
<trkpt lat="46.25759" lon="7.30427"><ele>1042.2</ele><time>2025-11-04T14:57:16Z</time></trkpt>
<trkpt lat="46.25747" lon="7.30425"><ele>1041.2</ele><time>2025-11-04T14:57:17Z</time></trkpt>
<trkpt lat="46.25735" lon="7.30421"><ele>1040.2</ele><time>2025-11-04T14:57:18Z</time></trkpt>
<trkpt lat="46.25724" lon="7.30414"><ele>1039.2</ele><time>2025-11-04T14:57:19Z</time></trkpt>
<trkpt lat="46.25714" lon="7.30407"><ele>1038.2</ele><time>2025-11-04T14:57:20Z</time></trkpt>
<trkpt lat="46.25705" lon="7.30397"><ele>1037.2</ele><time>2025-11-04T14:57:21Z</time></trkpt>
<trkpt lat="46.25697" lon="7.30386"><ele>1036.2</ele><time>2025-11-04T14:57:22Z</time></trkpt>
<trkpt lat="46.25691" lon="7.30373"><ele>1035.2</ele><time>2025-11-04T14:57:23Z</time></trkpt>
<trkpt lat="46.25685" lon="7.3036"><ele>1034.2</ele><time>2025-11-04T14:57:24Z</time></trkpt>
<trkpt lat="46.25679" lon="7.30346"><ele>1033.2</ele><time>2025-11-04T14:57:25Z</time></trkpt>
<trkpt lat="46.25674" lon="7.30333"><ele>1032.4</ele><time>2025-11-04T14:57:26Z</time></trkpt>
<trkpt lat="46.25661" lon="7.30306"><ele>1030.8</ele><time>2025-11-04T14:57:28Z</time></trkpt>
<trkpt lat="46.25653" lon="7.30294"><ele>1030</ele><time>2025-11-04T14:57:29Z</time></trkpt>
<trkpt lat="46.25645" lon="7.30284"><ele>1029.2</ele><time>2025-11-04T14:57:30Z</time></trkpt>
<trkpt lat="46.25629" lon="7.30259"><ele>1027.2</ele><time>2025-11-04T14:57:32Z</time></trkpt>
<trkpt lat="46.2562" lon="7.30229"><ele>1025.4</ele><time>2025-11-04T14:57:34Z</time></trkpt>
<trkpt lat="46.25615" lon="7.30197"><ele>1023.6</ele><time>2025-11-04T14:57:36Z</time></trkpt>
<trkpt lat="46.25609" lon="7.30164"><ele>1021.8</ele><time>2025-11-04T14:57:38Z</time></trkpt>
<trkpt lat="46.256" lon="7.30133"><ele>1020</ele><time>2025-11-04T14:57:40Z</time></trkpt>
<trkpt lat="46.25598" lon="7.30118"><ele>1019</ele><time>2025-11-04T14:57:41Z</time></trkpt>
<trkpt lat="46.25597" lon="7.30103"><ele>1018</ele><time>2025-11-04T14:57:42Z</time></trkpt>
<trkpt lat="46.25598" lon="7.30087"><ele>1016.8</ele><time>2025-11-04T14:57:43Z</time></trkpt>
<trkpt lat="46.25597" lon="7.30072"><ele>1015.8</ele><time>2025-11-04T14:57:44Z</time></trkpt>
<trkpt lat="46.25592" lon="7.30059"><ele>1015.4</ele><time>2025-11-04T14:57:45Z</time></trkpt>
<trkpt lat="46.25585" lon="7.30046"><ele>1013.6</ele><time>2025-11-04T14:57:46Z</time></trkpt>
<trkpt lat="46.25576" lon="7.30041"><ele>1012.4</ele><time>2025-11-04T14:57:47Z</time></trkpt>
<trkpt lat="46.25565" lon="7.30038"><ele>1011.4</ele><time>2025-11-04T14:57:48Z</time></trkpt>
<trkpt lat="46.25546" lon="7.30032"><ele>1009.8</ele><time>2025-11-04T14:57:50Z</time></trkpt>
<trkpt lat="46.25527" lon="7.30018"><ele>1008.4</ele><time>2025-11-04T14:57:52Z</time></trkpt>
<trkpt lat="46.25518" lon="7.3001"><ele>1007.8</ele><time>2025-11-04T14:57:53Z</time></trkpt>
<trkpt lat="46.2551" lon="7.30001"><ele>1006.8</ele><time>2025-11-04T14:57:54Z</time></trkpt>
<trkpt lat="46.25492" lon="7.29983"><ele>1005</ele><time>2025-11-04T14:57:56Z</time></trkpt>
<trkpt lat="46.25482" lon="7.29977"><ele>1004.2</ele><time>2025-11-04T14:57:57Z</time></trkpt>
<trkpt lat="46.25471" lon="7.29971"><ele>1003.6</ele><time>2025-11-04T14:57:58Z</time></trkpt>
<trkpt lat="46.25452" lon="7.29954"><ele>1002</ele><time>2025-11-04T14:58:00Z</time></trkpt>
<trkpt lat="46.25447" lon="7.29943"><ele>1001</ele><time>2025-11-04T14:58:01Z</time></trkpt>
<trkpt lat="46.25445" lon="7.2993"><ele>1000</ele><time>2025-11-04T14:58:02Z</time></trkpt>
<trkpt lat="46.25447" lon="7.29916"><ele>999</ele><time>2025-11-04T14:58:03Z</time></trkpt>
<trkpt lat="46.2545" lon="7.299"><ele>998</ele><time>2025-11-04T14:58:04Z</time></trkpt>
<trkpt lat="46.25451" lon="7.29887"><ele>997</ele><time>2025-11-04T14:58:05Z</time></trkpt>
<trkpt lat="46.2545" lon="7.29875"><ele>996</ele><time>2025-11-04T14:58:06Z</time></trkpt>
<trkpt lat="46.25444" lon="7.29866"><ele>995</ele><time>2025-11-04T14:58:07Z</time></trkpt>
<trkpt lat="46.25436" lon="7.29863"><ele>994</ele><time>2025-11-04T14:58:08Z</time></trkpt>
<trkpt lat="46.25418" lon="7.2987"><ele>992.4</ele><time>2025-11-04T14:58:10Z</time></trkpt>
<trkpt lat="46.2541" lon="7.29877"><ele>992</ele><time>2025-11-04T14:58:11Z</time></trkpt>
<trkpt lat="46.254" lon="7.29884"><ele>991.2</ele><time>2025-11-04T14:58:12Z</time></trkpt>
<trkpt lat="46.2539" lon="7.29888"><ele>990.4</ele><time>2025-11-04T14:58:13Z</time></trkpt>
<trkpt lat="46.25379" lon="7.29888"><ele>989.4</ele><time>2025-11-04T14:58:14Z</time></trkpt>
<trkpt lat="46.25368" lon="7.29883"><ele>988.4</ele><time>2025-11-04T14:58:15Z</time></trkpt>
<trkpt lat="46.25359" lon="7.29876"><ele>987.6</ele><time>2025-11-04T14:58:16Z</time></trkpt>
<trkpt lat="46.25348" lon="7.2987"><ele>986.6</ele><time>2025-11-04T14:58:17Z</time></trkpt>
<trkpt lat="46.25336" lon="7.29866"><ele>985.6</ele><time>2025-11-04T14:58:18Z</time></trkpt>
<trkpt lat="46.25324" lon="7.29867"><ele>984.6</ele><time>2025-11-04T14:58:19Z</time></trkpt>
<trkpt lat="46.25313" lon="7.29873"><ele>983.6</ele><time>2025-11-04T14:58:20Z</time></trkpt>
<trkpt lat="46.25303" lon="7.2988"><ele>982.8</ele><time>2025-11-04T14:58:21Z</time></trkpt>
<trkpt lat="46.25284" lon="7.29897"><ele>980.8</ele><time>2025-11-04T14:58:23Z</time></trkpt>
<trkpt lat="46.25275" lon="7.29905"><ele>980</ele><time>2025-11-04T14:58:24Z</time></trkpt>
<trkpt lat="46.25264" lon="7.2991"><ele>979</ele><time>2025-11-04T14:58:25Z</time></trkpt>
<trkpt lat="46.25254" lon="7.29912"><ele>978</ele><time>2025-11-04T14:58:26Z</time></trkpt>
<trkpt lat="46.25244" lon="7.29909"><ele>977</ele><time>2025-11-04T14:58:27Z</time></trkpt>
<trkpt lat="46.25236" lon="7.29903"><ele>976.2</ele><time>2025-11-04T14:58:28Z</time></trkpt>
<trkpt lat="46.25228" lon="7.29894"><ele>975.2</ele><time>2025-11-04T14:58:29Z</time></trkpt>
<trkpt lat="46.2522" lon="7.29884"><ele>974.2</ele><time>2025-11-04T14:58:30Z</time></trkpt>
<trkpt lat="46.25213" lon="7.29872"><ele>973.2</ele><time>2025-11-04T14:58:31Z</time></trkpt>
<trkpt lat="46.25206" lon="7.29859"><ele>972.2</ele><time>2025-11-04T14:58:32Z</time></trkpt>
<trkpt lat="46.25197" lon="7.29848"><ele>971.2</ele><time>2025-11-04T14:58:33Z</time></trkpt>
<trkpt lat="46.25186" lon="7.29842"><ele>970.4</ele><time>2025-11-04T14:58:34Z</time></trkpt>
<trkpt lat="46.25175" lon="7.29843"><ele>969.4</ele><time>2025-11-04T14:58:35Z</time></trkpt>
<trkpt lat="46.25165" lon="7.29848"><ele>968.6</ele><time>2025-11-04T14:58:36Z</time></trkpt>
<trkpt lat="46.25156" lon="7.29857"><ele>967.6</ele><time>2025-11-04T14:58:37Z</time></trkpt>
<trkpt lat="46.25147" lon="7.29868"><ele>966.6</ele><time>2025-11-04T14:58:38Z</time></trkpt>
<trkpt lat="46.25137" lon="7.29877"><ele>965.6</ele><time>2025-11-04T14:58:39Z</time></trkpt>
<trkpt lat="46.25127" lon="7.29878"><ele>964.8</ele><time>2025-11-04T14:58:40Z</time></trkpt>
<trkpt lat="46.2512" lon="7.29873"><ele>963.8</ele><time>2025-11-04T14:58:41Z</time></trkpt>
<trkpt lat="46.25117" lon="7.29848"><ele>961.8</ele><time>2025-11-04T14:58:43Z</time></trkpt>
<trkpt lat="46.25115" lon="7.29835"><ele>960.8</ele><time>2025-11-04T14:58:44Z</time></trkpt>
<trkpt lat="46.25109" lon="7.29824"><ele>959.6</ele><time>2025-11-04T14:58:45Z</time></trkpt>
<trkpt lat="46.25092" lon="7.29822"><ele>957.8</ele><time>2025-11-04T14:58:47Z</time></trkpt>
<trkpt lat="46.25075" lon="7.2983"><ele>956</ele><time>2025-11-04T14:58:49Z</time></trkpt>
<trkpt lat="46.25066" lon="7.29833"><ele>955.2</ele><time>2025-11-04T14:58:50Z</time></trkpt>
<trkpt lat="46.25056" lon="7.29833"><ele>954.4</ele><time>2025-11-04T14:58:51Z</time></trkpt>
<trkpt lat="46.25035" lon="7.29832"><ele>952.8</ele><time>2025-11-04T14:58:53Z</time></trkpt>
<trkpt lat="46.25024" lon="7.29833"><ele>952</ele><time>2025-11-04T14:58:54Z</time></trkpt>
<trkpt lat="46.25013" lon="7.29835"><ele>951</ele><time>2025-11-04T14:58:55Z</time></trkpt>
<trkpt lat="46.25002" lon="7.29839"><ele>950</ele><time>2025-11-04T14:58:56Z</time></trkpt>
<trkpt lat="46.24992" lon="7.29844"><ele>949</ele><time>2025-11-04T14:58:57Z</time></trkpt>
<trkpt lat="46.2497" lon="7.29853"><ele>947.4</ele><time>2025-11-04T14:58:59Z</time></trkpt>
<trkpt lat="46.24959" lon="7.29853"><ele>946.6</ele><time>2025-11-04T14:59:00Z</time></trkpt>
<trkpt lat="46.24949" lon="7.29848"><ele>945.8</ele><time>2025-11-04T14:59:01Z</time></trkpt>
<trkpt lat="46.24942" lon="7.29839"><ele>945.2</ele><time>2025-11-04T14:59:02Z</time></trkpt>
<trkpt lat="46.24937" lon="7.29827"><ele>944.4</ele><time>2025-11-04T14:59:03Z</time></trkpt>
<trkpt lat="46.24937" lon="7.29814"><ele>943.8</ele><time>2025-11-04T14:59:04Z</time></trkpt>
<trkpt lat="46.24941" lon="7.29802"><ele>943.4</ele><time>2025-11-04T14:59:05Z</time></trkpt>
<trkpt lat="46.24947" lon="7.29793"><ele>942.8</ele><time>2025-11-04T14:59:06Z</time></trkpt>
<trkpt lat="46.24958" lon="7.2977"><ele>941.8</ele><time>2025-11-04T14:59:08Z</time></trkpt>
<trkpt lat="46.24959" lon="7.29758"><ele>941</ele><time>2025-11-04T14:59:09Z</time></trkpt>
<trkpt lat="46.24953" lon="7.29749"><ele>940.4</ele><time>2025-11-04T14:59:10Z</time></trkpt>
<trkpt lat="46.24945" lon="7.29746"><ele>939.8</ele><time>2025-11-04T14:59:11Z</time></trkpt>
<trkpt lat="46.24936" lon="7.29744"><ele>938.8</ele><time>2025-11-04T14:59:12Z</time></trkpt>
<trkpt lat="46.24914" lon="7.29746"><ele>937.6</ele><time>2025-11-04T14:59:14Z</time></trkpt>
<trkpt lat="46.24894" lon="7.29761"><ele>935.8</ele><time>2025-11-04T14:59:16Z</time></trkpt>
<trkpt lat="46.24876" lon="7.29782"><ele>933.8</ele><time>2025-11-04T14:59:18Z</time></trkpt>
<trkpt lat="46.24868" lon="7.29796"><ele>932.8</ele><time>2025-11-04T14:59:19Z</time></trkpt>
<trkpt lat="46.24861" lon="7.29809"><ele>931.8</ele><time>2025-11-04T14:59:20Z</time></trkpt>
<trkpt lat="46.24847" lon="7.29837"><ele>930</ele><time>2025-11-04T14:59:22Z</time></trkpt>
<trkpt lat="46.24833" lon="7.29866"><ele>928.6</ele><time>2025-11-04T14:59:24Z</time></trkpt>
<trkpt lat="46.24826" lon="7.2988"><ele>928</ele><time>2025-11-04T14:59:25Z</time></trkpt>
<trkpt lat="46.24817" lon="7.29892"><ele>927.4</ele><time>2025-11-04T14:59:26Z</time></trkpt>
<trkpt lat="46.24791" lon="7.29922"><ele>926</ele><time>2025-11-04T14:59:29Z</time></trkpt>
<trkpt lat="46.2477" lon="7.29928"><ele>924.6</ele><time>2025-11-04T14:59:31Z</time></trkpt>
<trkpt lat="46.24749" lon="7.29921"><ele>922.6</ele><time>2025-11-04T14:59:33Z</time></trkpt>
<trkpt lat="46.2474" lon="7.29914"><ele>921.6</ele><time>2025-11-04T14:59:34Z</time></trkpt>
<trkpt lat="46.24732" lon="7.29904"><ele>920.6</ele><time>2025-11-04T14:59:35Z</time></trkpt>
<trkpt lat="46.24725" lon="7.29892"><ele>919.6</ele><time>2025-11-04T14:59:36Z</time></trkpt>
<trkpt lat="46.24718" lon="7.2988"><ele>918.8</ele><time>2025-11-04T14:59:37Z</time></trkpt>
<trkpt lat="46.24712" lon="7.29867"><ele>917.6</ele><time>2025-11-04T14:59:38Z</time></trkpt>
<trkpt lat="46.24698" lon="7.29841"><ele>915.8</ele><time>2025-11-04T14:59:40Z</time></trkpt>
<trkpt lat="46.24691" lon="7.29827"><ele>914.6</ele><time>2025-11-04T14:59:41Z</time></trkpt>
<trkpt lat="46.24684" lon="7.29814"><ele>913.6</ele><time>2025-11-04T14:59:42Z</time></trkpt>
<trkpt lat="46.24677" lon="7.29801"><ele>912.4</ele><time>2025-11-04T14:59:43Z</time></trkpt>
<trkpt lat="46.24664" lon="7.29774"><ele>910.8</ele><time>2025-11-04T14:59:45Z</time></trkpt>
<trkpt lat="46.24657" lon="7.29759"><ele>909.8</ele><time>2025-11-04T14:59:46Z</time></trkpt>
<trkpt lat="46.24652" lon="7.29744"><ele>908.8</ele><time>2025-11-04T14:59:47Z</time></trkpt>
<trkpt lat="46.24649" lon="7.29728"><ele>908</ele><time>2025-11-04T14:59:48Z</time></trkpt>
<trkpt lat="46.24646" lon="7.29712"><ele>907</ele><time>2025-11-04T14:59:49Z</time></trkpt>
<trkpt lat="46.24643" lon="7.29695"><ele>906</ele><time>2025-11-04T14:59:50Z</time></trkpt>
<trkpt lat="46.24639" lon="7.29678"><ele>905</ele><time>2025-11-04T14:59:51Z</time></trkpt>
<trkpt lat="46.24633" lon="7.29663"><ele>904</ele><time>2025-11-04T14:59:52Z</time></trkpt>
<trkpt lat="46.24626" lon="7.29648"><ele>902.8</ele><time>2025-11-04T14:59:53Z</time></trkpt>
<trkpt lat="46.24617" lon="7.29635"><ele>901.8</ele><time>2025-11-04T14:59:54Z</time></trkpt>
<trkpt lat="46.24609" lon="7.29622"><ele>900.6</ele><time>2025-11-04T14:59:55Z</time></trkpt>
<trkpt lat="46.246" lon="7.2961"><ele>899.4</ele><time>2025-11-04T14:59:56Z</time></trkpt>
<trkpt lat="46.24591" lon="7.29599"><ele>898.4</ele><time>2025-11-04T14:59:57Z</time></trkpt>
<trkpt lat="46.24582" lon="7.29587"><ele>897.4</ele><time>2025-11-04T14:59:58Z</time></trkpt>
<trkpt lat="46.24572" lon="7.29574"><ele>896.2</ele><time>2025-11-04T14:59:59Z</time></trkpt>
<trkpt lat="46.24563" lon="7.29562"><ele>895.2</ele><time>2025-11-04T15:00:00Z</time></trkpt>
<trkpt lat="46.24553" lon="7.2955"><ele>894.2</ele><time>2025-11-04T15:00:01Z</time></trkpt>
<trkpt lat="46.24535" lon="7.29526"><ele>892.2</ele><time>2025-11-04T15:00:03Z</time></trkpt>
<trkpt lat="46.24528" lon="7.29515"><ele>891.2</ele><time>2025-11-04T15:00:04Z</time></trkpt>
<trkpt lat="46.24522" lon="7.29505"><ele>890</ele><time>2025-11-04T15:00:05Z</time></trkpt>
<trkpt lat="46.24517" lon="7.29495"><ele>889</ele><time>2025-11-04T15:00:06Z</time></trkpt>
<trkpt lat="46.24513" lon="7.29484"><ele>887.6</ele><time>2025-11-04T15:00:07Z</time></trkpt>
<trkpt lat="46.24509" lon="7.29472"><ele>886.2</ele><time>2025-11-04T15:00:08Z</time></trkpt>
<trkpt lat="46.24505" lon="7.2946"><ele>884.8</ele><time>2025-11-04T15:00:09Z</time></trkpt>
<trkpt lat="46.24502" lon="7.29447"><ele>883.2</ele><time>2025-11-04T15:00:10Z</time></trkpt>
<trkpt lat="46.24498" lon="7.29434"><ele>881.4</ele><time>2025-11-04T15:00:11Z</time></trkpt>
<trkpt lat="46.24495" lon="7.29421"><ele>879.4</ele><time>2025-11-04T15:00:12Z</time></trkpt>
<trkpt lat="46.2449" lon="7.29407"><ele>877.6</ele><time>2025-11-04T15:00:13Z</time></trkpt>
<trkpt lat="46.24485" lon="7.29395"><ele>875.8</ele><time>2025-11-04T15:00:14Z</time></trkpt>
<trkpt lat="46.24479" lon="7.29383"><ele>874</ele><time>2025-11-04T15:00:15Z</time></trkpt>
<trkpt lat="46.24472" lon="7.29373"><ele>872.2</ele><time>2025-11-04T15:00:16Z</time></trkpt>
<trkpt lat="46.24466" lon="7.29363"><ele>870.6</ele><time>2025-11-04T15:00:17Z</time></trkpt>
<trkpt lat="46.2446" lon="7.29354"><ele>868.8</ele><time>2025-11-04T15:00:18Z</time></trkpt>
<trkpt lat="46.24455" lon="7.29345"><ele>867.2</ele><time>2025-11-04T15:00:19Z</time></trkpt>
<trkpt lat="46.2445" lon="7.29338"><ele>865.8</ele><time>2025-11-04T15:00:20Z</time></trkpt>
<trkpt lat="46.24446" lon="7.29332"><ele>864.4</ele><time>2025-11-04T15:00:21Z</time></trkpt>
<trkpt lat="46.24442" lon="7.29327"><ele>863.2</ele><time>2025-11-04T15:00:22Z</time></trkpt>
<trkpt lat="46.24439" lon="7.29323"><ele>862.2</ele><time>2025-11-04T15:00:23Z</time></trkpt>
<trkpt lat="46.24434" lon="7.2932"><ele>860.6</ele><time>2025-11-04T15:00:25Z</time></trkpt>
<trkpt lat="46.24432" lon="7.29321"><ele>860</ele><time>2025-11-04T15:00:26Z</time></trkpt>
<trkpt lat="46.24429" lon="7.29324"><ele>859.4</ele><time>2025-11-04T15:00:27Z</time></trkpt>
<trkpt lat="46.24419" lon="7.29334"><ele>858</ele><time>2025-11-04T15:00:29Z</time></trkpt>
<trkpt lat="46.24413" lon="7.29339"><ele>857</ele><time>2025-11-04T15:00:30Z</time></trkpt>
<trkpt lat="46.24407" lon="7.29345"><ele>855.8</ele><time>2025-11-04T15:00:31Z</time></trkpt>
<trkpt lat="46.24401" lon="7.2935"><ele>854.6</ele><time>2025-11-04T15:00:32Z</time></trkpt>
<trkpt lat="46.24396" lon="7.29355"><ele>853.4</ele><time>2025-11-04T15:00:33Z</time></trkpt>
<trkpt lat="46.2439" lon="7.2936"><ele>852</ele><time>2025-11-04T15:00:34Z</time></trkpt>
<trkpt lat="46.24384" lon="7.29365"><ele>850.8</ele><time>2025-11-04T15:00:35Z</time></trkpt>
<trkpt lat="46.24379" lon="7.29369"><ele>849.4</ele><time>2025-11-04T15:00:36Z</time></trkpt>
<trkpt lat="46.24373" lon="7.29374"><ele>848.2</ele><time>2025-11-04T15:00:37Z</time></trkpt>
<trkpt lat="46.24366" lon="7.29378"><ele>847</ele><time>2025-11-04T15:00:38Z</time></trkpt>
<trkpt lat="46.2436" lon="7.29381"><ele>845.8</ele><time>2025-11-04T15:00:39Z</time></trkpt>
<trkpt lat="46.24354" lon="7.29386"><ele>844.8</ele><time>2025-11-04T15:00:40Z</time></trkpt>
<trkpt lat="46.24347" lon="7.2939"><ele>843.6</ele><time>2025-11-04T15:00:41Z</time></trkpt>
<trkpt lat="46.24341" lon="7.29395"><ele>842.4</ele><time>2025-11-04T15:00:42Z</time></trkpt>
<trkpt lat="46.24334" lon="7.29399"><ele>841.4</ele><time>2025-11-04T15:00:43Z</time></trkpt>
<trkpt lat="46.24328" lon="7.29403"><ele>840.2</ele><time>2025-11-04T15:00:44Z</time></trkpt>
<trkpt lat="46.24323" lon="7.29406"><ele>839.2</ele><time>2025-11-04T15:00:45Z</time></trkpt>
<trkpt lat="46.24319" lon="7.2941"><ele>838.2</ele><time>2025-11-04T15:00:46Z</time></trkpt>
<trkpt lat="46.24309" lon="7.29414"><ele>836.4</ele><time>2025-11-04T15:00:48Z</time></trkpt>
<trkpt lat="46.24296" lon="7.29417"><ele>834.8</ele><time>2025-11-04T15:00:50Z</time></trkpt>
<trkpt lat="46.24291" lon="7.2942"><ele>834</ele><time>2025-11-04T15:00:51Z</time></trkpt>
<trkpt lat="46.24287" lon="7.29424"><ele>833.2</ele><time>2025-11-04T15:00:52Z</time></trkpt>
<trkpt lat="46.24279" lon="7.29432"><ele>831.6</ele><time>2025-11-04T15:00:54Z</time></trkpt>
<trkpt lat="46.24275" lon="7.29435"><ele>830.8</ele><time>2025-11-04T15:00:55Z</time></trkpt>
<trkpt lat="46.24271" lon="7.29438"><ele>830.2</ele><time>2025-11-04T15:00:56Z</time></trkpt>
<trkpt lat="46.2426" lon="7.29442"><ele>828.8</ele><time>2025-11-04T15:00:58Z</time></trkpt>
<trkpt lat="46.24249" lon="7.29447"><ele>827.4</ele><time>2025-11-04T15:01:00Z</time></trkpt>
<trkpt lat="46.24237" lon="7.29452"><ele>826</ele><time>2025-11-04T15:01:02Z</time></trkpt>
<trkpt lat="46.24224" lon="7.29459"><ele>824.6</ele><time>2025-11-04T15:01:04Z</time></trkpt>
<trkpt lat="46.24212" lon="7.29465"><ele>823.4</ele><time>2025-11-04T15:01:06Z</time></trkpt>
<trkpt lat="46.242" lon="7.29468"><ele>822.2</ele><time>2025-11-04T15:01:08Z</time></trkpt>
<trkpt lat="46.24188" lon="7.29472"><ele>821.2</ele><time>2025-11-04T15:01:10Z</time></trkpt>
<trkpt lat="46.24169" lon="7.29478"><ele>819.8</ele><time>2025-11-04T15:01:13Z</time></trkpt>
<trkpt lat="46.24149" lon="7.29483"><ele>818.6</ele><time>2025-11-04T15:01:16Z</time></trkpt>
<trkpt lat="46.24135" lon="7.29486"><ele>817.8</ele><time>2025-11-04T15:01:18Z</time></trkpt>
<trkpt lat="46.24128" lon="7.29488"><ele>817.4</ele><time>2025-11-04T15:01:19Z</time></trkpt>
<trkpt lat="46.24121" lon="7.29492"><ele>817</ele><time>2025-11-04T15:01:20Z</time></trkpt>
<trkpt lat="46.24107" lon="7.29501"><ele>816</ele><time>2025-11-04T15:01:22Z</time></trkpt>
<trkpt lat="46.241" lon="7.29506"><ele>815.4</ele><time>2025-11-04T15:01:23Z</time></trkpt>
<trkpt lat="46.24093" lon="7.29511"><ele>814.8</ele><time>2025-11-04T15:01:24Z</time></trkpt>
<trkpt lat="46.2408" lon="7.29521"><ele>813.6</ele><time>2025-11-04T15:01:26Z</time></trkpt>
<trkpt lat="46.24068" lon="7.29527"><ele>812.4</ele><time>2025-11-04T15:01:28Z</time></trkpt>
<trkpt lat="46.24058" lon="7.29531"><ele>811.2</ele><time>2025-11-04T15:01:30Z</time></trkpt>
<trkpt lat="46.24051" lon="7.29534"><ele>810.2</ele><time>2025-11-04T15:01:32Z</time></trkpt>
<trkpt lat="46.2404" lon="7.29532"><ele>809.2</ele><time>2025-11-04T15:01:36Z</time></trkpt>
<trkpt lat="46.24036" lon="7.2953"><ele>809</ele><time>2025-11-04T15:01:37Z</time></trkpt>
<trkpt lat="46.24023" lon="7.29518"><ele>808.6</ele><time>2025-11-04T15:01:40Z</time></trkpt>
<trkpt lat="46.24015" lon="7.29506"><ele>808</ele><time>2025-11-04T15:01:42Z</time></trkpt>
<trkpt lat="46.24001" lon="7.29487"><ele>807.2</ele><time>2025-11-04T15:01:45Z</time></trkpt>
<trkpt lat="46.23991" lon="7.29474"><ele>806.8</ele><time>2025-11-04T15:01:47Z</time></trkpt>
<trkpt lat="46.23973" lon="7.29454"><ele>805.6</ele><time>2025-11-04T15:01:50Z</time></trkpt>
<trkpt lat="46.23967" lon="7.29447"><ele>805.2</ele><time>2025-11-04T15:01:51Z</time></trkpt>
<trkpt lat="46.23955" lon="7.29434"><ele>804.4</ele><time>2025-11-04T15:01:53Z</time></trkpt>
<trkpt lat="46.23936" lon="7.29415"><ele>803</ele><time>2025-11-04T15:01:56Z</time></trkpt>
<trkpt lat="46.23915" lon="7.29395"><ele>801.8</ele><time>2025-11-04T15:01:59Z</time></trkpt>
<trkpt lat="46.23902" lon="7.29381"><ele>801</ele><time>2025-11-04T15:02:01Z</time></trkpt>
<trkpt lat="46.23895" lon="7.29373"><ele>800.4</ele><time>2025-11-04T15:02:02Z</time></trkpt>
<trkpt lat="46.23883" lon="7.29356"><ele>799.6</ele><time>2025-11-04T15:02:04Z</time></trkpt>
<trkpt lat="46.23878" lon="7.29346"><ele>799</ele><time>2025-11-04T15:02:05Z</time></trkpt>
<trkpt lat="46.23869" lon="7.29326"><ele>797.8</ele><time>2025-11-04T15:02:07Z</time></trkpt>
<trkpt lat="46.23859" lon="7.29306"><ele>796.8</ele><time>2025-11-04T15:02:09Z</time></trkpt>
<trkpt lat="46.23854" lon="7.29297"><ele>796.4</ele><time>2025-11-04T15:02:10Z</time></trkpt>
<trkpt lat="46.2384" lon="7.29267"><ele>795.4</ele><time>2025-11-04T15:02:13Z</time></trkpt>
<trkpt lat="46.23828" lon="7.29246"><ele>794.4</ele><time>2025-11-04T15:02:16Z</time></trkpt>
<trkpt lat="46.23824" lon="7.29233"><ele>793.6</ele><time>2025-11-04T15:02:19Z</time></trkpt>
<trkpt lat="46.23822" lon="7.29227"><ele>793.2</ele><time>2025-11-04T15:02:21Z</time></trkpt>
<trkpt lat="46.23815" lon="7.29227"><ele>793.2</ele><time>2025-11-04T15:02:23Z</time></trkpt>
<trkpt lat="46.23796" lon="7.29238"><ele>792</ele><time>2025-11-04T15:02:27Z</time></trkpt>
<trkpt lat="46.23777" lon="7.29247"><ele>790.4</ele><time>2025-11-04T15:02:30Z</time></trkpt>
<trkpt lat="46.23765" lon="7.29254"><ele>788.8</ele><time>2025-11-04T15:02:32Z</time></trkpt>
<trkpt lat="46.23754" lon="7.29261"><ele>787</ele><time>2025-11-04T15:02:34Z</time></trkpt>
<trkpt lat="46.23749" lon="7.29265"><ele>786</ele><time>2025-11-04T15:02:35Z</time></trkpt>
<trkpt lat="46.23737" lon="7.2927"><ele>784.2</ele><time>2025-11-04T15:02:37Z</time></trkpt>
<trkpt lat="46.23731" lon="7.2927"><ele>783.2</ele><time>2025-11-04T15:02:38Z</time></trkpt>
<trkpt lat="46.23724" lon="7.2927"><ele>782.2</ele><time>2025-11-04T15:02:39Z</time></trkpt>
<trkpt lat="46.23713" lon="7.29264"><ele>780.4</ele><time>2025-11-04T15:02:41Z</time></trkpt>
<trkpt lat="46.23707" lon="7.29258"><ele>779.2</ele><time>2025-11-04T15:02:42Z</time></trkpt>
<trkpt lat="46.23695" lon="7.29247"><ele>777.4</ele><time>2025-11-04T15:02:44Z</time></trkpt>
<trkpt lat="46.23688" lon="7.29241"><ele>776.4</ele><time>2025-11-04T15:02:45Z</time></trkpt>
<trkpt lat="46.23676" lon="7.29228"><ele>774.8</ele><time>2025-11-04T15:02:47Z</time></trkpt>
<trkpt lat="46.23663" lon="7.29215"><ele>773.2</ele><time>2025-11-04T15:02:49Z</time></trkpt>
<trkpt lat="46.2365" lon="7.29205"><ele>771.8</ele><time>2025-11-04T15:02:51Z</time></trkpt>
<trkpt lat="46.2364" lon="7.29195"><ele>770.2</ele><time>2025-11-04T15:02:53Z</time></trkpt>
<trkpt lat="46.23631" lon="7.29182"><ele>769</ele><time>2025-11-04T15:02:55Z</time></trkpt>
<trkpt lat="46.23622" lon="7.29168"><ele>767.4</ele><time>2025-11-04T15:02:57Z</time></trkpt>
<trkpt lat="46.23617" lon="7.29161"><ele>766.2</ele><time>2025-11-04T15:02:58Z</time></trkpt>
<trkpt lat="46.23611" lon="7.29155"><ele>765.2</ele><time>2025-11-04T15:02:59Z</time></trkpt>
<trkpt lat="46.23606" lon="7.29151"><ele>764</ele><time>2025-11-04T15:03:00Z</time></trkpt>
<trkpt lat="46.23601" lon="7.29146"><ele>762.8</ele><time>2025-11-04T15:03:01Z</time></trkpt>
<trkpt lat="46.23597" lon="7.29143"><ele>761.8</ele><time>2025-11-04T15:03:02Z</time></trkpt>
<trkpt lat="46.23586" lon="7.29137"><ele>760</ele><time>2025-11-04T15:03:04Z</time></trkpt>
<trkpt lat="46.23571" lon="7.29134"><ele>758.4</ele><time>2025-11-04T15:03:06Z</time></trkpt>
<trkpt lat="46.23555" lon="7.2913"><ele>756.6</ele><time>2025-11-04T15:03:08Z</time></trkpt>
<trkpt lat="46.23539" lon="7.29123"><ele>754.4</ele><time>2025-11-04T15:03:10Z</time></trkpt>
<trkpt lat="46.23532" lon="7.29118"><ele>753.2</ele><time>2025-11-04T15:03:11Z</time></trkpt>
<trkpt lat="46.23525" lon="7.29111"><ele>751.8</ele><time>2025-11-04T15:03:12Z</time></trkpt>
<trkpt lat="46.23518" lon="7.29103"><ele>750.4</ele><time>2025-11-04T15:03:13Z</time></trkpt>
<trkpt lat="46.23512" lon="7.29094"><ele>748.8</ele><time>2025-11-04T15:03:14Z</time></trkpt>
<trkpt lat="46.23508" lon="7.29085"><ele>747.4</ele><time>2025-11-04T15:03:15Z</time></trkpt>
<trkpt lat="46.23504" lon="7.29076"><ele>745.8</ele><time>2025-11-04T15:03:16Z</time></trkpt>
<trkpt lat="46.23502" lon="7.29065"><ele>744.2</ele><time>2025-11-04T15:03:17Z</time></trkpt>
<trkpt lat="46.23502" lon="7.29053"><ele>742.6</ele><time>2025-11-04T15:03:18Z</time></trkpt>
<trkpt lat="46.23502" lon="7.2904"><ele>741.2</ele><time>2025-11-04T15:03:19Z</time></trkpt>
<trkpt lat="46.23503" lon="7.29026"><ele>739.8</ele><time>2025-11-04T15:03:20Z</time></trkpt>
<trkpt lat="46.23504" lon="7.29011"><ele>738.2</ele><time>2025-11-04T15:03:21Z</time></trkpt>
<trkpt lat="46.23505" lon="7.28995"><ele>736.8</ele><time>2025-11-04T15:03:22Z</time></trkpt>
<trkpt lat="46.23507" lon="7.2898"><ele>735.4</ele><time>2025-11-04T15:03:23Z</time></trkpt>
<trkpt lat="46.23508" lon="7.28966"><ele>733.8</ele><time>2025-11-04T15:03:24Z</time></trkpt>
<trkpt lat="46.23509" lon="7.28953"><ele>732.4</ele><time>2025-11-04T15:03:25Z</time></trkpt>
<trkpt lat="46.23509" lon="7.2894"><ele>730.8</ele><time>2025-11-04T15:03:26Z</time></trkpt>
<trkpt lat="46.23507" lon="7.28927"><ele>729.4</ele><time>2025-11-04T15:03:27Z</time></trkpt>
<trkpt lat="46.23502" lon="7.28915"><ele>728.2</ele><time>2025-11-04T15:03:28Z</time></trkpt>
<trkpt lat="46.23495" lon="7.28906"><ele>727</ele><time>2025-11-04T15:03:29Z</time></trkpt>
<trkpt lat="46.23487" lon="7.28897"><ele>726</ele><time>2025-11-04T15:03:30Z</time></trkpt>
<trkpt lat="46.2348" lon="7.28888"><ele>725.4</ele><time>2025-11-04T15:03:31Z</time></trkpt>
<trkpt lat="46.23475" lon="7.28879"><ele>725</ele><time>2025-11-04T15:03:32Z</time></trkpt>
<trkpt lat="46.23471" lon="7.28869"><ele>724.6</ele><time>2025-11-04T15:03:33Z</time></trkpt>
<trkpt lat="46.23463" lon="7.2885"><ele>724.6</ele><time>2025-11-04T15:03:35Z</time></trkpt>
<trkpt lat="46.23443" lon="7.28816"><ele>724.4</ele><time>2025-11-04T15:03:39Z</time></trkpt>
<trkpt lat="46.23427" lon="7.28794"><ele>723.8</ele><time>2025-11-04T15:03:42Z</time></trkpt>
<trkpt lat="46.23418" lon="7.28777"><ele>723.4</ele><time>2025-11-04T15:03:44Z</time></trkpt>
<trkpt lat="46.23405" lon="7.28749"><ele>722.4</ele><time>2025-11-04T15:03:47Z</time></trkpt>
<trkpt lat="46.23385" lon="7.28713"><ele>721.2</ele><time>2025-11-04T15:03:51Z</time></trkpt>
<trkpt lat="46.23378" lon="7.28695"><ele>720.6</ele><time>2025-11-04T15:03:53Z</time></trkpt>
<trkpt lat="46.23375" lon="7.28684"><ele>720.2</ele><time>2025-11-04T15:03:54Z</time></trkpt>
<trkpt lat="46.23373" lon="7.28674"><ele>719.8</ele><time>2025-11-04T15:03:55Z</time></trkpt>
<trkpt lat="46.23368" lon="7.28654"><ele>719</ele><time>2025-11-04T15:03:57Z</time></trkpt>
<trkpt lat="46.23366" lon="7.28633"><ele>718.2</ele><time>2025-11-04T15:03:59Z</time></trkpt>
<trkpt lat="46.23366" lon="7.28622"><ele>718</ele><time>2025-11-04T15:04:00Z</time></trkpt>
<trkpt lat="46.23367" lon="7.2861"><ele>717.6</ele><time>2025-11-04T15:04:01Z</time></trkpt>
<trkpt lat="46.23369" lon="7.28587"><ele>716.8</ele><time>2025-11-04T15:04:03Z</time></trkpt>
<trkpt lat="46.23371" lon="7.28565"><ele>716.4</ele><time>2025-11-04T15:04:05Z</time></trkpt>
<trkpt lat="46.23373" lon="7.28542"><ele>715.6</ele><time>2025-11-04T15:04:07Z</time></trkpt>
<trkpt lat="46.23371" lon="7.285"><ele>714.4</ele><time>2025-11-04T15:04:11Z</time></trkpt>
<trkpt lat="46.23372" lon="7.2849"><ele>714</ele><time>2025-11-04T15:04:12Z</time></trkpt>
<trkpt lat="46.23376" lon="7.28469"><ele>713.2</ele><time>2025-11-04T15:04:14Z</time></trkpt>
<trkpt lat="46.23388" lon="7.28438"><ele>712</ele><time>2025-11-04T15:04:17Z</time></trkpt>
<trkpt lat="46.2339" lon="7.28427"><ele>711.8</ele><time>2025-11-04T15:04:18Z</time></trkpt>
<trkpt lat="46.23391" lon="7.28415"><ele>711.6</ele><time>2025-11-04T15:04:19Z</time></trkpt>
<trkpt lat="46.23392" lon="7.28392"><ele>711</ele><time>2025-11-04T15:04:21Z</time></trkpt>
<trkpt lat="46.23392" lon="7.28381"><ele>710.8</ele><time>2025-11-04T15:04:22Z</time></trkpt>
<trkpt lat="46.2339" lon="7.28357"><ele>710.2</ele><time>2025-11-04T15:04:24Z</time></trkpt>
<trkpt lat="46.23387" lon="7.28346"><ele>709.8</ele><time>2025-11-04T15:04:25Z</time></trkpt>
<trkpt lat="46.23384" lon="7.28335"><ele>709.4</ele><time>2025-11-04T15:04:26Z</time></trkpt>
<trkpt lat="46.23377" lon="7.28313"><ele>708.6</ele><time>2025-11-04T15:04:28Z</time></trkpt>
<trkpt lat="46.23368" lon="7.2828"><ele>707.2</ele><time>2025-11-04T15:04:31Z</time></trkpt>
<trkpt lat="46.23366" lon="7.28268"><ele>706.8</ele><time>2025-11-04T15:04:32Z</time></trkpt>
<trkpt lat="46.23361" lon="7.28246"><ele>706</ele><time>2025-11-04T15:04:34Z</time></trkpt>
<trkpt lat="46.23358" lon="7.28226"><ele>705</ele><time>2025-11-04T15:04:36Z</time></trkpt>
<trkpt lat="46.23358" lon="7.28216"><ele>704.4</ele><time>2025-11-04T15:04:37Z</time></trkpt>
<trkpt lat="46.23358" lon="7.28206"><ele>704</ele><time>2025-11-04T15:04:38Z</time></trkpt>
<trkpt lat="46.2336" lon="7.28185"><ele>702.8</ele><time>2025-11-04T15:04:40Z</time></trkpt>
<trkpt lat="46.23359" lon="7.28174"><ele>702.2</ele><time>2025-11-04T15:04:41Z</time></trkpt>
<trkpt lat="46.23358" lon="7.28163"><ele>701.6</ele><time>2025-11-04T15:04:42Z</time></trkpt>
<trkpt lat="46.23355" lon="7.2815"><ele>701</ele><time>2025-11-04T15:04:43Z</time></trkpt>
<trkpt lat="46.23352" lon="7.28139"><ele>700.4</ele><time>2025-11-04T15:04:44Z</time></trkpt>
<trkpt lat="46.23336" lon="7.2809"><ele>700.2</ele><time>2025-11-04T15:04:49Z</time></trkpt>
<trkpt lat="46.23329" lon="7.28069"><ele>700.8</ele><time>2025-11-04T15:04:53Z</time></trkpt>
<trkpt lat="46.23328" lon="7.28064"><ele>701.2</ele><time>2025-11-04T15:04:57Z</time></trkpt>
<trkpt lat="46.23328" lon="7.28064"><ele>701</ele><time>2025-11-04T15:05:10Z</time></trkpt>
<trkpt lat="46.23327" lon="7.2806"><ele>701</ele><time>2025-11-04T15:05:22Z</time></trkpt>
<trkpt lat="46.23319" lon="7.2805"><ele>700</ele><time>2025-11-04T15:05:27Z</time></trkpt>
<trkpt lat="46.23306" lon="7.28043"><ele>699</ele><time>2025-11-04T15:05:30Z</time></trkpt>
<trkpt lat="46.233" lon="7.28039"><ele>698.6</ele><time>2025-11-04T15:05:31Z</time></trkpt>
<trkpt lat="46.23295" lon="7.28036"><ele>697.8</ele><time>2025-11-04T15:05:32Z</time></trkpt>
<trkpt lat="46.23287" lon="7.28031"><ele>696.4</ele><time>2025-11-04T15:05:34Z</time></trkpt>
<trkpt lat="46.23284" lon="7.28029"><ele>695.8</ele><time>2025-11-04T15:05:35Z</time></trkpt>
<trkpt lat="46.23282" lon="7.28025"><ele>695</ele><time>2025-11-04T15:05:36Z</time></trkpt>
<trkpt lat="46.23283" lon="7.28019"><ele>693.6</ele><time>2025-11-04T15:05:38Z</time></trkpt>
<trkpt lat="46.23286" lon="7.28016"><ele>693</ele><time>2025-11-04T15:05:39Z</time></trkpt>
<trkpt lat="46.2329" lon="7.28014"><ele>692.2</ele><time>2025-11-04T15:05:40Z</time></trkpt>
<trkpt lat="46.23299" lon="7.2801"><ele>690.6</ele><time>2025-11-04T15:05:42Z</time></trkpt>
<trkpt lat="46.23304" lon="7.28006"><ele>689.8</ele><time>2025-11-04T15:05:43Z</time></trkpt>
<trkpt lat="46.23307" lon="7.28001"><ele>689.2</ele><time>2025-11-04T15:05:44Z</time></trkpt>
<trkpt lat="46.23306" lon="7.27991"><ele>687.8</ele><time>2025-11-04T15:05:46Z</time></trkpt>
<trkpt lat="46.233" lon="7.27985"><ele>686.8</ele><time>2025-11-04T15:05:48Z</time></trkpt>
<trkpt lat="46.23295" lon="7.27982"><ele>686.4</ele><time>2025-11-04T15:05:49Z</time></trkpt>
<trkpt lat="46.23276" lon="7.27969"><ele>685</ele><time>2025-11-04T15:05:52Z</time></trkpt>
<trkpt lat="46.23269" lon="7.27965"><ele>684.2</ele><time>2025-11-04T15:05:53Z</time></trkpt>
<trkpt lat="46.23261" lon="7.27961"><ele>683.4</ele><time>2025-11-04T15:05:54Z</time></trkpt>
<trkpt lat="46.23244" lon="7.27954"><ele>681.6</ele><time>2025-11-04T15:05:56Z</time></trkpt>
<trkpt lat="46.2323" lon="7.27949"><ele>680</ele><time>2025-11-04T15:05:58Z</time></trkpt>
<trkpt lat="46.23217" lon="7.27942"><ele>678.8</ele><time>2025-11-04T15:06:00Z</time></trkpt>
<trkpt lat="46.23211" lon="7.27938"><ele>678</ele><time>2025-11-04T15:06:01Z</time></trkpt>
<trkpt lat="46.23205" lon="7.27933"><ele>677.6</ele><time>2025-11-04T15:06:02Z</time></trkpt>
<trkpt lat="46.232" lon="7.27927"><ele>677</ele><time>2025-11-04T15:06:03Z</time></trkpt>
<trkpt lat="46.23195" lon="7.2792"><ele>676</ele><time>2025-11-04T15:06:04Z</time></trkpt>
<trkpt lat="46.2319" lon="7.27913"><ele>675</ele><time>2025-11-04T15:06:05Z</time></trkpt>
<trkpt lat="46.23185" lon="7.27906"><ele>674</ele><time>2025-11-04T15:06:06Z</time></trkpt>
<trkpt lat="46.2318" lon="7.27899"><ele>673</ele><time>2025-11-04T15:06:07Z</time></trkpt>
<trkpt lat="46.23176" lon="7.27892"><ele>671.8</ele><time>2025-11-04T15:06:08Z</time></trkpt>
<trkpt lat="46.23173" lon="7.27885"><ele>670.6</ele><time>2025-11-04T15:06:09Z</time></trkpt>
<trkpt lat="46.23172" lon="7.27877"><ele>669.6</ele><time>2025-11-04T15:06:10Z</time></trkpt>
<trkpt lat="46.23171" lon="7.27869"><ele>668.6</ele><time>2025-11-04T15:06:11Z</time></trkpt>
<trkpt lat="46.2317" lon="7.27862"><ele>667.4</ele><time>2025-11-04T15:06:12Z</time></trkpt>
<trkpt lat="46.2317" lon="7.27845"><ele>665.6</ele><time>2025-11-04T15:06:14Z</time></trkpt>
<trkpt lat="46.23172" lon="7.27836"><ele>664.4</ele><time>2025-11-04T15:06:15Z</time></trkpt>
<trkpt lat="46.23173" lon="7.27827"><ele>663.4</ele><time>2025-11-04T15:06:16Z</time></trkpt>
<trkpt lat="46.23174" lon="7.2782"><ele>662.2</ele><time>2025-11-04T15:06:17Z</time></trkpt>
<trkpt lat="46.23176" lon="7.27814"><ele>660.8</ele><time>2025-11-04T15:06:18Z</time></trkpt>
<trkpt lat="46.23177" lon="7.27807"><ele>659.6</ele><time>2025-11-04T15:06:19Z</time></trkpt>
<trkpt lat="46.23174" lon="7.27802"><ele>658.4</ele><time>2025-11-04T15:06:20Z</time></trkpt>
<trkpt lat="46.23165" lon="7.27802"><ele>656.6</ele><time>2025-11-04T15:06:22Z</time></trkpt>
<trkpt lat="46.23154" lon="7.27807"><ele>655.4</ele><time>2025-11-04T15:06:24Z</time></trkpt>
<trkpt lat="46.23143" lon="7.27812"><ele>654.4</ele><time>2025-11-04T15:06:26Z</time></trkpt>
<trkpt lat="46.23137" lon="7.27813"><ele>653.8</ele><time>2025-11-04T15:06:27Z</time></trkpt>
<trkpt lat="46.23131" lon="7.27811"><ele>653.2</ele><time>2025-11-04T15:06:28Z</time></trkpt>
<trkpt lat="46.23115" lon="7.27801"><ele>652.4</ele><time>2025-11-04T15:06:31Z</time></trkpt>
<trkpt lat="46.2311" lon="7.27797"><ele>652.2</ele><time>2025-11-04T15:06:32Z</time></trkpt>
<trkpt lat="46.23105" lon="7.27793"><ele>652.2</ele><time>2025-11-04T15:06:33Z</time></trkpt>
<trkpt lat="46.231" lon="7.27789"><ele>652</ele><time>2025-11-04T15:06:34Z</time></trkpt>
<trkpt lat="46.23096" lon="7.27783"><ele>651.8</ele><time>2025-11-04T15:06:35Z</time></trkpt>
<trkpt lat="46.23093" lon="7.27777"><ele>651.8</ele><time>2025-11-04T15:06:36Z</time></trkpt>
<trkpt lat="46.2309" lon="7.27772"><ele>651.8</ele><time>2025-11-04T15:06:37Z</time></trkpt>
<trkpt lat="46.23084" lon="7.27759"><ele>651.8</ele><time>2025-11-04T15:06:39Z</time></trkpt>
<trkpt lat="46.23074" lon="7.2774"><ele>651.4</ele><time>2025-11-04T15:06:42Z</time></trkpt>
<trkpt lat="46.23069" lon="7.27734"><ele>651.2</ele><time>2025-11-04T15:06:43Z</time></trkpt>
<trkpt lat="46.23065" lon="7.27728"><ele>651</ele><time>2025-11-04T15:06:44Z</time></trkpt>
<trkpt lat="46.23053" lon="7.27709"><ele>650</ele><time>2025-11-04T15:06:47Z</time></trkpt>
<trkpt lat="46.23038" lon="7.2769"><ele>648.4</ele><time>2025-11-04T15:06:50Z</time></trkpt>
<trkpt lat="46.23033" lon="7.27684"><ele>647.6</ele><time>2025-11-04T15:06:51Z</time></trkpt>
<trkpt lat="46.23027" lon="7.27677"><ele>646.8</ele><time>2025-11-04T15:06:52Z</time></trkpt>
<trkpt lat="46.23017" lon="7.27664"><ele>645.4</ele><time>2025-11-04T15:06:54Z</time></trkpt>
<trkpt lat="46.23006" lon="7.27651"><ele>644</ele><time>2025-11-04T15:06:56Z</time></trkpt>
<trkpt lat="46.22994" lon="7.2764"><ele>642.4</ele><time>2025-11-04T15:06:58Z</time></trkpt>
<trkpt lat="46.22988" lon="7.27634"><ele>641.2</ele><time>2025-11-04T15:06:59Z</time></trkpt>
<trkpt lat="46.22982" lon="7.27628"><ele>640</ele><time>2025-11-04T15:07:00Z</time></trkpt>
<trkpt lat="46.22976" lon="7.27622"><ele>638.8</ele><time>2025-11-04T15:07:01Z</time></trkpt>
<trkpt lat="46.22971" lon="7.27617"><ele>637.6</ele><time>2025-11-04T15:07:02Z</time></trkpt>
<trkpt lat="46.22966" lon="7.27611"><ele>636.4</ele><time>2025-11-04T15:07:03Z</time></trkpt>
<trkpt lat="46.22962" lon="7.27606"><ele>635.2</ele><time>2025-11-04T15:07:04Z</time></trkpt>
<trkpt lat="46.22958" lon="7.27602"><ele>634.2</ele><time>2025-11-04T15:07:05Z</time></trkpt>
<trkpt lat="46.22949" lon="7.27593"><ele>632.4</ele><time>2025-11-04T15:07:07Z</time></trkpt>
<trkpt lat="46.2294" lon="7.27583"><ele>630.8</ele><time>2025-11-04T15:07:09Z</time></trkpt>
<trkpt lat="46.22935" lon="7.27578"><ele>630.2</ele><time>2025-11-04T15:07:10Z</time></trkpt>
<trkpt lat="46.22931" lon="7.27571"><ele>629.6</ele><time>2025-11-04T15:07:11Z</time></trkpt>
<trkpt lat="46.22924" lon="7.27558"><ele>628.6</ele><time>2025-11-04T15:07:13Z</time></trkpt>
<trkpt lat="46.22921" lon="7.27551"><ele>628.4</ele><time>2025-11-04T15:07:14Z</time></trkpt>
<trkpt lat="46.22917" lon="7.27545"><ele>628</ele><time>2025-11-04T15:07:15Z</time></trkpt>
<trkpt lat="46.22905" lon="7.27527"><ele>627.4</ele><time>2025-11-04T15:07:18Z</time></trkpt>
<trkpt lat="46.22901" lon="7.27523"><ele>627</ele><time>2025-11-04T15:07:19Z</time></trkpt>
<trkpt lat="46.22896" lon="7.2752"><ele>626.6</ele><time>2025-11-04T15:07:20Z</time></trkpt>
<trkpt lat="46.22885" lon="7.27513"><ele>625.4</ele><time>2025-11-04T15:07:22Z</time></trkpt>
<trkpt lat="46.22874" lon="7.27503"><ele>623.8</ele><time>2025-11-04T15:07:24Z</time></trkpt>
<trkpt lat="46.22869" lon="7.27498"><ele>623</ele><time>2025-11-04T15:07:25Z</time></trkpt>
<trkpt lat="46.22862" lon="7.27493"><ele>622.2</ele><time>2025-11-04T15:07:26Z</time></trkpt>
<trkpt lat="46.2285" lon="7.27485"><ele>620.2</ele><time>2025-11-04T15:07:28Z</time></trkpt>
<trkpt lat="46.22836" lon="7.27476"><ele>618.2</ele><time>2025-11-04T15:07:30Z</time></trkpt>
<trkpt lat="46.2283" lon="7.27473"><ele>617</ele><time>2025-11-04T15:07:31Z</time></trkpt>
<trkpt lat="46.22817" lon="7.27464"><ele>615.2</ele><time>2025-11-04T15:07:33Z</time></trkpt>
<trkpt lat="46.22811" lon="7.27458"><ele>614.4</ele><time>2025-11-04T15:07:34Z</time></trkpt>
<trkpt lat="46.22804" lon="7.27451"><ele>613.4</ele><time>2025-11-04T15:07:35Z</time></trkpt>
<trkpt lat="46.22798" lon="7.27445"><ele>612.4</ele><time>2025-11-04T15:07:36Z</time></trkpt>
<trkpt lat="46.22792" lon="7.2744"><ele>611.4</ele><time>2025-11-04T15:07:37Z</time></trkpt>
<trkpt lat="46.22785" lon="7.27434"><ele>610.2</ele><time>2025-11-04T15:07:38Z</time></trkpt>
<trkpt lat="46.22778" lon="7.27428"><ele>609</ele><time>2025-11-04T15:07:39Z</time></trkpt>
<trkpt lat="46.22771" lon="7.27421"><ele>607.6</ele><time>2025-11-04T15:07:40Z</time></trkpt>
<trkpt lat="46.22764" lon="7.27415"><ele>606.2</ele><time>2025-11-04T15:07:41Z</time></trkpt>
<trkpt lat="46.22757" lon="7.2741"><ele>605</ele><time>2025-11-04T15:07:42Z</time></trkpt>
<trkpt lat="46.22751" lon="7.27405"><ele>603.8</ele><time>2025-11-04T15:07:43Z</time></trkpt>
<trkpt lat="46.22745" lon="7.27399"><ele>602.6</ele><time>2025-11-04T15:07:44Z</time></trkpt>
<trkpt lat="46.22739" lon="7.27394"><ele>601.6</ele><time>2025-11-04T15:07:45Z</time></trkpt>
<trkpt lat="46.22733" lon="7.27389"><ele>600.4</ele><time>2025-11-04T15:07:46Z</time></trkpt>
<trkpt lat="46.22722" lon="7.2738"><ele>598.4</ele><time>2025-11-04T15:07:48Z</time></trkpt>
<trkpt lat="46.22717" lon="7.27376"><ele>597.4</ele><time>2025-11-04T15:07:49Z</time></trkpt>
<trkpt lat="46.22706" lon="7.27368"><ele>595.2</ele><time>2025-11-04T15:07:51Z</time></trkpt>
<trkpt lat="46.227" lon="7.27363"><ele>593.8</ele><time>2025-11-04T15:07:52Z</time></trkpt>
<trkpt lat="46.22694" lon="7.2736"><ele>592.6</ele><time>2025-11-04T15:07:53Z</time></trkpt>
<trkpt lat="46.22687" lon="7.27358"><ele>591.4</ele><time>2025-11-04T15:07:54Z</time></trkpt>
<trkpt lat="46.22681" lon="7.27357"><ele>590.2</ele><time>2025-11-04T15:07:55Z</time></trkpt>
<trkpt lat="46.22676" lon="7.27356"><ele>589.2</ele><time>2025-11-04T15:07:56Z</time></trkpt>
<trkpt lat="46.22673" lon="7.27351"><ele>588.2</ele><time>2025-11-04T15:07:57Z</time></trkpt>
<trkpt lat="46.22674" lon="7.27345"><ele>587.2</ele><time>2025-11-04T15:07:58Z</time></trkpt>
<trkpt lat="46.22682" lon="7.2734"><ele>585.4</ele><time>2025-11-04T15:08:00Z</time></trkpt>
<trkpt lat="46.22694" lon="7.27339"><ele>583.8</ele><time>2025-11-04T15:08:02Z</time></trkpt>
<trkpt lat="46.22703" lon="7.27328"><ele>582.6</ele><time>2025-11-04T15:08:04Z</time></trkpt>
<trkpt lat="46.22703" lon="7.27313"><ele>581.2</ele><time>2025-11-04T15:08:06Z</time></trkpt>
<trkpt lat="46.22699" lon="7.27305"><ele>580.4</ele><time>2025-11-04T15:08:07Z</time></trkpt>
<trkpt lat="46.22695" lon="7.27298"><ele>579.8</ele><time>2025-11-04T15:08:08Z</time></trkpt>
<trkpt lat="46.22686" lon="7.27285"><ele>578.6</ele><time>2025-11-04T15:08:10Z</time></trkpt>
<trkpt lat="46.22682" lon="7.27279"><ele>577.8</ele><time>2025-11-04T15:08:11Z</time></trkpt>
<trkpt lat="46.22677" lon="7.27273"><ele>576.8</ele><time>2025-11-04T15:08:12Z</time></trkpt>
<trkpt lat="46.22668" lon="7.27262"><ele>575</ele><time>2025-11-04T15:08:14Z</time></trkpt>
<trkpt lat="46.22657" lon="7.27249"><ele>573.2</ele><time>2025-11-04T15:08:16Z</time></trkpt>
<trkpt lat="46.22647" lon="7.27232"><ele>571.4</ele><time>2025-11-04T15:08:18Z</time></trkpt>
<trkpt lat="46.22636" lon="7.27214"><ele>569.4</ele><time>2025-11-04T15:08:20Z</time></trkpt>
<trkpt lat="46.2263" lon="7.27205"><ele>568.4</ele><time>2025-11-04T15:08:21Z</time></trkpt>
<trkpt lat="46.22623" lon="7.27196"><ele>567.4</ele><time>2025-11-04T15:08:22Z</time></trkpt>
<trkpt lat="46.22616" lon="7.27188"><ele>566.4</ele><time>2025-11-04T15:08:23Z</time></trkpt>
<trkpt lat="46.22609" lon="7.27181"><ele>565.2</ele><time>2025-11-04T15:08:24Z</time></trkpt>
<trkpt lat="46.22602" lon="7.27174"><ele>564.2</ele><time>2025-11-04T15:08:25Z</time></trkpt>
<trkpt lat="46.22596" lon="7.27169"><ele>563</ele><time>2025-11-04T15:08:26Z</time></trkpt>
<trkpt lat="46.22591" lon="7.27165"><ele>562</ele><time>2025-11-04T15:08:27Z</time></trkpt>
<trkpt lat="46.22585" lon="7.27164"><ele>561</ele><time>2025-11-04T15:08:28Z</time></trkpt>
<trkpt lat="46.22581" lon="7.27167"><ele>560.2</ele><time>2025-11-04T15:08:29Z</time></trkpt>
<trkpt lat="46.22578" lon="7.27172"><ele>559.6</ele><time>2025-11-04T15:08:30Z</time></trkpt>
<trkpt lat="46.22576" lon="7.27179"><ele>559</ele><time>2025-11-04T15:08:31Z</time></trkpt>
<trkpt lat="46.22576" lon="7.27193"><ele>558.8</ele><time>2025-11-04T15:08:33Z</time></trkpt>
<trkpt lat="46.22576" lon="7.27201"><ele>558.6</ele><time>2025-11-04T15:08:34Z</time></trkpt>
<trkpt lat="46.22576" lon="7.27241"><ele>558</ele><time>2025-11-04T15:08:40Z</time></trkpt>
<trkpt lat="46.22576" lon="7.27274"><ele>557.4</ele><time>2025-11-04T15:08:44Z</time></trkpt>
<trkpt lat="46.22575" lon="7.27292"><ele>556.8</ele><time>2025-11-04T15:08:46Z</time></trkpt>
<trkpt lat="46.22574" lon="7.273"><ele>556.2</ele><time>2025-11-04T15:08:47Z</time></trkpt>
<trkpt lat="46.22574" lon="7.27318"><ele>555.4</ele><time>2025-11-04T15:08:49Z</time></trkpt>
<trkpt lat="46.22575" lon="7.27326"><ele>554.8</ele><time>2025-11-04T15:08:50Z</time></trkpt>
<trkpt lat="46.22579" lon="7.27333"><ele>554.6</ele><time>2025-11-04T15:08:51Z</time></trkpt>
<trkpt lat="46.22586" lon="7.27348"><ele>554</ele><time>2025-11-04T15:08:53Z</time></trkpt>
<trkpt lat="46.22589" lon="7.27357"><ele>553.4</ele><time>2025-11-04T15:08:54Z</time></trkpt>
<trkpt lat="46.22592" lon="7.27367"><ele>553</ele><time>2025-11-04T15:08:55Z</time></trkpt>
<trkpt lat="46.22594" lon="7.27379"><ele>552.2</ele><time>2025-11-04T15:08:56Z</time></trkpt>
<trkpt lat="46.22595" lon="7.27391"><ele>551.2</ele><time>2025-11-04T15:08:57Z</time></trkpt>
<trkpt lat="46.22595" lon="7.27403"><ele>550.4</ele><time>2025-11-04T15:08:58Z</time></trkpt>
<trkpt lat="46.22595" lon="7.27414"><ele>549.6</ele><time>2025-11-04T15:08:59Z</time></trkpt>
<trkpt lat="46.22597" lon="7.27423"><ele>548.8</ele><time>2025-11-04T15:09:00Z</time></trkpt>
<trkpt lat="46.22605" lon="7.27438"><ele>547.8</ele><time>2025-11-04T15:09:02Z</time></trkpt>
<trkpt lat="46.22615" lon="7.27451"><ele>547</ele><time>2025-11-04T15:09:04Z</time></trkpt>
<trkpt lat="46.22623" lon="7.27466"><ele>546.8</ele><time>2025-11-04T15:09:06Z</time></trkpt>
<trkpt lat="46.22634" lon="7.27487"><ele>547.2</ele><time>2025-11-04T15:09:09Z</time></trkpt>
<trkpt lat="46.22642" lon="7.27497"><ele>547.6</ele><time>2025-11-04T15:09:11Z</time></trkpt>
<trkpt lat="46.22659" lon="7.27522"><ele>547.8</ele><time>2025-11-04T15:09:16Z</time></trkpt>
<trkpt lat="46.22661" lon="7.27528"><ele>548</ele><time>2025-11-04T15:09:17Z</time></trkpt>
<trkpt lat="46.22663" lon="7.27533"><ele>548.2</ele><time>2025-11-04T15:09:18Z</time></trkpt>
<trkpt lat="46.22665" lon="7.27551"><ele>548.8</ele><time>2025-11-04T15:09:22Z</time></trkpt>
<trkpt lat="46.22665" lon="7.27554"><ele>549</ele><time>2025-11-04T15:09:23Z</time></trkpt>
<trkpt lat="46.22668" lon="7.27568"><ele>549.8</ele><time>2025-11-04T15:09:29Z</time></trkpt>
<trkpt lat="46.22672" lon="7.2758"><ele>550.4</ele><time>2025-11-04T15:09:35Z</time></trkpt>
<trkpt lat="46.22677" lon="7.27588"><ele>551</ele><time>2025-11-04T15:09:39Z</time></trkpt>
<trkpt lat="46.22679" lon="7.2759"><ele>551</ele><time>2025-11-04T15:09:40Z</time></trkpt>
<trkpt lat="46.22686" lon="7.276"><ele>551.8</ele><time>2025-11-04T15:09:46Z</time></trkpt>
<trkpt lat="46.22688" lon="7.27603"><ele>552</ele><time>2025-11-04T15:09:48Z</time></trkpt>
<trkpt lat="46.22694" lon="7.27613"><ele>552.6</ele><time>2025-11-04T15:09:53Z</time></trkpt>
<trkpt lat="46.22696" lon="7.27618"><ele>553</ele><time>2025-11-04T15:09:56Z</time></trkpt>
<trkpt lat="46.22697" lon="7.27619"><ele>553.2</ele><time>2025-11-04T15:09:57Z</time></trkpt>
<trkpt lat="46.22703" lon="7.27627"><ele>553.6</ele><time>2025-11-04T15:10:03Z</time></trkpt>
<trkpt lat="46.2271" lon="7.27637"><ele>554.2</ele><time>2025-11-04T15:10:08Z</time></trkpt>
<trkpt lat="46.22712" lon="7.27641"><ele>554.4</ele><time>2025-11-04T15:10:10Z</time></trkpt>
<trkpt lat="46.22721" lon="7.27652"><ele>554.8</ele><time>2025-11-04T15:10:16Z</time></trkpt>
<trkpt lat="46.22729" lon="7.27665"><ele>555</ele><time>2025-11-04T15:10:22Z</time></trkpt>
<trkpt lat="46.22733" lon="7.27672"><ele>555</ele><time>2025-11-04T15:10:25Z</time></trkpt>
<trkpt lat="46.22742" lon="7.27687"><ele>554.8</ele><time>2025-11-04T15:10:31Z</time></trkpt>
<trkpt lat="46.2275" lon="7.27699"><ele>554.6</ele><time>2025-11-04T15:10:36Z</time></trkpt>
<trkpt lat="46.22754" lon="7.27703"><ele>554.6</ele><time>2025-11-04T15:10:38Z</time></trkpt>
<trkpt lat="46.22756" lon="7.27705"><ele>554.4</ele><time>2025-11-04T15:10:39Z</time></trkpt>
<trkpt lat="46.22768" lon="7.27731"><ele>554</ele><time>2025-11-04T15:10:46Z</time></trkpt>
<trkpt lat="46.22772" lon="7.27762"><ele>553.4</ele><time>2025-11-04T15:10:51Z</time></trkpt>
<trkpt lat="46.22774" lon="7.27775"><ele>553</ele><time>2025-11-04T15:10:53Z</time></trkpt>
<trkpt lat="46.2278" lon="7.27794"><ele>551.4</ele><time>2025-11-04T15:10:56Z</time></trkpt>
<trkpt lat="46.22783" lon="7.27801"><ele>550.8</ele><time>2025-11-04T15:10:57Z</time></trkpt>
<trkpt lat="46.22787" lon="7.27807"><ele>550</ele><time>2025-11-04T15:10:58Z</time></trkpt>
<trkpt lat="46.22795" lon="7.27821"><ele>548.2</ele><time>2025-11-04T15:11:00Z</time></trkpt>
<trkpt lat="46.22799" lon="7.27829"><ele>547.2</ele><time>2025-11-04T15:11:01Z</time></trkpt>
<trkpt lat="46.22802" lon="7.27838"><ele>546</ele><time>2025-11-04T15:11:02Z</time></trkpt>
<trkpt lat="46.22803" lon="7.27848"><ele>545</ele><time>2025-11-04T15:11:03Z</time></trkpt>
<trkpt lat="46.22802" lon="7.27858"><ele>543.8</ele><time>2025-11-04T15:11:04Z</time></trkpt>
<trkpt lat="46.228" lon="7.27868"><ele>542.8</ele><time>2025-11-04T15:11:05Z</time></trkpt>
<trkpt lat="46.22797" lon="7.27877"><ele>541.6</ele><time>2025-11-04T15:11:06Z</time></trkpt>
<trkpt lat="46.22794" lon="7.27885"><ele>540.4</ele><time>2025-11-04T15:11:07Z</time></trkpt>
<trkpt lat="46.22791" lon="7.27894"><ele>539.2</ele><time>2025-11-04T15:11:08Z</time></trkpt>
<trkpt lat="46.22787" lon="7.27903"><ele>537.8</ele><time>2025-11-04T15:11:09Z</time></trkpt>
<trkpt lat="46.22784" lon="7.27912"><ele>536.6</ele><time>2025-11-04T15:11:10Z</time></trkpt>
<trkpt lat="46.2278" lon="7.27921"><ele>535.2</ele><time>2025-11-04T15:11:11Z</time></trkpt>
<trkpt lat="46.22777" lon="7.27929"><ele>533.8</ele><time>2025-11-04T15:11:12Z</time></trkpt>
<trkpt lat="46.22773" lon="7.27938"><ele>532.6</ele><time>2025-11-04T15:11:13Z</time></trkpt>
<trkpt lat="46.2277" lon="7.27946"><ele>531.4</ele><time>2025-11-04T15:11:14Z</time></trkpt>
<trkpt lat="46.22767" lon="7.27953"><ele>530.4</ele><time>2025-11-04T15:11:15Z</time></trkpt>
<trkpt lat="46.22764" lon="7.27959"><ele>529.2</ele><time>2025-11-04T15:11:16Z</time></trkpt>
<trkpt lat="46.22762" lon="7.27965"><ele>528.4</ele><time>2025-11-04T15:11:17Z</time></trkpt>
<trkpt lat="46.22762" lon="7.27972"><ele>527.6</ele><time>2025-11-04T15:11:18Z</time></trkpt>
<trkpt lat="46.22764" lon="7.27979"><ele>526.8</ele><time>2025-11-04T15:11:19Z</time></trkpt>
<trkpt lat="46.22766" lon="7.27985"><ele>526</ele><time>2025-11-04T15:11:20Z</time></trkpt>
<trkpt lat="46.2277" lon="7.28"><ele>524.6</ele><time>2025-11-04T15:11:22Z</time></trkpt>
<trkpt lat="46.22773" lon="7.28017"><ele>522.8</ele><time>2025-11-04T15:11:24Z</time></trkpt>
<trkpt lat="46.22774" lon="7.28035"><ele>521.2</ele><time>2025-11-04T15:11:26Z</time></trkpt>
<trkpt lat="46.2277" lon="7.28053"><ele>519.4</ele><time>2025-11-04T15:11:28Z</time></trkpt>
<trkpt lat="46.22766" lon="7.2807"><ele>517.8</ele><time>2025-11-04T15:11:30Z</time></trkpt>
<trkpt lat="46.22762" lon="7.28087"><ele>516.4</ele><time>2025-11-04T15:11:32Z</time></trkpt>
<trkpt lat="46.22758" lon="7.28103"><ele>515.4</ele><time>2025-11-04T15:11:34Z</time></trkpt>
<trkpt lat="46.22753" lon="7.28126"><ele>514.2</ele><time>2025-11-04T15:11:37Z</time></trkpt>
<trkpt lat="46.22748" lon="7.28148"><ele>513</ele><time>2025-11-04T15:11:41Z</time></trkpt>
<trkpt lat="46.22747" lon="7.28153"><ele>512.8</ele><time>2025-11-04T15:11:42Z</time></trkpt>
<trkpt lat="46.22743" lon="7.28161"><ele>512</ele><time>2025-11-04T15:11:46Z</time></trkpt>
<trkpt lat="46.22742" lon="7.28164"><ele>511.8</ele><time>2025-11-04T15:11:47Z</time></trkpt>
<trkpt lat="46.22742" lon="7.28166"><ele>511.6</ele><time>2025-11-04T15:11:48Z</time></trkpt>
<trkpt lat="46.22741" lon="7.28183"><ele>511</ele><time>2025-11-04T15:11:52Z</time></trkpt>
<trkpt lat="46.2274" lon="7.28186"><ele>510.8</ele><time>2025-11-04T15:11:53Z</time></trkpt>
<trkpt lat="46.22737" lon="7.28197"><ele>510.4</ele><time>2025-11-04T15:11:56Z</time></trkpt>
<trkpt lat="46.22731" lon="7.28192"><ele>510.2</ele><time>2025-11-04T15:11:58Z</time></trkpt>
<trkpt lat="46.22724" lon="7.28189"><ele>509.6</ele><time>2025-11-04T15:12:00Z</time></trkpt>
<trkpt lat="46.2272" lon="7.2819"><ele>509</ele><time>2025-11-04T15:12:01Z</time></trkpt>
<trkpt lat="46.2271" lon="7.28193"><ele>508.2</ele><time>2025-11-04T15:12:03Z</time></trkpt>
<trkpt lat="46.227" lon="7.28199"><ele>507</ele><time>2025-11-04T15:12:05Z</time></trkpt>
<trkpt lat="46.22696" lon="7.28201"><ele>506.6</ele><time>2025-11-04T15:12:06Z</time></trkpt>
<trkpt lat="46.22693" lon="7.28203"><ele>506</ele><time>2025-11-04T15:12:07Z</time></trkpt>
<trkpt lat="46.22689" lon="7.28204"><ele>505.2</ele><time>2025-11-04T15:12:09Z</time></trkpt>
<trkpt lat="46.22688" lon="7.28204"><ele>505</ele><time>2025-11-04T15:12:10Z</time></trkpt>
<trkpt lat="46.22687" lon="7.28206"><ele>504.8</ele><time>2025-11-04T15:12:11Z</time></trkpt>
<trkpt lat="46.22685" lon="7.28211"><ele>504.6</ele><time>2025-11-04T15:12:13Z</time></trkpt>
<trkpt lat="46.22685" lon="7.28227"><ele>504.2</ele><time>2025-11-04T15:12:17Z</time></trkpt>
<trkpt lat="46.22685" lon="7.28243"><ele>503.8</ele><time>2025-11-04T15:12:20Z</time></trkpt>
<trkpt lat="46.22687" lon="7.28265"><ele>503.4</ele><time>2025-11-04T15:12:24Z</time></trkpt>
<trkpt lat="46.22692" lon="7.28296"><ele>502.8</ele><time>2025-11-04T15:12:29Z</time></trkpt>
<trkpt lat="46.22693" lon="7.28303"><ele>502.4</ele><time>2025-11-04T15:12:30Z</time></trkpt>
<trkpt lat="46.22698" lon="7.28327"><ele>501.4</ele><time>2025-11-04T15:12:33Z</time></trkpt>
<trkpt lat="46.22701" lon="7.28345"><ele>501</ele><time>2025-11-04T15:12:35Z</time></trkpt>
<trkpt lat="46.22707" lon="7.28361"><ele>500.4</ele><time>2025-11-04T15:12:37Z</time></trkpt>
<trkpt lat="46.22712" lon="7.28376"><ele>500.2</ele><time>2025-11-04T15:12:39Z</time></trkpt>
<trkpt lat="46.22713" lon="7.28384"><ele>500.4</ele><time>2025-11-04T15:12:40Z</time></trkpt>
<trkpt lat="46.22719" lon="7.28413"><ele>501</ele><time>2025-11-04T15:12:44Z</time></trkpt>
<trkpt lat="46.22721" lon="7.28435"><ele>501.6</ele><time>2025-11-04T15:12:48Z</time></trkpt>
<trkpt lat="46.22721" lon="7.28439"><ele>501.8</ele><time>2025-11-04T15:12:49Z</time></trkpt>
<trkpt lat="46.22724" lon="7.28457"><ele>502.6</ele><time>2025-11-04T15:12:55Z</time></trkpt>
<trkpt lat="46.22726" lon="7.28471"><ele>503.6</ele><time>2025-11-04T15:13:01Z</time></trkpt>
<trkpt lat="46.22726" lon="7.28473"><ele>503.6</ele><time>2025-11-04T15:13:02Z</time></trkpt>
<trkpt lat="46.22729" lon="7.28482"><ele>504.4</ele><time>2025-11-04T15:13:08Z</time></trkpt>
<trkpt lat="46.22729" lon="7.28483"><ele>504.6</ele><time>2025-11-04T15:13:09Z</time></trkpt>
<trkpt lat="46.22722" lon="7.28486"><ele>504.6</ele><time>2025-11-04T15:13:12Z</time></trkpt>
<trkpt lat="46.2271" lon="7.28483"><ele>503.8</ele><time>2025-11-04T15:13:15Z</time></trkpt>
<trkpt lat="46.22706" lon="7.28481"><ele>503.4</ele><time>2025-11-04T15:13:16Z</time></trkpt>
<trkpt lat="46.22689" lon="7.28475"><ele>502.2</ele><time>2025-11-04T15:13:19Z</time></trkpt>
<trkpt lat="46.22676" lon="7.2847"><ele>501.4</ele><time>2025-11-04T15:13:21Z</time></trkpt>
<trkpt lat="46.22669" lon="7.28468"><ele>501</ele><time>2025-11-04T15:13:22Z</time></trkpt>
<trkpt lat="46.22656" lon="7.28464"><ele>500</ele><time>2025-11-04T15:13:24Z</time></trkpt>
<trkpt lat="46.22643" lon="7.28461"><ele>499</ele><time>2025-11-04T15:13:26Z</time></trkpt>
<trkpt lat="46.22631" lon="7.28462"><ele>497.8</ele><time>2025-11-04T15:13:28Z</time></trkpt>
<trkpt lat="46.22613" lon="7.28463"><ele>496.6</ele><time>2025-11-04T15:13:31Z</time></trkpt>
<trkpt lat="46.22603" lon="7.28464"><ele>495.8</ele><time>2025-11-04T15:13:33Z</time></trkpt>
<trkpt lat="46.22599" lon="7.28464"><ele>495.4</ele><time>2025-11-04T15:13:34Z</time></trkpt>
<trkpt lat="46.22588" lon="7.28465"><ele>494.8</ele><time>2025-11-04T15:13:38Z</time></trkpt>
<trkpt lat="46.22582" lon="7.28464"><ele>494.4</ele><time>2025-11-04T15:13:43Z</time></trkpt>
<trkpt lat="46.22581" lon="7.28464"><ele>494.4</ele><time>2025-11-04T15:13:44Z</time></trkpt>
<trkpt lat="46.22578" lon="7.28464"><ele>493.8</ele><time>2025-11-04T15:13:50Z</time></trkpt>
<trkpt lat="46.22577" lon="7.28466"><ele>493.8</ele><time>2025-11-04T15:13:51Z</time></trkpt>
<trkpt lat="46.2258" lon="7.28468"><ele>493.8</ele><time>2025-11-04T15:13:54Z</time></trkpt>
<trkpt lat="46.22581" lon="7.28469"><ele>494</ele><time>2025-11-04T15:13:55Z</time></trkpt>
<trkpt lat="46.22587" lon="7.28468"><ele>494.4</ele><time>2025-11-04T15:14:01Z</time></trkpt>
<trkpt lat="46.22592" lon="7.28468"><ele>494.6</ele><time>2025-11-04T15:14:05Z</time></trkpt>
<trkpt lat="46.22598" lon="7.28466"><ele>494.6</ele><time>2025-11-04T15:14:09Z</time></trkpt>
<trkpt lat="46.22602" lon="7.28466"><ele>494.6</ele><time>2025-11-04T15:14:11Z</time></trkpt>
<trkpt lat="46.22606" lon="7.28467"><ele>494.8</ele><time>2025-11-04T15:14:15Z</time></trkpt>
<trkpt lat="46.2261" lon="7.28469"><ele>495</ele><time>2025-11-04T15:14:18Z</time></trkpt>
<trkpt lat="46.22612" lon="7.28471"><ele>495.2</ele><time>2025-11-04T15:14:20Z</time></trkpt>
<trkpt lat="46.22616" lon="7.28473"><ele>495.4</ele><time>2025-11-04T15:14:24Z</time></trkpt>
<trkpt lat="46.22616" lon="7.2847"><ele>495.4</ele><time>2025-11-04T15:14:26Z</time></trkpt>
<trkpt lat="46.22613" lon="7.28465"><ele>495.4</ele><time>2025-11-04T15:14:29Z</time></trkpt>
<trkpt lat="46.22608" lon="7.28465"><ele>495.2</ele><time>2025-11-04T15:14:31Z</time></trkpt>
<trkpt lat="46.22589" lon="7.28466"><ele>494.6</ele><time>2025-11-04T15:14:38Z</time></trkpt>
<trkpt lat="46.22583" lon="7.28465"><ele>494.4</ele><time>2025-11-04T15:14:41Z</time></trkpt>
<trkpt lat="46.22579" lon="7.28465"><ele>494</ele><time>2025-11-04T15:14:45Z</time></trkpt>
<trkpt lat="46.22578" lon="7.28465"><ele>493.8</ele><time>2025-11-04T15:14:48Z</time></trkpt>
<trkpt lat="46.22578" lon="7.28464"><ele>493.8</ele><time>2025-11-04T15:14:50Z</time></trkpt>
<trkpt lat="46.22575" lon="7.28466"><ele>493.8</ele><time>2025-11-04T15:14:58Z</time></trkpt>
<trkpt lat="46.22566" lon="7.28472"><ele>493.8</ele><time>2025-11-04T15:15:03Z</time></trkpt>
<trkpt lat="46.22556" lon="7.28474"><ele>493.4</ele><time>2025-11-04T15:15:08Z</time></trkpt>
<trkpt lat="46.22552" lon="7.28475"><ele>493.2</ele><time>2025-11-04T15:15:09Z</time></trkpt>
<trkpt lat="46.22532" lon="7.28483"><ele>492.2</ele><time>2025-11-04T15:15:14Z</time></trkpt>
<trkpt lat="46.22501" lon="7.28491"><ele>491</ele><time>2025-11-04T15:15:20Z</time></trkpt>
<trkpt lat="46.22496" lon="7.28493"><ele>490.8</ele><time>2025-11-04T15:15:21Z</time></trkpt>
<trkpt lat="46.22486" lon="7.28497"><ele>490.2</ele><time>2025-11-04T15:15:25Z</time></trkpt>
<trkpt lat="46.22484" lon="7.28495"><ele>490</ele><time>2025-11-04T15:15:27Z</time></trkpt>
<trkpt lat="46.22484" lon="7.2849"><ele>490.2</ele><time>2025-11-04T15:15:29Z</time></trkpt>
<trkpt lat="46.22482" lon="7.28461"><ele>490.2</ele><time>2025-11-04T15:15:34Z</time></trkpt>
<trkpt lat="46.22472" lon="7.28416"><ele>490.4</ele><time>2025-11-04T15:15:41Z</time></trkpt>
<trkpt lat="46.22462" lon="7.28382"><ele>490.6</ele><time>2025-11-04T15:15:48Z</time></trkpt>
<trkpt lat="46.22463" lon="7.28364"><ele>490.6</ele><time>2025-11-04T15:15:52Z</time></trkpt>
<trkpt lat="46.22461" lon="7.28358"><ele>490.4</ele><time>2025-11-04T15:15:53Z</time></trkpt>
<trkpt lat="46.22454" lon="7.2834"><ele>490</ele><time>2025-11-04T15:15:56Z</time></trkpt>
<trkpt lat="46.22451" lon="7.28334"><ele>489.6</ele><time>2025-11-04T15:15:57Z</time></trkpt>
<trkpt lat="46.22441" lon="7.28307"><ele>488.8</ele><time>2025-11-04T15:16:01Z</time></trkpt>
<trkpt lat="46.22431" lon="7.28276"><ele>488</ele><time>2025-11-04T15:16:05Z</time></trkpt>
<trkpt lat="46.22426" lon="7.28263"><ele>487.6</ele><time>2025-11-04T15:16:07Z</time></trkpt>
<trkpt lat="46.22422" lon="7.2826"><ele>487.4</ele><time>2025-11-04T15:16:08Z</time></trkpt>
<trkpt lat="46.22414" lon="7.28265"><ele>487.2</ele><time>2025-11-04T15:16:10Z</time></trkpt>
<trkpt lat="46.2241" lon="7.28267"><ele>487</ele><time>2025-11-04T15:16:11Z</time></trkpt>
<trkpt lat="46.22401" lon="7.28273"><ele>486.6</ele><time>2025-11-04T15:16:13Z</time></trkpt>
<trkpt lat="46.22396" lon="7.28274"><ele>486.4</ele><time>2025-11-04T15:16:14Z</time></trkpt>
<trkpt lat="46.22381" lon="7.28277"><ele>486.2</ele><time>2025-11-04T15:16:17Z</time></trkpt>
<trkpt lat="46.22354" lon="7.28292"><ele>485.8</ele><time>2025-11-04T15:16:23Z</time></trkpt>
<trkpt lat="46.22345" lon="7.28295"><ele>485.8</ele><time>2025-11-04T15:16:25Z</time></trkpt>
<trkpt lat="46.22323" lon="7.28303"><ele>485.8</ele><time>2025-11-04T15:16:31Z</time></trkpt>
<trkpt lat="46.2232" lon="7.28307"><ele>485.8</ele><time>2025-11-04T15:16:35Z</time></trkpt>
<trkpt lat="46.22321" lon="7.28309"><ele>486</ele><time>2025-11-04T15:16:41Z</time></trkpt>
<trkpt lat="46.22321" lon="7.28309"><ele>486</ele><time>2025-11-04T15:16:44Z</time></trkpt>
</trkseg></trk></gpx>